<?xml version="1.0" encoding="UTF-8" standalone="no" ?>
<gpx xmlns="http://www.topografix.com/GPX/1/1" xmlns:xsi="http://www.w3.org/2001/XMLSchema-instance" xsi:schemaLocation="http://www.topografix.com/GPX/1/1 http://www.topografix.com/GPX/1/1/gpx.xsd" version="1.1" creator="VisuGPX - https://www.visugpx.com">
  <metadata>
    <name>La Makoise_Ile Réunion</name>
    <desc><![CDATA[course de montagne dans les environs des Makes]]></desc>
  </metadata>
  <trk>
    <name><![CDATA[la Makoise]]></name>
    <trkseg>
      <trkpt lat="-21.20059" lon="55.40778">
        <ele>951.2</ele>
        <time>2013-06-02T02:47:24Z</time>
      </trkpt>
      <trkpt lat="-21.20052" lon="55.40774">
        <ele>951</ele>
        <time>2013-06-02T02:47:32Z</time>
      </trkpt>
      <trkpt lat="-21.20048" lon="55.40766">
        <ele>950.3</ele>
        <time>2013-06-02T02:47:41Z</time>
      </trkpt>
      <trkpt lat="-21.2005" lon="55.40757">
        <ele>950.8</ele>
        <time>2013-06-02T02:47:50Z</time>
      </trkpt>
      <trkpt lat="-21.20055" lon="55.4075">
        <ele>950.7</ele>
        <time>2013-06-02T02:47:57Z</time>
      </trkpt>
      <trkpt lat="-21.20061" lon="55.40745">
        <ele>950.4</ele>
        <time>2013-06-02T02:48:04Z</time>
      </trkpt>
      <trkpt lat="-21.20067" lon="55.40739">
        <ele>950.5</ele>
        <time>2013-06-02T02:48:08Z</time>
      </trkpt>
      <trkpt lat="-21.20072" lon="55.40734">
        <ele>950.5</ele>
        <time>2013-06-02T02:48:12Z</time>
      </trkpt>
      <trkpt lat="-21.2008" lon="55.4073">
        <ele>950.8</ele>
        <time>2013-06-02T02:48:16Z</time>
      </trkpt>
      <trkpt lat="-21.20082" lon="55.40729">
        <ele>950.7</ele>
        <time>2013-06-02T02:48:17Z</time>
      </trkpt>
      <trkpt lat="-21.20095" lon="55.40725">
        <ele>951</ele>
        <time>2013-06-02T02:48:25Z</time>
      </trkpt>
      <trkpt lat="-21.20103" lon="55.40727">
        <ele>950.3</ele>
        <time>2013-06-02T02:48:29Z</time>
      </trkpt>
      <trkpt lat="-21.2011" lon="55.40731">
        <ele>950.1</ele>
        <time>2013-06-02T02:48:33Z</time>
      </trkpt>
      <trkpt lat="-21.20114" lon="55.40737">
        <ele>951.3</ele>
        <time>2013-06-02T02:48:37Z</time>
      </trkpt>
      <trkpt lat="-21.20118" lon="55.40746">
        <ele>950.9</ele>
        <time>2013-06-02T02:48:42Z</time>
      </trkpt>
      <trkpt lat="-21.20117" lon="55.40754">
        <ele>950.9</ele>
        <time>2013-06-02T02:48:46Z</time>
      </trkpt>
      <trkpt lat="-21.20115" lon="55.40763">
        <ele>951.7</ele>
        <time>2013-06-02T02:48:51Z</time>
      </trkpt>
      <trkpt lat="-21.20109" lon="55.4077">
        <ele>951.8</ele>
        <time>2013-06-02T02:48:56Z</time>
      </trkpt>
      <trkpt lat="-21.20101" lon="55.40774">
        <ele>951.7</ele>
        <time>2013-06-02T02:49:01Z</time>
      </trkpt>
      <trkpt lat="-21.20093" lon="55.40777">
        <ele>951.9</ele>
        <time>2013-06-02T02:49:06Z</time>
      </trkpt>
      <trkpt lat="-21.20085" lon="55.40777">
        <ele>952</ele>
        <time>2013-06-02T02:49:12Z</time>
      </trkpt>
      <trkpt lat="-21.20076" lon="55.40777">
        <ele>951.7</ele>
        <time>2013-06-02T02:49:20Z</time>
      </trkpt>
      <trkpt lat="-21.20075" lon="55.40778">
        <ele>951.6</ele>
        <time>2013-06-02T02:49:21Z</time>
      </trkpt>
      <trkpt lat="-21.20059" lon="55.40775">
        <ele>952.6</ele>
        <time>2013-06-02T02:49:35Z</time>
      </trkpt>
      <trkpt lat="-21.20053" lon="55.40769">
        <ele>952.5</ele>
        <time>2013-06-02T02:49:43Z</time>
      </trkpt>
      <trkpt lat="-21.2005" lon="55.40761">
        <ele>952.5</ele>
        <time>2013-06-02T02:49:49Z</time>
      </trkpt>
      <trkpt lat="-21.20051" lon="55.40752">
        <ele>952</ele>
        <time>2013-06-02T02:49:56Z</time>
      </trkpt>
      <trkpt lat="-21.20055" lon="55.40745">
        <ele>953.4</ele>
        <time>2013-06-02T02:50:01Z</time>
      </trkpt>
      <trkpt lat="-21.20061" lon="55.40738">
        <ele>953.8</ele>
        <time>2013-06-02T02:50:06Z</time>
      </trkpt>
      <trkpt lat="-21.20067" lon="55.40733">
        <ele>953.4</ele>
        <time>2013-06-02T02:50:10Z</time>
      </trkpt>
      <trkpt lat="-21.20074" lon="55.40729">
        <ele>954.2</ele>
        <time>2013-06-02T02:50:15Z</time>
      </trkpt>
      <trkpt lat="-21.20081" lon="55.40725">
        <ele>953.7</ele>
        <time>2013-06-02T02:50:19Z</time>
      </trkpt>
      <trkpt lat="-21.20087" lon="55.40722">
        <ele>953.1</ele>
        <time>2013-06-02T02:50:23Z</time>
      </trkpt>
      <trkpt lat="-21.20089" lon="55.40721">
        <ele>953</ele>
        <time>2013-06-02T02:50:24Z</time>
      </trkpt>
      <trkpt lat="-21.20104" lon="55.40723">
        <ele>952.8</ele>
        <time>2013-06-02T02:50:33Z</time>
      </trkpt>
      <trkpt lat="-21.20113" lon="55.40725">
        <ele>953.3</ele>
        <time>2013-06-02T02:50:38Z</time>
      </trkpt>
      <trkpt lat="-21.20119" lon="55.40732">
        <ele>954.2</ele>
        <time>2013-06-02T02:50:43Z</time>
      </trkpt>
      <trkpt lat="-21.20122" lon="55.40739">
        <ele>953.3</ele>
        <time>2013-06-02T02:50:47Z</time>
      </trkpt>
      <trkpt lat="-21.20124" lon="55.40747">
        <ele>954</ele>
        <time>2013-06-02T02:50:51Z</time>
      </trkpt>
      <trkpt lat="-21.20125" lon="55.40756">
        <ele>953.8</ele>
        <time>2013-06-02T02:50:56Z</time>
      </trkpt>
      <trkpt lat="-21.2012" lon="55.40763">
        <ele>953.7</ele>
        <time>2013-06-02T02:51:01Z</time>
      </trkpt>
      <trkpt lat="-21.20114" lon="55.40768">
        <ele>954.3</ele>
        <time>2013-06-02T02:51:06Z</time>
      </trkpt>
      <trkpt lat="-21.20106" lon="55.40772">
        <ele>954.4</ele>
        <time>2013-06-02T02:51:11Z</time>
      </trkpt>
      <trkpt lat="-21.20099" lon="55.40774">
        <ele>954.5</ele>
        <time>2013-06-02T02:51:15Z</time>
      </trkpt>
      <trkpt lat="-21.20091" lon="55.40776">
        <ele>954.7</ele>
        <time>2013-06-02T02:51:20Z</time>
      </trkpt>
      <trkpt lat="-21.20084" lon="55.40779">
        <ele>954.9</ele>
        <time>2013-06-02T02:51:25Z</time>
      </trkpt>
      <trkpt lat="-21.20082" lon="55.4078">
        <ele>954.7</ele>
        <time>2013-06-02T02:51:26Z</time>
      </trkpt>
      <trkpt lat="-21.2007" lon="55.40783">
        <ele>954.2</ele>
        <time>2013-06-02T02:51:33Z</time>
      </trkpt>
      <trkpt lat="-21.20062" lon="55.40783">
        <ele>954.4</ele>
        <time>2013-06-02T02:51:37Z</time>
      </trkpt>
      <trkpt lat="-21.20054" lon="55.40779">
        <ele>954.7</ele>
        <time>2013-06-02T02:51:42Z</time>
      </trkpt>
      <trkpt lat="-21.20048" lon="55.40772">
        <ele>954.9</ele>
        <time>2013-06-02T02:51:47Z</time>
      </trkpt>
      <trkpt lat="-21.20046" lon="55.40763">
        <ele>955.5</ele>
        <time>2013-06-02T02:51:52Z</time>
      </trkpt>
      <trkpt lat="-21.20047" lon="55.40754">
        <ele>955.5</ele>
        <time>2013-06-02T02:51:56Z</time>
      </trkpt>
      <trkpt lat="-21.20049" lon="55.40745">
        <ele>954.1</ele>
        <time>2013-06-02T02:52:01Z</time>
      </trkpt>
      <trkpt lat="-21.20054" lon="55.40739">
        <ele>955.2</ele>
        <time>2013-06-02T02:52:05Z</time>
      </trkpt>
      <trkpt lat="-21.2006" lon="55.40734">
        <ele>955.2</ele>
        <time>2013-06-02T02:52:10Z</time>
      </trkpt>
      <trkpt lat="-21.20067" lon="55.40731">
        <ele>954.7</ele>
        <time>2013-06-02T02:52:14Z</time>
      </trkpt>
      <trkpt lat="-21.20074" lon="55.40727">
        <ele>954.6</ele>
        <time>2013-06-02T02:52:19Z</time>
      </trkpt>
      <trkpt lat="-21.20082" lon="55.40724">
        <ele>955.2</ele>
        <time>2013-06-02T02:52:24Z</time>
      </trkpt>
      <trkpt lat="-21.20089" lon="55.40721">
        <ele>955.4</ele>
        <time>2013-06-02T02:52:29Z</time>
      </trkpt>
      <trkpt lat="-21.2009" lon="55.40721">
        <ele>955.2</ele>
        <time>2013-06-02T02:52:30Z</time>
      </trkpt>
      <trkpt lat="-21.20105" lon="55.40726">
        <ele>955</ele>
        <time>2013-06-02T02:52:39Z</time>
      </trkpt>
      <trkpt lat="-21.20113" lon="55.40731">
        <ele>955.3</ele>
        <time>2013-06-02T02:52:47Z</time>
      </trkpt>
      <trkpt lat="-21.20116" lon="55.40738">
        <ele>955.8</ele>
        <time>2013-06-02T02:52:52Z</time>
      </trkpt>
      <trkpt lat="-21.20118" lon="55.40746">
        <ele>955.1</ele>
        <time>2013-06-02T02:52:56Z</time>
      </trkpt>
      <trkpt lat="-21.20119" lon="55.40755">
        <ele>955.5</ele>
        <time>2013-06-02T02:53:00Z</time>
      </trkpt>
      <trkpt lat="-21.20117" lon="55.40762">
        <ele>955.3</ele>
        <time>2013-06-02T02:53:04Z</time>
      </trkpt>
      <trkpt lat="-21.20111" lon="55.40769">
        <ele>956</ele>
        <time>2013-06-02T02:53:09Z</time>
      </trkpt>
      <trkpt lat="-21.20103" lon="55.40772">
        <ele>955.6</ele>
        <time>2013-06-02T02:53:14Z</time>
      </trkpt>
      <trkpt lat="-21.20095" lon="55.40775">
        <ele>956</ele>
        <time>2013-06-02T02:53:19Z</time>
      </trkpt>
      <trkpt lat="-21.20087" lon="55.40778">
        <ele>956</ele>
        <time>2013-06-02T02:53:24Z</time>
      </trkpt>
      <trkpt lat="-21.20079" lon="55.4078">
        <ele>955.6</ele>
        <time>2013-06-02T02:53:28Z</time>
      </trkpt>
      <trkpt lat="-21.20071" lon="55.40782">
        <ele>955.9</ele>
        <time>2013-06-02T02:53:32Z</time>
      </trkpt>
      <trkpt lat="-21.2007" lon="55.40783">
        <ele>956.1</ele>
        <time>2013-06-02T02:53:33Z</time>
      </trkpt>
      <trkpt lat="-21.20056" lon="55.4078">
        <ele>955.6</ele>
        <time>2013-06-02T02:53:41Z</time>
      </trkpt>
      <trkpt lat="-21.20051" lon="55.40775">
        <ele>955.2</ele>
        <time>2013-06-02T02:53:45Z</time>
      </trkpt>
      <trkpt lat="-21.20047" lon="55.40768">
        <ele>955.7</ele>
        <time>2013-06-02T02:53:49Z</time>
      </trkpt>
      <trkpt lat="-21.20046" lon="55.40759">
        <ele>955.6</ele>
        <time>2013-06-02T02:53:54Z</time>
      </trkpt>
      <trkpt lat="-21.2005" lon="55.4075">
        <ele>955.9</ele>
        <time>2013-06-02T02:53:59Z</time>
      </trkpt>
      <trkpt lat="-21.20055" lon="55.40742">
        <ele>955.6</ele>
        <time>2013-06-02T02:54:04Z</time>
      </trkpt>
      <trkpt lat="-21.2006" lon="55.40737">
        <ele>956.1</ele>
        <time>2013-06-02T02:54:08Z</time>
      </trkpt>
      <trkpt lat="-21.20068" lon="55.40732">
        <ele>955.5</ele>
        <time>2013-06-02T02:54:13Z</time>
      </trkpt>
      <trkpt lat="-21.20074" lon="55.40728">
        <ele>955.8</ele>
        <time>2013-06-02T02:54:17Z</time>
      </trkpt>
      <trkpt lat="-21.20081" lon="55.40725">
        <ele>956.2</ele>
        <time>2013-06-02T02:54:21Z</time>
      </trkpt>
      <trkpt lat="-21.20088" lon="55.40722">
        <ele>956.2</ele>
        <time>2013-06-02T02:54:25Z</time>
      </trkpt>
      <trkpt lat="-21.20096" lon="55.40723">
        <ele>955.8</ele>
        <time>2013-06-02T02:54:30Z</time>
      </trkpt>
      <trkpt lat="-21.20102" lon="55.40728">
        <ele>956.3</ele>
        <time>2013-06-02T02:54:35Z</time>
      </trkpt>
      <trkpt lat="-21.20103" lon="55.4073">
        <ele>956.6</ele>
        <time>2013-06-02T02:54:36Z</time>
      </trkpt>
      <trkpt lat="-21.20111" lon="55.40742">
        <ele>957</ele>
        <time>2013-06-02T02:54:45Z</time>
      </trkpt>
      <trkpt lat="-21.20116" lon="55.4075">
        <ele>956.5</ele>
        <time>2013-06-02T02:54:50Z</time>
      </trkpt>
      <trkpt lat="-21.20116" lon="55.40759">
        <ele>956.4</ele>
        <time>2013-06-02T02:54:55Z</time>
      </trkpt>
      <trkpt lat="-21.20111" lon="55.40766">
        <ele>956.4</ele>
        <time>2013-06-02T02:54:59Z</time>
      </trkpt>
      <trkpt lat="-21.20105" lon="55.40771">
        <ele>956.1</ele>
        <time>2013-06-02T02:55:03Z</time>
      </trkpt>
      <trkpt lat="-21.20098" lon="55.40774">
        <ele>956.1</ele>
        <time>2013-06-02T02:55:07Z</time>
      </trkpt>
      <trkpt lat="-21.20091" lon="55.40776">
        <ele>955.9</ele>
        <time>2013-06-02T02:55:11Z</time>
      </trkpt>
      <trkpt lat="-21.20083" lon="55.40779">
        <ele>956.8</ele>
        <time>2013-06-02T02:55:15Z</time>
      </trkpt>
      <trkpt lat="-21.20075" lon="55.4078">
        <ele>956.8</ele>
        <time>2013-06-02T02:55:19Z</time>
      </trkpt>
      <trkpt lat="-21.20068" lon="55.4078">
        <ele>956.9</ele>
        <time>2013-06-02T02:55:23Z</time>
      </trkpt>
      <trkpt lat="-21.20059" lon="55.40778">
        <ele>957.1</ele>
        <time>2013-06-02T02:55:28Z</time>
      </trkpt>
      <trkpt lat="-21.20052" lon="55.40774">
        <ele>956.7</ele>
        <time>2013-06-02T02:55:33Z</time>
      </trkpt>
      <trkpt lat="-21.20048" lon="55.40766">
        <ele>957</ele>
        <time>2013-06-02T02:55:38Z</time>
      </trkpt>
      <trkpt lat="-21.20048" lon="55.40764">
        <ele>957.2</ele>
        <time>2013-06-02T02:55:39Z</time>
      </trkpt>
      <trkpt lat="-21.20055" lon="55.4075">
        <ele>957.6</ele>
        <time>2013-06-02T02:55:46Z</time>
      </trkpt>
      <trkpt lat="-21.2006" lon="55.40743">
        <ele>957.4</ele>
        <time>2013-06-02T02:55:50Z</time>
      </trkpt>
      <trkpt lat="-21.20067" lon="55.40737">
        <ele>957.3</ele>
        <time>2013-06-02T02:55:54Z</time>
      </trkpt>
      <trkpt lat="-21.20072" lon="55.40732">
        <ele>956.5</ele>
        <time>2013-06-02T02:55:58Z</time>
      </trkpt>
      <trkpt lat="-21.20081" lon="55.40734">
        <ele>957.5</ele>
        <time>2013-06-02T02:56:41Z</time>
      </trkpt>
      <trkpt lat="-21.20081" lon="55.40735">
        <ele>957.3</ele>
        <time>2013-06-02T02:56:42Z</time>
      </trkpt>
      <trkpt lat="-21.20085" lon="55.40744">
        <ele>963.4</ele>
        <time>2013-06-02T03:01:59Z</time>
      </trkpt>
      <trkpt lat="-21.20095" lon="55.40756">
        <ele>962.8</ele>
        <time>2013-06-02T03:02:07Z</time>
      </trkpt>
      <trkpt lat="-21.20101" lon="55.40762">
        <ele>963.1</ele>
        <time>2013-06-02T03:02:11Z</time>
      </trkpt>
      <trkpt lat="-21.20106" lon="55.4077">
        <ele>963.1</ele>
        <time>2013-06-02T03:02:15Z</time>
      </trkpt>
      <trkpt lat="-21.20111" lon="55.40777">
        <ele>963.8</ele>
        <time>2013-06-02T03:02:20Z</time>
      </trkpt>
      <trkpt lat="-21.20116" lon="55.40784">
        <ele>963.8</ele>
        <time>2013-06-02T03:02:28Z</time>
      </trkpt>
      <trkpt lat="-21.20124" lon="55.40781">
        <ele>963.4</ele>
        <time>2013-06-02T03:02:33Z</time>
      </trkpt>
      <trkpt lat="-21.2013" lon="55.40777">
        <ele>962.8</ele>
        <time>2013-06-02T03:02:36Z</time>
      </trkpt>
      <trkpt lat="-21.20136" lon="55.40773">
        <ele>962.2</ele>
        <time>2013-06-02T03:02:39Z</time>
      </trkpt>
      <trkpt lat="-21.20144" lon="55.40769">
        <ele>962.1</ele>
        <time>2013-06-02T03:02:43Z</time>
      </trkpt>
      <trkpt lat="-21.2015" lon="55.40765">
        <ele>961.9</ele>
        <time>2013-06-02T03:02:46Z</time>
      </trkpt>
      <trkpt lat="-21.20156" lon="55.4076">
        <ele>961.4</ele>
        <time>2013-06-02T03:02:49Z</time>
      </trkpt>
      <trkpt lat="-21.20161" lon="55.40754">
        <ele>961.1</ele>
        <time>2013-06-02T03:02:52Z</time>
      </trkpt>
      <trkpt lat="-21.20166" lon="55.40747">
        <ele>960.3</ele>
        <time>2013-06-02T03:02:55Z</time>
      </trkpt>
      <trkpt lat="-21.20172" lon="55.40741">
        <ele>959.4</ele>
        <time>2013-06-02T03:02:58Z</time>
      </trkpt>
      <trkpt lat="-21.20178" lon="55.40737">
        <ele>959.3</ele>
        <time>2013-06-02T03:03:01Z</time>
      </trkpt>
      <trkpt lat="-21.2018" lon="55.40736">
        <ele>959.3</ele>
        <time>2013-06-02T03:03:02Z</time>
      </trkpt>
      <trkpt lat="-21.20192" lon="55.40729">
        <ele>957.8</ele>
        <time>2013-06-02T03:03:08Z</time>
      </trkpt>
      <trkpt lat="-21.202" lon="55.40724">
        <ele>956.1</ele>
        <time>2013-06-02T03:03:12Z</time>
      </trkpt>
      <trkpt lat="-21.20208" lon="55.40721">
        <ele>956.1</ele>
        <time>2013-06-02T03:03:15Z</time>
      </trkpt>
      <trkpt lat="-21.20215" lon="55.40717">
        <ele>955.4</ele>
        <time>2013-06-02T03:03:18Z</time>
      </trkpt>
      <trkpt lat="-21.20222" lon="55.40712">
        <ele>954.2</ele>
        <time>2013-06-02T03:03:22Z</time>
      </trkpt>
      <trkpt lat="-21.20229" lon="55.40708">
        <ele>953.6</ele>
        <time>2013-06-02T03:03:25Z</time>
      </trkpt>
      <trkpt lat="-21.20235" lon="55.40704">
        <ele>953</ele>
        <time>2013-06-02T03:03:28Z</time>
      </trkpt>
      <trkpt lat="-21.2024" lon="55.407">
        <ele>952.5</ele>
        <time>2013-06-02T03:03:30Z</time>
      </trkpt>
      <trkpt lat="-21.20245" lon="55.40697">
        <ele>952.5</ele>
        <time>2013-06-02T03:03:32Z</time>
      </trkpt>
      <trkpt lat="-21.20253" lon="55.40693">
        <ele>951.7</ele>
        <time>2013-06-02T03:03:35Z</time>
      </trkpt>
      <trkpt lat="-21.20258" lon="55.40688">
        <ele>952</ele>
        <time>2013-06-02T03:03:38Z</time>
      </trkpt>
      <trkpt lat="-21.20265" lon="55.40683">
        <ele>951.1</ele>
        <time>2013-06-02T03:03:41Z</time>
      </trkpt>
      <trkpt lat="-21.20272" lon="55.40677">
        <ele>950.4</ele>
        <time>2013-06-02T03:03:44Z</time>
      </trkpt>
      <trkpt lat="-21.20278" lon="55.40671">
        <ele>949.9</ele>
        <time>2013-06-02T03:03:47Z</time>
      </trkpt>
      <trkpt lat="-21.20283" lon="55.40664">
        <ele>948.7</ele>
        <time>2013-06-02T03:03:50Z</time>
      </trkpt>
      <trkpt lat="-21.20288" lon="55.40661">
        <ele>947.8</ele>
        <time>2013-06-02T03:03:52Z</time>
      </trkpt>
      <trkpt lat="-21.20293" lon="55.40657">
        <ele>947.4</ele>
        <time>2013-06-02T03:03:54Z</time>
      </trkpt>
      <trkpt lat="-21.20298" lon="55.40653">
        <ele>947.1</ele>
        <time>2013-06-02T03:03:56Z</time>
      </trkpt>
      <trkpt lat="-21.20304" lon="55.40648">
        <ele>946.9</ele>
        <time>2013-06-02T03:03:59Z</time>
      </trkpt>
      <trkpt lat="-21.2031" lon="55.40642">
        <ele>946.1</ele>
        <time>2013-06-02T03:04:02Z</time>
      </trkpt>
      <trkpt lat="-21.20311" lon="55.4064">
        <ele>946</ele>
        <time>2013-06-02T03:04:03Z</time>
      </trkpt>
      <trkpt lat="-21.20303" lon="55.40629">
        <ele>945.5</ele>
        <time>2013-06-02T03:04:10Z</time>
      </trkpt>
      <trkpt lat="-21.20296" lon="55.40622">
        <ele>946.3</ele>
        <time>2013-06-02T03:04:14Z</time>
      </trkpt>
      <trkpt lat="-21.2029" lon="55.40616">
        <ele>947</ele>
        <time>2013-06-02T03:04:18Z</time>
      </trkpt>
      <trkpt lat="-21.20285" lon="55.4061">
        <ele>947.8</ele>
        <time>2013-06-02T03:04:22Z</time>
      </trkpt>
      <trkpt lat="-21.20282" lon="55.40603">
        <ele>949.5</ele>
        <time>2013-06-02T03:04:26Z</time>
      </trkpt>
      <trkpt lat="-21.20281" lon="55.40594">
        <ele>949.7</ele>
        <time>2013-06-02T03:04:30Z</time>
      </trkpt>
      <trkpt lat="-21.20283" lon="55.40585">
        <ele>950.9</ele>
        <time>2013-06-02T03:04:34Z</time>
      </trkpt>
      <trkpt lat="-21.20287" lon="55.40578">
        <ele>951.1</ele>
        <time>2013-06-02T03:04:37Z</time>
      </trkpt>
      <trkpt lat="-21.20293" lon="55.40573">
        <ele>951</ele>
        <time>2013-06-02T03:04:40Z</time>
      </trkpt>
      <trkpt lat="-21.203" lon="55.40567">
        <ele>950.2</ele>
        <time>2013-06-02T03:04:44Z</time>
      </trkpt>
      <trkpt lat="-21.20306" lon="55.40563">
        <ele>949.2</ele>
        <time>2013-06-02T03:04:47Z</time>
      </trkpt>
      <trkpt lat="-21.20312" lon="55.40557">
        <ele>949.3</ele>
        <time>2013-06-02T03:04:50Z</time>
      </trkpt>
      <trkpt lat="-21.20318" lon="55.40552">
        <ele>948.9</ele>
        <time>2013-06-02T03:04:53Z</time>
      </trkpt>
      <trkpt lat="-21.20324" lon="55.40546">
        <ele>948.8</ele>
        <time>2013-06-02T03:04:56Z</time>
      </trkpt>
      <trkpt lat="-21.20329" lon="55.40542">
        <ele>948.6</ele>
        <time>2013-06-02T03:04:58Z</time>
      </trkpt>
      <trkpt lat="-21.20335" lon="55.40536">
        <ele>947.3</ele>
        <time>2013-06-02T03:05:01Z</time>
      </trkpt>
      <trkpt lat="-21.20342" lon="55.40531">
        <ele>947.6</ele>
        <time>2013-06-02T03:05:04Z</time>
      </trkpt>
      <trkpt lat="-21.20344" lon="55.40529">
        <ele>947.6</ele>
        <time>2013-06-02T03:05:05Z</time>
      </trkpt>
      <trkpt lat="-21.20355" lon="55.40522">
        <ele>947.4</ele>
        <time>2013-06-02T03:05:10Z</time>
      </trkpt>
      <trkpt lat="-21.20361" lon="55.40518">
        <ele>947.1</ele>
        <time>2013-06-02T03:05:13Z</time>
      </trkpt>
      <trkpt lat="-21.20367" lon="55.40515">
        <ele>946.9</ele>
        <time>2013-06-02T03:05:16Z</time>
      </trkpt>
      <trkpt lat="-21.20373" lon="55.40511">
        <ele>946.7</ele>
        <time>2013-06-02T03:05:19Z</time>
      </trkpt>
      <trkpt lat="-21.2038" lon="55.40507">
        <ele>946.7</ele>
        <time>2013-06-02T03:05:22Z</time>
      </trkpt>
      <trkpt lat="-21.20388" lon="55.40502">
        <ele>946.2</ele>
        <time>2013-06-02T03:05:26Z</time>
      </trkpt>
      <trkpt lat="-21.20395" lon="55.40498">
        <ele>945.9</ele>
        <time>2013-06-02T03:05:30Z</time>
      </trkpt>
      <trkpt lat="-21.20403" lon="55.40494">
        <ele>944.5</ele>
        <time>2013-06-02T03:05:33Z</time>
      </trkpt>
      <trkpt lat="-21.2041" lon="55.40491">
        <ele>944.4</ele>
        <time>2013-06-02T03:05:36Z</time>
      </trkpt>
      <trkpt lat="-21.20417" lon="55.40487">
        <ele>943</ele>
        <time>2013-06-02T03:05:39Z</time>
      </trkpt>
      <trkpt lat="-21.20425" lon="55.40483">
        <ele>942.3</ele>
        <time>2013-06-02T03:05:42Z</time>
      </trkpt>
      <trkpt lat="-21.20432" lon="55.4048">
        <ele>941.5</ele>
        <time>2013-06-02T03:05:45Z</time>
      </trkpt>
      <trkpt lat="-21.20439" lon="55.40478">
        <ele>940.5</ele>
        <time>2013-06-02T03:05:48Z</time>
      </trkpt>
      <trkpt lat="-21.20446" lon="55.40475">
        <ele>939.8</ele>
        <time>2013-06-02T03:05:51Z</time>
      </trkpt>
      <trkpt lat="-21.20453" lon="55.40471">
        <ele>939.1</ele>
        <time>2013-06-02T03:05:54Z</time>
      </trkpt>
      <trkpt lat="-21.2046" lon="55.40467">
        <ele>938.5</ele>
        <time>2013-06-02T03:05:57Z</time>
      </trkpt>
      <trkpt lat="-21.20467" lon="55.40464">
        <ele>937.4</ele>
        <time>2013-06-02T03:06:00Z</time>
      </trkpt>
      <trkpt lat="-21.20473" lon="55.4046">
        <ele>936.2</ele>
        <time>2013-06-02T03:06:03Z</time>
      </trkpt>
      <trkpt lat="-21.20479" lon="55.40456">
        <ele>935.5</ele>
        <time>2013-06-02T03:06:06Z</time>
      </trkpt>
      <trkpt lat="-21.20482" lon="55.40455">
        <ele>935.6</ele>
        <time>2013-06-02T03:06:07Z</time>
      </trkpt>
      <trkpt lat="-21.20494" lon="55.40449">
        <ele>934.1</ele>
        <time>2013-06-02T03:06:12Z</time>
      </trkpt>
      <trkpt lat="-21.20501" lon="55.40446">
        <ele>933.6</ele>
        <time>2013-06-02T03:06:15Z</time>
      </trkpt>
      <trkpt lat="-21.2051" lon="55.40445">
        <ele>932.9</ele>
        <time>2013-06-02T03:06:18Z</time>
      </trkpt>
      <trkpt lat="-21.20518" lon="55.40444">
        <ele>932.4</ele>
        <time>2013-06-02T03:06:21Z</time>
      </trkpt>
      <trkpt lat="-21.20526" lon="55.40442">
        <ele>932.5</ele>
        <time>2013-06-02T03:06:24Z</time>
      </trkpt>
      <trkpt lat="-21.20534" lon="55.4044">
        <ele>931.7</ele>
        <time>2013-06-02T03:06:27Z</time>
      </trkpt>
      <trkpt lat="-21.2054" lon="55.40439">
        <ele>931.4</ele>
        <time>2013-06-02T03:06:29Z</time>
      </trkpt>
      <trkpt lat="-21.20545" lon="55.40437">
        <ele>931</ele>
        <time>2013-06-02T03:06:31Z</time>
      </trkpt>
      <trkpt lat="-21.20551" lon="55.40436">
        <ele>930.3</ele>
        <time>2013-06-02T03:06:33Z</time>
      </trkpt>
      <trkpt lat="-21.2056" lon="55.40433">
        <ele>929.3</ele>
        <time>2013-06-02T03:06:36Z</time>
      </trkpt>
      <trkpt lat="-21.20567" lon="55.40431">
        <ele>928.3</ele>
        <time>2013-06-02T03:06:39Z</time>
      </trkpt>
      <trkpt lat="-21.20575" lon="55.4043">
        <ele>927.9</ele>
        <time>2013-06-02T03:06:42Z</time>
      </trkpt>
      <trkpt lat="-21.20581" lon="55.40428">
        <ele>926.9</ele>
        <time>2013-06-02T03:06:45Z</time>
      </trkpt>
      <trkpt lat="-21.20589" lon="55.40426">
        <ele>926</ele>
        <time>2013-06-02T03:06:48Z</time>
      </trkpt>
      <trkpt lat="-21.20596" lon="55.40423">
        <ele>924.9</ele>
        <time>2013-06-02T03:06:51Z</time>
      </trkpt>
      <trkpt lat="-21.20604" lon="55.40421">
        <ele>923.5</ele>
        <time>2013-06-02T03:06:54Z</time>
      </trkpt>
      <trkpt lat="-21.20612" lon="55.40418">
        <ele>922.5</ele>
        <time>2013-06-02T03:06:57Z</time>
      </trkpt>
      <trkpt lat="-21.20619" lon="55.40416">
        <ele>922.1</ele>
        <time>2013-06-02T03:07:00Z</time>
      </trkpt>
      <trkpt lat="-21.20628" lon="55.40413">
        <ele>921.1</ele>
        <time>2013-06-02T03:07:03Z</time>
      </trkpt>
      <trkpt lat="-21.20636" lon="55.4041">
        <ele>919.5</ele>
        <time>2013-06-02T03:07:06Z</time>
      </trkpt>
      <trkpt lat="-21.20644" lon="55.40407">
        <ele>918.7</ele>
        <time>2013-06-02T03:07:09Z</time>
      </trkpt>
      <trkpt lat="-21.20647" lon="55.40406">
        <ele>918.4</ele>
        <time>2013-06-02T03:07:10Z</time>
      </trkpt>
      <trkpt lat="-21.2066" lon="55.40403">
        <ele>917.7</ele>
        <time>2013-06-02T03:07:15Z</time>
      </trkpt>
      <trkpt lat="-21.20667" lon="55.404">
        <ele>917.2</ele>
        <time>2013-06-02T03:07:18Z</time>
      </trkpt>
      <trkpt lat="-21.20675" lon="55.40398">
        <ele>917.1</ele>
        <time>2013-06-02T03:07:21Z</time>
      </trkpt>
      <trkpt lat="-21.20683" lon="55.40396">
        <ele>916</ele>
        <time>2013-06-02T03:07:24Z</time>
      </trkpt>
      <trkpt lat="-21.20691" lon="55.40394">
        <ele>915.6</ele>
        <time>2013-06-02T03:07:27Z</time>
      </trkpt>
      <trkpt lat="-21.20699" lon="55.40392">
        <ele>915.3</ele>
        <time>2013-06-02T03:07:30Z</time>
      </trkpt>
      <trkpt lat="-21.20706" lon="55.40389">
        <ele>913.7</ele>
        <time>2013-06-02T03:07:33Z</time>
      </trkpt>
      <trkpt lat="-21.20714" lon="55.40386">
        <ele>912.7</ele>
        <time>2013-06-02T03:07:36Z</time>
      </trkpt>
      <trkpt lat="-21.20721" lon="55.40383">
        <ele>912.3</ele>
        <time>2013-06-02T03:07:39Z</time>
      </trkpt>
      <trkpt lat="-21.20729" lon="55.4038">
        <ele>911.4</ele>
        <time>2013-06-02T03:07:42Z</time>
      </trkpt>
      <trkpt lat="-21.20737" lon="55.40377">
        <ele>910.8</ele>
        <time>2013-06-02T03:07:46Z</time>
      </trkpt>
      <trkpt lat="-21.20744" lon="55.40374">
        <ele>909.9</ele>
        <time>2013-06-02T03:07:49Z</time>
      </trkpt>
      <trkpt lat="-21.20752" lon="55.40371">
        <ele>908.4</ele>
        <time>2013-06-02T03:07:52Z</time>
      </trkpt>
      <trkpt lat="-21.20761" lon="55.40369">
        <ele>907.3</ele>
        <time>2013-06-02T03:07:55Z</time>
      </trkpt>
      <trkpt lat="-21.20768" lon="55.40366">
        <ele>906.2</ele>
        <time>2013-06-02T03:07:58Z</time>
      </trkpt>
      <trkpt lat="-21.20773" lon="55.40373">
        <ele>905.1</ele>
        <time>2013-06-02T03:08:03Z</time>
      </trkpt>
      <trkpt lat="-21.20771" lon="55.40382">
        <ele>904.1</ele>
        <time>2013-06-02T03:08:06Z</time>
      </trkpt>
      <trkpt lat="-21.20771" lon="55.40391">
        <ele>903.9</ele>
        <time>2013-06-02T03:08:09Z</time>
      </trkpt>
      <trkpt lat="-21.20772" lon="55.40397">
        <ele>903.7</ele>
        <time>2013-06-02T03:08:11Z</time>
      </trkpt>
      <trkpt lat="-21.20772" lon="55.40401">
        <ele>903.3</ele>
        <time>2013-06-02T03:08:12Z</time>
      </trkpt>
      <trkpt lat="-21.20774" lon="55.40413">
        <ele>902.8</ele>
        <time>2013-06-02T03:08:16Z</time>
      </trkpt>
      <trkpt lat="-21.20776" lon="55.40422">
        <ele>902.2</ele>
        <time>2013-06-02T03:08:19Z</time>
      </trkpt>
      <trkpt lat="-21.20778" lon="55.4043">
        <ele>901.8</ele>
        <time>2013-06-02T03:08:22Z</time>
      </trkpt>
      <trkpt lat="-21.2078" lon="55.40439">
        <ele>902.5</ele>
        <time>2013-06-02T03:08:25Z</time>
      </trkpt>
      <trkpt lat="-21.20782" lon="55.40448">
        <ele>901.7</ele>
        <time>2013-06-02T03:08:28Z</time>
      </trkpt>
      <trkpt lat="-21.20784" lon="55.40457">
        <ele>901.6</ele>
        <time>2013-06-02T03:08:31Z</time>
      </trkpt>
      <trkpt lat="-21.20786" lon="55.40466">
        <ele>900.8</ele>
        <time>2013-06-02T03:08:34Z</time>
      </trkpt>
      <trkpt lat="-21.20788" lon="55.40475">
        <ele>899.7</ele>
        <time>2013-06-02T03:08:37Z</time>
      </trkpt>
      <trkpt lat="-21.2079" lon="55.40484">
        <ele>899.9</ele>
        <time>2013-06-02T03:08:40Z</time>
      </trkpt>
      <trkpt lat="-21.20792" lon="55.40493">
        <ele>899.9</ele>
        <time>2013-06-02T03:08:43Z</time>
      </trkpt>
      <trkpt lat="-21.20794" lon="55.405">
        <ele>899.8</ele>
        <time>2013-06-02T03:08:46Z</time>
      </trkpt>
      <trkpt lat="-21.20795" lon="55.40508">
        <ele>900.3</ele>
        <time>2013-06-02T03:08:49Z</time>
      </trkpt>
      <trkpt lat="-21.20796" lon="55.40516">
        <ele>900.7</ele>
        <time>2013-06-02T03:08:52Z</time>
      </trkpt>
      <trkpt lat="-21.20794" lon="55.40524">
        <ele>901.3</ele>
        <time>2013-06-02T03:08:56Z</time>
      </trkpt>
      <trkpt lat="-21.20788" lon="55.40529">
        <ele>901.4</ele>
        <time>2013-06-02T03:09:00Z</time>
      </trkpt>
      <trkpt lat="-21.20781" lon="55.40532">
        <ele>901.3</ele>
        <time>2013-06-02T03:09:03Z</time>
      </trkpt>
      <trkpt lat="-21.20775" lon="55.40535">
        <ele>901.4</ele>
        <time>2013-06-02T03:09:06Z</time>
      </trkpt>
      <trkpt lat="-21.20768" lon="55.40538">
        <ele>901.8</ele>
        <time>2013-06-02T03:09:09Z</time>
      </trkpt>
      <trkpt lat="-21.20762" lon="55.40542">
        <ele>901.5</ele>
        <time>2013-06-02T03:09:12Z</time>
      </trkpt>
      <trkpt lat="-21.2076" lon="55.40544">
        <ele>901.5</ele>
        <time>2013-06-02T03:09:13Z</time>
      </trkpt>
      <trkpt lat="-21.20751" lon="55.40552">
        <ele>901.2</ele>
        <time>2013-06-02T03:09:17Z</time>
      </trkpt>
      <trkpt lat="-21.20745" lon="55.40558">
        <ele>900.5</ele>
        <time>2013-06-02T03:09:20Z</time>
      </trkpt>
      <trkpt lat="-21.20739" lon="55.40564">
        <ele>900.3</ele>
        <time>2013-06-02T03:09:23Z</time>
      </trkpt>
      <trkpt lat="-21.20733" lon="55.40569">
        <ele>899.8</ele>
        <time>2013-06-02T03:09:26Z</time>
      </trkpt>
      <trkpt lat="-21.20731" lon="55.40577">
        <ele>898.7</ele>
        <time>2013-06-02T03:09:29Z</time>
      </trkpt>
      <trkpt lat="-21.20728" lon="55.40585">
        <ele>898.7</ele>
        <time>2013-06-02T03:09:33Z</time>
      </trkpt>
      <trkpt lat="-21.20726" lon="55.40593">
        <ele>898.5</ele>
        <time>2013-06-02T03:09:37Z</time>
      </trkpt>
      <trkpt lat="-21.20725" lon="55.40601">
        <ele>897.1</ele>
        <time>2013-06-02T03:09:41Z</time>
      </trkpt>
      <trkpt lat="-21.20726" lon="55.40609">
        <ele>897.9</ele>
        <time>2013-06-02T03:09:47Z</time>
      </trkpt>
      <trkpt lat="-21.20722" lon="55.40618">
        <ele>897.6</ele>
        <time>2013-06-02T03:10:19Z</time>
      </trkpt>
      <trkpt lat="-21.20722" lon="55.40618">
        <ele>897.7</ele>
        <time>2013-06-02T03:10:20Z</time>
      </trkpt>
      <trkpt lat="-21.20713" lon="55.40633">
        <ele>897.6</ele>
        <time>2013-06-02T03:10:55Z</time>
      </trkpt>
      <trkpt lat="-21.20705" lon="55.40634">
        <ele>898.9</ele>
        <time>2013-06-02T03:11:10Z</time>
      </trkpt>
      <trkpt lat="-21.20697" lon="55.40637">
        <ele>900.2</ele>
        <time>2013-06-02T03:11:19Z</time>
      </trkpt>
      <trkpt lat="-21.20689" lon="55.4064">
        <ele>901.6</ele>
        <time>2013-06-02T03:11:26Z</time>
      </trkpt>
      <trkpt lat="-21.20688" lon="55.4064">
        <ele>901.9</ele>
        <time>2013-06-02T03:11:27Z</time>
      </trkpt>
      <trkpt lat="-21.20674" lon="55.40644">
        <ele>903.8</ele>
        <time>2013-06-02T03:11:43Z</time>
      </trkpt>
      <trkpt lat="-21.20665" lon="55.40646">
        <ele>903.7</ele>
        <time>2013-06-02T03:11:47Z</time>
      </trkpt>
      <trkpt lat="-21.20657" lon="55.40649">
        <ele>904.9</ele>
        <time>2013-06-02T03:11:57Z</time>
      </trkpt>
      <trkpt lat="-21.20656" lon="55.40658">
        <ele>907</ele>
        <time>2013-06-02T03:12:03Z</time>
      </trkpt>
      <trkpt lat="-21.20657" lon="55.40666">
        <ele>908.4</ele>
        <time>2013-06-02T03:12:09Z</time>
      </trkpt>
      <trkpt lat="-21.20661" lon="55.40674">
        <ele>909.1</ele>
        <time>2013-06-02T03:12:19Z</time>
      </trkpt>
      <trkpt lat="-21.20663" lon="55.40683">
        <ele>912.5</ele>
        <time>2013-06-02T03:12:35Z</time>
      </trkpt>
      <trkpt lat="-21.20664" lon="55.40684">
        <ele>912.5</ele>
        <time>2013-06-02T03:12:36Z</time>
      </trkpt>
      <trkpt lat="-21.2067" lon="55.40698">
        <ele>918.2</ele>
        <time>2013-06-02T03:12:59Z</time>
      </trkpt>
      <trkpt lat="-21.20677" lon="55.40703">
        <ele>919</ele>
        <time>2013-06-02T03:13:04Z</time>
      </trkpt>
      <trkpt lat="-21.20685" lon="55.40704">
        <ele>919.2</ele>
        <time>2013-06-02T03:13:09Z</time>
      </trkpt>
      <trkpt lat="-21.20693" lon="55.40706">
        <ele>919.3</ele>
        <time>2013-06-02T03:13:20Z</time>
      </trkpt>
      <trkpt lat="-21.207" lon="55.40708">
        <ele>921.8</ele>
        <time>2013-06-02T03:13:31Z</time>
      </trkpt>
      <trkpt lat="-21.20707" lon="55.40712">
        <ele>922.3</ele>
        <time>2013-06-02T03:13:36Z</time>
      </trkpt>
      <trkpt lat="-21.20709" lon="55.40713">
        <ele>922.2</ele>
        <time>2013-06-02T03:13:37Z</time>
      </trkpt>
      <trkpt lat="-21.20721" lon="55.40721">
        <ele>920.6</ele>
        <time>2013-06-02T03:13:45Z</time>
      </trkpt>
      <trkpt lat="-21.20728" lon="55.40725">
        <ele>919.4</ele>
        <time>2013-06-02T03:13:50Z</time>
      </trkpt>
      <trkpt lat="-21.20736" lon="55.40728">
        <ele>920.1</ele>
        <time>2013-06-02T03:13:54Z</time>
      </trkpt>
      <trkpt lat="-21.20735" lon="55.40737">
        <ele>921.1</ele>
        <time>2013-06-02T03:14:00Z</time>
      </trkpt>
      <trkpt lat="-21.2073" lon="55.40743">
        <ele>921.6</ele>
        <time>2013-06-02T03:14:05Z</time>
      </trkpt>
      <trkpt lat="-21.20723" lon="55.40749">
        <ele>922.3</ele>
        <time>2013-06-02T03:14:10Z</time>
      </trkpt>
      <trkpt lat="-21.20717" lon="55.40754">
        <ele>921.7</ele>
        <time>2013-06-02T03:14:14Z</time>
      </trkpt>
      <trkpt lat="-21.2071" lon="55.4076">
        <ele>922.3</ele>
        <time>2013-06-02T03:14:18Z</time>
      </trkpt>
      <trkpt lat="-21.20703" lon="55.40764">
        <ele>922.2</ele>
        <time>2013-06-02T03:14:21Z</time>
      </trkpt>
      <trkpt lat="-21.20696" lon="55.40768">
        <ele>923.1</ele>
        <time>2013-06-02T03:14:25Z</time>
      </trkpt>
      <trkpt lat="-21.20689" lon="55.40773">
        <ele>923.7</ele>
        <time>2013-06-02T03:14:30Z</time>
      </trkpt>
      <trkpt lat="-21.20682" lon="55.40777">
        <ele>924.6</ele>
        <time>2013-06-02T03:14:34Z</time>
      </trkpt>
      <trkpt lat="-21.20675" lon="55.40781">
        <ele>925.4</ele>
        <time>2013-06-02T03:14:39Z</time>
      </trkpt>
      <trkpt lat="-21.20673" lon="55.40782">
        <ele>925.5</ele>
        <time>2013-06-02T03:14:40Z</time>
      </trkpt>
      <trkpt lat="-21.20661" lon="55.40788">
        <ele>926.4</ele>
        <time>2013-06-02T03:14:48Z</time>
      </trkpt>
      <trkpt lat="-21.20653" lon="55.40791">
        <ele>928.3</ele>
        <time>2013-06-02T03:14:53Z</time>
      </trkpt>
      <trkpt lat="-21.20645" lon="55.40795">
        <ele>929.7</ele>
        <time>2013-06-02T03:14:58Z</time>
      </trkpt>
      <trkpt lat="-21.20637" lon="55.40798">
        <ele>931.3</ele>
        <time>2013-06-02T03:15:04Z</time>
      </trkpt>
      <trkpt lat="-21.2063" lon="55.40802">
        <ele>933</ele>
        <time>2013-06-02T03:15:10Z</time>
      </trkpt>
      <trkpt lat="-21.20623" lon="55.40807">
        <ele>934.6</ele>
        <time>2013-06-02T03:15:16Z</time>
      </trkpt>
      <trkpt lat="-21.20616" lon="55.40811">
        <ele>936.1</ele>
        <time>2013-06-02T03:15:21Z</time>
      </trkpt>
      <trkpt lat="-21.20608" lon="55.40817">
        <ele>937.3</ele>
        <time>2013-06-02T03:15:27Z</time>
      </trkpt>
      <trkpt lat="-21.206" lon="55.4082">
        <ele>939.3</ele>
        <time>2013-06-02T03:15:33Z</time>
      </trkpt>
      <trkpt lat="-21.20592" lon="55.40824">
        <ele>939.8</ele>
        <time>2013-06-02T03:15:39Z</time>
      </trkpt>
      <trkpt lat="-21.20585" lon="55.40827">
        <ele>940.8</ele>
        <time>2013-06-02T03:15:44Z</time>
      </trkpt>
      <trkpt lat="-21.20584" lon="55.40827">
        <ele>941.3</ele>
        <time>2013-06-02T03:15:45Z</time>
      </trkpt>
      <trkpt lat="-21.2057" lon="55.40833">
        <ele>943.3</ele>
        <time>2013-06-02T03:15:54Z</time>
      </trkpt>
      <trkpt lat="-21.20563" lon="55.40836">
        <ele>945.2</ele>
        <time>2013-06-02T03:16:01Z</time>
      </trkpt>
      <trkpt lat="-21.20555" lon="55.4084">
        <ele>946.7</ele>
        <time>2013-06-02T03:16:08Z</time>
      </trkpt>
      <trkpt lat="-21.20548" lon="55.40843">
        <ele>948.2</ele>
        <time>2013-06-02T03:16:14Z</time>
      </trkpt>
      <trkpt lat="-21.2054" lon="55.40848">
        <ele>949.1</ele>
        <time>2013-06-02T03:16:20Z</time>
      </trkpt>
      <trkpt lat="-21.20533" lon="55.40853">
        <ele>950.1</ele>
        <time>2013-06-02T03:16:25Z</time>
      </trkpt>
      <trkpt lat="-21.20526" lon="55.40857">
        <ele>950.8</ele>
        <time>2013-06-02T03:16:30Z</time>
      </trkpt>
      <trkpt lat="-21.20519" lon="55.4086">
        <ele>950.9</ele>
        <time>2013-06-02T03:16:34Z</time>
      </trkpt>
      <trkpt lat="-21.20512" lon="55.40864">
        <ele>950.9</ele>
        <time>2013-06-02T03:16:39Z</time>
      </trkpt>
      <trkpt lat="-21.20511" lon="55.40873">
        <ele>952.7</ele>
        <time>2013-06-02T03:16:46Z</time>
      </trkpt>
      <trkpt lat="-21.20512" lon="55.40874">
        <ele>953.1</ele>
        <time>2013-06-02T03:16:47Z</time>
      </trkpt>
      <trkpt lat="-21.20519" lon="55.40888">
        <ele>954.9</ele>
        <time>2013-06-02T03:16:57Z</time>
      </trkpt>
      <trkpt lat="-21.20524" lon="55.40896">
        <ele>955.5</ele>
        <time>2013-06-02T03:17:03Z</time>
      </trkpt>
      <trkpt lat="-21.20528" lon="55.40904">
        <ele>956.2</ele>
        <time>2013-06-02T03:17:09Z</time>
      </trkpt>
      <trkpt lat="-21.20531" lon="55.40912">
        <ele>957.3</ele>
        <time>2013-06-02T03:17:14Z</time>
      </trkpt>
      <trkpt lat="-21.20528" lon="55.40921">
        <ele>957.7</ele>
        <time>2013-06-02T03:17:20Z</time>
      </trkpt>
      <trkpt lat="-21.20526" lon="55.4093">
        <ele>959.4</ele>
        <time>2013-06-02T03:17:27Z</time>
      </trkpt>
      <trkpt lat="-21.20526" lon="55.40939">
        <ele>961.9</ele>
        <time>2013-06-02T03:17:37Z</time>
      </trkpt>
      <trkpt lat="-21.20534" lon="55.40942">
        <ele>963.4</ele>
        <time>2013-06-02T03:17:49Z</time>
      </trkpt>
      <trkpt lat="-21.20535" lon="55.40942">
        <ele>963.5</ele>
        <time>2013-06-02T03:17:50Z</time>
      </trkpt>
      <trkpt lat="-21.20541" lon="55.40959">
        <ele>966.7</ele>
        <time>2013-06-02T03:18:07Z</time>
      </trkpt>
      <trkpt lat="-21.20544" lon="55.40967">
        <ele>968.1</ele>
        <time>2013-06-02T03:18:15Z</time>
      </trkpt>
      <trkpt lat="-21.20548" lon="55.40975">
        <ele>969.4</ele>
        <time>2013-06-02T03:18:22Z</time>
      </trkpt>
      <trkpt lat="-21.20551" lon="55.40983">
        <ele>970.7</ele>
        <time>2013-06-02T03:18:29Z</time>
      </trkpt>
      <trkpt lat="-21.20553" lon="55.40991">
        <ele>971.5</ele>
        <time>2013-06-02T03:18:34Z</time>
      </trkpt>
      <trkpt lat="-21.20557" lon="55.40998">
        <ele>973.2</ele>
        <time>2013-06-02T03:18:39Z</time>
      </trkpt>
      <trkpt lat="-21.2056" lon="55.41006">
        <ele>974.5</ele>
        <time>2013-06-02T03:18:44Z</time>
      </trkpt>
      <trkpt lat="-21.20564" lon="55.41012">
        <ele>974.8</ele>
        <time>2013-06-02T03:18:48Z</time>
      </trkpt>
      <trkpt lat="-21.20568" lon="55.41019">
        <ele>974.1</ele>
        <time>2013-06-02T03:18:52Z</time>
      </trkpt>
      <trkpt lat="-21.20569" lon="55.41022">
        <ele>973.6</ele>
        <time>2013-06-02T03:18:53Z</time>
      </trkpt>
      <trkpt lat="-21.20574" lon="55.41035">
        <ele>972.5</ele>
        <time>2013-06-02T03:18:58Z</time>
      </trkpt>
      <trkpt lat="-21.20577" lon="55.41043">
        <ele>972.8</ele>
        <time>2013-06-02T03:19:03Z</time>
      </trkpt>
      <trkpt lat="-21.20581" lon="55.41051">
        <ele>973.7</ele>
        <time>2013-06-02T03:19:09Z</time>
      </trkpt>
      <trkpt lat="-21.20585" lon="55.41059">
        <ele>974.4</ele>
        <time>2013-06-02T03:19:15Z</time>
      </trkpt>
      <trkpt lat="-21.20589" lon="55.41067">
        <ele>975.8</ele>
        <time>2013-06-02T03:19:21Z</time>
      </trkpt>
      <trkpt lat="-21.20593" lon="55.41076">
        <ele>977.1</ele>
        <time>2013-06-02T03:19:27Z</time>
      </trkpt>
      <trkpt lat="-21.20595" lon="55.41083">
        <ele>978.5</ele>
        <time>2013-06-02T03:19:32Z</time>
      </trkpt>
      <trkpt lat="-21.20598" lon="55.41092">
        <ele>980.6</ele>
        <time>2013-06-02T03:19:38Z</time>
      </trkpt>
      <trkpt lat="-21.20603" lon="55.411">
        <ele>981.2</ele>
        <time>2013-06-02T03:19:44Z</time>
      </trkpt>
      <trkpt lat="-21.20608" lon="55.41107">
        <ele>982.2</ele>
        <time>2013-06-02T03:19:50Z</time>
      </trkpt>
      <trkpt lat="-21.20614" lon="55.41113">
        <ele>982.9</ele>
        <time>2013-06-02T03:19:56Z</time>
      </trkpt>
      <trkpt lat="-21.20614" lon="55.41114">
        <ele>983</ele>
        <time>2013-06-02T03:19:57Z</time>
      </trkpt>
      <trkpt lat="-21.20621" lon="55.41129">
        <ele>985</ele>
        <time>2013-06-02T03:20:09Z</time>
      </trkpt>
      <trkpt lat="-21.20624" lon="55.41137">
        <ele>986.8</ele>
        <time>2013-06-02T03:20:15Z</time>
      </trkpt>
      <trkpt lat="-21.20625" lon="55.41146">
        <ele>989.4</ele>
        <time>2013-06-02T03:20:22Z</time>
      </trkpt>
      <trkpt lat="-21.20622" lon="55.41154">
        <ele>991</ele>
        <time>2013-06-02T03:20:29Z</time>
      </trkpt>
      <trkpt lat="-21.20616" lon="55.41159">
        <ele>992.1</ele>
        <time>2013-06-02T03:20:34Z</time>
      </trkpt>
      <trkpt lat="-21.20609" lon="55.41165">
        <ele>993.1</ele>
        <time>2013-06-02T03:20:40Z</time>
      </trkpt>
      <trkpt lat="-21.20603" lon="55.4117">
        <ele>994.7</ele>
        <time>2013-06-02T03:20:46Z</time>
      </trkpt>
      <trkpt lat="-21.20596" lon="55.41175">
        <ele>996.6</ele>
        <time>2013-06-02T03:20:52Z</time>
      </trkpt>
      <trkpt lat="-21.20591" lon="55.41182">
        <ele>997.5</ele>
        <time>2013-06-02T03:20:58Z</time>
      </trkpt>
      <trkpt lat="-21.2059" lon="55.41183">
        <ele>997.8</ele>
        <time>2013-06-02T03:20:59Z</time>
      </trkpt>
      <trkpt lat="-21.20578" lon="55.41194">
        <ele>999.6</ele>
        <time>2013-06-02T03:21:11Z</time>
      </trkpt>
      <trkpt lat="-21.20573" lon="55.412">
        <ele>1001.4</ele>
        <time>2013-06-02T03:21:17Z</time>
      </trkpt>
      <trkpt lat="-21.20566" lon="55.41206">
        <ele>1002.3</ele>
        <time>2013-06-02T03:21:23Z</time>
      </trkpt>
      <trkpt lat="-21.20561" lon="55.41214">
        <ele>1004.2</ele>
        <time>2013-06-02T03:21:30Z</time>
      </trkpt>
      <trkpt lat="-21.20554" lon="55.4122">
        <ele>1005.1</ele>
        <time>2013-06-02T03:21:37Z</time>
      </trkpt>
      <trkpt lat="-21.20548" lon="55.41227">
        <ele>1007.2</ele>
        <time>2013-06-02T03:21:44Z</time>
      </trkpt>
      <trkpt lat="-21.20542" lon="55.41233">
        <ele>1008.5</ele>
        <time>2013-06-02T03:21:51Z</time>
      </trkpt>
      <trkpt lat="-21.20536" lon="55.41239">
        <ele>1009.9</ele>
        <time>2013-06-02T03:21:58Z</time>
      </trkpt>
      <trkpt lat="-21.20531" lon="55.41245">
        <ele>1011.7</ele>
        <time>2013-06-02T03:22:05Z</time>
      </trkpt>
      <trkpt lat="-21.2053" lon="55.41247">
        <ele>1011.9</ele>
        <time>2013-06-02T03:22:06Z</time>
      </trkpt>
      <trkpt lat="-21.20518" lon="55.41257">
        <ele>1014</ele>
        <time>2013-06-02T03:22:17Z</time>
      </trkpt>
      <trkpt lat="-21.20513" lon="55.41263">
        <ele>1015.5</ele>
        <time>2013-06-02T03:22:23Z</time>
      </trkpt>
      <trkpt lat="-21.20506" lon="55.4127">
        <ele>1017.3</ele>
        <time>2013-06-02T03:22:29Z</time>
      </trkpt>
      <trkpt lat="-21.205" lon="55.41277">
        <ele>1018.3</ele>
        <time>2013-06-02T03:22:36Z</time>
      </trkpt>
      <trkpt lat="-21.20494" lon="55.41282">
        <ele>1020.6</ele>
        <time>2013-06-02T03:22:42Z</time>
      </trkpt>
      <trkpt lat="-21.20488" lon="55.41289">
        <ele>1023</ele>
        <time>2013-06-02T03:22:48Z</time>
      </trkpt>
      <trkpt lat="-21.20481" lon="55.41294">
        <ele>1024.1</ele>
        <time>2013-06-02T03:22:56Z</time>
      </trkpt>
      <trkpt lat="-21.20474" lon="55.41298">
        <ele>1026.4</ele>
        <time>2013-06-02T03:23:04Z</time>
      </trkpt>
      <trkpt lat="-21.20466" lon="55.41301">
        <ele>1029.3</ele>
        <time>2013-06-02T03:23:11Z</time>
      </trkpt>
      <trkpt lat="-21.20464" lon="55.41301">
        <ele>1029.6</ele>
        <time>2013-06-02T03:23:12Z</time>
      </trkpt>
      <trkpt lat="-21.20449" lon="55.41298">
        <ele>1031.3</ele>
        <time>2013-06-02T03:23:23Z</time>
      </trkpt>
      <trkpt lat="-21.20441" lon="55.41295">
        <ele>1032.7</ele>
        <time>2013-06-02T03:23:29Z</time>
      </trkpt>
      <trkpt lat="-21.20433" lon="55.41293">
        <ele>1033.8</ele>
        <time>2013-06-02T03:23:35Z</time>
      </trkpt>
      <trkpt lat="-21.20425" lon="55.41296">
        <ele>1035.2</ele>
        <time>2013-06-02T03:23:42Z</time>
      </trkpt>
      <trkpt lat="-21.20423" lon="55.41304">
        <ele>1036</ele>
        <time>2013-06-02T03:23:49Z</time>
      </trkpt>
      <trkpt lat="-21.20427" lon="55.41312">
        <ele>1037</ele>
        <time>2013-06-02T03:23:55Z</time>
      </trkpt>
      <trkpt lat="-21.20432" lon="55.41318">
        <ele>1039.9</ele>
        <time>2013-06-02T03:24:02Z</time>
      </trkpt>
      <trkpt lat="-21.20434" lon="55.41327">
        <ele>1042.1</ele>
        <time>2013-06-02T03:24:11Z</time>
      </trkpt>
      <trkpt lat="-21.20426" lon="55.41331">
        <ele>1045.5</ele>
        <time>2013-06-02T03:24:22Z</time>
      </trkpt>
      <trkpt lat="-21.20425" lon="55.41331">
        <ele>1045.8</ele>
        <time>2013-06-02T03:24:23Z</time>
      </trkpt>
      <trkpt lat="-21.2041" lon="55.4133">
        <ele>1047.6</ele>
        <time>2013-06-02T03:24:34Z</time>
      </trkpt>
      <trkpt lat="-21.20402" lon="55.41331">
        <ele>1048.6</ele>
        <time>2013-06-02T03:24:41Z</time>
      </trkpt>
      <trkpt lat="-21.20394" lon="55.41336">
        <ele>1049.5</ele>
        <time>2013-06-02T03:24:47Z</time>
      </trkpt>
      <trkpt lat="-21.2039" lon="55.41344">
        <ele>1050.5</ele>
        <time>2013-06-02T03:24:53Z</time>
      </trkpt>
      <trkpt lat="-21.20392" lon="55.41352">
        <ele>1051.2</ele>
        <time>2013-06-02T03:24:59Z</time>
      </trkpt>
      <trkpt lat="-21.20394" lon="55.4136">
        <ele>1053</ele>
        <time>2013-06-02T03:25:05Z</time>
      </trkpt>
      <trkpt lat="-21.20398" lon="55.41368">
        <ele>1054.4</ele>
        <time>2013-06-02T03:25:11Z</time>
      </trkpt>
      <trkpt lat="-21.20402" lon="55.41376">
        <ele>1056.2</ele>
        <time>2013-06-02T03:25:16Z</time>
      </trkpt>
      <trkpt lat="-21.20408" lon="55.41381">
        <ele>1057.5</ele>
        <time>2013-06-02T03:25:21Z</time>
      </trkpt>
      <trkpt lat="-21.20415" lon="55.41386">
        <ele>1058</ele>
        <time>2013-06-02T03:25:26Z</time>
      </trkpt>
      <trkpt lat="-21.20416" lon="55.41386">
        <ele>1058.3</ele>
        <time>2013-06-02T03:25:27Z</time>
      </trkpt>
      <trkpt lat="-21.20427" lon="55.41396">
        <ele>1060.1</ele>
        <time>2013-06-02T03:25:38Z</time>
      </trkpt>
      <trkpt lat="-21.20425" lon="55.41405">
        <ele>1062.2</ele>
        <time>2013-06-02T03:25:46Z</time>
      </trkpt>
      <trkpt lat="-21.20419" lon="55.41411">
        <ele>1063.2</ele>
        <time>2013-06-02T03:25:54Z</time>
      </trkpt>
      <trkpt lat="-21.20411" lon="55.41413">
        <ele>1065</ele>
        <time>2013-06-02T03:26:00Z</time>
      </trkpt>
      <trkpt lat="-21.20403" lon="55.41415">
        <ele>1065.9</ele>
        <time>2013-06-02T03:26:06Z</time>
      </trkpt>
      <trkpt lat="-21.20396" lon="55.41419">
        <ele>1068</ele>
        <time>2013-06-02T03:26:12Z</time>
      </trkpt>
      <trkpt lat="-21.20391" lon="55.41426">
        <ele>1068.8</ele>
        <time>2013-06-02T03:26:18Z</time>
      </trkpt>
      <trkpt lat="-21.20387" lon="55.41433">
        <ele>1069.7</ele>
        <time>2013-06-02T03:26:24Z</time>
      </trkpt>
      <trkpt lat="-21.20385" lon="55.41441">
        <ele>1071.1</ele>
        <time>2013-06-02T03:26:30Z</time>
      </trkpt>
      <trkpt lat="-21.20384" lon="55.41443">
        <ele>1071.3</ele>
        <time>2013-06-02T03:26:31Z</time>
      </trkpt>
      <trkpt lat="-21.20378" lon="55.41457">
        <ele>1074.1</ele>
        <time>2013-06-02T03:26:44Z</time>
      </trkpt>
      <trkpt lat="-21.20374" lon="55.41465">
        <ele>1076.1</ele>
        <time>2013-06-02T03:26:51Z</time>
      </trkpt>
      <trkpt lat="-21.2037" lon="55.41473">
        <ele>1077.5</ele>
        <time>2013-06-02T03:26:58Z</time>
      </trkpt>
      <trkpt lat="-21.20366" lon="55.41481">
        <ele>1079.5</ele>
        <time>2013-06-02T03:27:04Z</time>
      </trkpt>
      <trkpt lat="-21.20363" lon="55.41489">
        <ele>1081.1</ele>
        <time>2013-06-02T03:27:10Z</time>
      </trkpt>
      <trkpt lat="-21.2036" lon="55.41496">
        <ele>1081.7</ele>
        <time>2013-06-02T03:27:15Z</time>
      </trkpt>
      <trkpt lat="-21.20357" lon="55.41504">
        <ele>1082.5</ele>
        <time>2013-06-02T03:27:20Z</time>
      </trkpt>
      <trkpt lat="-21.20356" lon="55.41514">
        <ele>1083</ele>
        <time>2013-06-02T03:27:26Z</time>
      </trkpt>
      <trkpt lat="-21.20358" lon="55.41522">
        <ele>1084.4</ele>
        <time>2013-06-02T03:27:32Z</time>
      </trkpt>
      <trkpt lat="-21.20359" lon="55.41523">
        <ele>1084.7</ele>
        <time>2013-06-02T03:27:33Z</time>
      </trkpt>
      <trkpt lat="-21.20364" lon="55.41539">
        <ele>1085.8</ele>
        <time>2013-06-02T03:27:44Z</time>
      </trkpt>
      <trkpt lat="-21.20366" lon="55.41547">
        <ele>1086.6</ele>
        <time>2013-06-02T03:27:49Z</time>
      </trkpt>
      <trkpt lat="-21.20371" lon="55.41554">
        <ele>1087.3</ele>
        <time>2013-06-02T03:27:54Z</time>
      </trkpt>
      <trkpt lat="-21.20374" lon="55.41561">
        <ele>1088.1</ele>
        <time>2013-06-02T03:27:59Z</time>
      </trkpt>
      <trkpt lat="-21.20379" lon="55.4157">
        <ele>1089.1</ele>
        <time>2013-06-02T03:28:05Z</time>
      </trkpt>
      <trkpt lat="-21.20373" lon="55.41577">
        <ele>1089.3</ele>
        <time>2013-06-02T03:28:11Z</time>
      </trkpt>
      <trkpt lat="-21.20369" lon="55.41585">
        <ele>1088.5</ele>
        <time>2013-06-02T03:28:15Z</time>
      </trkpt>
      <trkpt lat="-21.20368" lon="55.41593">
        <ele>1088.2</ele>
        <time>2013-06-02T03:28:19Z</time>
      </trkpt>
      <trkpt lat="-21.20371" lon="55.41601">
        <ele>1088.7</ele>
        <time>2013-06-02T03:28:26Z</time>
      </trkpt>
      <trkpt lat="-21.20375" lon="55.41609">
        <ele>1089.5</ele>
        <time>2013-06-02T03:28:32Z</time>
      </trkpt>
      <trkpt lat="-21.2038" lon="55.41615">
        <ele>1090.9</ele>
        <time>2013-06-02T03:28:37Z</time>
      </trkpt>
      <trkpt lat="-21.20381" lon="55.41617">
        <ele>1091</ele>
        <time>2013-06-02T03:28:38Z</time>
      </trkpt>
      <trkpt lat="-21.20389" lon="55.41629">
        <ele>1092.3</ele>
        <time>2013-06-02T03:28:45Z</time>
      </trkpt>
      <trkpt lat="-21.20393" lon="55.41635">
        <ele>1093.2</ele>
        <time>2013-06-02T03:28:49Z</time>
      </trkpt>
      <trkpt lat="-21.20398" lon="55.41642">
        <ele>1093.6</ele>
        <time>2013-06-02T03:28:53Z</time>
      </trkpt>
      <trkpt lat="-21.20401" lon="55.4165">
        <ele>1093.7</ele>
        <time>2013-06-02T03:28:58Z</time>
      </trkpt>
      <trkpt lat="-21.20397" lon="55.41659">
        <ele>1094.5</ele>
        <time>2013-06-02T03:29:04Z</time>
      </trkpt>
      <trkpt lat="-21.20392" lon="55.41665">
        <ele>1096</ele>
        <time>2013-06-02T03:29:11Z</time>
      </trkpt>
      <trkpt lat="-21.20388" lon="55.41673">
        <ele>1097.7</ele>
        <time>2013-06-02T03:29:20Z</time>
      </trkpt>
      <trkpt lat="-21.20382" lon="55.41681">
        <ele>1099.1</ele>
        <time>2013-06-02T03:29:28Z</time>
      </trkpt>
      <trkpt lat="-21.20379" lon="55.41689">
        <ele>1100.4</ele>
        <time>2013-06-02T03:29:36Z</time>
      </trkpt>
      <trkpt lat="-21.20375" lon="55.41698">
        <ele>1101.9</ele>
        <time>2013-06-02T03:29:42Z</time>
      </trkpt>
      <trkpt lat="-21.20375" lon="55.41699">
        <ele>1102.2</ele>
        <time>2013-06-02T03:29:43Z</time>
      </trkpt>
      <trkpt lat="-21.2037" lon="55.41713">
        <ele>1103</ele>
        <time>2013-06-02T03:29:53Z</time>
      </trkpt>
      <trkpt lat="-21.20366" lon="55.4172">
        <ele>1104.4</ele>
        <time>2013-06-02T03:29:59Z</time>
      </trkpt>
      <trkpt lat="-21.20362" lon="55.41728">
        <ele>1105.9</ele>
        <time>2013-06-02T03:30:05Z</time>
      </trkpt>
      <trkpt lat="-21.20358" lon="55.41735">
        <ele>1106.9</ele>
        <time>2013-06-02T03:30:11Z</time>
      </trkpt>
      <trkpt lat="-21.20361" lon="55.41744">
        <ele>1107.1</ele>
        <time>2013-06-02T03:30:16Z</time>
      </trkpt>
      <trkpt lat="-21.20363" lon="55.41751">
        <ele>1107.2</ele>
        <time>2013-06-02T03:30:19Z</time>
      </trkpt>
      <trkpt lat="-21.20367" lon="55.41759">
        <ele>1106.7</ele>
        <time>2013-06-02T03:30:23Z</time>
      </trkpt>
      <trkpt lat="-21.20371" lon="55.41766">
        <ele>1105.5</ele>
        <time>2013-06-02T03:30:27Z</time>
      </trkpt>
      <trkpt lat="-21.20376" lon="55.41773">
        <ele>1104.6</ele>
        <time>2013-06-02T03:30:31Z</time>
      </trkpt>
      <trkpt lat="-21.2038" lon="55.41779">
        <ele>1104.6</ele>
        <time>2013-06-02T03:30:34Z</time>
      </trkpt>
      <trkpt lat="-21.20387" lon="55.41783">
        <ele>1104.5</ele>
        <time>2013-06-02T03:30:39Z</time>
      </trkpt>
      <trkpt lat="-21.20392" lon="55.4179">
        <ele>1105.6</ele>
        <time>2013-06-02T03:30:46Z</time>
      </trkpt>
      <trkpt lat="-21.20392" lon="55.41791">
        <ele>1105.8</ele>
        <time>2013-06-02T03:30:47Z</time>
      </trkpt>
      <trkpt lat="-21.20382" lon="55.41804">
        <ele>1108.7</ele>
        <time>2013-06-02T03:30:59Z</time>
      </trkpt>
      <trkpt lat="-21.20376" lon="55.41811">
        <ele>1109.2</ele>
        <time>2013-06-02T03:31:05Z</time>
      </trkpt>
      <trkpt lat="-21.20369" lon="55.41817">
        <ele>1110.5</ele>
        <time>2013-06-02T03:31:12Z</time>
      </trkpt>
      <trkpt lat="-21.20362" lon="55.41819">
        <ele>1111.8</ele>
        <time>2013-06-02T03:31:18Z</time>
      </trkpt>
      <trkpt lat="-21.20353" lon="55.41819">
        <ele>1112.4</ele>
        <time>2013-06-02T03:31:24Z</time>
      </trkpt>
      <trkpt lat="-21.20345" lon="55.41822">
        <ele>1113.3</ele>
        <time>2013-06-02T03:31:31Z</time>
      </trkpt>
      <trkpt lat="-21.20336" lon="55.41826">
        <ele>1114.6</ele>
        <time>2013-06-02T03:31:37Z</time>
      </trkpt>
      <trkpt lat="-21.20329" lon="55.4183">
        <ele>1117.1</ele>
        <time>2013-06-02T03:31:46Z</time>
      </trkpt>
      <trkpt lat="-21.20323" lon="55.41835">
        <ele>1118.2</ele>
        <time>2013-06-02T03:31:52Z</time>
      </trkpt>
      <trkpt lat="-21.20322" lon="55.41836">
        <ele>1118.3</ele>
        <time>2013-06-02T03:31:53Z</time>
      </trkpt>
      <trkpt lat="-21.20311" lon="55.41848">
        <ele>1121.9</ele>
        <time>2013-06-02T03:32:09Z</time>
      </trkpt>
      <trkpt lat="-21.20308" lon="55.41856">
        <ele>1123.5</ele>
        <time>2013-06-02T03:32:17Z</time>
      </trkpt>
      <trkpt lat="-21.20304" lon="55.41864">
        <ele>1124.9</ele>
        <time>2013-06-02T03:32:28Z</time>
      </trkpt>
      <trkpt lat="-21.20299" lon="55.41871">
        <ele>1126.7</ele>
        <time>2013-06-02T03:32:38Z</time>
      </trkpt>
      <trkpt lat="-21.20293" lon="55.41876">
        <ele>1127.4</ele>
        <time>2013-06-02T03:32:44Z</time>
      </trkpt>
      <trkpt lat="-21.20284" lon="55.41879">
        <ele>1128.7</ele>
        <time>2013-06-02T03:32:50Z</time>
      </trkpt>
      <trkpt lat="-21.20278" lon="55.41883">
        <ele>1129.2</ele>
        <time>2013-06-02T03:32:56Z</time>
      </trkpt>
      <trkpt lat="-21.20276" lon="55.41884">
        <ele>1129.8</ele>
        <time>2013-06-02T03:32:57Z</time>
      </trkpt>
      <trkpt lat="-21.20267" lon="55.41897">
        <ele>1131.3</ele>
        <time>2013-06-02T03:33:13Z</time>
      </trkpt>
      <trkpt lat="-21.20261" lon="55.41903">
        <ele>1132.5</ele>
        <time>2013-06-02T03:33:20Z</time>
      </trkpt>
      <trkpt lat="-21.20253" lon="55.41907">
        <ele>1134</ele>
        <time>2013-06-02T03:33:28Z</time>
      </trkpt>
      <trkpt lat="-21.20246" lon="55.41913">
        <ele>1135.1</ele>
        <time>2013-06-02T03:33:33Z</time>
      </trkpt>
      <trkpt lat="-21.20241" lon="55.41919">
        <ele>1134.8</ele>
        <time>2013-06-02T03:33:39Z</time>
      </trkpt>
      <trkpt lat="-21.20239" lon="55.41928">
        <ele>1135.2</ele>
        <time>2013-06-02T03:33:45Z</time>
      </trkpt>
      <trkpt lat="-21.20236" lon="55.41936">
        <ele>1135.7</ele>
        <time>2013-06-02T03:33:51Z</time>
      </trkpt>
      <trkpt lat="-21.20231" lon="55.41943">
        <ele>1137.2</ele>
        <time>2013-06-02T03:33:58Z</time>
      </trkpt>
      <trkpt lat="-21.20231" lon="55.41944">
        <ele>1137.5</ele>
        <time>2013-06-02T03:33:59Z</time>
      </trkpt>
      <trkpt lat="-21.20217" lon="55.41948">
        <ele>1139</ele>
        <time>2013-06-02T03:34:10Z</time>
      </trkpt>
      <trkpt lat="-21.20209" lon="55.41947">
        <ele>1139.8</ele>
        <time>2013-06-02T03:34:16Z</time>
      </trkpt>
      <trkpt lat="-21.202" lon="55.41946">
        <ele>1141.7</ele>
        <time>2013-06-02T03:34:22Z</time>
      </trkpt>
      <trkpt lat="-21.20191" lon="55.41946">
        <ele>1143.4</ele>
        <time>2013-06-02T03:34:28Z</time>
      </trkpt>
      <trkpt lat="-21.20184" lon="55.41948">
        <ele>1144.3</ele>
        <time>2013-06-02T03:34:33Z</time>
      </trkpt>
      <trkpt lat="-21.20175" lon="55.41949">
        <ele>1145.9</ele>
        <time>2013-06-02T03:34:39Z</time>
      </trkpt>
      <trkpt lat="-21.20167" lon="55.41952">
        <ele>1146.9</ele>
        <time>2013-06-02T03:34:45Z</time>
      </trkpt>
      <trkpt lat="-21.20159" lon="55.41955">
        <ele>1148.6</ele>
        <time>2013-06-02T03:34:53Z</time>
      </trkpt>
      <trkpt lat="-21.20151" lon="55.41957">
        <ele>1150.7</ele>
        <time>2013-06-02T03:35:01Z</time>
      </trkpt>
      <trkpt lat="-21.2015" lon="55.41957">
        <ele>1150.8</ele>
        <time>2013-06-02T03:35:02Z</time>
      </trkpt>
      <trkpt lat="-21.2014" lon="55.41969">
        <ele>1152.8</ele>
        <time>2013-06-02T03:35:12Z</time>
      </trkpt>
      <trkpt lat="-21.20136" lon="55.41976">
        <ele>1153.3</ele>
        <time>2013-06-02T03:35:16Z</time>
      </trkpt>
      <trkpt lat="-21.20133" lon="55.41983">
        <ele>1152.6</ele>
        <time>2013-06-02T03:35:20Z</time>
      </trkpt>
      <trkpt lat="-21.20129" lon="55.41991">
        <ele>1152.2</ele>
        <time>2013-06-02T03:35:24Z</time>
      </trkpt>
      <trkpt lat="-21.20128" lon="55.41999">
        <ele>1152</ele>
        <time>2013-06-02T03:35:28Z</time>
      </trkpt>
      <trkpt lat="-21.2013" lon="55.42006">
        <ele>1152.3</ele>
        <time>2013-06-02T03:35:31Z</time>
      </trkpt>
      <trkpt lat="-21.20132" lon="55.42014">
        <ele>1152.8</ele>
        <time>2013-06-02T03:35:34Z</time>
      </trkpt>
      <trkpt lat="-21.20134" lon="55.42021">
        <ele>1152.8</ele>
        <time>2013-06-02T03:35:37Z</time>
      </trkpt>
      <trkpt lat="-21.20138" lon="55.42027">
        <ele>1152.9</ele>
        <time>2013-06-02T03:35:40Z</time>
      </trkpt>
      <trkpt lat="-21.20143" lon="55.42034">
        <ele>1152.5</ele>
        <time>2013-06-02T03:35:43Z</time>
      </trkpt>
      <trkpt lat="-21.20147" lon="55.4204">
        <ele>1151.8</ele>
        <time>2013-06-02T03:35:46Z</time>
      </trkpt>
      <trkpt lat="-21.20151" lon="55.42047">
        <ele>1152.3</ele>
        <time>2013-06-02T03:35:49Z</time>
      </trkpt>
      <trkpt lat="-21.20156" lon="55.42053">
        <ele>1152.7</ele>
        <time>2013-06-02T03:35:52Z</time>
      </trkpt>
      <trkpt lat="-21.2016" lon="55.4206">
        <ele>1151.9</ele>
        <time>2013-06-02T03:35:55Z</time>
      </trkpt>
      <trkpt lat="-21.20163" lon="55.42068">
        <ele>1151.5</ele>
        <time>2013-06-02T03:35:59Z</time>
      </trkpt>
      <trkpt lat="-21.20161" lon="55.42077">
        <ele>1151.7</ele>
        <time>2013-06-02T03:36:03Z</time>
      </trkpt>
      <trkpt lat="-21.20162" lon="55.4208">
        <ele>1151.9</ele>
        <time>2013-06-02T03:36:04Z</time>
      </trkpt>
      <trkpt lat="-21.20168" lon="55.42093">
        <ele>1150.7</ele>
        <time>2013-06-02T03:36:11Z</time>
      </trkpt>
      <trkpt lat="-21.20176" lon="55.42088">
        <ele>1150.9</ele>
        <time>2013-06-02T03:36:16Z</time>
      </trkpt>
      <trkpt lat="-21.20183" lon="55.42082">
        <ele>1151.2</ele>
        <time>2013-06-02T03:36:21Z</time>
      </trkpt>
      <trkpt lat="-21.20191" lon="55.42078">
        <ele>1151</ele>
        <time>2013-06-02T03:36:26Z</time>
      </trkpt>
      <trkpt lat="-21.20199" lon="55.42077">
        <ele>1152.4</ele>
        <time>2013-06-02T03:36:31Z</time>
      </trkpt>
      <trkpt lat="-21.20208" lon="55.42078">
        <ele>1153.1</ele>
        <time>2013-06-02T03:36:35Z</time>
      </trkpt>
      <trkpt lat="-21.20214" lon="55.42084">
        <ele>1152.7</ele>
        <time>2013-06-02T03:36:39Z</time>
      </trkpt>
      <trkpt lat="-21.20218" lon="55.4209">
        <ele>1153.6</ele>
        <time>2013-06-02T03:36:42Z</time>
      </trkpt>
      <trkpt lat="-21.20221" lon="55.42097">
        <ele>1153.2</ele>
        <time>2013-06-02T03:36:45Z</time>
      </trkpt>
      <trkpt lat="-21.20222" lon="55.42104">
        <ele>1152.3</ele>
        <time>2013-06-02T03:36:48Z</time>
      </trkpt>
      <trkpt lat="-21.20224" lon="55.42112">
        <ele>1151.6</ele>
        <time>2013-06-02T03:36:51Z</time>
      </trkpt>
      <trkpt lat="-21.20223" lon="55.4212">
        <ele>1151.4</ele>
        <time>2013-06-02T03:36:54Z</time>
      </trkpt>
      <trkpt lat="-21.20223" lon="55.42129">
        <ele>1151.8</ele>
        <time>2013-06-02T03:36:58Z</time>
      </trkpt>
      <trkpt lat="-21.20223" lon="55.42137">
        <ele>1151.8</ele>
        <time>2013-06-02T03:37:02Z</time>
      </trkpt>
      <trkpt lat="-21.20222" lon="55.42146">
        <ele>1152.4</ele>
        <time>2013-06-02T03:37:12Z</time>
      </trkpt>
      <trkpt lat="-21.20222" lon="55.42147">
        <ele>1152.4</ele>
        <time>2013-06-02T03:37:13Z</time>
      </trkpt>
      <trkpt lat="-21.20209" lon="55.42155">
        <ele>1153.7</ele>
        <time>2013-06-02T03:37:23Z</time>
      </trkpt>
      <trkpt lat="-21.20203" lon="55.4216">
        <ele>1155.1</ele>
        <time>2013-06-02T03:37:27Z</time>
      </trkpt>
      <trkpt lat="-21.20196" lon="55.42164">
        <ele>1156</ele>
        <time>2013-06-02T03:37:31Z</time>
      </trkpt>
      <trkpt lat="-21.20189" lon="55.4217">
        <ele>1155.9</ele>
        <time>2013-06-02T03:37:36Z</time>
      </trkpt>
      <trkpt lat="-21.20184" lon="55.42177">
        <ele>1156.1</ele>
        <time>2013-06-02T03:37:40Z</time>
      </trkpt>
      <trkpt lat="-21.2018" lon="55.42183">
        <ele>1156.1</ele>
        <time>2013-06-02T03:37:43Z</time>
      </trkpt>
      <trkpt lat="-21.2018" lon="55.42191">
        <ele>1156.4</ele>
        <time>2013-06-02T03:37:46Z</time>
      </trkpt>
      <trkpt lat="-21.20185" lon="55.42198">
        <ele>1156.3</ele>
        <time>2013-06-02T03:37:50Z</time>
      </trkpt>
      <trkpt lat="-21.20192" lon="55.42202">
        <ele>1157.5</ele>
        <time>2013-06-02T03:37:54Z</time>
      </trkpt>
      <trkpt lat="-21.20198" lon="55.42207">
        <ele>1158.1</ele>
        <time>2013-06-02T03:37:58Z</time>
      </trkpt>
      <trkpt lat="-21.20205" lon="55.42213">
        <ele>1158.5</ele>
        <time>2013-06-02T03:38:02Z</time>
      </trkpt>
      <trkpt lat="-21.20209" lon="55.4222">
        <ele>1159.2</ele>
        <time>2013-06-02T03:38:06Z</time>
      </trkpt>
      <trkpt lat="-21.20213" lon="55.42228">
        <ele>1159.6</ele>
        <time>2013-06-02T03:38:10Z</time>
      </trkpt>
      <trkpt lat="-21.20215" lon="55.42235">
        <ele>1160.5</ele>
        <time>2013-06-02T03:38:14Z</time>
      </trkpt>
      <trkpt lat="-21.20215" lon="55.42237">
        <ele>1160.8</ele>
        <time>2013-06-02T03:38:15Z</time>
      </trkpt>
      <trkpt lat="-21.20214" lon="55.42254">
        <ele>1162</ele>
        <time>2013-06-02T03:38:24Z</time>
      </trkpt>
      <trkpt lat="-21.20211" lon="55.42261">
        <ele>1162.6</ele>
        <time>2013-06-02T03:38:28Z</time>
      </trkpt>
      <trkpt lat="-21.20205" lon="55.42267">
        <ele>1163.5</ele>
        <time>2013-06-02T03:38:32Z</time>
      </trkpt>
      <trkpt lat="-21.20197" lon="55.42271">
        <ele>1164.4</ele>
        <time>2013-06-02T03:38:36Z</time>
      </trkpt>
      <trkpt lat="-21.2019" lon="55.42273">
        <ele>1165.5</ele>
        <time>2013-06-02T03:38:41Z</time>
      </trkpt>
      <trkpt lat="-21.20182" lon="55.42272">
        <ele>1165.4</ele>
        <time>2013-06-02T03:38:46Z</time>
      </trkpt>
      <trkpt lat="-21.20175" lon="55.42271">
        <ele>1165.9</ele>
        <time>2013-06-02T03:38:51Z</time>
      </trkpt>
      <trkpt lat="-21.20167" lon="55.4227">
        <ele>1166.8</ele>
        <time>2013-06-02T03:38:56Z</time>
      </trkpt>
      <trkpt lat="-21.20161" lon="55.42275">
        <ele>1167.7</ele>
        <time>2013-06-02T03:39:02Z</time>
      </trkpt>
      <trkpt lat="-21.20155" lon="55.42283">
        <ele>1168.8</ele>
        <time>2013-06-02T03:39:08Z</time>
      </trkpt>
      <trkpt lat="-21.2015" lon="55.4229">
        <ele>1168.7</ele>
        <time>2013-06-02T03:39:14Z</time>
      </trkpt>
      <trkpt lat="-21.20146" lon="55.42298">
        <ele>1169.2</ele>
        <time>2013-06-02T03:39:20Z</time>
      </trkpt>
      <trkpt lat="-21.20146" lon="55.42299">
        <ele>1169.1</ele>
        <time>2013-06-02T03:39:21Z</time>
      </trkpt>
      <trkpt lat="-21.20138" lon="55.42313">
        <ele>1171.6</ele>
        <time>2013-06-02T03:39:31Z</time>
      </trkpt>
      <trkpt lat="-21.20135" lon="55.4232">
        <ele>1171.5</ele>
        <time>2013-06-02T03:39:35Z</time>
      </trkpt>
      <trkpt lat="-21.20132" lon="55.42328">
        <ele>1172.5</ele>
        <time>2013-06-02T03:39:40Z</time>
      </trkpt>
      <trkpt lat="-21.2013" lon="55.42337">
        <ele>1173.5</ele>
        <time>2013-06-02T03:39:46Z</time>
      </trkpt>
      <trkpt lat="-21.20127" lon="55.42346">
        <ele>1174.2</ele>
        <time>2013-06-02T03:39:53Z</time>
      </trkpt>
      <trkpt lat="-21.20123" lon="55.42354">
        <ele>1175.2</ele>
        <time>2013-06-02T03:39:59Z</time>
      </trkpt>
      <trkpt lat="-21.20117" lon="55.4236">
        <ele>1175.6</ele>
        <time>2013-06-02T03:40:05Z</time>
      </trkpt>
      <trkpt lat="-21.20109" lon="55.42358">
        <ele>1176.7</ele>
        <time>2013-06-02T03:40:12Z</time>
      </trkpt>
      <trkpt lat="-21.20103" lon="55.42353">
        <ele>1177.8</ele>
        <time>2013-06-02T03:40:18Z</time>
      </trkpt>
      <trkpt lat="-21.20096" lon="55.42348">
        <ele>1179.2</ele>
        <time>2013-06-02T03:40:24Z</time>
      </trkpt>
      <trkpt lat="-21.20095" lon="55.42347">
        <ele>1179.5</ele>
        <time>2013-06-02T03:40:25Z</time>
      </trkpt>
      <trkpt lat="-21.20089" lon="55.42332">
        <ele>1181.3</ele>
        <time>2013-06-02T03:40:36Z</time>
      </trkpt>
      <trkpt lat="-21.2009" lon="55.42323">
        <ele>1182.5</ele>
        <time>2013-06-02T03:40:43Z</time>
      </trkpt>
      <trkpt lat="-21.20092" lon="55.42314">
        <ele>1183.5</ele>
        <time>2013-06-02T03:40:50Z</time>
      </trkpt>
      <trkpt lat="-21.20089" lon="55.42306">
        <ele>1184.9</ele>
        <time>2013-06-02T03:40:55Z</time>
      </trkpt>
      <trkpt lat="-21.2008" lon="55.42304">
        <ele>1186</ele>
        <time>2013-06-02T03:41:01Z</time>
      </trkpt>
      <trkpt lat="-21.20074" lon="55.42311">
        <ele>1187.5</ele>
        <time>2013-06-02T03:41:08Z</time>
      </trkpt>
      <trkpt lat="-21.20072" lon="55.4232">
        <ele>1188.4</ele>
        <time>2013-06-02T03:41:15Z</time>
      </trkpt>
      <trkpt lat="-21.2007" lon="55.42328">
        <ele>1190.5</ele>
        <time>2013-06-02T03:41:22Z</time>
      </trkpt>
      <trkpt lat="-21.20067" lon="55.42337">
        <ele>1191.4</ele>
        <time>2013-06-02T03:41:28Z</time>
      </trkpt>
      <trkpt lat="-21.20066" lon="55.42338">
        <ele>1191.4</ele>
        <time>2013-06-02T03:41:29Z</time>
      </trkpt>
      <trkpt lat="-21.20058" lon="55.42352">
        <ele>1191.6</ele>
        <time>2013-06-02T03:41:40Z</time>
      </trkpt>
      <trkpt lat="-21.20052" lon="55.42358">
        <ele>1192.9</ele>
        <time>2013-06-02T03:41:45Z</time>
      </trkpt>
      <trkpt lat="-21.20049" lon="55.42367">
        <ele>1193.3</ele>
        <time>2013-06-02T03:41:50Z</time>
      </trkpt>
      <trkpt lat="-21.20049" lon="55.42375">
        <ele>1194.3</ele>
        <time>2013-06-02T03:41:55Z</time>
      </trkpt>
      <trkpt lat="-21.2005" lon="55.42384">
        <ele>1195.5</ele>
        <time>2013-06-02T03:42:01Z</time>
      </trkpt>
      <trkpt lat="-21.20053" lon="55.42392">
        <ele>1196.1</ele>
        <time>2013-06-02T03:42:07Z</time>
      </trkpt>
      <trkpt lat="-21.20053" lon="55.424">
        <ele>1196.9</ele>
        <time>2013-06-02T03:42:12Z</time>
      </trkpt>
      <trkpt lat="-21.20048" lon="55.42408">
        <ele>1198.8</ele>
        <time>2013-06-02T03:42:18Z</time>
      </trkpt>
      <trkpt lat="-21.20042" lon="55.42413">
        <ele>1199.6</ele>
        <time>2013-06-02T03:42:24Z</time>
      </trkpt>
      <trkpt lat="-21.20035" lon="55.42418">
        <ele>1200.3</ele>
        <time>2013-06-02T03:42:30Z</time>
      </trkpt>
      <trkpt lat="-21.20033" lon="55.42418">
        <ele>1200.5</ele>
        <time>2013-06-02T03:42:31Z</time>
      </trkpt>
      <trkpt lat="-21.20019" lon="55.42417">
        <ele>1203.4</ele>
        <time>2013-06-02T03:42:42Z</time>
      </trkpt>
      <trkpt lat="-21.20012" lon="55.42413">
        <ele>1204.2</ele>
        <time>2013-06-02T03:42:48Z</time>
      </trkpt>
      <trkpt lat="-21.20004" lon="55.42408">
        <ele>1205.5</ele>
        <time>2013-06-02T03:42:55Z</time>
      </trkpt>
      <trkpt lat="-21.19998" lon="55.42402">
        <ele>1206.9</ele>
        <time>2013-06-02T03:43:01Z</time>
      </trkpt>
      <trkpt lat="-21.19992" lon="55.42395">
        <ele>1208.7</ele>
        <time>2013-06-02T03:43:08Z</time>
      </trkpt>
      <trkpt lat="-21.19985" lon="55.42389">
        <ele>1209.3</ele>
        <time>2013-06-02T03:43:14Z</time>
      </trkpt>
      <trkpt lat="-21.19977" lon="55.42389">
        <ele>1211.2</ele>
        <time>2013-06-02T03:43:20Z</time>
      </trkpt>
      <trkpt lat="-21.19971" lon="55.42394">
        <ele>1211.6</ele>
        <time>2013-06-02T03:43:26Z</time>
      </trkpt>
      <trkpt lat="-21.19966" lon="55.42401">
        <ele>1213.5</ele>
        <time>2013-06-02T03:43:33Z</time>
      </trkpt>
      <trkpt lat="-21.19965" lon="55.42402">
        <ele>1213.6</ele>
        <time>2013-06-02T03:43:34Z</time>
      </trkpt>
      <trkpt lat="-21.19956" lon="55.42416">
        <ele>1216.6</ele>
        <time>2013-06-02T03:43:48Z</time>
      </trkpt>
      <trkpt lat="-21.19949" lon="55.4242">
        <ele>1218.3</ele>
        <time>2013-06-02T03:43:55Z</time>
      </trkpt>
      <trkpt lat="-21.1994" lon="55.42423">
        <ele>1220.3</ele>
        <time>2013-06-02T03:44:02Z</time>
      </trkpt>
      <trkpt lat="-21.19932" lon="55.42422">
        <ele>1221.4</ele>
        <time>2013-06-02T03:44:08Z</time>
      </trkpt>
      <trkpt lat="-21.19923" lon="55.42423">
        <ele>1222.8</ele>
        <time>2013-06-02T03:44:14Z</time>
      </trkpt>
      <trkpt lat="-21.19914" lon="55.42423">
        <ele>1223.4</ele>
        <time>2013-06-02T03:44:20Z</time>
      </trkpt>
      <trkpt lat="-21.19906" lon="55.42424">
        <ele>1224.7</ele>
        <time>2013-06-02T03:44:25Z</time>
      </trkpt>
      <trkpt lat="-21.19899" lon="55.42425">
        <ele>1225.6</ele>
        <time>2013-06-02T03:44:30Z</time>
      </trkpt>
      <trkpt lat="-21.1989" lon="55.42425">
        <ele>1226.2</ele>
        <time>2013-06-02T03:44:36Z</time>
      </trkpt>
      <trkpt lat="-21.19889" lon="55.42425">
        <ele>1226.5</ele>
        <time>2013-06-02T03:44:37Z</time>
      </trkpt>
      <trkpt lat="-21.19874" lon="55.42422">
        <ele>1229.1</ele>
        <time>2013-06-02T03:44:49Z</time>
      </trkpt>
      <trkpt lat="-21.19865" lon="55.4242">
        <ele>1230.2</ele>
        <time>2013-06-02T03:44:56Z</time>
      </trkpt>
      <trkpt lat="-21.19858" lon="55.42418">
        <ele>1231.3</ele>
        <time>2013-06-02T03:45:02Z</time>
      </trkpt>
      <trkpt lat="-21.19849" lon="55.42415">
        <ele>1233.9</ele>
        <time>2013-06-02T03:45:10Z</time>
      </trkpt>
      <trkpt lat="-21.19842" lon="55.42413">
        <ele>1235.8</ele>
        <time>2013-06-02T03:45:17Z</time>
      </trkpt>
      <trkpt lat="-21.19834" lon="55.4241">
        <ele>1236.5</ele>
        <time>2013-06-02T03:45:24Z</time>
      </trkpt>
      <trkpt lat="-21.19826" lon="55.42408">
        <ele>1237.3</ele>
        <time>2013-06-02T03:45:31Z</time>
      </trkpt>
      <trkpt lat="-21.19817" lon="55.42407">
        <ele>1240.4</ele>
        <time>2013-06-02T03:45:38Z</time>
      </trkpt>
      <trkpt lat="-21.19816" lon="55.42407">
        <ele>1240.8</ele>
        <time>2013-06-02T03:45:39Z</time>
      </trkpt>
      <trkpt lat="-21.19801" lon="55.42404">
        <ele>1242.8</ele>
        <time>2013-06-02T03:45:52Z</time>
      </trkpt>
      <trkpt lat="-21.19793" lon="55.42403">
        <ele>1243.9</ele>
        <time>2013-06-02T03:45:58Z</time>
      </trkpt>
      <trkpt lat="-21.19784" lon="55.42402">
        <ele>1245</ele>
        <time>2013-06-02T03:46:05Z</time>
      </trkpt>
      <trkpt lat="-21.19776" lon="55.42399">
        <ele>1245.7</ele>
        <time>2013-06-02T03:46:11Z</time>
      </trkpt>
      <trkpt lat="-21.19768" lon="55.42396">
        <ele>1246.9</ele>
        <time>2013-06-02T03:46:17Z</time>
      </trkpt>
      <trkpt lat="-21.19761" lon="55.42393">
        <ele>1248.5</ele>
        <time>2013-06-02T03:46:23Z</time>
      </trkpt>
      <trkpt lat="-21.19753" lon="55.4239">
        <ele>1249.7</ele>
        <time>2013-06-02T03:46:30Z</time>
      </trkpt>
      <trkpt lat="-21.19744" lon="55.42388">
        <ele>1250.5</ele>
        <time>2013-06-02T03:46:38Z</time>
      </trkpt>
      <trkpt lat="-21.19737" lon="55.42385">
        <ele>1252.5</ele>
        <time>2013-06-02T03:46:45Z</time>
      </trkpt>
      <trkpt lat="-21.19735" lon="55.42384">
        <ele>1253.1</ele>
        <time>2013-06-02T03:46:46Z</time>
      </trkpt>
      <trkpt lat="-21.19721" lon="55.42382">
        <ele>1253.9</ele>
        <time>2013-06-02T03:46:57Z</time>
      </trkpt>
      <trkpt lat="-21.19713" lon="55.42382">
        <ele>1254.1</ele>
        <time>2013-06-02T03:47:03Z</time>
      </trkpt>
      <trkpt lat="-21.19704" lon="55.42384">
        <ele>1254.9</ele>
        <time>2013-06-02T03:47:10Z</time>
      </trkpt>
      <trkpt lat="-21.19696" lon="55.42387">
        <ele>1256.6</ele>
        <time>2013-06-02T03:47:17Z</time>
      </trkpt>
      <trkpt lat="-21.19689" lon="55.4239">
        <ele>1258.3</ele>
        <time>2013-06-02T03:47:23Z</time>
      </trkpt>
      <trkpt lat="-21.19682" lon="55.42392">
        <ele>1258.9</ele>
        <time>2013-06-02T03:47:28Z</time>
      </trkpt>
      <trkpt lat="-21.19674" lon="55.42395">
        <ele>1260.1</ele>
        <time>2013-06-02T03:47:33Z</time>
      </trkpt>
      <trkpt lat="-21.19666" lon="55.42397">
        <ele>1261.1</ele>
        <time>2013-06-02T03:47:38Z</time>
      </trkpt>
      <trkpt lat="-21.19658" lon="55.42399">
        <ele>1261.6</ele>
        <time>2013-06-02T03:47:43Z</time>
      </trkpt>
      <trkpt lat="-21.19651" lon="55.42401">
        <ele>1262.2</ele>
        <time>2013-06-02T03:47:48Z</time>
      </trkpt>
      <trkpt lat="-21.19649" lon="55.42401">
        <ele>1262.5</ele>
        <time>2013-06-02T03:47:49Z</time>
      </trkpt>
      <trkpt lat="-21.19634" lon="55.42403">
        <ele>1263.3</ele>
        <time>2013-06-02T03:47:58Z</time>
      </trkpt>
      <trkpt lat="-21.19627" lon="55.42405">
        <ele>1264.3</ele>
        <time>2013-06-02T03:48:03Z</time>
      </trkpt>
      <trkpt lat="-21.19618" lon="55.42405">
        <ele>1265.7</ele>
        <time>2013-06-02T03:48:09Z</time>
      </trkpt>
      <trkpt lat="-21.1961" lon="55.42404">
        <ele>1266.1</ele>
        <time>2013-06-02T03:48:14Z</time>
      </trkpt>
      <trkpt lat="-21.19602" lon="55.42403">
        <ele>1266.8</ele>
        <time>2013-06-02T03:48:20Z</time>
      </trkpt>
      <trkpt lat="-21.19595" lon="55.424">
        <ele>1267.6</ele>
        <time>2013-06-02T03:48:26Z</time>
      </trkpt>
      <trkpt lat="-21.19586" lon="55.42397">
        <ele>1269.4</ele>
        <time>2013-06-02T03:48:32Z</time>
      </trkpt>
      <trkpt lat="-21.19578" lon="55.42396">
        <ele>1269.6</ele>
        <time>2013-06-02T03:48:37Z</time>
      </trkpt>
      <trkpt lat="-21.19571" lon="55.42395">
        <ele>1271</ele>
        <time>2013-06-02T03:48:42Z</time>
      </trkpt>
      <trkpt lat="-21.19563" lon="55.42393">
        <ele>1271.9</ele>
        <time>2013-06-02T03:48:48Z</time>
      </trkpt>
      <trkpt lat="-21.19554" lon="55.42391">
        <ele>1272.6</ele>
        <time>2013-06-02T03:48:54Z</time>
      </trkpt>
      <trkpt lat="-21.19553" lon="55.42391">
        <ele>1272.6</ele>
        <time>2013-06-02T03:48:55Z</time>
      </trkpt>
      <trkpt lat="-21.19538" lon="55.42388">
        <ele>1274.7</ele>
        <time>2013-06-02T03:49:06Z</time>
      </trkpt>
      <trkpt lat="-21.1953" lon="55.42388">
        <ele>1275.4</ele>
        <time>2013-06-02T03:49:12Z</time>
      </trkpt>
      <trkpt lat="-21.19521" lon="55.42388">
        <ele>1277</ele>
        <time>2013-06-02T03:49:18Z</time>
      </trkpt>
      <trkpt lat="-21.19512" lon="55.42388">
        <ele>1278.3</ele>
        <time>2013-06-02T03:49:24Z</time>
      </trkpt>
      <trkpt lat="-21.19505" lon="55.42388">
        <ele>1278.6</ele>
        <time>2013-06-02T03:49:29Z</time>
      </trkpt>
      <trkpt lat="-21.19496" lon="55.42389">
        <ele>1279.9</ele>
        <time>2013-06-02T03:49:35Z</time>
      </trkpt>
      <trkpt lat="-21.19488" lon="55.42389">
        <ele>1280.6</ele>
        <time>2013-06-02T03:49:41Z</time>
      </trkpt>
      <trkpt lat="-21.19481" lon="55.42391">
        <ele>1281.4</ele>
        <time>2013-06-02T03:49:46Z</time>
      </trkpt>
      <trkpt lat="-21.19473" lon="55.42392">
        <ele>1283.7</ele>
        <time>2013-06-02T03:49:52Z</time>
      </trkpt>
      <trkpt lat="-21.19464" lon="55.4239">
        <ele>1285</ele>
        <time>2013-06-02T03:49:59Z</time>
      </trkpt>
      <trkpt lat="-21.19463" lon="55.4239">
        <ele>1285</ele>
        <time>2013-06-02T03:50:00Z</time>
      </trkpt>
      <trkpt lat="-21.19448" lon="55.42387">
        <ele>1287.1</ele>
        <time>2013-06-02T03:50:11Z</time>
      </trkpt>
      <trkpt lat="-21.1944" lon="55.42384">
        <ele>1288.3</ele>
        <time>2013-06-02T03:50:17Z</time>
      </trkpt>
      <trkpt lat="-21.19432" lon="55.42381">
        <ele>1289.2</ele>
        <time>2013-06-02T03:50:23Z</time>
      </trkpt>
      <trkpt lat="-21.19425" lon="55.42379">
        <ele>1290.5</ele>
        <time>2013-06-02T03:50:28Z</time>
      </trkpt>
      <trkpt lat="-21.19416" lon="55.42379">
        <ele>1290.6</ele>
        <time>2013-06-02T03:50:33Z</time>
      </trkpt>
      <trkpt lat="-21.19409" lon="55.4238">
        <ele>1291.3</ele>
        <time>2013-06-02T03:50:37Z</time>
      </trkpt>
      <trkpt lat="-21.19401" lon="55.42382">
        <ele>1292.3</ele>
        <time>2013-06-02T03:50:41Z</time>
      </trkpt>
      <trkpt lat="-21.19393" lon="55.42382">
        <ele>1293.5</ele>
        <time>2013-06-02T03:50:45Z</time>
      </trkpt>
      <trkpt lat="-21.19384" lon="55.42381">
        <ele>1292.9</ele>
        <time>2013-06-02T03:50:50Z</time>
      </trkpt>
      <trkpt lat="-21.19377" lon="55.42378">
        <ele>1293.2</ele>
        <time>2013-06-02T03:50:54Z</time>
      </trkpt>
      <trkpt lat="-21.1937" lon="55.42373">
        <ele>1294.2</ele>
        <time>2013-06-02T03:50:59Z</time>
      </trkpt>
      <trkpt lat="-21.19364" lon="55.42369">
        <ele>1294</ele>
        <time>2013-06-02T03:51:04Z</time>
      </trkpt>
      <trkpt lat="-21.19362" lon="55.42368">
        <ele>1294.2</ele>
        <time>2013-06-02T03:51:05Z</time>
      </trkpt>
      <trkpt lat="-21.19349" lon="55.4236">
        <ele>1296.2</ele>
        <time>2013-06-02T03:51:16Z</time>
      </trkpt>
      <trkpt lat="-21.19341" lon="55.42358">
        <ele>1297.2</ele>
        <time>2013-06-02T03:51:22Z</time>
      </trkpt>
      <trkpt lat="-21.19333" lon="55.42355">
        <ele>1298.4</ele>
        <time>2013-06-02T03:51:28Z</time>
      </trkpt>
      <trkpt lat="-21.19324" lon="55.42353">
        <ele>1300.1</ele>
        <time>2013-06-02T03:51:34Z</time>
      </trkpt>
      <trkpt lat="-21.19316" lon="55.42351">
        <ele>1299.9</ele>
        <time>2013-06-02T03:51:40Z</time>
      </trkpt>
      <trkpt lat="-21.19309" lon="55.42348">
        <ele>1300.6</ele>
        <time>2013-06-02T03:51:46Z</time>
      </trkpt>
      <trkpt lat="-21.19302" lon="55.42345">
        <ele>1301.4</ele>
        <time>2013-06-02T03:51:52Z</time>
      </trkpt>
      <trkpt lat="-21.19295" lon="55.42338">
        <ele>1303.2</ele>
        <time>2013-06-02T03:52:00Z</time>
      </trkpt>
      <trkpt lat="-21.19296" lon="55.4233">
        <ele>1305.7</ele>
        <time>2013-06-02T03:52:08Z</time>
      </trkpt>
      <trkpt lat="-21.19296" lon="55.42328">
        <ele>1305.9</ele>
        <time>2013-06-02T03:52:09Z</time>
      </trkpt>
      <trkpt lat="-21.19282" lon="55.42328">
        <ele>1309.2</ele>
        <time>2013-06-02T03:52:28Z</time>
      </trkpt>
      <trkpt lat="-21.19275" lon="55.42333">
        <ele>1312.4</ele>
        <time>2013-06-02T03:52:36Z</time>
      </trkpt>
      <trkpt lat="-21.19268" lon="55.42338">
        <ele>1313.1</ele>
        <time>2013-06-02T03:52:44Z</time>
      </trkpt>
      <trkpt lat="-21.19261" lon="55.42342">
        <ele>1314.7</ele>
        <time>2013-06-02T03:52:52Z</time>
      </trkpt>
      <trkpt lat="-21.19253" lon="55.42347">
        <ele>1316.8</ele>
        <time>2013-06-02T03:53:01Z</time>
      </trkpt>
      <trkpt lat="-21.19247" lon="55.42353">
        <ele>1317.5</ele>
        <time>2013-06-02T03:53:10Z</time>
      </trkpt>
      <trkpt lat="-21.19246" lon="55.42354">
        <ele>1317.4</ele>
        <time>2013-06-02T03:53:11Z</time>
      </trkpt>
      <trkpt lat="-21.19232" lon="55.42358">
        <ele>1320.9</ele>
        <time>2013-06-02T03:53:23Z</time>
      </trkpt>
      <trkpt lat="-21.19225" lon="55.42352">
        <ele>1322.3</ele>
        <time>2013-06-02T03:53:30Z</time>
      </trkpt>
      <trkpt lat="-21.19219" lon="55.42346">
        <ele>1322.6</ele>
        <time>2013-06-02T03:53:36Z</time>
      </trkpt>
      <trkpt lat="-21.19212" lon="55.4234">
        <ele>1323.3</ele>
        <time>2013-06-02T03:53:43Z</time>
      </trkpt>
      <trkpt lat="-21.19207" lon="55.42333">
        <ele>1323.9</ele>
        <time>2013-06-02T03:53:50Z</time>
      </trkpt>
      <trkpt lat="-21.19203" lon="55.42325">
        <ele>1325.7</ele>
        <time>2013-06-02T03:53:57Z</time>
      </trkpt>
      <trkpt lat="-21.19199" lon="55.42317">
        <ele>1327.6</ele>
        <time>2013-06-02T03:54:04Z</time>
      </trkpt>
      <trkpt lat="-21.19195" lon="55.42308">
        <ele>1328.2</ele>
        <time>2013-06-02T03:54:11Z</time>
      </trkpt>
      <trkpt lat="-21.19191" lon="55.42301">
        <ele>1329.1</ele>
        <time>2013-06-02T03:54:17Z</time>
      </trkpt>
      <trkpt lat="-21.1919" lon="55.423">
        <ele>1329</ele>
        <time>2013-06-02T03:54:18Z</time>
      </trkpt>
      <trkpt lat="-21.19182" lon="55.42285">
        <ele>1331.7</ele>
        <time>2013-06-02T03:54:31Z</time>
      </trkpt>
      <trkpt lat="-21.19175" lon="55.42285">
        <ele>1332.6</ele>
        <time>2013-06-02T03:54:37Z</time>
      </trkpt>
      <trkpt lat="-21.19168" lon="55.4229">
        <ele>1333.8</ele>
        <time>2013-06-02T03:54:43Z</time>
      </trkpt>
      <trkpt lat="-21.19162" lon="55.42296">
        <ele>1335.3</ele>
        <time>2013-06-02T03:54:51Z</time>
      </trkpt>
      <trkpt lat="-21.19156" lon="55.42303">
        <ele>1335.8</ele>
        <time>2013-06-02T03:54:58Z</time>
      </trkpt>
      <trkpt lat="-21.1915" lon="55.4231">
        <ele>1337.9</ele>
        <time>2013-06-02T03:55:04Z</time>
      </trkpt>
      <trkpt lat="-21.19145" lon="55.42317">
        <ele>1339.2</ele>
        <time>2013-06-02T03:55:11Z</time>
      </trkpt>
      <trkpt lat="-21.19142" lon="55.42324">
        <ele>1340.1</ele>
        <time>2013-06-02T03:55:19Z</time>
      </trkpt>
      <trkpt lat="-21.19141" lon="55.42325">
        <ele>1340.7</ele>
        <time>2013-06-02T03:55:20Z</time>
      </trkpt>
      <trkpt lat="-21.19132" lon="55.42338">
        <ele>1342.7</ele>
        <time>2013-06-02T03:55:32Z</time>
      </trkpt>
      <trkpt lat="-21.19127" lon="55.42346">
        <ele>1345.1</ele>
        <time>2013-06-02T03:55:39Z</time>
      </trkpt>
      <trkpt lat="-21.19122" lon="55.42353">
        <ele>1345.9</ele>
        <time>2013-06-02T03:55:46Z</time>
      </trkpt>
      <trkpt lat="-21.19118" lon="55.4236">
        <ele>1347.5</ele>
        <time>2013-06-02T03:55:54Z</time>
      </trkpt>
      <trkpt lat="-21.19109" lon="55.42362">
        <ele>1348.9</ele>
        <time>2013-06-02T03:56:02Z</time>
      </trkpt>
      <trkpt lat="-21.19107" lon="55.42353">
        <ele>1350.5</ele>
        <time>2013-06-02T03:56:12Z</time>
      </trkpt>
      <trkpt lat="-21.19105" lon="55.42344">
        <ele>1352.3</ele>
        <time>2013-06-02T03:56:22Z</time>
      </trkpt>
      <trkpt lat="-21.19106" lon="55.42343">
        <ele>1352.6</ele>
        <time>2013-06-02T03:56:23Z</time>
      </trkpt>
      <trkpt lat="-21.19103" lon="55.42328">
        <ele>1353.8</ele>
        <time>2013-06-02T03:56:36Z</time>
      </trkpt>
      <trkpt lat="-21.191" lon="55.42319">
        <ele>1355.6</ele>
        <time>2013-06-02T03:56:42Z</time>
      </trkpt>
      <trkpt lat="-21.19098" lon="55.4231">
        <ele>1355.9</ele>
        <time>2013-06-02T03:56:49Z</time>
      </trkpt>
      <trkpt lat="-21.19091" lon="55.42306">
        <ele>1357.2</ele>
        <time>2013-06-02T03:56:56Z</time>
      </trkpt>
      <trkpt lat="-21.19083" lon="55.42305">
        <ele>1358.4</ele>
        <time>2013-06-02T03:57:01Z</time>
      </trkpt>
      <trkpt lat="-21.19075" lon="55.42302">
        <ele>1359.9</ele>
        <time>2013-06-02T03:57:07Z</time>
      </trkpt>
      <trkpt lat="-21.19067" lon="55.42301">
        <ele>1360.7</ele>
        <time>2013-06-02T03:57:13Z</time>
      </trkpt>
      <trkpt lat="-21.19059" lon="55.42301">
        <ele>1361.7</ele>
        <time>2013-06-02T03:57:19Z</time>
      </trkpt>
      <trkpt lat="-21.19051" lon="55.42299">
        <ele>1364</ele>
        <time>2013-06-02T03:57:25Z</time>
      </trkpt>
      <trkpt lat="-21.1905" lon="55.42298">
        <ele>1363.7</ele>
        <time>2013-06-02T03:57:26Z</time>
      </trkpt>
      <trkpt lat="-21.19039" lon="55.42288">
        <ele>1364.3</ele>
        <time>2013-06-02T03:57:37Z</time>
      </trkpt>
      <trkpt lat="-21.19036" lon="55.42281">
        <ele>1365.6</ele>
        <time>2013-06-02T03:57:43Z</time>
      </trkpt>
      <trkpt lat="-21.19041" lon="55.42274">
        <ele>1367.7</ele>
        <time>2013-06-02T03:57:53Z</time>
      </trkpt>
      <trkpt lat="-21.19049" lon="55.42273">
        <ele>1368.8</ele>
        <time>2013-06-02T03:57:59Z</time>
      </trkpt>
      <trkpt lat="-21.19057" lon="55.42271">
        <ele>1369.2</ele>
        <time>2013-06-02T03:58:05Z</time>
      </trkpt>
      <trkpt lat="-21.19064" lon="55.42266">
        <ele>1370.5</ele>
        <time>2013-06-02T03:58:11Z</time>
      </trkpt>
      <trkpt lat="-21.19065" lon="55.42257">
        <ele>1370.7</ele>
        <time>2013-06-02T03:58:17Z</time>
      </trkpt>
      <trkpt lat="-21.19063" lon="55.42247">
        <ele>1372.3</ele>
        <time>2013-06-02T03:58:23Z</time>
      </trkpt>
      <trkpt lat="-21.19057" lon="55.42241">
        <ele>1373.5</ele>
        <time>2013-06-02T03:58:29Z</time>
      </trkpt>
      <trkpt lat="-21.19056" lon="55.4224">
        <ele>1373.5</ele>
        <time>2013-06-02T03:58:30Z</time>
      </trkpt>
      <trkpt lat="-21.19044" lon="55.42234">
        <ele>1375.8</ele>
        <time>2013-06-02T03:58:39Z</time>
      </trkpt>
      <trkpt lat="-21.19038" lon="55.42228">
        <ele>1376.1</ele>
        <time>2013-06-02T03:58:45Z</time>
      </trkpt>
      <trkpt lat="-21.19031" lon="55.42222">
        <ele>1378</ele>
        <time>2013-06-02T03:58:51Z</time>
      </trkpt>
      <trkpt lat="-21.19025" lon="55.42216">
        <ele>1378.9</ele>
        <time>2013-06-02T03:58:57Z</time>
      </trkpt>
      <trkpt lat="-21.19016" lon="55.42217">
        <ele>1380.3</ele>
        <time>2013-06-02T03:59:05Z</time>
      </trkpt>
      <trkpt lat="-21.19007" lon="55.42218">
        <ele>1382.9</ele>
        <time>2013-06-02T03:59:14Z</time>
      </trkpt>
      <trkpt lat="-21.19" lon="55.42221">
        <ele>1383.1</ele>
        <time>2013-06-02T03:59:20Z</time>
      </trkpt>
      <trkpt lat="-21.18993" lon="55.42224">
        <ele>1383.9</ele>
        <time>2013-06-02T03:59:26Z</time>
      </trkpt>
      <trkpt lat="-21.18985" lon="55.42228">
        <ele>1385</ele>
        <time>2013-06-02T03:59:33Z</time>
      </trkpt>
      <trkpt lat="-21.18984" lon="55.42229">
        <ele>1385.6</ele>
        <time>2013-06-02T03:59:34Z</time>
      </trkpt>
      <trkpt lat="-21.18969" lon="55.4223">
        <ele>1389.8</ele>
        <time>2013-06-02T03:59:50Z</time>
      </trkpt>
      <trkpt lat="-21.18961" lon="55.42226">
        <ele>1391</ele>
        <time>2013-06-02T03:59:57Z</time>
      </trkpt>
      <trkpt lat="-21.18953" lon="55.42223">
        <ele>1391.9</ele>
        <time>2013-06-02T04:00:04Z</time>
      </trkpt>
      <trkpt lat="-21.18946" lon="55.42218">
        <ele>1392.9</ele>
        <time>2013-06-02T04:00:12Z</time>
      </trkpt>
      <trkpt lat="-21.18941" lon="55.42211">
        <ele>1395</ele>
        <time>2013-06-02T04:00:19Z</time>
      </trkpt>
      <trkpt lat="-21.18936" lon="55.42204">
        <ele>1396.2</ele>
        <time>2013-06-02T04:00:25Z</time>
      </trkpt>
      <trkpt lat="-21.18928" lon="55.422">
        <ele>1397.6</ele>
        <time>2013-06-02T04:00:33Z</time>
      </trkpt>
      <trkpt lat="-21.18921" lon="55.42195">
        <ele>1398.2</ele>
        <time>2013-06-02T04:00:42Z</time>
      </trkpt>
      <trkpt lat="-21.18919" lon="55.42194">
        <ele>1398.3</ele>
        <time>2013-06-02T04:00:43Z</time>
      </trkpt>
      <trkpt lat="-21.18905" lon="55.4219">
        <ele>1400.5</ele>
        <time>2013-06-02T04:00:55Z</time>
      </trkpt>
      <trkpt lat="-21.18899" lon="55.42183">
        <ele>1400.7</ele>
        <time>2013-06-02T04:01:01Z</time>
      </trkpt>
      <trkpt lat="-21.18895" lon="55.42175">
        <ele>1400.2</ele>
        <time>2013-06-02T04:01:07Z</time>
      </trkpt>
      <trkpt lat="-21.18894" lon="55.42166">
        <ele>1400.6</ele>
        <time>2013-06-02T04:01:13Z</time>
      </trkpt>
      <trkpt lat="-21.18891" lon="55.42158">
        <ele>1402.8</ele>
        <time>2013-06-02T04:01:22Z</time>
      </trkpt>
      <trkpt lat="-21.18884" lon="55.42152">
        <ele>1405.3</ele>
        <time>2013-06-02T04:01:30Z</time>
      </trkpt>
      <trkpt lat="-21.18878" lon="55.42146">
        <ele>1407.8</ele>
        <time>2013-06-02T04:01:38Z</time>
      </trkpt>
      <trkpt lat="-21.18871" lon="55.4214">
        <ele>1410</ele>
        <time>2013-06-02T04:01:48Z</time>
      </trkpt>
      <trkpt lat="-21.18871" lon="55.42139">
        <ele>1410.2</ele>
        <time>2013-06-02T04:01:49Z</time>
      </trkpt>
      <trkpt lat="-21.18861" lon="55.42125">
        <ele>1414.5</ele>
        <time>2013-06-02T04:02:06Z</time>
      </trkpt>
      <trkpt lat="-21.18855" lon="55.42119">
        <ele>1417</ele>
        <time>2013-06-02T04:02:16Z</time>
      </trkpt>
      <trkpt lat="-21.18851" lon="55.42112">
        <ele>1418</ele>
        <time>2013-06-02T04:02:25Z</time>
      </trkpt>
      <trkpt lat="-21.18843" lon="55.42107">
        <ele>1420.4</ele>
        <time>2013-06-02T04:02:34Z</time>
      </trkpt>
      <trkpt lat="-21.18835" lon="55.42105">
        <ele>1421.8</ele>
        <time>2013-06-02T04:02:42Z</time>
      </trkpt>
      <trkpt lat="-21.18829" lon="55.42099">
        <ele>1422.9</ele>
        <time>2013-06-02T04:02:49Z</time>
      </trkpt>
      <trkpt lat="-21.18825" lon="55.42091">
        <ele>1424.1</ele>
        <time>2013-06-02T04:02:55Z</time>
      </trkpt>
      <trkpt lat="-21.18825" lon="55.4209">
        <ele>1424</ele>
        <time>2013-06-02T04:02:56Z</time>
      </trkpt>
      <trkpt lat="-21.18815" lon="55.42078">
        <ele>1425.1</ele>
        <time>2013-06-02T04:03:08Z</time>
      </trkpt>
      <trkpt lat="-21.18808" lon="55.42071">
        <ele>1425.4</ele>
        <time>2013-06-02T04:03:15Z</time>
      </trkpt>
      <trkpt lat="-21.18803" lon="55.42065">
        <ele>1426.2</ele>
        <time>2013-06-02T04:03:25Z</time>
      </trkpt>
      <trkpt lat="-21.18795" lon="55.42064">
        <ele>1427.6</ele>
        <time>2013-06-02T04:03:31Z</time>
      </trkpt>
      <trkpt lat="-21.18788" lon="55.42068">
        <ele>1428.3</ele>
        <time>2013-06-02T04:03:38Z</time>
      </trkpt>
      <trkpt lat="-21.18782" lon="55.42073">
        <ele>1428.9</ele>
        <time>2013-06-02T04:03:43Z</time>
      </trkpt>
      <trkpt lat="-21.18779" lon="55.4208">
        <ele>1429.5</ele>
        <time>2013-06-02T04:03:48Z</time>
      </trkpt>
      <trkpt lat="-21.18777" lon="55.42088">
        <ele>1430.1</ele>
        <time>2013-06-02T04:03:53Z</time>
      </trkpt>
      <trkpt lat="-21.18772" lon="55.42095">
        <ele>1431</ele>
        <time>2013-06-02T04:03:59Z</time>
      </trkpt>
      <trkpt lat="-21.18771" lon="55.42097">
        <ele>1430.9</ele>
        <time>2013-06-02T04:04:00Z</time>
      </trkpt>
      <trkpt lat="-21.18758" lon="55.42105">
        <ele>1432.6</ele>
        <time>2013-06-02T04:04:09Z</time>
      </trkpt>
      <trkpt lat="-21.1875" lon="55.42104">
        <ele>1434.1</ele>
        <time>2013-06-02T04:04:14Z</time>
      </trkpt>
      <trkpt lat="-21.18744" lon="55.42099">
        <ele>1434.5</ele>
        <time>2013-06-02T04:04:20Z</time>
      </trkpt>
      <trkpt lat="-21.18737" lon="55.42093">
        <ele>1435.1</ele>
        <time>2013-06-02T04:04:26Z</time>
      </trkpt>
      <trkpt lat="-21.18732" lon="55.42086">
        <ele>1435.9</ele>
        <time>2013-06-02T04:04:33Z</time>
      </trkpt>
      <trkpt lat="-21.18728" lon="55.42078">
        <ele>1436.9</ele>
        <time>2013-06-02T04:04:40Z</time>
      </trkpt>
      <trkpt lat="-21.18726" lon="55.4207">
        <ele>1438</ele>
        <time>2013-06-02T04:04:45Z</time>
      </trkpt>
      <trkpt lat="-21.18724" lon="55.42061">
        <ele>1439.7</ele>
        <time>2013-06-02T04:04:51Z</time>
      </trkpt>
      <trkpt lat="-21.18723" lon="55.42052">
        <ele>1440</ele>
        <time>2013-06-02T04:04:55Z</time>
      </trkpt>
      <trkpt lat="-21.18722" lon="55.42044">
        <ele>1439.8</ele>
        <time>2013-06-02T04:04:59Z</time>
      </trkpt>
      <trkpt lat="-21.18725" lon="55.42036">
        <ele>1439</ele>
        <time>2013-06-02T04:05:04Z</time>
      </trkpt>
      <trkpt lat="-21.18726" lon="55.42035">
        <ele>1439.2</ele>
        <time>2013-06-02T04:05:05Z</time>
      </trkpt>
      <trkpt lat="-21.18735" lon="55.42022">
        <ele>1441.5</ele>
        <time>2013-06-02T04:05:15Z</time>
      </trkpt>
      <trkpt lat="-21.18739" lon="55.42014">
        <ele>1441.3</ele>
        <time>2013-06-02T04:05:19Z</time>
      </trkpt>
      <trkpt lat="-21.18742" lon="55.42005">
        <ele>1441.7</ele>
        <time>2013-06-02T04:05:24Z</time>
      </trkpt>
      <trkpt lat="-21.18747" lon="55.41998">
        <ele>1441.9</ele>
        <time>2013-06-02T04:05:28Z</time>
      </trkpt>
      <trkpt lat="-21.18749" lon="55.41989">
        <ele>1443.3</ele>
        <time>2013-06-02T04:05:37Z</time>
      </trkpt>
      <trkpt lat="-21.18745" lon="55.41981">
        <ele>1445.7</ele>
        <time>2013-06-02T04:05:46Z</time>
      </trkpt>
      <trkpt lat="-21.18738" lon="55.41974">
        <ele>1448.3</ele>
        <time>2013-06-02T04:05:56Z</time>
      </trkpt>
      <trkpt lat="-21.18733" lon="55.41967">
        <ele>1450.5</ele>
        <time>2013-06-02T04:06:05Z</time>
      </trkpt>
      <trkpt lat="-21.18727" lon="55.4196">
        <ele>1452.6</ele>
        <time>2013-06-02T04:06:14Z</time>
      </trkpt>
      <trkpt lat="-21.18727" lon="55.41959">
        <ele>1453</ele>
        <time>2013-06-02T04:06:15Z</time>
      </trkpt>
      <trkpt lat="-21.18719" lon="55.41945">
        <ele>1456</ele>
        <time>2013-06-02T04:06:34Z</time>
      </trkpt>
      <trkpt lat="-21.18713" lon="55.41938">
        <ele>1460.1</ele>
        <time>2013-06-02T04:06:49Z</time>
      </trkpt>
      <trkpt lat="-21.18712" lon="55.41929">
        <ele>1463.4</ele>
        <time>2013-06-02T04:07:02Z</time>
      </trkpt>
      <trkpt lat="-21.18707" lon="55.41921">
        <ele>1466.9</ele>
        <time>2013-06-02T04:07:19Z</time>
      </trkpt>
      <trkpt lat="-21.18706" lon="55.4192">
        <ele>1467.2</ele>
        <time>2013-06-02T04:07:20Z</time>
      </trkpt>
      <trkpt lat="-21.18697" lon="55.41906">
        <ele>1475.7</ele>
        <time>2013-06-02T04:07:57Z</time>
      </trkpt>
      <trkpt lat="-21.1869" lon="55.41903">
        <ele>1476.7</ele>
        <time>2013-06-02T04:08:04Z</time>
      </trkpt>
      <trkpt lat="-21.18695" lon="55.41896">
        <ele>1480.1</ele>
        <time>2013-06-02T04:08:22Z</time>
      </trkpt>
      <trkpt lat="-21.18696" lon="55.41895">
        <ele>1480.3</ele>
        <time>2013-06-02T04:08:23Z</time>
      </trkpt>
      <trkpt lat="-21.1868" lon="55.41892">
        <ele>1484.9</ele>
        <time>2013-06-02T04:08:44Z</time>
      </trkpt>
      <trkpt lat="-21.18674" lon="55.41898">
        <ele>1484.8</ele>
        <time>2013-06-02T04:08:49Z</time>
      </trkpt>
      <trkpt lat="-21.1867" lon="55.41906">
        <ele>1484.8</ele>
        <time>2013-06-02T04:08:54Z</time>
      </trkpt>
      <trkpt lat="-21.18665" lon="55.41914">
        <ele>1484.5</ele>
        <time>2013-06-02T04:09:10Z</time>
      </trkpt>
      <trkpt lat="-21.18661" lon="55.41921">
        <ele>1484.5</ele>
        <time>2013-06-02T04:09:49Z</time>
      </trkpt>
      <trkpt lat="-21.18659" lon="55.41922">
        <ele>1484.4</ele>
        <time>2013-06-02T04:09:50Z</time>
      </trkpt>
      <trkpt lat="-21.18646" lon="55.41928">
        <ele>1482.6</ele>
        <time>2013-06-02T04:09:59Z</time>
      </trkpt>
      <trkpt lat="-21.18637" lon="55.41929">
        <ele>1482.4</ele>
        <time>2013-06-02T04:10:06Z</time>
      </trkpt>
      <trkpt lat="-21.18643" lon="55.41921">
        <ele>1488.1</ele>
        <time>2013-06-02T04:10:30Z</time>
      </trkpt>
      <trkpt lat="-21.18647" lon="55.41913">
        <ele>1492.4</ele>
        <time>2013-06-02T04:10:45Z</time>
      </trkpt>
      <trkpt lat="-21.18648" lon="55.41904">
        <ele>1494.9</ele>
        <time>2013-06-02T04:10:52Z</time>
      </trkpt>
      <trkpt lat="-21.18648" lon="55.41902">
        <ele>1494.9</ele>
        <time>2013-06-02T04:10:53Z</time>
      </trkpt>
      <trkpt lat="-21.18658" lon="55.41889">
        <ele>1497.1</ele>
        <time>2013-06-02T04:11:10Z</time>
      </trkpt>
      <trkpt lat="-21.18659" lon="55.4188">
        <ele>1498.3</ele>
        <time>2013-06-02T04:11:17Z</time>
      </trkpt>
      <trkpt lat="-21.18658" lon="55.41871">
        <ele>1498.5</ele>
        <time>2013-06-02T04:11:23Z</time>
      </trkpt>
      <trkpt lat="-21.18653" lon="55.41863">
        <ele>1499.3</ele>
        <time>2013-06-02T04:11:31Z</time>
      </trkpt>
      <trkpt lat="-21.18651" lon="55.41854">
        <ele>1503</ele>
        <time>2013-06-02T04:11:40Z</time>
      </trkpt>
      <trkpt lat="-21.18646" lon="55.41847">
        <ele>1503.2</ele>
        <time>2013-06-02T04:11:48Z</time>
      </trkpt>
      <trkpt lat="-21.18641" lon="55.4184">
        <ele>1505</ele>
        <time>2013-06-02T04:11:57Z</time>
      </trkpt>
      <trkpt lat="-21.1864" lon="55.4184">
        <ele>1505.1</ele>
        <time>2013-06-02T04:11:58Z</time>
      </trkpt>
      <trkpt lat="-21.18627" lon="55.41838">
        <ele>1512.5</ele>
        <time>2013-06-02T04:12:30Z</time>
      </trkpt>
      <trkpt lat="-21.18619" lon="55.41842">
        <ele>1515.6</ele>
        <time>2013-06-02T04:12:40Z</time>
      </trkpt>
      <trkpt lat="-21.18611" lon="55.41844">
        <ele>1518.5</ele>
        <time>2013-06-02T04:12:52Z</time>
      </trkpt>
      <trkpt lat="-21.18604" lon="55.41838">
        <ele>1519.6</ele>
        <time>2013-06-02T04:13:04Z</time>
      </trkpt>
      <trkpt lat="-21.18604" lon="55.41838">
        <ele>1519.9</ele>
        <time>2013-06-02T04:13:05Z</time>
      </trkpt>
      <trkpt lat="-21.18604" lon="55.41821">
        <ele>1522.5</ele>
        <time>2013-06-02T04:13:25Z</time>
      </trkpt>
      <trkpt lat="-21.18607" lon="55.41812">
        <ele>1525.8</ele>
        <time>2013-06-02T04:13:37Z</time>
      </trkpt>
      <trkpt lat="-21.18612" lon="55.41804">
        <ele>1528.6</ele>
        <time>2013-06-02T04:13:49Z</time>
      </trkpt>
      <trkpt lat="-21.18611" lon="55.41795">
        <ele>1530.5</ele>
        <time>2013-06-02T04:13:59Z</time>
      </trkpt>
      <trkpt lat="-21.18605" lon="55.41788">
        <ele>1532.1</ele>
        <time>2013-06-02T04:14:09Z</time>
      </trkpt>
      <trkpt lat="-21.18605" lon="55.41787">
        <ele>1532.1</ele>
        <time>2013-06-02T04:14:10Z</time>
      </trkpt>
      <trkpt lat="-21.18596" lon="55.41772">
        <ele>1538.2</ele>
        <time>2013-06-02T04:14:31Z</time>
      </trkpt>
      <trkpt lat="-21.18589" lon="55.41766">
        <ele>1540.4</ele>
        <time>2013-06-02T04:14:42Z</time>
      </trkpt>
      <trkpt lat="-21.18588" lon="55.41756">
        <ele>1543.3</ele>
        <time>2013-06-02T04:14:54Z</time>
      </trkpt>
      <trkpt lat="-21.18582" lon="55.4175">
        <ele>1545.8</ele>
        <time>2013-06-02T04:15:01Z</time>
      </trkpt>
      <trkpt lat="-21.18577" lon="55.41742">
        <ele>1546</ele>
        <time>2013-06-02T04:15:07Z</time>
      </trkpt>
      <trkpt lat="-21.18571" lon="55.41736">
        <ele>1545.8</ele>
        <time>2013-06-02T04:15:13Z</time>
      </trkpt>
      <trkpt lat="-21.18571" lon="55.41735">
        <ele>1546.2</ele>
        <time>2013-06-02T04:15:14Z</time>
      </trkpt>
      <trkpt lat="-21.1856" lon="55.41723">
        <ele>1550</ele>
        <time>2013-06-02T04:15:30Z</time>
      </trkpt>
      <trkpt lat="-21.18558" lon="55.41715">
        <ele>1550.3</ele>
        <time>2013-06-02T04:15:37Z</time>
      </trkpt>
      <trkpt lat="-21.18557" lon="55.41705">
        <ele>1548.2</ele>
        <time>2013-06-02T04:15:47Z</time>
      </trkpt>
      <trkpt lat="-21.18552" lon="55.41698">
        <ele>1550</ele>
        <time>2013-06-02T04:16:03Z</time>
      </trkpt>
      <trkpt lat="-21.18546" lon="55.41691">
        <ele>1551.7</ele>
        <time>2013-06-02T04:16:13Z</time>
      </trkpt>
      <trkpt lat="-21.1854" lon="55.41684">
        <ele>1557.3</ele>
        <time>2013-06-02T04:16:30Z</time>
      </trkpt>
      <trkpt lat="-21.1854" lon="55.41683">
        <ele>1557.5</ele>
        <time>2013-06-02T04:16:31Z</time>
      </trkpt>
      <trkpt lat="-21.1853" lon="55.41673">
        <ele>1562.3</ele>
        <time>2013-06-02T04:16:50Z</time>
      </trkpt>
      <trkpt lat="-21.18527" lon="55.41665">
        <ele>1565</ele>
        <time>2013-06-02T04:17:02Z</time>
      </trkpt>
      <trkpt lat="-21.18523" lon="55.41656">
        <ele>1568.1</ele>
        <time>2013-06-02T04:17:14Z</time>
      </trkpt>
      <trkpt lat="-21.1852" lon="55.41648">
        <ele>1569.1</ele>
        <time>2013-06-02T04:17:21Z</time>
      </trkpt>
      <trkpt lat="-21.18518" lon="55.41639">
        <ele>1569.8</ele>
        <time>2013-06-02T04:17:30Z</time>
      </trkpt>
      <trkpt lat="-21.1851" lon="55.41634">
        <ele>1573.6</ele>
        <time>2013-06-02T04:17:43Z</time>
      </trkpt>
      <trkpt lat="-21.18509" lon="55.41633">
        <ele>1574.2</ele>
        <time>2013-06-02T04:17:44Z</time>
      </trkpt>
      <trkpt lat="-21.18494" lon="55.41631">
        <ele>1579.7</ele>
        <time>2013-06-02T04:18:05Z</time>
      </trkpt>
      <trkpt lat="-21.18486" lon="55.41634">
        <ele>1585.4</ele>
        <time>2013-06-02T04:18:25Z</time>
      </trkpt>
      <trkpt lat="-21.18477" lon="55.41634">
        <ele>1588.5</ele>
        <time>2013-06-02T04:18:37Z</time>
      </trkpt>
      <trkpt lat="-21.18469" lon="55.41635">
        <ele>1590.9</ele>
        <time>2013-06-02T04:18:50Z</time>
      </trkpt>
      <trkpt lat="-21.18468" lon="55.41635">
        <ele>1591</ele>
        <time>2013-06-02T04:18:51Z</time>
      </trkpt>
      <trkpt lat="-21.18451" lon="55.41638">
        <ele>1598.1</ele>
        <time>2013-06-02T04:19:26Z</time>
      </trkpt>
      <trkpt lat="-21.18447" lon="55.4163">
        <ele>1601.4</ele>
        <time>2013-06-02T04:19:37Z</time>
      </trkpt>
      <trkpt lat="-21.18439" lon="55.41626">
        <ele>1602.2</ele>
        <time>2013-06-02T04:19:42Z</time>
      </trkpt>
      <trkpt lat="-21.1843" lon="55.41624">
        <ele>1605.8</ele>
        <time>2013-06-02T04:19:58Z</time>
      </trkpt>
      <trkpt lat="-21.1843" lon="55.41623">
        <ele>1606</ele>
        <time>2013-06-02T04:19:59Z</time>
      </trkpt>
      <trkpt lat="-21.18417" lon="55.41613">
        <ele>1611.2</ele>
        <time>2013-06-02T04:20:19Z</time>
      </trkpt>
      <trkpt lat="-21.18409" lon="55.41611">
        <ele>1614.8</ele>
        <time>2013-06-02T04:20:36Z</time>
      </trkpt>
      <trkpt lat="-21.18401" lon="55.41613">
        <ele>1617.8</ele>
        <time>2013-06-02T04:20:52Z</time>
      </trkpt>
      <trkpt lat="-21.18393" lon="55.41611">
        <ele>1623.1</ele>
        <time>2013-06-02T04:21:14Z</time>
      </trkpt>
      <trkpt lat="-21.18392" lon="55.41611">
        <ele>1623.6</ele>
        <time>2013-06-02T04:21:15Z</time>
      </trkpt>
      <trkpt lat="-21.1838" lon="55.41599">
        <ele>1631.6</ele>
        <time>2013-06-02T04:21:55Z</time>
      </trkpt>
      <trkpt lat="-21.18373" lon="55.41604">
        <ele>1635.7</ele>
        <time>2013-06-02T04:22:12Z</time>
      </trkpt>
      <trkpt lat="-21.18366" lon="55.41606">
        <ele>1639.4</ele>
        <time>2013-06-02T04:22:26Z</time>
      </trkpt>
      <trkpt lat="-21.18364" lon="55.41606">
        <ele>1639.7</ele>
        <time>2013-06-02T04:22:27Z</time>
      </trkpt>
      <trkpt lat="-21.18351" lon="55.41612">
        <ele>1647.2</ele>
        <time>2013-06-02T04:23:06Z</time>
      </trkpt>
      <trkpt lat="-21.18343" lon="55.41616">
        <ele>1649.7</ele>
        <time>2013-06-02T04:23:21Z</time>
      </trkpt>
      <trkpt lat="-21.18341" lon="55.41625">
        <ele>1652</ele>
        <time>2013-06-02T04:23:35Z</time>
      </trkpt>
      <trkpt lat="-21.18341" lon="55.41625">
        <ele>1652.2</ele>
        <time>2013-06-02T04:23:36Z</time>
      </trkpt>
      <trkpt lat="-21.18332" lon="55.4164">
        <ele>1652.7</ele>
        <time>2013-06-02T04:23:53Z</time>
      </trkpt>
      <trkpt lat="-21.18327" lon="55.41648">
        <ele>1652.5</ele>
        <time>2013-06-02T04:24:03Z</time>
      </trkpt>
      <trkpt lat="-21.18321" lon="55.41655">
        <ele>1656.6</ele>
        <time>2013-06-02T04:24:19Z</time>
      </trkpt>
      <trkpt lat="-21.18312" lon="55.41658">
        <ele>1660.6</ele>
        <time>2013-06-02T04:24:32Z</time>
      </trkpt>
      <trkpt lat="-21.18304" lon="55.41658">
        <ele>1662.8</ele>
        <time>2013-06-02T04:24:51Z</time>
      </trkpt>
      <trkpt lat="-21.18303" lon="55.41658">
        <ele>1663.1</ele>
        <time>2013-06-02T04:24:52Z</time>
      </trkpt>
      <trkpt lat="-21.18287" lon="55.41652">
        <ele>1669.8</ele>
        <time>2013-06-02T04:25:18Z</time>
      </trkpt>
      <trkpt lat="-21.18279" lon="55.41654">
        <ele>1672.4</ele>
        <time>2013-06-02T04:25:31Z</time>
      </trkpt>
      <trkpt lat="-21.1827" lon="55.41655">
        <ele>1676.2</ele>
        <time>2013-06-02T04:25:45Z</time>
      </trkpt>
      <trkpt lat="-21.18262" lon="55.41657">
        <ele>1678.9</ele>
        <time>2013-06-02T04:25:59Z</time>
      </trkpt>
      <trkpt lat="-21.18261" lon="55.41657">
        <ele>1678.9</ele>
        <time>2013-06-02T04:26:00Z</time>
      </trkpt>
      <trkpt lat="-21.18246" lon="55.4166">
        <ele>1681.7</ele>
        <time>2013-06-02T04:26:16Z</time>
      </trkpt>
      <trkpt lat="-21.18238" lon="55.41658">
        <ele>1684.8</ele>
        <time>2013-06-02T04:26:26Z</time>
      </trkpt>
      <trkpt lat="-21.1823" lon="55.41659">
        <ele>1687.2</ele>
        <time>2013-06-02T04:26:40Z</time>
      </trkpt>
      <trkpt lat="-21.18221" lon="55.41661">
        <ele>1692.1</ele>
        <time>2013-06-02T04:26:57Z</time>
      </trkpt>
      <trkpt lat="-21.18212" lon="55.41659">
        <ele>1694.1</ele>
        <time>2013-06-02T04:27:11Z</time>
      </trkpt>
      <trkpt lat="-21.18212" lon="55.41659">
        <ele>1694.7</ele>
        <time>2013-06-02T04:27:12Z</time>
      </trkpt>
      <trkpt lat="-21.18201" lon="55.41672">
        <ele>1696.9</ele>
        <time>2013-06-02T04:27:19Z</time>
      </trkpt>
      <trkpt lat="-21.18201" lon="55.41663">
        <ele>1699.8</ele>
        <time>2013-06-02T04:27:33Z</time>
      </trkpt>
      <trkpt lat="-21.18193" lon="55.41664">
        <ele>1701.3</ele>
        <time>2013-06-02T04:27:41Z</time>
      </trkpt>
      <trkpt lat="-21.18186" lon="55.41666">
        <ele>1702.2</ele>
        <time>2013-06-02T04:27:44Z</time>
      </trkpt>
      <trkpt lat="-21.18177" lon="55.41663">
        <ele>1703.9</ele>
        <time>2013-06-02T04:27:50Z</time>
      </trkpt>
      <trkpt lat="-21.18172" lon="55.41655">
        <ele>1706</ele>
        <time>2013-06-02T04:28:02Z</time>
      </trkpt>
      <trkpt lat="-21.18165" lon="55.4165">
        <ele>1708.1</ele>
        <time>2013-06-02T04:28:14Z</time>
      </trkpt>
      <trkpt lat="-21.18165" lon="55.41649">
        <ele>1708.4</ele>
        <time>2013-06-02T04:28:15Z</time>
      </trkpt>
      <trkpt lat="-21.18158" lon="55.41633">
        <ele>1713</ele>
        <time>2013-06-02T04:28:52Z</time>
      </trkpt>
      <trkpt lat="-21.18145" lon="55.41638">
        <ele>1717</ele>
        <time>2013-06-02T04:29:03Z</time>
      </trkpt>
      <trkpt lat="-21.18137" lon="55.41641">
        <ele>1718.5</ele>
        <time>2013-06-02T04:29:07Z</time>
      </trkpt>
      <trkpt lat="-21.18136" lon="55.41632">
        <ele>1721.9</ele>
        <time>2013-06-02T04:29:24Z</time>
      </trkpt>
      <trkpt lat="-21.18136" lon="55.41631">
        <ele>1722.3</ele>
        <time>2013-06-02T04:29:25Z</time>
      </trkpt>
      <trkpt lat="-21.1814" lon="55.41614">
        <ele>1725.8</ele>
        <time>2013-06-02T04:29:43Z</time>
      </trkpt>
      <trkpt lat="-21.18137" lon="55.41606">
        <ele>1726.7</ele>
        <time>2013-06-02T04:29:50Z</time>
      </trkpt>
      <trkpt lat="-21.1813" lon="55.41601">
        <ele>1728.2</ele>
        <time>2013-06-02T04:29:58Z</time>
      </trkpt>
      <trkpt lat="-21.18126" lon="55.41594">
        <ele>1728.8</ele>
        <time>2013-06-02T04:30:05Z</time>
      </trkpt>
      <trkpt lat="-21.18121" lon="55.41586">
        <ele>1729.4</ele>
        <time>2013-06-02T04:30:10Z</time>
      </trkpt>
      <trkpt lat="-21.18116" lon="55.4158">
        <ele>1729.5</ele>
        <time>2013-06-02T04:30:14Z</time>
      </trkpt>
      <trkpt lat="-21.1811" lon="55.41574">
        <ele>1730.7</ele>
        <time>2013-06-02T04:30:18Z</time>
      </trkpt>
      <trkpt lat="-21.18104" lon="55.41569">
        <ele>1731.8</ele>
        <time>2013-06-02T04:30:23Z</time>
      </trkpt>
      <trkpt lat="-21.18099" lon="55.41562">
        <ele>1731.7</ele>
        <time>2013-06-02T04:30:29Z</time>
      </trkpt>
      <trkpt lat="-21.181" lon="55.41561">
        <ele>1731.7</ele>
        <time>2013-06-02T04:30:30Z</time>
      </trkpt>
      <trkpt lat="-21.18094" lon="55.41547">
        <ele>1733.4</ele>
        <time>2013-06-02T04:30:42Z</time>
      </trkpt>
      <trkpt lat="-21.18087" lon="55.41543">
        <ele>1734.3</ele>
        <time>2013-06-02T04:30:48Z</time>
      </trkpt>
      <trkpt lat="-21.18081" lon="55.41537">
        <ele>1734.8</ele>
        <time>2013-06-02T04:30:56Z</time>
      </trkpt>
      <trkpt lat="-21.18075" lon="55.41532">
        <ele>1736.6</ele>
        <time>2013-06-02T04:31:01Z</time>
      </trkpt>
      <trkpt lat="-21.18068" lon="55.41527">
        <ele>1737.2</ele>
        <time>2013-06-02T04:31:06Z</time>
      </trkpt>
      <trkpt lat="-21.18064" lon="55.41519">
        <ele>1738.7</ele>
        <time>2013-06-02T04:31:11Z</time>
      </trkpt>
      <trkpt lat="-21.18063" lon="55.4151">
        <ele>1738.8</ele>
        <time>2013-06-02T04:31:18Z</time>
      </trkpt>
      <trkpt lat="-21.18066" lon="55.41503">
        <ele>1740.1</ele>
        <time>2013-06-02T04:31:23Z</time>
      </trkpt>
      <trkpt lat="-21.1807" lon="55.41494">
        <ele>1739.8</ele>
        <time>2013-06-02T04:31:29Z</time>
      </trkpt>
      <trkpt lat="-21.18073" lon="55.41486">
        <ele>1740.3</ele>
        <time>2013-06-02T04:31:34Z</time>
      </trkpt>
      <trkpt lat="-21.18073" lon="55.41485">
        <ele>1740.1</ele>
        <time>2013-06-02T04:31:35Z</time>
      </trkpt>
      <trkpt lat="-21.18072" lon="55.4147">
        <ele>1742.1</ele>
        <time>2013-06-02T04:31:45Z</time>
      </trkpt>
      <trkpt lat="-21.1807" lon="55.41461">
        <ele>1743.3</ele>
        <time>2013-06-02T04:31:51Z</time>
      </trkpt>
      <trkpt lat="-21.18067" lon="55.41453">
        <ele>1743.8</ele>
        <time>2013-06-02T04:31:56Z</time>
      </trkpt>
      <trkpt lat="-21.18064" lon="55.41444">
        <ele>1744.3</ele>
        <time>2013-06-02T04:32:03Z</time>
      </trkpt>
      <trkpt lat="-21.18061" lon="55.41436">
        <ele>1745.9</ele>
        <time>2013-06-02T04:32:10Z</time>
      </trkpt>
      <trkpt lat="-21.18063" lon="55.41427">
        <ele>1746.7</ele>
        <time>2013-06-02T04:32:17Z</time>
      </trkpt>
      <trkpt lat="-21.18064" lon="55.41418">
        <ele>1747</ele>
        <time>2013-06-02T04:32:23Z</time>
      </trkpt>
      <trkpt lat="-21.18063" lon="55.41409">
        <ele>1749.2</ele>
        <time>2013-06-02T04:32:31Z</time>
      </trkpt>
      <trkpt lat="-21.18062" lon="55.414">
        <ele>1749.9</ele>
        <time>2013-06-02T04:32:37Z</time>
      </trkpt>
      <trkpt lat="-21.18062" lon="55.41399">
        <ele>1749.9</ele>
        <time>2013-06-02T04:32:38Z</time>
      </trkpt>
      <trkpt lat="-21.18059" lon="55.41383">
        <ele>1750.4</ele>
        <time>2013-06-02T04:32:47Z</time>
      </trkpt>
      <trkpt lat="-21.18056" lon="55.41376">
        <ele>1750.6</ele>
        <time>2013-06-02T04:32:51Z</time>
      </trkpt>
      <trkpt lat="-21.18054" lon="55.41368">
        <ele>1751.1</ele>
        <time>2013-06-02T04:32:55Z</time>
      </trkpt>
      <trkpt lat="-21.18051" lon="55.4136">
        <ele>1751.1</ele>
        <time>2013-06-02T04:33:00Z</time>
      </trkpt>
      <trkpt lat="-21.18049" lon="55.41351">
        <ele>1752.6</ele>
        <time>2013-06-02T04:33:05Z</time>
      </trkpt>
      <trkpt lat="-21.18046" lon="55.41342">
        <ele>1752.2</ele>
        <time>2013-06-02T04:33:11Z</time>
      </trkpt>
      <trkpt lat="-21.18043" lon="55.41334">
        <ele>1752</ele>
        <time>2013-06-02T04:33:16Z</time>
      </trkpt>
      <trkpt lat="-21.18041" lon="55.41325">
        <ele>1753.1</ele>
        <time>2013-06-02T04:33:22Z</time>
      </trkpt>
      <trkpt lat="-21.18039" lon="55.41316">
        <ele>1753.6</ele>
        <time>2013-06-02T04:33:28Z</time>
      </trkpt>
      <trkpt lat="-21.18037" lon="55.41308">
        <ele>1753.7</ele>
        <time>2013-06-02T04:33:33Z</time>
      </trkpt>
      <trkpt lat="-21.18032" lon="55.413">
        <ele>1754.1</ele>
        <time>2013-06-02T04:33:39Z</time>
      </trkpt>
      <trkpt lat="-21.18031" lon="55.41298">
        <ele>1754.2</ele>
        <time>2013-06-02T04:33:40Z</time>
      </trkpt>
      <trkpt lat="-21.18026" lon="55.41284">
        <ele>1756.3</ele>
        <time>2013-06-02T04:33:52Z</time>
      </trkpt>
      <trkpt lat="-21.18023" lon="55.41275">
        <ele>1758.5</ele>
        <time>2013-06-02T04:33:58Z</time>
      </trkpt>
      <trkpt lat="-21.18022" lon="55.41266">
        <ele>1758.4</ele>
        <time>2013-06-02T04:34:04Z</time>
      </trkpt>
      <trkpt lat="-21.18025" lon="55.41258">
        <ele>1759.6</ele>
        <time>2013-06-02T04:34:11Z</time>
      </trkpt>
      <trkpt lat="-21.18031" lon="55.41252">
        <ele>1760.2</ele>
        <time>2013-06-02T04:34:18Z</time>
      </trkpt>
      <trkpt lat="-21.18036" lon="55.41245">
        <ele>1761.6</ele>
        <time>2013-06-02T04:34:25Z</time>
      </trkpt>
      <trkpt lat="-21.18039" lon="55.41236">
        <ele>1763.4</ele>
        <time>2013-06-02T04:34:31Z</time>
      </trkpt>
      <trkpt lat="-21.1804" lon="55.41227">
        <ele>1764</ele>
        <time>2013-06-02T04:34:37Z</time>
      </trkpt>
      <trkpt lat="-21.18042" lon="55.41219">
        <ele>1764.1</ele>
        <time>2013-06-02T04:34:42Z</time>
      </trkpt>
      <trkpt lat="-21.18042" lon="55.41217">
        <ele>1764.5</ele>
        <time>2013-06-02T04:34:43Z</time>
      </trkpt>
      <trkpt lat="-21.18041" lon="55.41203">
        <ele>1764.4</ele>
        <time>2013-06-02T04:34:52Z</time>
      </trkpt>
      <trkpt lat="-21.18041" lon="55.41194">
        <ele>1764.9</ele>
        <time>2013-06-02T04:34:57Z</time>
      </trkpt>
      <trkpt lat="-21.18038" lon="55.41187">
        <ele>1765.5</ele>
        <time>2013-06-02T04:35:01Z</time>
      </trkpt>
      <trkpt lat="-21.18036" lon="55.41179">
        <ele>1766.8</ele>
        <time>2013-06-02T04:35:06Z</time>
      </trkpt>
      <trkpt lat="-21.18031" lon="55.41171">
        <ele>1767.5</ele>
        <time>2013-06-02T04:35:12Z</time>
      </trkpt>
      <trkpt lat="-21.18028" lon="55.41163">
        <ele>1768.7</ele>
        <time>2013-06-02T04:35:19Z</time>
      </trkpt>
      <trkpt lat="-21.18026" lon="55.41153">
        <ele>1769.6</ele>
        <time>2013-06-02T04:35:26Z</time>
      </trkpt>
      <trkpt lat="-21.18027" lon="55.41145">
        <ele>1771.5</ele>
        <time>2013-06-02T04:35:33Z</time>
      </trkpt>
      <trkpt lat="-21.18027" lon="55.41135">
        <ele>1771.6</ele>
        <time>2013-06-02T04:35:39Z</time>
      </trkpt>
      <trkpt lat="-21.18027" lon="55.41126">
        <ele>1773.5</ele>
        <time>2013-06-02T04:35:46Z</time>
      </trkpt>
      <trkpt lat="-21.18026" lon="55.41125">
        <ele>1773.5</ele>
        <time>2013-06-02T04:35:47Z</time>
      </trkpt>
      <trkpt lat="-21.18026" lon="55.41109">
        <ele>1775.3</ele>
        <time>2013-06-02T04:35:58Z</time>
      </trkpt>
      <trkpt lat="-21.18029" lon="55.41101">
        <ele>1776.5</ele>
        <time>2013-06-02T04:36:04Z</time>
      </trkpt>
      <trkpt lat="-21.18031" lon="55.41092">
        <ele>1776.5</ele>
        <time>2013-06-02T04:36:09Z</time>
      </trkpt>
      <trkpt lat="-21.18033" lon="55.41084">
        <ele>1777.4</ele>
        <time>2013-06-02T04:36:13Z</time>
      </trkpt>
      <trkpt lat="-21.18034" lon="55.41077">
        <ele>1777.2</ele>
        <time>2013-06-02T04:36:17Z</time>
      </trkpt>
      <trkpt lat="-21.18034" lon="55.41069">
        <ele>1777.2</ele>
        <time>2013-06-02T04:36:21Z</time>
      </trkpt>
      <trkpt lat="-21.18031" lon="55.4106">
        <ele>1777.7</ele>
        <time>2013-06-02T04:36:26Z</time>
      </trkpt>
      <trkpt lat="-21.18025" lon="55.41054">
        <ele>1778.3</ele>
        <time>2013-06-02T04:36:33Z</time>
      </trkpt>
      <trkpt lat="-21.1802" lon="55.41046">
        <ele>1778.7</ele>
        <time>2013-06-02T04:36:39Z</time>
      </trkpt>
      <trkpt lat="-21.18016" lon="55.41038">
        <ele>1779.4</ele>
        <time>2013-06-02T04:36:45Z</time>
      </trkpt>
      <trkpt lat="-21.18012" lon="55.4103">
        <ele>1780.5</ele>
        <time>2013-06-02T04:36:50Z</time>
      </trkpt>
      <trkpt lat="-21.18012" lon="55.41029">
        <ele>1780.9</ele>
        <time>2013-06-02T04:36:51Z</time>
      </trkpt>
      <trkpt lat="-21.18008" lon="55.41013">
        <ele>1782.9</ele>
        <time>2013-06-02T04:37:02Z</time>
      </trkpt>
      <trkpt lat="-21.18008" lon="55.41004">
        <ele>1783.9</ele>
        <time>2013-06-02T04:37:09Z</time>
      </trkpt>
      <trkpt lat="-21.18007" lon="55.40994">
        <ele>1785</ele>
        <time>2013-06-02T04:37:16Z</time>
      </trkpt>
      <trkpt lat="-21.18007" lon="55.40986">
        <ele>1785</ele>
        <time>2013-06-02T04:37:21Z</time>
      </trkpt>
      <trkpt lat="-21.18007" lon="55.40977">
        <ele>1786</ele>
        <time>2013-06-02T04:37:26Z</time>
      </trkpt>
      <trkpt lat="-21.18006" lon="55.40968">
        <ele>1786.4</ele>
        <time>2013-06-02T04:37:32Z</time>
      </trkpt>
      <trkpt lat="-21.18006" lon="55.40959">
        <ele>1788</ele>
        <time>2013-06-02T04:37:38Z</time>
      </trkpt>
      <trkpt lat="-21.18005" lon="55.40951">
        <ele>1788.9</ele>
        <time>2013-06-02T04:37:44Z</time>
      </trkpt>
      <trkpt lat="-21.18005" lon="55.40942">
        <ele>1789.7</ele>
        <time>2013-06-02T04:37:50Z</time>
      </trkpt>
      <trkpt lat="-21.18009" lon="55.40934">
        <ele>1791.5</ele>
        <time>2013-06-02T04:37:56Z</time>
      </trkpt>
      <trkpt lat="-21.18009" lon="55.40932">
        <ele>1791.8</ele>
        <time>2013-06-02T04:37:57Z</time>
      </trkpt>
      <trkpt lat="-21.18012" lon="55.40917">
        <ele>1794.2</ele>
        <time>2013-06-02T04:38:08Z</time>
      </trkpt>
      <trkpt lat="-21.18014" lon="55.40908">
        <ele>1796.3</ele>
        <time>2013-06-02T04:38:15Z</time>
      </trkpt>
      <trkpt lat="-21.18014" lon="55.40899">
        <ele>1798.1</ele>
        <time>2013-06-02T04:38:22Z</time>
      </trkpt>
      <trkpt lat="-21.18016" lon="55.4089">
        <ele>1798.9</ele>
        <time>2013-06-02T04:38:28Z</time>
      </trkpt>
      <trkpt lat="-21.18015" lon="55.40881">
        <ele>1800.1</ele>
        <time>2013-06-02T04:38:34Z</time>
      </trkpt>
      <trkpt lat="-21.18018" lon="55.40872">
        <ele>1800.9</ele>
        <time>2013-06-02T04:38:40Z</time>
      </trkpt>
      <trkpt lat="-21.18021" lon="55.40864">
        <ele>1802.2</ele>
        <time>2013-06-02T04:38:48Z</time>
      </trkpt>
      <trkpt lat="-21.18025" lon="55.40856">
        <ele>1802.5</ele>
        <time>2013-06-02T04:38:55Z</time>
      </trkpt>
      <trkpt lat="-21.18027" lon="55.40847">
        <ele>1804.7</ele>
        <time>2013-06-02T04:39:03Z</time>
      </trkpt>
      <trkpt lat="-21.18027" lon="55.40846">
        <ele>1804.3</ele>
        <time>2013-06-02T04:39:04Z</time>
      </trkpt>
      <trkpt lat="-21.18031" lon="55.4083">
        <ele>1806.2</ele>
        <time>2013-06-02T04:39:24Z</time>
      </trkpt>
      <trkpt lat="-21.18024" lon="55.40824">
        <ele>1815.2</ele>
        <time>2013-06-02T04:39:57Z</time>
      </trkpt>
      <trkpt lat="-21.18016" lon="55.40821">
        <ele>1818.1</ele>
        <time>2013-06-02T04:40:10Z</time>
      </trkpt>
      <trkpt lat="-21.18015" lon="55.40821">
        <ele>1818.4</ele>
        <time>2013-06-02T04:40:11Z</time>
      </trkpt>
      <trkpt lat="-21.18001" lon="55.40815">
        <ele>1824</ele>
        <time>2013-06-02T04:40:35Z</time>
      </trkpt>
      <trkpt lat="-21.17993" lon="55.40816">
        <ele>1824.4</ele>
        <time>2013-06-02T04:40:40Z</time>
      </trkpt>
      <trkpt lat="-21.17984" lon="55.40816">
        <ele>1825.8</ele>
        <time>2013-06-02T04:40:50Z</time>
      </trkpt>
      <trkpt lat="-21.17976" lon="55.40813">
        <ele>1827.7</ele>
        <time>2013-06-02T04:40:58Z</time>
      </trkpt>
      <trkpt lat="-21.17967" lon="55.40813">
        <ele>1830.3</ele>
        <time>2013-06-02T04:41:12Z</time>
      </trkpt>
      <trkpt lat="-21.17966" lon="55.40813">
        <ele>1830.1</ele>
        <time>2013-06-02T04:41:13Z</time>
      </trkpt>
      <trkpt lat="-21.17952" lon="55.40803">
        <ele>1832.9</ele>
        <time>2013-06-02T04:41:34Z</time>
      </trkpt>
      <trkpt lat="-21.17944" lon="55.40799">
        <ele>1836</ele>
        <time>2013-06-02T04:41:48Z</time>
      </trkpt>
      <trkpt lat="-21.17938" lon="55.40794">
        <ele>1838.2</ele>
        <time>2013-06-02T04:41:58Z</time>
      </trkpt>
      <trkpt lat="-21.1793" lon="55.40793">
        <ele>1839.8</ele>
        <time>2013-06-02T04:42:04Z</time>
      </trkpt>
      <trkpt lat="-21.17922" lon="55.40796">
        <ele>1840.8</ele>
        <time>2013-06-02T04:42:08Z</time>
      </trkpt>
      <trkpt lat="-21.17915" lon="55.40791">
        <ele>1843.7</ele>
        <time>2013-06-02T04:42:21Z</time>
      </trkpt>
      <trkpt lat="-21.17915" lon="55.4079">
        <ele>1844</ele>
        <time>2013-06-02T04:42:22Z</time>
      </trkpt>
      <trkpt lat="-21.17909" lon="55.40775">
        <ele>1847.9</ele>
        <time>2013-06-02T04:42:39Z</time>
      </trkpt>
      <trkpt lat="-21.17901" lon="55.40773">
        <ele>1849.4</ele>
        <time>2013-06-02T04:42:47Z</time>
      </trkpt>
      <trkpt lat="-21.17895" lon="55.40768">
        <ele>1854.3</ele>
        <time>2013-06-02T04:43:11Z</time>
      </trkpt>
      <trkpt lat="-21.17887" lon="55.40762">
        <ele>1857.1</ele>
        <time>2013-06-02T04:43:27Z</time>
      </trkpt>
      <trkpt lat="-21.17884" lon="55.40763">
        <ele>1857.6</ele>
        <time>2013-06-02T04:43:28Z</time>
      </trkpt>
      <trkpt lat="-21.17872" lon="55.40762">
        <ele>1858.6</ele>
        <time>2013-06-02T04:43:32Z</time>
      </trkpt>
      <trkpt lat="-21.17865" lon="55.40761">
        <ele>1859</ele>
        <time>2013-06-02T04:43:34Z</time>
      </trkpt>
      <trkpt lat="-21.17857" lon="55.40763">
        <ele>1861.6</ele>
        <time>2013-06-02T04:43:42Z</time>
      </trkpt>
      <trkpt lat="-21.17862" lon="55.40756">
        <ele>1863.6</ele>
        <time>2013-06-02T04:43:54Z</time>
      </trkpt>
      <trkpt lat="-21.17867" lon="55.40749">
        <ele>1864.9</ele>
        <time>2013-06-02T04:44:00Z</time>
      </trkpt>
      <trkpt lat="-21.17863" lon="55.40741">
        <ele>1867.6</ele>
        <time>2013-06-02T04:44:14Z</time>
      </trkpt>
      <trkpt lat="-21.17856" lon="55.40736">
        <ele>1869.2</ele>
        <time>2013-06-02T04:44:25Z</time>
      </trkpt>
      <trkpt lat="-21.17849" lon="55.4073">
        <ele>1872.1</ele>
        <time>2013-06-02T04:44:44Z</time>
      </trkpt>
      <trkpt lat="-21.17849" lon="55.4073">
        <ele>1872.1</ele>
        <time>2013-06-02T04:44:45Z</time>
      </trkpt>
      <trkpt lat="-21.17835" lon="55.40735">
        <ele>1874.2</ele>
        <time>2013-06-02T04:45:01Z</time>
      </trkpt>
      <trkpt lat="-21.17827" lon="55.40737">
        <ele>1874.7</ele>
        <time>2013-06-02T04:45:04Z</time>
      </trkpt>
      <trkpt lat="-21.17819" lon="55.40733">
        <ele>1875.6</ele>
        <time>2013-06-02T04:45:07Z</time>
      </trkpt>
      <trkpt lat="-21.17816" lon="55.40726">
        <ele>1876.7</ele>
        <time>2013-06-02T04:45:13Z</time>
      </trkpt>
      <trkpt lat="-21.1782" lon="55.40717">
        <ele>1878.9</ele>
        <time>2013-06-02T04:45:19Z</time>
      </trkpt>
      <trkpt lat="-21.17829" lon="55.40715">
        <ele>1879.5</ele>
        <time>2013-06-02T04:45:26Z</time>
      </trkpt>
      <trkpt lat="-21.17833" lon="55.40707">
        <ele>1880.5</ele>
        <time>2013-06-02T04:45:32Z</time>
      </trkpt>
      <trkpt lat="-21.1783" lon="55.407">
        <ele>1882</ele>
        <time>2013-06-02T04:45:41Z</time>
      </trkpt>
      <trkpt lat="-21.17821" lon="55.407">
        <ele>1883.9</ele>
        <time>2013-06-02T04:45:50Z</time>
      </trkpt>
      <trkpt lat="-21.17821" lon="55.407">
        <ele>1884.2</ele>
        <time>2013-06-02T04:45:51Z</time>
      </trkpt>
      <trkpt lat="-21.17809" lon="55.40688">
        <ele>1889.3</ele>
        <time>2013-06-02T04:46:22Z</time>
      </trkpt>
      <trkpt lat="-21.17802" lon="55.40683">
        <ele>1890.3</ele>
        <time>2013-06-02T04:46:34Z</time>
      </trkpt>
      <trkpt lat="-21.17795" lon="55.40678">
        <ele>1893.5</ele>
        <time>2013-06-02T04:46:48Z</time>
      </trkpt>
      <trkpt lat="-21.17787" lon="55.40676">
        <ele>1896.3</ele>
        <time>2013-06-02T04:47:00Z</time>
      </trkpt>
      <trkpt lat="-21.17786" lon="55.40675">
        <ele>1897.2</ele>
        <time>2013-06-02T04:47:01Z</time>
      </trkpt>
      <trkpt lat="-21.17772" lon="55.40666">
        <ele>1901.3</ele>
        <time>2013-06-02T04:47:41Z</time>
      </trkpt>
      <trkpt lat="-21.17764" lon="55.4067">
        <ele>1902.6</ele>
        <time>2013-06-02T04:47:46Z</time>
      </trkpt>
      <trkpt lat="-21.17757" lon="55.40671">
        <ele>1903.4</ele>
        <time>2013-06-02T04:47:53Z</time>
      </trkpt>
      <trkpt lat="-21.17751" lon="55.40665">
        <ele>1906.3</ele>
        <time>2013-06-02T04:48:13Z</time>
      </trkpt>
      <trkpt lat="-21.17749" lon="55.40664">
        <ele>1906.5</ele>
        <time>2013-06-02T04:48:14Z</time>
      </trkpt>
      <trkpt lat="-21.17749" lon="55.40652">
        <ele>1908.1</ele>
        <time>2013-06-02T04:48:26Z</time>
      </trkpt>
      <trkpt lat="-21.17756" lon="55.40646">
        <ele>1909.7</ele>
        <time>2013-06-02T04:48:32Z</time>
      </trkpt>
      <trkpt lat="-21.17756" lon="55.40637">
        <ele>1912.7</ele>
        <time>2013-06-02T04:48:45Z</time>
      </trkpt>
      <trkpt lat="-21.17756" lon="55.40628">
        <ele>1914.8</ele>
        <time>2013-06-02T04:48:57Z</time>
      </trkpt>
      <trkpt lat="-21.17753" lon="55.40619">
        <ele>1918.8</ele>
        <time>2013-06-02T04:49:15Z</time>
      </trkpt>
      <trkpt lat="-21.17753" lon="55.40619">
        <ele>1919.3</ele>
        <time>2013-06-02T04:49:16Z</time>
      </trkpt>
      <trkpt lat="-21.17737" lon="55.40622">
        <ele>1923.3</ele>
        <time>2013-06-02T04:49:40Z</time>
      </trkpt>
      <trkpt lat="-21.17729" lon="55.40626">
        <ele>1925.5</ele>
        <time>2013-06-02T04:49:47Z</time>
      </trkpt>
      <trkpt lat="-21.17737" lon="55.40623">
        <ele>1933</ele>
        <time>2013-06-02T04:50:30Z</time>
      </trkpt>
      <trkpt lat="-21.17738" lon="55.40622">
        <ele>1933</ele>
        <time>2013-06-02T04:50:31Z</time>
      </trkpt>
      <trkpt lat="-21.17736" lon="55.40615">
        <ele>1937.8</ele>
        <time>2013-06-02T04:50:54Z</time>
      </trkpt>
      <trkpt lat="-21.1774" lon="55.40607">
        <ele>1941.4</ele>
        <time>2013-06-02T04:51:09Z</time>
      </trkpt>
      <trkpt lat="-21.17734" lon="55.40612">
        <ele>1944.9</ele>
        <time>2013-06-02T04:51:28Z</time>
      </trkpt>
      <trkpt lat="-21.17728" lon="55.40615">
        <ele>1945.5</ele>
        <time>2013-06-02T04:51:32Z</time>
      </trkpt>
      <trkpt lat="-21.17726" lon="55.40616">
        <ele>1945.7</ele>
        <time>2013-06-02T04:51:33Z</time>
      </trkpt>
      <trkpt lat="-21.17712" lon="55.40616">
        <ele>1948</ele>
        <time>2013-06-02T04:51:46Z</time>
      </trkpt>
      <trkpt lat="-21.17699" lon="55.40607">
        <ele>1949</ele>
        <time>2013-06-02T04:51:57Z</time>
      </trkpt>
      <trkpt lat="-21.17713" lon="55.40602">
        <ele>1952</ele>
        <time>2013-06-02T04:52:06Z</time>
      </trkpt>
      <trkpt lat="-21.17712" lon="55.4061">
        <ele>1953.7</ele>
        <time>2013-06-02T04:52:18Z</time>
      </trkpt>
      <trkpt lat="-21.17706" lon="55.40614">
        <ele>1953.5</ele>
        <time>2013-06-02T04:52:20Z</time>
      </trkpt>
      <trkpt lat="-21.17698" lon="55.40618">
        <ele>1954.9</ele>
        <time>2013-06-02T04:52:24Z</time>
      </trkpt>
      <trkpt lat="-21.17691" lon="55.40623">
        <ele>1956.1</ele>
        <time>2013-06-02T04:52:30Z</time>
      </trkpt>
      <trkpt lat="-21.17683" lon="55.40626">
        <ele>1956.8</ele>
        <time>2013-06-02T04:52:33Z</time>
      </trkpt>
      <trkpt lat="-21.1768" lon="55.40627">
        <ele>1957</ele>
        <time>2013-06-02T04:52:34Z</time>
      </trkpt>
      <trkpt lat="-21.1767" lon="55.40636">
        <ele>1961.3</ele>
        <time>2013-06-02T04:53:00Z</time>
      </trkpt>
      <trkpt lat="-21.17662" lon="55.40632">
        <ele>1964.2</ele>
        <time>2013-06-02T04:53:11Z</time>
      </trkpt>
      <trkpt lat="-21.1766" lon="55.40623">
        <ele>1967.1</ele>
        <time>2013-06-02T04:53:25Z</time>
      </trkpt>
      <trkpt lat="-21.17656" lon="55.40613">
        <ele>1968</ele>
        <time>2013-06-02T04:53:40Z</time>
      </trkpt>
      <trkpt lat="-21.17654" lon="55.40611">
        <ele>1969.2</ele>
        <time>2013-06-02T04:53:42Z</time>
      </trkpt>
      <trkpt lat="-21.17641" lon="55.40592">
        <ele>1970</ele>
        <time>2013-06-02T04:53:48Z</time>
      </trkpt>
      <trkpt lat="-21.17648" lon="55.40579">
        <ele>1971</ele>
        <time>2013-06-02T04:53:52Z</time>
      </trkpt>
      <trkpt lat="-21.17659" lon="55.40565">
        <ele>1971</ele>
        <time>2013-06-02T04:53:56Z</time>
      </trkpt>
      <trkpt lat="-21.17648" lon="55.40568">
        <ele>1973.2</ele>
        <time>2013-06-02T04:54:02Z</time>
      </trkpt>
      <trkpt lat="-21.17644" lon="55.40575">
        <ele>1974</ele>
        <time>2013-06-02T04:54:06Z</time>
      </trkpt>
      <trkpt lat="-21.17645" lon="55.40584">
        <ele>1974.1</ele>
        <time>2013-06-02T04:54:12Z</time>
      </trkpt>
      <trkpt lat="-21.17651" lon="55.4059">
        <ele>1976.8</ele>
        <time>2013-06-02T04:54:20Z</time>
      </trkpt>
      <trkpt lat="-21.17641" lon="55.40595">
        <ele>1979.3</ele>
        <time>2013-06-02T04:54:37Z</time>
      </trkpt>
      <trkpt lat="-21.17633" lon="55.40594">
        <ele>1980.2</ele>
        <time>2013-06-02T04:54:41Z</time>
      </trkpt>
      <trkpt lat="-21.17638" lon="55.40587">
        <ele>1987.9</ele>
        <time>2013-06-02T04:55:24Z</time>
      </trkpt>
      <trkpt lat="-21.17638" lon="55.40586">
        <ele>1988.1</ele>
        <time>2013-06-02T04:55:25Z</time>
      </trkpt>
      <trkpt lat="-21.17639" lon="55.40584">
        <ele>1992.4</ele>
        <time>2013-06-02T04:55:43Z</time>
      </trkpt>
      <trkpt lat="-21.1763" lon="55.40581">
        <ele>1992</ele>
        <time>2013-06-02T04:55:48Z</time>
      </trkpt>
      <trkpt lat="-21.17622" lon="55.40579">
        <ele>1993.8</ele>
        <time>2013-06-02T04:55:58Z</time>
      </trkpt>
      <trkpt lat="-21.17614" lon="55.4058">
        <ele>1994.7</ele>
        <time>2013-06-02T04:56:01Z</time>
      </trkpt>
      <trkpt lat="-21.17606" lon="55.40582">
        <ele>1995.6</ele>
        <time>2013-06-02T04:56:04Z</time>
      </trkpt>
      <trkpt lat="-21.17598" lon="55.40578">
        <ele>2000.1</ele>
        <time>2013-06-02T04:56:25Z</time>
      </trkpt>
      <trkpt lat="-21.17597" lon="55.40578">
        <ele>1999.7</ele>
        <time>2013-06-02T04:56:26Z</time>
      </trkpt>
      <trkpt lat="-21.17585" lon="55.40568">
        <ele>2000.5</ele>
        <time>2013-06-02T04:56:41Z</time>
      </trkpt>
      <trkpt lat="-21.17583" lon="55.40559">
        <ele>2001.5</ele>
        <time>2013-06-02T04:56:50Z</time>
      </trkpt>
      <trkpt lat="-21.17587" lon="55.4055">
        <ele>2000.9</ele>
        <time>2013-06-02T04:56:57Z</time>
      </trkpt>
      <trkpt lat="-21.17587" lon="55.40541">
        <ele>2001</ele>
        <time>2013-06-02T04:57:04Z</time>
      </trkpt>
      <trkpt lat="-21.17586" lon="55.40533">
        <ele>2001.2</ele>
        <time>2013-06-02T04:57:10Z</time>
      </trkpt>
      <trkpt lat="-21.17588" lon="55.40525">
        <ele>2001.3</ele>
        <time>2013-06-02T04:57:16Z</time>
      </trkpt>
      <trkpt lat="-21.17588" lon="55.40516">
        <ele>2000.9</ele>
        <time>2013-06-02T04:57:22Z</time>
      </trkpt>
      <trkpt lat="-21.17581" lon="55.40511">
        <ele>2002</ele>
        <time>2013-06-02T04:57:28Z</time>
      </trkpt>
      <trkpt lat="-21.1758" lon="55.4051">
        <ele>2002.2</ele>
        <time>2013-06-02T04:57:29Z</time>
      </trkpt>
      <trkpt lat="-21.17572" lon="55.40524">
        <ele>2005.7</ele>
        <time>2013-06-02T04:57:48Z</time>
      </trkpt>
      <trkpt lat="-21.1757" lon="55.40533">
        <ele>2006.2</ele>
        <time>2013-06-02T04:57:55Z</time>
      </trkpt>
      <trkpt lat="-21.17566" lon="55.40541">
        <ele>2007.9</ele>
        <time>2013-06-02T04:58:02Z</time>
      </trkpt>
      <trkpt lat="-21.17565" lon="55.40549">
        <ele>2008.2</ele>
        <time>2013-06-02T04:58:08Z</time>
      </trkpt>
      <trkpt lat="-21.17565" lon="55.40558">
        <ele>2009.4</ele>
        <time>2013-06-02T04:58:15Z</time>
      </trkpt>
      <trkpt lat="-21.17565" lon="55.40567">
        <ele>2010.1</ele>
        <time>2013-06-02T04:58:22Z</time>
      </trkpt>
      <trkpt lat="-21.17562" lon="55.40576">
        <ele>2010.8</ele>
        <time>2013-06-02T04:58:30Z</time>
      </trkpt>
      <trkpt lat="-21.17561" lon="55.40577">
        <ele>2010.7</ele>
        <time>2013-06-02T04:58:31Z</time>
      </trkpt>
      <trkpt lat="-21.17558" lon="55.40592">
        <ele>2013</ele>
        <time>2013-06-02T04:58:43Z</time>
      </trkpt>
      <trkpt lat="-21.17556" lon="55.406">
        <ele>2013.4</ele>
        <time>2013-06-02T04:58:48Z</time>
      </trkpt>
      <trkpt lat="-21.1756" lon="55.40609">
        <ele>2014.4</ele>
        <time>2013-06-02T04:58:54Z</time>
      </trkpt>
      <trkpt lat="-21.17559" lon="55.40618">
        <ele>2015.6</ele>
        <time>2013-06-02T04:59:01Z</time>
      </trkpt>
      <trkpt lat="-21.17559" lon="55.40626">
        <ele>2015.1</ele>
        <time>2013-06-02T04:59:08Z</time>
      </trkpt>
      <trkpt lat="-21.17558" lon="55.40635">
        <ele>2016</ele>
        <time>2013-06-02T04:59:14Z</time>
      </trkpt>
      <trkpt lat="-21.17555" lon="55.40644">
        <ele>2016.4</ele>
        <time>2013-06-02T04:59:21Z</time>
      </trkpt>
      <trkpt lat="-21.17552" lon="55.40652">
        <ele>2017.3</ele>
        <time>2013-06-02T04:59:28Z</time>
      </trkpt>
      <trkpt lat="-21.17547" lon="55.40659">
        <ele>2017</ele>
        <time>2013-06-02T04:59:33Z</time>
      </trkpt>
      <trkpt lat="-21.17546" lon="55.40661">
        <ele>2017.4</ele>
        <time>2013-06-02T04:59:34Z</time>
      </trkpt>
      <trkpt lat="-21.17544" lon="55.40676">
        <ele>2017.9</ele>
        <time>2013-06-02T04:59:46Z</time>
      </trkpt>
      <trkpt lat="-21.17539" lon="55.40684">
        <ele>2019.1</ele>
        <time>2013-06-02T04:59:51Z</time>
      </trkpt>
      <trkpt lat="-21.17534" lon="55.4069">
        <ele>2019.8</ele>
        <time>2013-06-02T04:59:55Z</time>
      </trkpt>
      <trkpt lat="-21.17528" lon="55.40697">
        <ele>2020.8</ele>
        <time>2013-06-02T05:00:00Z</time>
      </trkpt>
      <trkpt lat="-21.17522" lon="55.40702">
        <ele>2020.8</ele>
        <time>2013-06-02T05:00:05Z</time>
      </trkpt>
      <trkpt lat="-21.17517" lon="55.40709">
        <ele>2022.4</ele>
        <time>2013-06-02T05:00:12Z</time>
      </trkpt>
      <trkpt lat="-21.17511" lon="55.40716">
        <ele>2021.7</ele>
        <time>2013-06-02T05:00:17Z</time>
      </trkpt>
      <trkpt lat="-21.17506" lon="55.40723">
        <ele>2023</ele>
        <time>2013-06-02T05:00:21Z</time>
      </trkpt>
      <trkpt lat="-21.17504" lon="55.40731">
        <ele>2024</ele>
        <time>2013-06-02T05:00:27Z</time>
      </trkpt>
      <trkpt lat="-21.17502" lon="55.40739">
        <ele>2025.6</ele>
        <time>2013-06-02T05:00:33Z</time>
      </trkpt>
      <trkpt lat="-21.17498" lon="55.40747">
        <ele>2025.6</ele>
        <time>2013-06-02T05:00:40Z</time>
      </trkpt>
      <trkpt lat="-21.17497" lon="55.40749">
        <ele>2025.9</ele>
        <time>2013-06-02T05:00:41Z</time>
      </trkpt>
      <trkpt lat="-21.1749" lon="55.40762">
        <ele>2026.9</ele>
        <time>2013-06-02T05:00:52Z</time>
      </trkpt>
      <trkpt lat="-21.17486" lon="55.4077">
        <ele>2027.8</ele>
        <time>2013-06-02T05:00:58Z</time>
      </trkpt>
      <trkpt lat="-21.17483" lon="55.40778">
        <ele>2028.6</ele>
        <time>2013-06-02T05:01:05Z</time>
      </trkpt>
      <trkpt lat="-21.17481" lon="55.40786">
        <ele>2029.4</ele>
        <time>2013-06-02T05:01:12Z</time>
      </trkpt>
      <trkpt lat="-21.17478" lon="55.40794">
        <ele>2030.3</ele>
        <time>2013-06-02T05:01:20Z</time>
      </trkpt>
      <trkpt lat="-21.17473" lon="55.40802">
        <ele>2030.9</ele>
        <time>2013-06-02T05:01:25Z</time>
      </trkpt>
      <trkpt lat="-21.17468" lon="55.4081">
        <ele>2031</ele>
        <time>2013-06-02T05:01:31Z</time>
      </trkpt>
      <trkpt lat="-21.17463" lon="55.40817">
        <ele>2032.6</ele>
        <time>2013-06-02T05:01:37Z</time>
      </trkpt>
      <trkpt lat="-21.17458" lon="55.40823">
        <ele>2032.6</ele>
        <time>2013-06-02T05:01:42Z</time>
      </trkpt>
      <trkpt lat="-21.17457" lon="55.40824">
        <ele>2032.7</ele>
        <time>2013-06-02T05:01:43Z</time>
      </trkpt>
      <trkpt lat="-21.17448" lon="55.40837">
        <ele>2033.2</ele>
        <time>2013-06-02T05:01:56Z</time>
      </trkpt>
      <trkpt lat="-21.17444" lon="55.40846">
        <ele>2033.1</ele>
        <time>2013-06-02T05:02:21Z</time>
      </trkpt>
      <trkpt lat="-21.17437" lon="55.40852">
        <ele>2033</ele>
        <time>2013-06-02T05:02:32Z</time>
      </trkpt>
      <trkpt lat="-21.17432" lon="55.40859">
        <ele>2033.9</ele>
        <time>2013-06-02T05:02:43Z</time>
      </trkpt>
      <trkpt lat="-21.17432" lon="55.4086">
        <ele>2034</ele>
        <time>2013-06-02T05:02:44Z</time>
      </trkpt>
      <trkpt lat="-21.17421" lon="55.40872">
        <ele>2035.4</ele>
        <time>2013-06-02T05:02:57Z</time>
      </trkpt>
      <trkpt lat="-21.17415" lon="55.40879">
        <ele>2037.7</ele>
        <time>2013-06-02T05:03:08Z</time>
      </trkpt>
      <trkpt lat="-21.17409" lon="55.40884">
        <ele>2038.7</ele>
        <time>2013-06-02T05:03:19Z</time>
      </trkpt>
      <trkpt lat="-21.17402" lon="55.40888">
        <ele>2039</ele>
        <time>2013-06-02T05:03:27Z</time>
      </trkpt>
      <trkpt lat="-21.17395" lon="55.40892">
        <ele>2038.8</ele>
        <time>2013-06-02T05:03:34Z</time>
      </trkpt>
      <trkpt lat="-21.17386" lon="55.40893">
        <ele>2039.3</ele>
        <time>2013-06-02T05:03:42Z</time>
      </trkpt>
      <trkpt lat="-21.17378" lon="55.40895">
        <ele>2041.6</ele>
        <time>2013-06-02T05:04:11Z</time>
      </trkpt>
      <trkpt lat="-21.17377" lon="55.40896">
        <ele>2041.6</ele>
        <time>2013-06-02T05:04:12Z</time>
      </trkpt>
      <trkpt lat="-21.17365" lon="55.40905">
        <ele>2042.4</ele>
        <time>2013-06-02T05:04:23Z</time>
      </trkpt>
      <trkpt lat="-21.1736" lon="55.40912">
        <ele>2043.3</ele>
        <time>2013-06-02T05:04:29Z</time>
      </trkpt>
      <trkpt lat="-21.17353" lon="55.40918">
        <ele>2043</ele>
        <time>2013-06-02T05:04:36Z</time>
      </trkpt>
      <trkpt lat="-21.17345" lon="55.40923">
        <ele>2044.2</ele>
        <time>2013-06-02T05:04:43Z</time>
      </trkpt>
      <trkpt lat="-21.17339" lon="55.40929">
        <ele>2044.8</ele>
        <time>2013-06-02T05:04:48Z</time>
      </trkpt>
      <trkpt lat="-21.17333" lon="55.40934">
        <ele>2045.3</ele>
        <time>2013-06-02T05:04:54Z</time>
      </trkpt>
      <trkpt lat="-21.17326" lon="55.40937">
        <ele>2045.1</ele>
        <time>2013-06-02T05:04:58Z</time>
      </trkpt>
      <trkpt lat="-21.17318" lon="55.4094">
        <ele>2045.6</ele>
        <time>2013-06-02T05:05:04Z</time>
      </trkpt>
      <trkpt lat="-21.17311" lon="55.40944">
        <ele>2046.8</ele>
        <time>2013-06-02T05:05:12Z</time>
      </trkpt>
      <trkpt lat="-21.1731" lon="55.40946">
        <ele>2047</ele>
        <time>2013-06-02T05:05:13Z</time>
      </trkpt>
      <trkpt lat="-21.17298" lon="55.40956">
        <ele>2049.7</ele>
        <time>2013-06-02T05:05:25Z</time>
      </trkpt>
      <trkpt lat="-21.17291" lon="55.40959">
        <ele>2049.9</ele>
        <time>2013-06-02T05:05:30Z</time>
      </trkpt>
      <trkpt lat="-21.17284" lon="55.40963">
        <ele>2051.1</ele>
        <time>2013-06-02T05:05:34Z</time>
      </trkpt>
      <trkpt lat="-21.17277" lon="55.40967">
        <ele>2051.2</ele>
        <time>2013-06-02T05:05:38Z</time>
      </trkpt>
      <trkpt lat="-21.17271" lon="55.40973">
        <ele>2051.1</ele>
        <time>2013-06-02T05:05:44Z</time>
      </trkpt>
      <trkpt lat="-21.17265" lon="55.4098">
        <ele>2052.8</ele>
        <time>2013-06-02T05:05:53Z</time>
      </trkpt>
      <trkpt lat="-21.17264" lon="55.4099">
        <ele>2054.3</ele>
        <time>2013-06-02T05:06:05Z</time>
      </trkpt>
      <trkpt lat="-21.17256" lon="55.40995">
        <ele>2055.5</ele>
        <time>2013-06-02T05:06:12Z</time>
      </trkpt>
      <trkpt lat="-21.17248" lon="55.40996">
        <ele>2056.1</ele>
        <time>2013-06-02T05:06:18Z</time>
      </trkpt>
      <trkpt lat="-21.17247" lon="55.40996">
        <ele>2056.2</ele>
        <time>2013-06-02T05:06:19Z</time>
      </trkpt>
      <trkpt lat="-21.17231" lon="55.40999">
        <ele>2059.1</ele>
        <time>2013-06-02T05:06:37Z</time>
      </trkpt>
      <trkpt lat="-21.1723" lon="55.4099">
        <ele>2062.9</ele>
        <time>2013-06-02T05:06:52Z</time>
      </trkpt>
      <trkpt lat="-21.17221" lon="55.40989">
        <ele>2063.4</ele>
        <time>2013-06-02T05:06:56Z</time>
      </trkpt>
      <trkpt lat="-21.17213" lon="55.40989">
        <ele>2064.1</ele>
        <time>2013-06-02T05:07:08Z</time>
      </trkpt>
      <trkpt lat="-21.17206" lon="55.4099">
        <ele>2065.1</ele>
        <time>2013-06-02T05:07:11Z</time>
      </trkpt>
      <trkpt lat="-21.172" lon="55.40996">
        <ele>2065.8</ele>
        <time>2013-06-02T05:07:16Z</time>
      </trkpt>
      <trkpt lat="-21.17192" lon="55.40997">
        <ele>2067</ele>
        <time>2013-06-02T05:07:20Z</time>
      </trkpt>
      <trkpt lat="-21.1719" lon="55.40998">
        <ele>2067.2</ele>
        <time>2013-06-02T05:07:21Z</time>
      </trkpt>
      <trkpt lat="-21.1719" lon="55.41008">
        <ele>2069.3</ele>
        <time>2013-06-02T05:07:48Z</time>
      </trkpt>
      <trkpt lat="-21.17196" lon="55.41014">
        <ele>2071.5</ele>
        <time>2013-06-02T05:08:04Z</time>
      </trkpt>
      <trkpt lat="-21.17193" lon="55.41022">
        <ele>2072.6</ele>
        <time>2013-06-02T05:08:15Z</time>
      </trkpt>
      <trkpt lat="-21.17189" lon="55.41031">
        <ele>2073.4</ele>
        <time>2013-06-02T05:08:24Z</time>
      </trkpt>
      <trkpt lat="-21.17189" lon="55.41032">
        <ele>2073.9</ele>
        <time>2013-06-02T05:08:25Z</time>
      </trkpt>
      <trkpt lat="-21.1718" lon="55.41046">
        <ele>2075.6</ele>
        <time>2013-06-02T05:08:38Z</time>
      </trkpt>
      <trkpt lat="-21.17179" lon="55.41055">
        <ele>2077.2</ele>
        <time>2013-06-02T05:08:46Z</time>
      </trkpt>
      <trkpt lat="-21.17178" lon="55.41065">
        <ele>2078.9</ele>
        <time>2013-06-02T05:08:55Z</time>
      </trkpt>
      <trkpt lat="-21.17179" lon="55.41073">
        <ele>2079.6</ele>
        <time>2013-06-02T05:09:05Z</time>
      </trkpt>
      <trkpt lat="-21.17184" lon="55.41081">
        <ele>2081.6</ele>
        <time>2013-06-02T05:09:14Z</time>
      </trkpt>
      <trkpt lat="-21.17181" lon="55.41088">
        <ele>2084.3</ele>
        <time>2013-06-02T05:09:24Z</time>
      </trkpt>
      <trkpt lat="-21.17176" lon="55.41095">
        <ele>2085.3</ele>
        <time>2013-06-02T05:09:33Z</time>
      </trkpt>
      <trkpt lat="-21.17175" lon="55.41096">
        <ele>2085.7</ele>
        <time>2013-06-02T05:09:34Z</time>
      </trkpt>
      <trkpt lat="-21.17176" lon="55.41107">
        <ele>2087.8</ele>
        <time>2013-06-02T05:09:55Z</time>
      </trkpt>
      <trkpt lat="-21.17178" lon="55.41116">
        <ele>2089.9</ele>
        <time>2013-06-02T05:10:07Z</time>
      </trkpt>
      <trkpt lat="-21.17182" lon="55.41125">
        <ele>2091.4</ele>
        <time>2013-06-02T05:10:18Z</time>
      </trkpt>
      <trkpt lat="-21.1718" lon="55.41134">
        <ele>2092.2</ele>
        <time>2013-06-02T05:10:27Z</time>
      </trkpt>
      <trkpt lat="-21.17176" lon="55.41142">
        <ele>2093.6</ele>
        <time>2013-06-02T05:10:31Z</time>
      </trkpt>
      <trkpt lat="-21.17164" lon="55.41145">
        <ele>2097</ele>
        <time>2013-06-02T05:10:48Z</time>
      </trkpt>
      <trkpt lat="-21.17162" lon="55.41146">
        <ele>2097.8</ele>
        <time>2013-06-02T05:10:50Z</time>
      </trkpt>
      <trkpt lat="-21.17166" lon="55.41156">
        <ele>2103.3</ele>
        <time>2013-06-02T05:11:14Z</time>
      </trkpt>
      <trkpt lat="-21.17174" lon="55.41156">
        <ele>2103.7</ele>
        <time>2013-06-02T05:11:20Z</time>
      </trkpt>
      <trkpt lat="-21.17183" lon="55.41157">
        <ele>2104.7</ele>
        <time>2013-06-02T05:11:26Z</time>
      </trkpt>
      <trkpt lat="-21.17189" lon="55.41157">
        <ele>2105</ele>
        <time>2013-06-02T05:11:29Z</time>
      </trkpt>
      <trkpt lat="-21.17196" lon="55.41155">
        <ele>2105.5</ele>
        <time>2013-06-02T05:11:32Z</time>
      </trkpt>
      <trkpt lat="-21.17199" lon="55.41164">
        <ele>2108.2</ele>
        <time>2013-06-02T05:11:48Z</time>
      </trkpt>
      <trkpt lat="-21.17194" lon="55.41169">
        <ele>2109.1</ele>
        <time>2013-06-02T05:11:51Z</time>
      </trkpt>
      <trkpt lat="-21.17193" lon="55.41171">
        <ele>2109.5</ele>
        <time>2013-06-02T05:11:52Z</time>
      </trkpt>
      <trkpt lat="-21.17187" lon="55.41185">
        <ele>2111.1</ele>
        <time>2013-06-02T05:12:01Z</time>
      </trkpt>
      <trkpt lat="-21.17188" lon="55.41194">
        <ele>2111.4</ele>
        <time>2013-06-02T05:12:09Z</time>
      </trkpt>
      <trkpt lat="-21.17189" lon="55.41204">
        <ele>2110.5</ele>
        <time>2013-06-02T05:12:17Z</time>
      </trkpt>
      <trkpt lat="-21.17185" lon="55.41212">
        <ele>2111.2</ele>
        <time>2013-06-02T05:12:27Z</time>
      </trkpt>
      <trkpt lat="-21.17185" lon="55.41221">
        <ele>2112.5</ele>
        <time>2013-06-02T05:12:44Z</time>
      </trkpt>
      <trkpt lat="-21.17179" lon="55.41228">
        <ele>2114.5</ele>
        <time>2013-06-02T05:12:52Z</time>
      </trkpt>
      <trkpt lat="-21.17175" lon="55.41235">
        <ele>2115.4</ele>
        <time>2013-06-02T05:12:59Z</time>
      </trkpt>
      <trkpt lat="-21.17175" lon="55.41237">
        <ele>2115.4</ele>
        <time>2013-06-02T05:13:00Z</time>
      </trkpt>
      <trkpt lat="-21.1718" lon="55.41252">
        <ele>2117.8</ele>
        <time>2013-06-02T05:13:21Z</time>
      </trkpt>
      <trkpt lat="-21.17179" lon="55.41262">
        <ele>2119.3</ele>
        <time>2013-06-02T05:13:29Z</time>
      </trkpt>
      <trkpt lat="-21.17177" lon="55.4127">
        <ele>2119.5</ele>
        <time>2013-06-02T05:13:35Z</time>
      </trkpt>
      <trkpt lat="-21.17175" lon="55.4128">
        <ele>2119.9</ele>
        <time>2013-06-02T05:13:43Z</time>
      </trkpt>
      <trkpt lat="-21.17173" lon="55.41288">
        <ele>2121.2</ele>
        <time>2013-06-02T05:13:49Z</time>
      </trkpt>
      <trkpt lat="-21.17169" lon="55.41296">
        <ele>2120.3</ele>
        <time>2013-06-02T05:13:56Z</time>
      </trkpt>
      <trkpt lat="-21.17165" lon="55.41304">
        <ele>2121.2</ele>
        <time>2013-06-02T05:14:02Z</time>
      </trkpt>
      <trkpt lat="-21.17164" lon="55.41305">
        <ele>2121.3</ele>
        <time>2013-06-02T05:14:03Z</time>
      </trkpt>
      <trkpt lat="-21.17156" lon="55.41318">
        <ele>2124</ele>
        <time>2013-06-02T05:14:17Z</time>
      </trkpt>
      <trkpt lat="-21.1715" lon="55.41325">
        <ele>2125.3</ele>
        <time>2013-06-02T05:14:24Z</time>
      </trkpt>
      <trkpt lat="-21.17144" lon="55.41332">
        <ele>2126.4</ele>
        <time>2013-06-02T05:14:32Z</time>
      </trkpt>
      <trkpt lat="-21.17143" lon="55.41341">
        <ele>2127.8</ele>
        <time>2013-06-02T05:14:39Z</time>
      </trkpt>
      <trkpt lat="-21.17139" lon="55.41349">
        <ele>2127.5</ele>
        <time>2013-06-02T05:14:45Z</time>
      </trkpt>
      <trkpt lat="-21.17136" lon="55.41357">
        <ele>2128</ele>
        <time>2013-06-02T05:14:52Z</time>
      </trkpt>
      <trkpt lat="-21.17137" lon="55.41366">
        <ele>2129.9</ele>
        <time>2013-06-02T05:14:58Z</time>
      </trkpt>
      <trkpt lat="-21.17136" lon="55.41375">
        <ele>2130.9</ele>
        <time>2013-06-02T05:15:05Z</time>
      </trkpt>
      <trkpt lat="-21.17135" lon="55.41377">
        <ele>2131.1</ele>
        <time>2013-06-02T05:15:06Z</time>
      </trkpt>
      <trkpt lat="-21.17135" lon="55.41393">
        <ele>2133.3</ele>
        <time>2013-06-02T05:15:21Z</time>
      </trkpt>
      <trkpt lat="-21.17136" lon="55.41403">
        <ele>2133.4</ele>
        <time>2013-06-02T05:15:26Z</time>
      </trkpt>
      <trkpt lat="-21.17137" lon="55.41412">
        <ele>2134.5</ele>
        <time>2013-06-02T05:15:33Z</time>
      </trkpt>
      <trkpt lat="-21.17137" lon="55.41421">
        <ele>2135.3</ele>
        <time>2013-06-02T05:15:40Z</time>
      </trkpt>
      <trkpt lat="-21.17139" lon="55.41429">
        <ele>2137.1</ele>
        <time>2013-06-02T05:15:46Z</time>
      </trkpt>
      <trkpt lat="-21.17141" lon="55.41438">
        <ele>2138.7</ele>
        <time>2013-06-02T05:15:58Z</time>
      </trkpt>
      <trkpt lat="-21.17133" lon="55.41441">
        <ele>2140.5</ele>
        <time>2013-06-02T05:16:06Z</time>
      </trkpt>
      <trkpt lat="-21.17125" lon="55.41444">
        <ele>2141.4</ele>
        <time>2013-06-02T05:16:12Z</time>
      </trkpt>
      <trkpt lat="-21.17124" lon="55.41444">
        <ele>2141.5</ele>
        <time>2013-06-02T05:16:13Z</time>
      </trkpt>
      <trkpt lat="-21.17115" lon="55.41457">
        <ele>2141.8</ele>
        <time>2013-06-02T05:16:27Z</time>
      </trkpt>
      <trkpt lat="-21.1712" lon="55.41465">
        <ele>2141.9</ele>
        <time>2013-06-02T05:16:37Z</time>
      </trkpt>
      <trkpt lat="-21.1712" lon="55.41474">
        <ele>2142</ele>
        <time>2013-06-02T05:16:45Z</time>
      </trkpt>
      <trkpt lat="-21.17128" lon="55.41476">
        <ele>2139.8</ele>
        <time>2013-06-02T05:16:55Z</time>
      </trkpt>
      <trkpt lat="-21.17134" lon="55.41482">
        <ele>2139.3</ele>
        <time>2013-06-02T05:17:02Z</time>
      </trkpt>
      <trkpt lat="-21.17142" lon="55.41484">
        <ele>2137.3</ele>
        <time>2013-06-02T05:17:10Z</time>
      </trkpt>
      <trkpt lat="-21.17148" lon="55.41488">
        <ele>2133.5</ele>
        <time>2013-06-02T05:17:36Z</time>
      </trkpt>
      <trkpt lat="-21.17151" lon="55.41486">
        <ele>2133.8</ele>
        <time>2013-06-02T05:17:37Z</time>
      </trkpt>
      <trkpt lat="-21.17151" lon="55.41493">
        <ele>2133.9</ele>
        <time>2013-06-02T05:18:14Z</time>
      </trkpt>
      <trkpt lat="-21.17157" lon="55.41499">
        <ele>2132.2</ele>
        <time>2013-06-02T05:18:23Z</time>
      </trkpt>
      <trkpt lat="-21.17165" lon="55.41503">
        <ele>2130.1</ele>
        <time>2013-06-02T05:18:32Z</time>
      </trkpt>
      <trkpt lat="-21.17172" lon="55.41504">
        <ele>2127.7</ele>
        <time>2013-06-02T05:18:40Z</time>
      </trkpt>
      <trkpt lat="-21.17174" lon="55.41506">
        <ele>2127.4</ele>
        <time>2013-06-02T05:18:41Z</time>
      </trkpt>
      <trkpt lat="-21.17167" lon="55.41522">
        <ele>2128.9</ele>
        <time>2013-06-02T05:18:53Z</time>
      </trkpt>
      <trkpt lat="-21.17164" lon="55.41528">
        <ele>2128.5</ele>
        <time>2013-06-02T05:18:57Z</time>
      </trkpt>
      <trkpt lat="-21.17159" lon="55.41534">
        <ele>2129.8</ele>
        <time>2013-06-02T05:19:00Z</time>
      </trkpt>
      <trkpt lat="-21.1716" lon="55.41544">
        <ele>2131</ele>
        <time>2013-06-02T05:19:05Z</time>
      </trkpt>
      <trkpt lat="-21.17167" lon="55.41548">
        <ele>2131.3</ele>
        <time>2013-06-02T05:19:09Z</time>
      </trkpt>
      <trkpt lat="-21.17173" lon="55.41553">
        <ele>2131.1</ele>
        <time>2013-06-02T05:19:13Z</time>
      </trkpt>
      <trkpt lat="-21.17179" lon="55.41557">
        <ele>2130.7</ele>
        <time>2013-06-02T05:19:16Z</time>
      </trkpt>
      <trkpt lat="-21.17187" lon="55.41561">
        <ele>2129.8</ele>
        <time>2013-06-02T05:19:20Z</time>
      </trkpt>
      <trkpt lat="-21.17194" lon="55.41566">
        <ele>2129.7</ele>
        <time>2013-06-02T05:19:24Z</time>
      </trkpt>
      <trkpt lat="-21.17193" lon="55.41576">
        <ele>2128.4</ele>
        <time>2013-06-02T05:19:30Z</time>
      </trkpt>
      <trkpt lat="-21.17188" lon="55.41583">
        <ele>2128.9</ele>
        <time>2013-06-02T05:19:34Z</time>
      </trkpt>
      <trkpt lat="-21.17184" lon="55.41591">
        <ele>2129.5</ele>
        <time>2013-06-02T05:19:41Z</time>
      </trkpt>
      <trkpt lat="-21.17177" lon="55.41597">
        <ele>2130.9</ele>
        <time>2013-06-02T05:19:49Z</time>
      </trkpt>
      <trkpt lat="-21.17176" lon="55.41597">
        <ele>2131.4</ele>
        <time>2013-06-02T05:19:50Z</time>
      </trkpt>
      <trkpt lat="-21.17164" lon="55.4161">
        <ele>2134.1</ele>
        <time>2013-06-02T05:20:03Z</time>
      </trkpt>
      <trkpt lat="-21.17157" lon="55.41615">
        <ele>2135</ele>
        <time>2013-06-02T05:20:11Z</time>
      </trkpt>
      <trkpt lat="-21.17148" lon="55.41616">
        <ele>2135.7</ele>
        <time>2013-06-02T05:20:19Z</time>
      </trkpt>
      <trkpt lat="-21.1714" lon="55.41621">
        <ele>2134.5</ele>
        <time>2013-06-02T05:20:25Z</time>
      </trkpt>
      <trkpt lat="-21.17135" lon="55.41628">
        <ele>2134.9</ele>
        <time>2013-06-02T05:20:31Z</time>
      </trkpt>
      <trkpt lat="-21.17129" lon="55.41634">
        <ele>2137.8</ele>
        <time>2013-06-02T05:20:45Z</time>
      </trkpt>
      <trkpt lat="-21.17121" lon="55.41637">
        <ele>2139.5</ele>
        <time>2013-06-02T05:20:55Z</time>
      </trkpt>
      <trkpt lat="-21.1712" lon="55.41638">
        <ele>2139.8</ele>
        <time>2013-06-02T05:20:56Z</time>
      </trkpt>
      <trkpt lat="-21.17123" lon="55.41655">
        <ele>2140.2</ele>
        <time>2013-06-02T05:21:11Z</time>
      </trkpt>
      <trkpt lat="-21.17131" lon="55.41657">
        <ele>2138</ele>
        <time>2013-06-02T05:21:20Z</time>
      </trkpt>
      <trkpt lat="-21.17137" lon="55.41663">
        <ele>2136.5</ele>
        <time>2013-06-02T05:21:26Z</time>
      </trkpt>
      <trkpt lat="-21.17144" lon="55.41668">
        <ele>2135.9</ele>
        <time>2013-06-02T05:21:32Z</time>
      </trkpt>
      <trkpt lat="-21.1715" lon="55.41674">
        <ele>2134.3</ele>
        <time>2013-06-02T05:21:43Z</time>
      </trkpt>
      <trkpt lat="-21.17157" lon="55.41678">
        <ele>2133.9</ele>
        <time>2013-06-02T05:21:48Z</time>
      </trkpt>
      <trkpt lat="-21.17162" lon="55.41685">
        <ele>2133.3</ele>
        <time>2013-06-02T05:21:53Z</time>
      </trkpt>
      <trkpt lat="-21.17165" lon="55.41693">
        <ele>2133.9</ele>
        <time>2013-06-02T05:21:58Z</time>
      </trkpt>
      <trkpt lat="-21.17167" lon="55.41694">
        <ele>2133.9</ele>
        <time>2013-06-02T05:21:59Z</time>
      </trkpt>
      <trkpt lat="-21.17176" lon="55.41707">
        <ele>2134.4</ele>
        <time>2013-06-02T05:22:11Z</time>
      </trkpt>
      <trkpt lat="-21.17178" lon="55.41715">
        <ele>2136</ele>
        <time>2013-06-02T05:22:18Z</time>
      </trkpt>
      <trkpt lat="-21.17178" lon="55.41724">
        <ele>2135.5</ele>
        <time>2013-06-02T05:22:26Z</time>
      </trkpt>
      <trkpt lat="-21.17171" lon="55.4173">
        <ele>2137.4</ele>
        <time>2013-06-02T05:22:37Z</time>
      </trkpt>
      <trkpt lat="-21.17167" lon="55.41737">
        <ele>2140.4</ele>
        <time>2013-06-02T05:22:48Z</time>
      </trkpt>
      <trkpt lat="-21.1716" lon="55.41742">
        <ele>2141.5</ele>
        <time>2013-06-02T05:22:56Z</time>
      </trkpt>
      <trkpt lat="-21.17156" lon="55.4175">
        <ele>2142</ele>
        <time>2013-06-02T05:23:03Z</time>
      </trkpt>
      <trkpt lat="-21.17157" lon="55.41751">
        <ele>2141.8</ele>
        <time>2013-06-02T05:23:04Z</time>
      </trkpt>
      <trkpt lat="-21.17153" lon="55.41767">
        <ele>2143.2</ele>
        <time>2013-06-02T05:23:16Z</time>
      </trkpt>
      <trkpt lat="-21.17151" lon="55.41775">
        <ele>2144.2</ele>
        <time>2013-06-02T05:23:22Z</time>
      </trkpt>
      <trkpt lat="-21.17149" lon="55.41783">
        <ele>2145.4</ele>
        <time>2013-06-02T05:23:28Z</time>
      </trkpt>
      <trkpt lat="-21.17148" lon="55.41792">
        <ele>2144.2</ele>
        <time>2013-06-02T05:23:36Z</time>
      </trkpt>
      <trkpt lat="-21.17149" lon="55.41801">
        <ele>2143.2</ele>
        <time>2013-06-02T05:23:43Z</time>
      </trkpt>
      <trkpt lat="-21.17146" lon="55.4181">
        <ele>2143.6</ele>
        <time>2013-06-02T05:23:52Z</time>
      </trkpt>
      <trkpt lat="-21.17148" lon="55.41818">
        <ele>2145.7</ele>
        <time>2013-06-02T05:23:59Z</time>
      </trkpt>
      <trkpt lat="-21.1714" lon="55.41821">
        <ele>2145.7</ele>
        <time>2013-06-02T05:24:08Z</time>
      </trkpt>
      <trkpt lat="-21.17139" lon="55.41822">
        <ele>2145.7</ele>
        <time>2013-06-02T05:24:09Z</time>
      </trkpt>
      <trkpt lat="-21.17133" lon="55.41837">
        <ele>2145.2</ele>
        <time>2013-06-02T05:24:25Z</time>
      </trkpt>
      <trkpt lat="-21.17137" lon="55.41844">
        <ele>2145.6</ele>
        <time>2013-06-02T05:24:32Z</time>
      </trkpt>
      <trkpt lat="-21.17141" lon="55.41852">
        <ele>2145.3</ele>
        <time>2013-06-02T05:24:39Z</time>
      </trkpt>
      <trkpt lat="-21.17146" lon="55.4186">
        <ele>2143.8</ele>
        <time>2013-06-02T05:24:47Z</time>
      </trkpt>
      <trkpt lat="-21.1715" lon="55.41867">
        <ele>2143.2</ele>
        <time>2013-06-02T05:24:52Z</time>
      </trkpt>
      <trkpt lat="-21.17156" lon="55.41873">
        <ele>2142.5</ele>
        <time>2013-06-02T05:24:57Z</time>
      </trkpt>
      <trkpt lat="-21.17162" lon="55.41877">
        <ele>2141.4</ele>
        <time>2013-06-02T05:25:03Z</time>
      </trkpt>
      <trkpt lat="-21.17168" lon="55.41883">
        <ele>2141.1</ele>
        <time>2013-06-02T05:25:09Z</time>
      </trkpt>
      <trkpt lat="-21.17163" lon="55.41891">
        <ele>2140.7</ele>
        <time>2013-06-02T05:25:19Z</time>
      </trkpt>
      <trkpt lat="-21.17161" lon="55.41892">
        <ele>2140.7</ele>
        <time>2013-06-02T05:25:20Z</time>
      </trkpt>
      <trkpt lat="-21.17153" lon="55.41904">
        <ele>2139.9</ele>
        <time>2013-06-02T05:25:31Z</time>
      </trkpt>
      <trkpt lat="-21.17152" lon="55.41914">
        <ele>2139.9</ele>
        <time>2013-06-02T05:25:38Z</time>
      </trkpt>
      <trkpt lat="-21.17148" lon="55.41922">
        <ele>2140.6</ele>
        <time>2013-06-02T05:25:45Z</time>
      </trkpt>
      <trkpt lat="-21.17146" lon="55.41931">
        <ele>2140.3</ele>
        <time>2013-06-02T05:25:53Z</time>
      </trkpt>
      <trkpt lat="-21.17139" lon="55.41937">
        <ele>2142.8</ele>
        <time>2013-06-02T05:26:04Z</time>
      </trkpt>
      <trkpt lat="-21.17135" lon="55.41945">
        <ele>2146.1</ele>
        <time>2013-06-02T05:26:16Z</time>
      </trkpt>
      <trkpt lat="-21.17131" lon="55.41954">
        <ele>2147.3</ele>
        <time>2013-06-02T05:26:25Z</time>
      </trkpt>
      <trkpt lat="-21.17131" lon="55.41955">
        <ele>2147.4</ele>
        <time>2013-06-02T05:26:26Z</time>
      </trkpt>
      <trkpt lat="-21.17127" lon="55.41971">
        <ele>2147.6</ele>
        <time>2013-06-02T05:26:43Z</time>
      </trkpt>
      <trkpt lat="-21.17132" lon="55.41978">
        <ele>2146.7</ele>
        <time>2013-06-02T05:26:50Z</time>
      </trkpt>
      <trkpt lat="-21.17132" lon="55.41986">
        <ele>2146.7</ele>
        <time>2013-06-02T05:26:56Z</time>
      </trkpt>
      <trkpt lat="-21.17133" lon="55.41994">
        <ele>2146.7</ele>
        <time>2013-06-02T05:27:02Z</time>
      </trkpt>
      <trkpt lat="-21.17137" lon="55.42003">
        <ele>2146.2</ele>
        <time>2013-06-02T05:27:07Z</time>
      </trkpt>
      <trkpt lat="-21.17141" lon="55.42011">
        <ele>2144.7</ele>
        <time>2013-06-02T05:27:14Z</time>
      </trkpt>
      <trkpt lat="-21.17147" lon="55.42017">
        <ele>2142.1</ele>
        <time>2013-06-02T05:27:21Z</time>
      </trkpt>
      <trkpt lat="-21.17149" lon="55.42025">
        <ele>2140.4</ele>
        <time>2013-06-02T05:27:26Z</time>
      </trkpt>
      <trkpt lat="-21.1715" lon="55.42034">
        <ele>2139.8</ele>
        <time>2013-06-02T05:27:31Z</time>
      </trkpt>
      <trkpt lat="-21.1715" lon="55.42036">
        <ele>2139.8</ele>
        <time>2013-06-02T05:27:32Z</time>
      </trkpt>
      <trkpt lat="-21.17163" lon="55.42043">
        <ele>2133.9</ele>
        <time>2013-06-02T05:27:49Z</time>
      </trkpt>
      <trkpt lat="-21.17171" lon="55.42044">
        <ele>2130.4</ele>
        <time>2013-06-02T05:28:02Z</time>
      </trkpt>
      <trkpt lat="-21.17179" lon="55.42041">
        <ele>2126.9</ele>
        <time>2013-06-02T05:28:14Z</time>
      </trkpt>
      <trkpt lat="-21.17185" lon="55.42034">
        <ele>2124.7</ele>
        <time>2013-06-02T05:28:21Z</time>
      </trkpt>
      <trkpt lat="-21.17188" lon="55.42026">
        <ele>2121.9</ele>
        <time>2013-06-02T05:28:26Z</time>
      </trkpt>
      <trkpt lat="-21.17191" lon="55.42017">
        <ele>2119.7</ele>
        <time>2013-06-02T05:28:35Z</time>
      </trkpt>
      <trkpt lat="-21.17191" lon="55.42016">
        <ele>2119.5</ele>
        <time>2013-06-02T05:28:36Z</time>
      </trkpt>
      <trkpt lat="-21.17199" lon="55.42007">
        <ele>2113.7</ele>
        <time>2013-06-02T05:28:57Z</time>
      </trkpt>
      <trkpt lat="-21.17207" lon="55.42008">
        <ele>2111.2</ele>
        <time>2013-06-02T05:29:07Z</time>
      </trkpt>
      <trkpt lat="-21.1721" lon="55.42017">
        <ele>2109.7</ele>
        <time>2013-06-02T05:29:13Z</time>
      </trkpt>
      <trkpt lat="-21.17213" lon="55.42026">
        <ele>2107.4</ele>
        <time>2013-06-02T05:29:20Z</time>
      </trkpt>
      <trkpt lat="-21.17219" lon="55.42032">
        <ele>2106.1</ele>
        <time>2013-06-02T05:29:27Z</time>
      </trkpt>
      <trkpt lat="-21.17225" lon="55.42026">
        <ele>2103.3</ele>
        <time>2013-06-02T05:29:39Z</time>
      </trkpt>
      <trkpt lat="-21.17225" lon="55.42024">
        <ele>2103.2</ele>
        <time>2013-06-02T05:29:40Z</time>
      </trkpt>
      <trkpt lat="-21.17239" lon="55.42018">
        <ele>2092.6</ele>
        <time>2013-06-02T05:30:09Z</time>
      </trkpt>
      <trkpt lat="-21.17247" lon="55.42017">
        <ele>2088.8</ele>
        <time>2013-06-02T05:30:20Z</time>
      </trkpt>
      <trkpt lat="-21.17253" lon="55.4201">
        <ele>2086.1</ele>
        <time>2013-06-02T05:30:28Z</time>
      </trkpt>
      <trkpt lat="-21.1726" lon="55.42015">
        <ele>2082.5</ele>
        <time>2013-06-02T05:30:40Z</time>
      </trkpt>
      <trkpt lat="-21.17268" lon="55.42011">
        <ele>2080.3</ele>
        <time>2013-06-02T05:30:51Z</time>
      </trkpt>
      <trkpt lat="-21.17269" lon="55.42011">
        <ele>2079.8</ele>
        <time>2013-06-02T05:30:52Z</time>
      </trkpt>
      <trkpt lat="-21.1728" lon="55.42023">
        <ele>2073.6</ele>
        <time>2013-06-02T05:31:15Z</time>
      </trkpt>
      <trkpt lat="-21.17287" lon="55.42027">
        <ele>2072.1</ele>
        <time>2013-06-02T05:31:22Z</time>
      </trkpt>
      <trkpt lat="-21.1729" lon="55.42019">
        <ele>2068.8</ele>
        <time>2013-06-02T05:31:33Z</time>
      </trkpt>
      <trkpt lat="-21.17297" lon="55.42023">
        <ele>2066.1</ele>
        <time>2013-06-02T05:31:50Z</time>
      </trkpt>
      <trkpt lat="-21.173" lon="55.42031">
        <ele>2065.6</ele>
        <time>2013-06-02T05:31:56Z</time>
      </trkpt>
      <trkpt lat="-21.173" lon="55.42032">
        <ele>2066</ele>
        <time>2013-06-02T05:31:57Z</time>
      </trkpt>
      <trkpt lat="-21.17309" lon="55.42046">
        <ele>2064.1</ele>
        <time>2013-06-02T05:32:08Z</time>
      </trkpt>
      <trkpt lat="-21.17313" lon="55.42052">
        <ele>2064.3</ele>
        <time>2013-06-02T05:32:13Z</time>
      </trkpt>
      <trkpt lat="-21.17319" lon="55.42057">
        <ele>2062.6</ele>
        <time>2013-06-02T05:32:17Z</time>
      </trkpt>
      <trkpt lat="-21.17323" lon="55.42064">
        <ele>2063</ele>
        <time>2013-06-02T05:32:22Z</time>
      </trkpt>
      <trkpt lat="-21.17325" lon="55.42073">
        <ele>2063.1</ele>
        <time>2013-06-02T05:32:27Z</time>
      </trkpt>
      <trkpt lat="-21.1732" lon="55.42081">
        <ele>2062.8</ele>
        <time>2013-06-02T05:32:33Z</time>
      </trkpt>
      <trkpt lat="-21.17314" lon="55.42086">
        <ele>2061.5</ele>
        <time>2013-06-02T05:32:42Z</time>
      </trkpt>
      <trkpt lat="-21.17307" lon="55.42093">
        <ele>2060.3</ele>
        <time>2013-06-02T05:32:51Z</time>
      </trkpt>
      <trkpt lat="-21.17304" lon="55.42101">
        <ele>2059.8</ele>
        <time>2013-06-02T05:32:56Z</time>
      </trkpt>
      <trkpt lat="-21.173" lon="55.42109">
        <ele>2059.8</ele>
        <time>2013-06-02T05:33:01Z</time>
      </trkpt>
      <trkpt lat="-21.17299" lon="55.42111">
        <ele>2059.7</ele>
        <time>2013-06-02T05:33:02Z</time>
      </trkpt>
      <trkpt lat="-21.17295" lon="55.42125">
        <ele>2059.9</ele>
        <time>2013-06-02T05:33:12Z</time>
      </trkpt>
      <trkpt lat="-21.17293" lon="55.42134">
        <ele>2061.5</ele>
        <time>2013-06-02T05:33:18Z</time>
      </trkpt>
      <trkpt lat="-21.17292" lon="55.42143">
        <ele>2062</ele>
        <time>2013-06-02T05:33:26Z</time>
      </trkpt>
      <trkpt lat="-21.17287" lon="55.4215">
        <ele>2062.6</ele>
        <time>2013-06-02T05:33:33Z</time>
      </trkpt>
      <trkpt lat="-21.17284" lon="55.42159">
        <ele>2062.4</ele>
        <time>2013-06-02T05:33:42Z</time>
      </trkpt>
      <trkpt lat="-21.17279" lon="55.42168">
        <ele>2063</ele>
        <time>2013-06-02T05:33:49Z</time>
      </trkpt>
      <trkpt lat="-21.17271" lon="55.42168">
        <ele>2063.7</ele>
        <time>2013-06-02T05:33:59Z</time>
      </trkpt>
      <trkpt lat="-21.17269" lon="55.42175">
        <ele>2063.6</ele>
        <time>2013-06-02T05:34:06Z</time>
      </trkpt>
      <trkpt lat="-21.17269" lon="55.42177">
        <ele>2063.7</ele>
        <time>2013-06-02T05:34:07Z</time>
      </trkpt>
      <trkpt lat="-21.17271" lon="55.42192">
        <ele>2063.6</ele>
        <time>2013-06-02T05:34:16Z</time>
      </trkpt>
      <trkpt lat="-21.17276" lon="55.42199">
        <ele>2062.2</ele>
        <time>2013-06-02T05:34:24Z</time>
      </trkpt>
      <trkpt lat="-21.17276" lon="55.42209">
        <ele>2063.8</ele>
        <time>2013-06-02T05:34:34Z</time>
      </trkpt>
      <trkpt lat="-21.17274" lon="55.42218">
        <ele>2064.4</ele>
        <time>2013-06-02T05:34:47Z</time>
      </trkpt>
      <trkpt lat="-21.17266" lon="55.42223">
        <ele>2063.5</ele>
        <time>2013-06-02T05:34:55Z</time>
      </trkpt>
      <trkpt lat="-21.17263" lon="55.42231">
        <ele>2060.7</ele>
        <time>2013-06-02T05:35:14Z</time>
      </trkpt>
      <trkpt lat="-21.17264" lon="55.42232">
        <ele>2060.6</ele>
        <time>2013-06-02T05:35:15Z</time>
      </trkpt>
      <trkpt lat="-21.17269" lon="55.42248">
        <ele>2057.2</ele>
        <time>2013-06-02T05:35:40Z</time>
      </trkpt>
      <trkpt lat="-21.17276" lon="55.42255">
        <ele>2058.1</ele>
        <time>2013-06-02T05:35:50Z</time>
      </trkpt>
      <trkpt lat="-21.17281" lon="55.42262">
        <ele>2058.5</ele>
        <time>2013-06-02T05:35:58Z</time>
      </trkpt>
      <trkpt lat="-21.17288" lon="55.42264">
        <ele>2057.5</ele>
        <time>2013-06-02T05:36:06Z</time>
      </trkpt>
      <trkpt lat="-21.17294" lon="55.42268">
        <ele>2055.8</ele>
        <time>2013-06-02T05:36:11Z</time>
      </trkpt>
      <trkpt lat="-21.17297" lon="55.42277">
        <ele>2054.7</ele>
        <time>2013-06-02T05:36:17Z</time>
      </trkpt>
      <trkpt lat="-21.17297" lon="55.42279">
        <ele>2054.6</ele>
        <time>2013-06-02T05:36:18Z</time>
      </trkpt>
      <trkpt lat="-21.17294" lon="55.42293">
        <ele>2051.3</ele>
        <time>2013-06-02T05:36:30Z</time>
      </trkpt>
      <trkpt lat="-21.17288" lon="55.423">
        <ele>2051.5</ele>
        <time>2013-06-02T05:36:37Z</time>
      </trkpt>
      <trkpt lat="-21.17294" lon="55.42306">
        <ele>2049.2</ele>
        <time>2013-06-02T05:36:43Z</time>
      </trkpt>
      <trkpt lat="-21.17299" lon="55.42314">
        <ele>2046.6</ele>
        <time>2013-06-02T05:36:52Z</time>
      </trkpt>
      <trkpt lat="-21.17306" lon="55.42319">
        <ele>2044</ele>
        <time>2013-06-02T05:36:59Z</time>
      </trkpt>
      <trkpt lat="-21.17308" lon="55.42327">
        <ele>2042.7</ele>
        <time>2013-06-02T05:37:05Z</time>
      </trkpt>
      <trkpt lat="-21.17317" lon="55.42328">
        <ele>2038.7</ele>
        <time>2013-06-02T05:37:14Z</time>
      </trkpt>
      <trkpt lat="-21.17326" lon="55.42329">
        <ele>2033.8</ele>
        <time>2013-06-02T05:37:28Z</time>
      </trkpt>
      <trkpt lat="-21.17326" lon="55.4233">
        <ele>2033.6</ele>
        <time>2013-06-02T05:37:29Z</time>
      </trkpt>
      <trkpt lat="-21.17331" lon="55.4234">
        <ele>2028.7</ele>
        <time>2013-06-02T05:37:44Z</time>
      </trkpt>
      <trkpt lat="-21.17338" lon="55.42343">
        <ele>2027.6</ele>
        <time>2013-06-02T05:37:52Z</time>
      </trkpt>
      <trkpt lat="-21.17346" lon="55.42346">
        <ele>2028.2</ele>
        <time>2013-06-02T05:37:58Z</time>
      </trkpt>
      <trkpt lat="-21.17354" lon="55.42348">
        <ele>2026.1</ele>
        <time>2013-06-02T05:38:04Z</time>
      </trkpt>
      <trkpt lat="-21.17361" lon="55.42344">
        <ele>2022</ele>
        <time>2013-06-02T05:38:13Z</time>
      </trkpt>
      <trkpt lat="-21.1737" lon="55.42344">
        <ele>2018.5</ele>
        <time>2013-06-02T05:38:21Z</time>
      </trkpt>
      <trkpt lat="-21.17375" lon="55.4235">
        <ele>2017</ele>
        <time>2013-06-02T05:38:26Z</time>
      </trkpt>
      <trkpt lat="-21.17382" lon="55.42356">
        <ele>2015.1</ele>
        <time>2013-06-02T05:38:31Z</time>
      </trkpt>
      <trkpt lat="-21.17383" lon="55.42357">
        <ele>2015</ele>
        <time>2013-06-02T05:38:32Z</time>
      </trkpt>
      <trkpt lat="-21.17389" lon="55.42372">
        <ele>2013.4</ele>
        <time>2013-06-02T05:38:41Z</time>
      </trkpt>
      <trkpt lat="-21.17393" lon="55.4238">
        <ele>2013.1</ele>
        <time>2013-06-02T05:38:46Z</time>
      </trkpt>
      <trkpt lat="-21.17399" lon="55.42376">
        <ele>2010.5</ele>
        <time>2013-06-02T05:38:55Z</time>
      </trkpt>
      <trkpt lat="-21.17405" lon="55.42369">
        <ele>2009.9</ele>
        <time>2013-06-02T05:39:00Z</time>
      </trkpt>
      <trkpt lat="-21.17407" lon="55.42361">
        <ele>2008.1</ele>
        <time>2013-06-02T05:39:06Z</time>
      </trkpt>
      <trkpt lat="-21.17411" lon="55.42354">
        <ele>2006.7</ele>
        <time>2013-06-02T05:39:11Z</time>
      </trkpt>
      <trkpt lat="-21.17412" lon="55.42346">
        <ele>2005.7</ele>
        <time>2013-06-02T05:39:16Z</time>
      </trkpt>
      <trkpt lat="-21.17416" lon="55.42338">
        <ele>2004.8</ele>
        <time>2013-06-02T05:39:21Z</time>
      </trkpt>
      <trkpt lat="-21.17424" lon="55.42336">
        <ele>2001.7</ele>
        <time>2013-06-02T05:39:26Z</time>
      </trkpt>
      <trkpt lat="-21.17432" lon="55.42334">
        <ele>1999</ele>
        <time>2013-06-02T05:39:34Z</time>
      </trkpt>
      <trkpt lat="-21.17433" lon="55.42334">
        <ele>1998.6</ele>
        <time>2013-06-02T05:39:35Z</time>
      </trkpt>
      <trkpt lat="-21.17443" lon="55.42346">
        <ele>1993.3</ele>
        <time>2013-06-02T05:39:49Z</time>
      </trkpt>
      <trkpt lat="-21.17446" lon="55.42354">
        <ele>1992.3</ele>
        <time>2013-06-02T05:39:53Z</time>
      </trkpt>
      <trkpt lat="-21.1745" lon="55.4236">
        <ele>1992.2</ele>
        <time>2013-06-02T05:39:57Z</time>
      </trkpt>
      <trkpt lat="-21.17455" lon="55.42368">
        <ele>1990.6</ele>
        <time>2013-06-02T05:40:03Z</time>
      </trkpt>
      <trkpt lat="-21.17454" lon="55.42378">
        <ele>1991</ele>
        <time>2013-06-02T05:40:11Z</time>
      </trkpt>
      <trkpt lat="-21.17451" lon="55.42386">
        <ele>1991.1</ele>
        <time>2013-06-02T05:40:17Z</time>
      </trkpt>
      <trkpt lat="-21.17456" lon="55.42393">
        <ele>1994.6</ele>
        <time>2013-06-02T05:40:32Z</time>
      </trkpt>
      <trkpt lat="-21.17461" lon="55.424">
        <ele>1996.7</ele>
        <time>2013-06-02T05:40:39Z</time>
      </trkpt>
      <trkpt lat="-21.17462" lon="55.42401">
        <ele>1996.9</ele>
        <time>2013-06-02T05:40:40Z</time>
      </trkpt>
      <trkpt lat="-21.17474" lon="55.42413">
        <ele>1994.5</ele>
        <time>2013-06-02T05:40:53Z</time>
      </trkpt>
      <trkpt lat="-21.17482" lon="55.42414">
        <ele>1992</ele>
        <time>2013-06-02T05:41:01Z</time>
      </trkpt>
      <trkpt lat="-21.17487" lon="55.42421">
        <ele>1990.3</ele>
        <time>2013-06-02T05:41:08Z</time>
      </trkpt>
      <trkpt lat="-21.17495" lon="55.42416">
        <ele>1987.9</ele>
        <time>2013-06-02T05:41:14Z</time>
      </trkpt>
      <trkpt lat="-21.17502" lon="55.42421">
        <ele>1986.1</ele>
        <time>2013-06-02T05:41:21Z</time>
      </trkpt>
      <trkpt lat="-21.1751" lon="55.42421">
        <ele>1982.9</ele>
        <time>2013-06-02T05:41:32Z</time>
      </trkpt>
      <trkpt lat="-21.17518" lon="55.42423">
        <ele>1979.3</ele>
        <time>2013-06-02T05:41:44Z</time>
      </trkpt>
      <trkpt lat="-21.1752" lon="55.42422">
        <ele>1978.9</ele>
        <time>2013-06-02T05:41:45Z</time>
      </trkpt>
      <trkpt lat="-21.17533" lon="55.42426">
        <ele>1972.8</ele>
        <time>2013-06-02T05:42:01Z</time>
      </trkpt>
      <trkpt lat="-21.17535" lon="55.42435">
        <ele>1969.9</ele>
        <time>2013-06-02T05:42:09Z</time>
      </trkpt>
      <trkpt lat="-21.17532" lon="55.42444">
        <ele>1968.9</ele>
        <time>2013-06-02T05:42:16Z</time>
      </trkpt>
      <trkpt lat="-21.1754" lon="55.42441">
        <ele>1965.4</ele>
        <time>2013-06-02T05:42:25Z</time>
      </trkpt>
      <trkpt lat="-21.17549" lon="55.42442">
        <ele>1961.9</ele>
        <time>2013-06-02T05:42:37Z</time>
      </trkpt>
      <trkpt lat="-21.17548" lon="55.42451">
        <ele>1959.1</ele>
        <time>2013-06-02T05:42:44Z</time>
      </trkpt>
      <trkpt lat="-21.17554" lon="55.42456">
        <ele>1957.9</ele>
        <time>2013-06-02T05:42:49Z</time>
      </trkpt>
      <trkpt lat="-21.17555" lon="55.42458">
        <ele>1957.8</ele>
        <time>2013-06-02T05:42:50Z</time>
      </trkpt>
      <trkpt lat="-21.17558" lon="55.42473">
        <ele>1955.7</ele>
        <time>2013-06-02T05:43:00Z</time>
      </trkpt>
      <trkpt lat="-21.17563" lon="55.4248">
        <ele>1953.8</ele>
        <time>2013-06-02T05:43:05Z</time>
      </trkpt>
      <trkpt lat="-21.17572" lon="55.4248">
        <ele>1948.8</ele>
        <time>2013-06-02T05:43:18Z</time>
      </trkpt>
      <trkpt lat="-21.1758" lon="55.42484">
        <ele>1948</ele>
        <time>2013-06-02T05:43:24Z</time>
      </trkpt>
      <trkpt lat="-21.17586" lon="55.42487">
        <ele>1945.7</ele>
        <time>2013-06-02T05:43:28Z</time>
      </trkpt>
      <trkpt lat="-21.17593" lon="55.42492">
        <ele>1944.1</ele>
        <time>2013-06-02T05:43:32Z</time>
      </trkpt>
      <trkpt lat="-21.17596" lon="55.425">
        <ele>1942.7</ele>
        <time>2013-06-02T05:43:37Z</time>
      </trkpt>
      <trkpt lat="-21.176" lon="55.42507">
        <ele>1941.8</ele>
        <time>2013-06-02T05:43:41Z</time>
      </trkpt>
      <trkpt lat="-21.17603" lon="55.42515">
        <ele>1940.9</ele>
        <time>2013-06-02T05:43:45Z</time>
      </trkpt>
      <trkpt lat="-21.17608" lon="55.42521">
        <ele>1940.9</ele>
        <time>2013-06-02T05:43:49Z</time>
      </trkpt>
      <trkpt lat="-21.17614" lon="55.42526">
        <ele>1940.7</ele>
        <time>2013-06-02T05:43:53Z</time>
      </trkpt>
      <trkpt lat="-21.17615" lon="55.42527">
        <ele>1940.8</ele>
        <time>2013-06-02T05:43:54Z</time>
      </trkpt>
      <trkpt lat="-21.17626" lon="55.42544">
        <ele>1946</ele>
        <time>2013-06-02T05:44:21Z</time>
      </trkpt>
      <trkpt lat="-21.1763" lon="55.42554">
        <ele>1947.6</ele>
        <time>2013-06-02T05:44:29Z</time>
      </trkpt>
      <trkpt lat="-21.17637" lon="55.42558">
        <ele>1949.3</ele>
        <time>2013-06-02T05:44:35Z</time>
      </trkpt>
      <trkpt lat="-21.17646" lon="55.4256">
        <ele>1949.2</ele>
        <time>2013-06-02T05:44:41Z</time>
      </trkpt>
      <trkpt lat="-21.17654" lon="55.42561">
        <ele>1950.4</ele>
        <time>2013-06-02T05:44:49Z</time>
      </trkpt>
      <trkpt lat="-21.17649" lon="55.42565">
        <ele>1952.5</ele>
        <time>2013-06-02T05:44:55Z</time>
      </trkpt>
      <trkpt lat="-21.17647" lon="55.42566">
        <ele>1953</ele>
        <time>2013-06-02T05:44:56Z</time>
      </trkpt>
      <trkpt lat="-21.17655" lon="55.42575">
        <ele>1957.4</ele>
        <time>2013-06-02T05:45:22Z</time>
      </trkpt>
      <trkpt lat="-21.17662" lon="55.4258">
        <ele>1958.9</ele>
        <time>2013-06-02T05:45:36Z</time>
      </trkpt>
      <trkpt lat="-21.17668" lon="55.42586">
        <ele>1963.5</ele>
        <time>2013-06-02T05:45:54Z</time>
      </trkpt>
      <trkpt lat="-21.17667" lon="55.42596">
        <ele>1965.2</ele>
        <time>2013-06-02T05:46:02Z</time>
      </trkpt>
      <trkpt lat="-21.17668" lon="55.42597">
        <ele>1965.3</ele>
        <time>2013-06-02T05:46:03Z</time>
      </trkpt>
      <trkpt lat="-21.17681" lon="55.42603">
        <ele>1961.7</ele>
        <time>2013-06-02T05:46:16Z</time>
      </trkpt>
      <trkpt lat="-21.17688" lon="55.42602">
        <ele>1960.5</ele>
        <time>2013-06-02T05:46:21Z</time>
      </trkpt>
      <trkpt lat="-21.17696" lon="55.42606">
        <ele>1953.9</ele>
        <time>2013-06-02T05:46:47Z</time>
      </trkpt>
      <trkpt lat="-21.1769" lon="55.42613">
        <ele>1948.9</ele>
        <time>2013-06-02T05:47:03Z</time>
      </trkpt>
      <trkpt lat="-21.17698" lon="55.42611">
        <ele>1941.2</ele>
        <time>2013-06-02T05:47:24Z</time>
      </trkpt>
      <trkpt lat="-21.17699" lon="55.42611">
        <ele>1940.8</ele>
        <time>2013-06-02T05:47:25Z</time>
      </trkpt>
      <trkpt lat="-21.17691" lon="55.42627">
        <ele>1934.3</ele>
        <time>2013-06-02T05:47:41Z</time>
      </trkpt>
      <trkpt lat="-21.17696" lon="55.42634">
        <ele>1932.5</ele>
        <time>2013-06-02T05:47:46Z</time>
      </trkpt>
      <trkpt lat="-21.17696" lon="55.42643">
        <ele>1926.5</ele>
        <time>2013-06-02T05:47:59Z</time>
      </trkpt>
      <trkpt lat="-21.17705" lon="55.42641">
        <ele>1921.9</ele>
        <time>2013-06-02T05:48:14Z</time>
      </trkpt>
      <trkpt lat="-21.17708" lon="55.42633">
        <ele>1920.6</ele>
        <time>2013-06-02T05:48:19Z</time>
      </trkpt>
      <trkpt lat="-21.17709" lon="55.42625">
        <ele>1919.8</ele>
        <time>2013-06-02T05:48:23Z</time>
      </trkpt>
      <trkpt lat="-21.17713" lon="55.42632">
        <ele>1915.5</ele>
        <time>2013-06-02T05:48:34Z</time>
      </trkpt>
      <trkpt lat="-21.17714" lon="55.42634">
        <ele>1915</ele>
        <time>2013-06-02T05:48:35Z</time>
      </trkpt>
      <trkpt lat="-21.17718" lon="55.4265">
        <ele>1911.2</ele>
        <time>2013-06-02T05:48:46Z</time>
      </trkpt>
      <trkpt lat="-21.1772" lon="55.42658">
        <ele>1909.5</ele>
        <time>2013-06-02T05:48:53Z</time>
      </trkpt>
      <trkpt lat="-21.17726" lon="55.42664">
        <ele>1907.8</ele>
        <time>2013-06-02T05:48:59Z</time>
      </trkpt>
      <trkpt lat="-21.17728" lon="55.42655">
        <ele>1902.1</ele>
        <time>2013-06-02T05:49:16Z</time>
      </trkpt>
      <trkpt lat="-21.17737" lon="55.42655">
        <ele>1898.6</ele>
        <time>2013-06-02T05:49:27Z</time>
      </trkpt>
      <trkpt lat="-21.17739" lon="55.42648">
        <ele>1895.2</ele>
        <time>2013-06-02T05:49:36Z</time>
      </trkpt>
      <trkpt lat="-21.1774" lon="55.42646">
        <ele>1894.7</ele>
        <time>2013-06-02T05:49:37Z</time>
      </trkpt>
      <trkpt lat="-21.17754" lon="55.42639">
        <ele>1887.6</ele>
        <time>2013-06-02T05:50:05Z</time>
      </trkpt>
      <trkpt lat="-21.17761" lon="55.42643">
        <ele>1884.7</ele>
        <time>2013-06-02T05:50:12Z</time>
      </trkpt>
      <trkpt lat="-21.17769" lon="55.42643">
        <ele>1884.3</ele>
        <time>2013-06-02T05:50:17Z</time>
      </trkpt>
      <trkpt lat="-21.17777" lon="55.42644">
        <ele>1882.9</ele>
        <time>2013-06-02T05:50:22Z</time>
      </trkpt>
      <trkpt lat="-21.17785" lon="55.42642">
        <ele>1881.1</ele>
        <time>2013-06-02T05:50:27Z</time>
      </trkpt>
      <trkpt lat="-21.17793" lon="55.42641">
        <ele>1879</ele>
        <time>2013-06-02T05:50:37Z</time>
      </trkpt>
      <trkpt lat="-21.178" lon="55.42646">
        <ele>1876.3</ele>
        <time>2013-06-02T05:50:44Z</time>
      </trkpt>
      <trkpt lat="-21.17801" lon="55.42647">
        <ele>1875.9</ele>
        <time>2013-06-02T05:50:45Z</time>
      </trkpt>
      <trkpt lat="-21.17795" lon="55.42663">
        <ele>1869.6</ele>
        <time>2013-06-02T05:51:06Z</time>
      </trkpt>
      <trkpt lat="-21.17801" lon="55.4267">
        <ele>1862.9</ele>
        <time>2013-06-02T05:51:24Z</time>
      </trkpt>
      <trkpt lat="-21.17805" lon="55.42677">
        <ele>1859.1</ele>
        <time>2013-06-02T05:51:35Z</time>
      </trkpt>
      <trkpt lat="-21.17806" lon="55.42686">
        <ele>1858.1</ele>
        <time>2013-06-02T05:51:42Z</time>
      </trkpt>
      <trkpt lat="-21.17807" lon="55.42695">
        <ele>1854.7</ele>
        <time>2013-06-02T05:51:50Z</time>
      </trkpt>
      <trkpt lat="-21.17807" lon="55.42696">
        <ele>1854.3</ele>
        <time>2013-06-02T05:51:51Z</time>
      </trkpt>
      <trkpt lat="-21.17808" lon="55.42713">
        <ele>1850.4</ele>
        <time>2013-06-02T05:52:02Z</time>
      </trkpt>
      <trkpt lat="-21.17815" lon="55.42719">
        <ele>1847.4</ele>
        <time>2013-06-02T05:52:16Z</time>
      </trkpt>
      <trkpt lat="-21.17819" lon="55.42711">
        <ele>1846.3</ele>
        <time>2013-06-02T05:52:24Z</time>
      </trkpt>
      <trkpt lat="-21.17825" lon="55.42705">
        <ele>1844.4</ele>
        <time>2013-06-02T05:52:32Z</time>
      </trkpt>
      <trkpt lat="-21.17833" lon="55.42708">
        <ele>1840.9</ele>
        <time>2013-06-02T05:52:47Z</time>
      </trkpt>
      <trkpt lat="-21.17841" lon="55.4271">
        <ele>1835.1</ele>
        <time>2013-06-02T05:53:09Z</time>
      </trkpt>
      <trkpt lat="-21.17843" lon="55.42711">
        <ele>1834.8</ele>
        <time>2013-06-02T05:53:10Z</time>
      </trkpt>
      <trkpt lat="-21.17854" lon="55.4272">
        <ele>1831.7</ele>
        <time>2013-06-02T05:53:22Z</time>
      </trkpt>
      <trkpt lat="-21.17859" lon="55.42727">
        <ele>1831.2</ele>
        <time>2013-06-02T05:53:28Z</time>
      </trkpt>
      <trkpt lat="-21.17864" lon="55.42734">
        <ele>1827.9</ele>
        <time>2013-06-02T05:53:37Z</time>
      </trkpt>
      <trkpt lat="-21.1787" lon="55.42741">
        <ele>1825</ele>
        <time>2013-06-02T05:53:52Z</time>
      </trkpt>
      <trkpt lat="-21.17875" lon="55.42748">
        <ele>1824.3</ele>
        <time>2013-06-02T05:53:57Z</time>
      </trkpt>
      <trkpt lat="-21.17879" lon="55.42754">
        <ele>1823</ele>
        <time>2013-06-02T05:54:01Z</time>
      </trkpt>
      <trkpt lat="-21.17883" lon="55.42761">
        <ele>1822.8</ele>
        <time>2013-06-02T05:54:04Z</time>
      </trkpt>
      <trkpt lat="-21.17887" lon="55.42767">
        <ele>1821.9</ele>
        <time>2013-06-02T05:54:07Z</time>
      </trkpt>
      <trkpt lat="-21.17892" lon="55.42773">
        <ele>1820.6</ele>
        <time>2013-06-02T05:54:10Z</time>
      </trkpt>
      <trkpt lat="-21.17894" lon="55.42781">
        <ele>1820.1</ele>
        <time>2013-06-02T05:54:14Z</time>
      </trkpt>
      <trkpt lat="-21.17894" lon="55.42782">
        <ele>1819.7</ele>
        <time>2013-06-02T05:54:15Z</time>
      </trkpt>
      <trkpt lat="-21.17902" lon="55.42794">
        <ele>1817.5</ele>
        <time>2013-06-02T05:54:24Z</time>
      </trkpt>
      <trkpt lat="-21.179" lon="55.42803">
        <ele>1815.1</ele>
        <time>2013-06-02T05:54:36Z</time>
      </trkpt>
      <trkpt lat="-21.17896" lon="55.42811">
        <ele>1806.4</ele>
        <time>2013-06-02T05:55:10Z</time>
      </trkpt>
      <trkpt lat="-21.17898" lon="55.4282">
        <ele>1805.3</ele>
        <time>2013-06-02T05:55:16Z</time>
      </trkpt>
      <trkpt lat="-21.17899" lon="55.4282">
        <ele>1805.5</ele>
        <time>2013-06-02T05:55:17Z</time>
      </trkpt>
      <trkpt lat="-21.17907" lon="55.42834">
        <ele>1804.1</ele>
        <time>2013-06-02T05:55:26Z</time>
      </trkpt>
      <trkpt lat="-21.17912" lon="55.4284">
        <ele>1803.9</ele>
        <time>2013-06-02T05:55:30Z</time>
      </trkpt>
      <trkpt lat="-21.17918" lon="55.42847">
        <ele>1801.8</ele>
        <time>2013-06-02T05:55:36Z</time>
      </trkpt>
      <trkpt lat="-21.17926" lon="55.4285">
        <ele>1797.2</ele>
        <time>2013-06-02T05:56:05Z</time>
      </trkpt>
      <trkpt lat="-21.1793" lon="55.42858">
        <ele>1792.2</ele>
        <time>2013-06-02T05:56:28Z</time>
      </trkpt>
      <trkpt lat="-21.17931" lon="55.42858">
        <ele>1791.9</ele>
        <time>2013-06-02T05:56:29Z</time>
      </trkpt>
      <trkpt lat="-21.17937" lon="55.42874">
        <ele>1788.6</ele>
        <time>2013-06-02T05:56:45Z</time>
      </trkpt>
      <trkpt lat="-21.17943" lon="55.42878">
        <ele>1786.8</ele>
        <time>2013-06-02T05:56:50Z</time>
      </trkpt>
      <trkpt lat="-21.17949" lon="55.42882">
        <ele>1785.7</ele>
        <time>2013-06-02T05:56:54Z</time>
      </trkpt>
      <trkpt lat="-21.17956" lon="55.42888">
        <ele>1784.7</ele>
        <time>2013-06-02T05:57:01Z</time>
      </trkpt>
      <trkpt lat="-21.17964" lon="55.42893">
        <ele>1783.2</ele>
        <time>2013-06-02T05:57:08Z</time>
      </trkpt>
      <trkpt lat="-21.17966" lon="55.42902">
        <ele>1781.3</ele>
        <time>2013-06-02T05:57:15Z</time>
      </trkpt>
      <trkpt lat="-21.17965" lon="55.42909">
        <ele>1779.3</ele>
        <time>2013-06-02T05:57:19Z</time>
      </trkpt>
      <trkpt lat="-21.17968" lon="55.42917">
        <ele>1774.7</ele>
        <time>2013-06-02T05:57:26Z</time>
      </trkpt>
      <trkpt lat="-21.17976" lon="55.42921">
        <ele>1775.3</ele>
        <time>2013-06-02T05:57:33Z</time>
      </trkpt>
      <trkpt lat="-21.17978" lon="55.42921">
        <ele>1774.8</ele>
        <time>2013-06-02T05:57:34Z</time>
      </trkpt>
      <trkpt lat="-21.17993" lon="55.42916">
        <ele>1771</ele>
        <time>2013-06-02T05:57:43Z</time>
      </trkpt>
      <trkpt lat="-21.18001" lon="55.42913">
        <ele>1768.8</ele>
        <time>2013-06-02T05:57:48Z</time>
      </trkpt>
      <trkpt lat="-21.18009" lon="55.42914">
        <ele>1766.2</ele>
        <time>2013-06-02T05:57:56Z</time>
      </trkpt>
      <trkpt lat="-21.18017" lon="55.42911">
        <ele>1764</ele>
        <time>2013-06-02T05:58:02Z</time>
      </trkpt>
      <trkpt lat="-21.18026" lon="55.42911">
        <ele>1759.9</ele>
        <time>2013-06-02T05:58:08Z</time>
      </trkpt>
      <trkpt lat="-21.18034" lon="55.42912">
        <ele>1757</ele>
        <time>2013-06-02T05:58:14Z</time>
      </trkpt>
      <trkpt lat="-21.18042" lon="55.42917">
        <ele>1753.7</ele>
        <time>2013-06-02T05:58:22Z</time>
      </trkpt>
      <trkpt lat="-21.18048" lon="55.42923">
        <ele>1751.4</ele>
        <time>2013-06-02T05:58:28Z</time>
      </trkpt>
      <trkpt lat="-21.18045" lon="55.42932">
        <ele>1749.5</ele>
        <time>2013-06-02T05:58:33Z</time>
      </trkpt>
      <trkpt lat="-21.1805" lon="55.42939">
        <ele>1748.4</ele>
        <time>2013-06-02T05:58:38Z</time>
      </trkpt>
      <trkpt lat="-21.18051" lon="55.4294">
        <ele>1748.2</ele>
        <time>2013-06-02T05:58:39Z</time>
      </trkpt>
      <trkpt lat="-21.18064" lon="55.42946">
        <ele>1744.7</ele>
        <time>2013-06-02T05:58:51Z</time>
      </trkpt>
      <trkpt lat="-21.18066" lon="55.42955">
        <ele>1742.2</ele>
        <time>2013-06-02T05:58:57Z</time>
      </trkpt>
      <trkpt lat="-21.18065" lon="55.42963">
        <ele>1739.4</ele>
        <time>2013-06-02T05:59:04Z</time>
      </trkpt>
      <trkpt lat="-21.1807" lon="55.4297">
        <ele>1736.8</ele>
        <time>2013-06-02T05:59:11Z</time>
      </trkpt>
      <trkpt lat="-21.18078" lon="55.42969">
        <ele>1734.4</ele>
        <time>2013-06-02T05:59:16Z</time>
      </trkpt>
      <trkpt lat="-21.18087" lon="55.42966">
        <ele>1731.8</ele>
        <time>2013-06-02T05:59:22Z</time>
      </trkpt>
      <trkpt lat="-21.18092" lon="55.4296">
        <ele>1728.6</ele>
        <time>2013-06-02T05:59:30Z</time>
      </trkpt>
      <trkpt lat="-21.181" lon="55.42956">
        <ele>1724.9</ele>
        <time>2013-06-02T05:59:40Z</time>
      </trkpt>
      <trkpt lat="-21.18102" lon="55.42957">
        <ele>1724.4</ele>
        <time>2013-06-02T05:59:41Z</time>
      </trkpt>
      <trkpt lat="-21.18111" lon="55.42969">
        <ele>1719.2</ele>
        <time>2013-06-02T05:59:54Z</time>
      </trkpt>
      <trkpt lat="-21.18118" lon="55.42972">
        <ele>1717.3</ele>
        <time>2013-06-02T06:00:00Z</time>
      </trkpt>
      <trkpt lat="-21.18127" lon="55.42969">
        <ele>1714.6</ele>
        <time>2013-06-02T06:00:08Z</time>
      </trkpt>
      <trkpt lat="-21.18135" lon="55.42967">
        <ele>1712.2</ele>
        <time>2013-06-02T06:00:13Z</time>
      </trkpt>
      <trkpt lat="-21.18144" lon="55.4296">
        <ele>1708</ele>
        <time>2013-06-02T06:00:19Z</time>
      </trkpt>
      <trkpt lat="-21.18149" lon="55.42944">
        <ele>1706</ele>
        <time>2013-06-02T06:00:27Z</time>
      </trkpt>
      <trkpt lat="-21.18155" lon="55.42928">
        <ele>1705</ele>
        <time>2013-06-02T06:00:35Z</time>
      </trkpt>
      <trkpt lat="-21.1815" lon="55.42919">
        <ele>1705</ele>
        <time>2013-06-02T06:00:43Z</time>
      </trkpt>
      <trkpt lat="-21.18148" lon="55.42919">
        <ele>1705.9</ele>
        <time>2013-06-02T06:00:45Z</time>
      </trkpt>
      <trkpt lat="-21.18144" lon="55.42896">
        <ele>1703</ele>
        <time>2013-06-02T06:01:03Z</time>
      </trkpt>
      <trkpt lat="-21.18148" lon="55.42884">
        <ele>1699</ele>
        <time>2013-06-02T06:01:16Z</time>
      </trkpt>
      <trkpt lat="-21.18156" lon="55.42878">
        <ele>1697</ele>
        <time>2013-06-02T06:01:24Z</time>
      </trkpt>
      <trkpt lat="-21.18165" lon="55.42872">
        <ele>1695</ele>
        <time>2013-06-02T06:01:32Z</time>
      </trkpt>
      <trkpt lat="-21.18183" lon="55.42873">
        <ele>1690</ele>
        <time>2013-06-02T06:01:48Z</time>
      </trkpt>
      <trkpt lat="-21.18188" lon="55.42875">
        <ele>1690.1</ele>
        <time>2013-06-02T06:01:52Z</time>
      </trkpt>
      <trkpt lat="-21.18207" lon="55.42877">
        <ele>1684</ele>
        <time>2013-06-02T06:02:04Z</time>
      </trkpt>
      <trkpt lat="-21.1822" lon="55.42876">
        <ele>1682</ele>
        <time>2013-06-02T06:02:12Z</time>
      </trkpt>
      <trkpt lat="-21.18226" lon="55.42865">
        <ele>1680</ele>
        <time>2013-06-02T06:02:20Z</time>
      </trkpt>
      <trkpt lat="-21.18229" lon="55.42854">
        <ele>1678</ele>
        <time>2013-06-02T06:03:00Z</time>
      </trkpt>
      <trkpt lat="-21.18236" lon="55.42853">
        <ele>1677</ele>
        <time>2013-06-02T06:03:04Z</time>
      </trkpt>
      <trkpt lat="-21.18265" lon="55.42851">
        <ele>1674</ele>
        <time>2013-06-02T06:03:16Z</time>
      </trkpt>
      <trkpt lat="-21.18278" lon="55.42845">
        <ele>1672</ele>
        <time>2013-06-02T06:03:24Z</time>
      </trkpt>
      <trkpt lat="-21.18296" lon="55.42838">
        <ele>1670</ele>
        <time>2013-06-02T06:03:32Z</time>
      </trkpt>
      <trkpt lat="-21.1831" lon="55.42835">
        <ele>1665</ele>
        <time>2013-06-02T06:03:40Z</time>
      </trkpt>
      <trkpt lat="-21.18328" lon="55.42831">
        <ele>1662</ele>
        <time>2013-06-02T06:03:48Z</time>
      </trkpt>
      <trkpt lat="-21.18346" lon="55.42826">
        <ele>1660</ele>
        <time>2013-06-02T06:03:56Z</time>
      </trkpt>
      <trkpt lat="-21.18361" lon="55.42822">
        <ele>1656</ele>
        <time>2013-06-02T06:04:04Z</time>
      </trkpt>
      <trkpt lat="-21.18368" lon="55.42822">
        <ele>1655.1</ele>
        <time>2013-06-02T06:04:08Z</time>
      </trkpt>
      <trkpt lat="-21.18388" lon="55.42823">
        <ele>1648</ele>
        <time>2013-06-02T06:04:20Z</time>
      </trkpt>
      <trkpt lat="-21.18399" lon="55.42812">
        <ele>1645</ele>
        <time>2013-06-02T06:04:28Z</time>
      </trkpt>
      <trkpt lat="-21.18412" lon="55.42802">
        <ele>1643</ele>
        <time>2013-06-02T06:04:36Z</time>
      </trkpt>
      <trkpt lat="-21.18423" lon="55.42788">
        <ele>1640</ele>
        <time>2013-06-02T06:04:44Z</time>
      </trkpt>
      <trkpt lat="-21.18436" lon="55.42789">
        <ele>1638</ele>
        <time>2013-06-02T06:04:52Z</time>
      </trkpt>
      <trkpt lat="-21.18449" lon="55.42795">
        <ele>1635</ele>
        <time>2013-06-02T06:05:00Z</time>
      </trkpt>
      <trkpt lat="-21.1847" lon="55.42795">
        <ele>1631</ele>
        <time>2013-06-02T06:05:08Z</time>
      </trkpt>
      <trkpt lat="-21.18479" lon="55.42793">
        <ele>1630.6</ele>
        <time>2013-06-02T06:05:12Z</time>
      </trkpt>
      <trkpt lat="-21.18507" lon="55.42794">
        <ele>1625</ele>
        <time>2013-06-02T06:05:24Z</time>
      </trkpt>
      <trkpt lat="-21.18522" lon="55.42793">
        <ele>1623</ele>
        <time>2013-06-02T06:05:32Z</time>
      </trkpt>
      <trkpt lat="-21.18534" lon="55.42801">
        <ele>1620</ele>
        <time>2013-06-02T06:05:40Z</time>
      </trkpt>
      <trkpt lat="-21.18545" lon="55.42805">
        <ele>1616</ele>
        <time>2013-06-02T06:05:48Z</time>
      </trkpt>
      <trkpt lat="-21.18555" lon="55.42809">
        <ele>1613</ele>
        <time>2013-06-02T06:05:56Z</time>
      </trkpt>
      <trkpt lat="-21.18561" lon="55.42816">
        <ele>1609.4</ele>
        <time>2013-06-02T06:06:11Z</time>
      </trkpt>
      <trkpt lat="-21.18569" lon="55.42814">
        <ele>1607.5</ele>
        <time>2013-06-02T06:06:16Z</time>
      </trkpt>
      <trkpt lat="-21.18571" lon="55.42814">
        <ele>1607.2</ele>
        <time>2013-06-02T06:06:17Z</time>
      </trkpt>
      <trkpt lat="-21.18586" lon="55.42808">
        <ele>1604</ele>
        <time>2013-06-02T06:06:24Z</time>
      </trkpt>
      <trkpt lat="-21.18607" lon="55.42794">
        <ele>1600</ele>
        <time>2013-06-02T06:06:36Z</time>
      </trkpt>
      <trkpt lat="-21.18627" lon="55.42798">
        <ele>1596</ele>
        <time>2013-06-02T06:06:44Z</time>
      </trkpt>
      <trkpt lat="-21.18641" lon="55.42804">
        <ele>1594</ele>
        <time>2013-06-02T06:06:52Z</time>
      </trkpt>
      <trkpt lat="-21.18649" lon="55.42821">
        <ele>1591</ele>
        <time>2013-06-02T06:07:01Z</time>
      </trkpt>
      <trkpt lat="-21.18657" lon="55.42859">
        <ele>1585</ele>
        <time>2013-06-02T06:07:16Z</time>
      </trkpt>
      <trkpt lat="-21.18666" lon="55.4287">
        <ele>1585.2</ele>
        <time>2013-06-02T06:07:23Z</time>
      </trkpt>
      <trkpt lat="-21.18653" lon="55.42872">
        <ele>1585.5</ele>
        <time>2013-06-02T06:07:40Z</time>
      </trkpt>
      <trkpt lat="-21.18662" lon="55.42869">
        <ele>1584.3</ele>
        <time>2013-06-02T06:07:45Z</time>
      </trkpt>
      <trkpt lat="-21.18665" lon="55.42876">
        <ele>1584.8</ele>
        <time>2013-06-02T06:07:48Z</time>
      </trkpt>
      <trkpt lat="-21.18672" lon="55.42882">
        <ele>1583</ele>
        <time>2013-06-02T06:07:53Z</time>
      </trkpt>
      <trkpt lat="-21.18681" lon="55.42881">
        <ele>1581.1</ele>
        <time>2013-06-02T06:08:00Z</time>
      </trkpt>
      <trkpt lat="-21.18689" lon="55.42881">
        <ele>1579.4</ele>
        <time>2013-06-02T06:08:06Z</time>
      </trkpt>
      <trkpt lat="-21.18696" lon="55.42882">
        <ele>1578</ele>
        <time>2013-06-02T06:08:10Z</time>
      </trkpt>
      <trkpt lat="-21.18705" lon="55.4288">
        <ele>1576.5</ele>
        <time>2013-06-02T06:08:15Z</time>
      </trkpt>
      <trkpt lat="-21.18713" lon="55.42878">
        <ele>1575.3</ele>
        <time>2013-06-02T06:08:20Z</time>
      </trkpt>
      <trkpt lat="-21.1872" lon="55.42884">
        <ele>1571.7</ele>
        <time>2013-06-02T06:08:30Z</time>
      </trkpt>
      <trkpt lat="-21.1872" lon="55.42886">
        <ele>1571.3</ele>
        <time>2013-06-02T06:08:31Z</time>
      </trkpt>
      <trkpt lat="-21.18732" lon="55.42895">
        <ele>1567.5</ele>
        <time>2013-06-02T06:08:39Z</time>
      </trkpt>
      <trkpt lat="-21.1874" lon="55.42893">
        <ele>1566.4</ele>
        <time>2013-06-02T06:08:43Z</time>
      </trkpt>
      <trkpt lat="-21.18754" lon="55.42897">
        <ele>1564</ele>
        <time>2013-06-02T06:08:51Z</time>
      </trkpt>
      <trkpt lat="-21.1876" lon="55.42903">
        <ele>1563.2</ele>
        <time>2013-06-02T06:08:56Z</time>
      </trkpt>
      <trkpt lat="-21.18768" lon="55.42908">
        <ele>1561.5</ele>
        <time>2013-06-02T06:09:03Z</time>
      </trkpt>
      <trkpt lat="-21.18776" lon="55.4291">
        <ele>1559.1</ele>
        <time>2013-06-02T06:09:12Z</time>
      </trkpt>
      <trkpt lat="-21.18783" lon="55.42914">
        <ele>1558</ele>
        <time>2013-06-02T06:09:19Z</time>
      </trkpt>
      <trkpt lat="-21.18792" lon="55.42916">
        <ele>1556.2</ele>
        <time>2013-06-02T06:09:23Z</time>
      </trkpt>
      <trkpt lat="-21.188" lon="55.42919">
        <ele>1555.7</ele>
        <time>2013-06-02T06:09:27Z</time>
      </trkpt>
      <trkpt lat="-21.18806" lon="55.42926">
        <ele>1555.2</ele>
        <time>2013-06-02T06:09:31Z</time>
      </trkpt>
      <trkpt lat="-21.18811" lon="55.42932">
        <ele>1555.1</ele>
        <time>2013-06-02T06:09:35Z</time>
      </trkpt>
      <trkpt lat="-21.18812" lon="55.42933">
        <ele>1555</ele>
        <time>2013-06-02T06:09:36Z</time>
      </trkpt>
      <trkpt lat="-21.18821" lon="55.42945">
        <ele>1554.1</ele>
        <time>2013-06-02T06:09:43Z</time>
      </trkpt>
      <trkpt lat="-21.18823" lon="55.42954">
        <ele>1554.1</ele>
        <time>2013-06-02T06:09:50Z</time>
      </trkpt>
      <trkpt lat="-21.18824" lon="55.42962">
        <ele>1554.4</ele>
        <time>2013-06-02T06:09:57Z</time>
      </trkpt>
      <trkpt lat="-21.18827" lon="55.4297">
        <ele>1554.5</ele>
        <time>2013-06-02T06:10:03Z</time>
      </trkpt>
      <trkpt lat="-21.18826" lon="55.42979">
        <ele>1554.5</ele>
        <time>2013-06-02T06:10:10Z</time>
      </trkpt>
      <trkpt lat="-21.18822" lon="55.42988">
        <ele>1556</ele>
        <time>2013-06-02T06:10:21Z</time>
      </trkpt>
      <trkpt lat="-21.18815" lon="55.42993">
        <ele>1557.8</ele>
        <time>2013-06-02T06:10:33Z</time>
      </trkpt>
      <trkpt lat="-21.18808" lon="55.43003">
        <ele>1556</ele>
        <time>2013-06-02T06:10:44Z</time>
      </trkpt>
      <trkpt lat="-21.18807" lon="55.43003">
        <ele>1556.9</ele>
        <time>2013-06-02T06:10:46Z</time>
      </trkpt>
      <trkpt lat="-21.18805" lon="55.43022">
        <ele>1558.6</ele>
        <time>2013-06-02T06:11:03Z</time>
      </trkpt>
      <trkpt lat="-21.18803" lon="55.43029">
        <ele>1558</ele>
        <time>2013-06-02T06:11:07Z</time>
      </trkpt>
      <trkpt lat="-21.188" lon="55.43036">
        <ele>1558</ele>
        <time>2013-06-02T06:11:11Z</time>
      </trkpt>
      <trkpt lat="-21.18796" lon="55.43044">
        <ele>1558</ele>
        <time>2013-06-02T06:11:17Z</time>
      </trkpt>
      <trkpt lat="-21.18786" lon="55.43069">
        <ele>1558</ele>
        <time>2013-06-02T06:11:34Z</time>
      </trkpt>
      <trkpt lat="-21.18778" lon="55.43063">
        <ele>1558</ele>
        <time>2013-06-02T06:11:41Z</time>
      </trkpt>
      <trkpt lat="-21.18785" lon="55.4308">
        <ele>1558</ele>
        <time>2013-06-02T06:11:46Z</time>
      </trkpt>
      <trkpt lat="-21.18786" lon="55.4309">
        <ele>1558.8</ele>
        <time>2013-06-02T06:11:49Z</time>
      </trkpt>
      <trkpt lat="-21.18793" lon="55.43095">
        <ele>1560.7</ele>
        <time>2013-06-02T06:12:07Z</time>
      </trkpt>
      <trkpt lat="-21.18793" lon="55.43104">
        <ele>1560.7</ele>
        <time>2013-06-02T06:12:20Z</time>
      </trkpt>
      <trkpt lat="-21.18786" lon="55.4311">
        <ele>1561</ele>
        <time>2013-06-02T06:12:26Z</time>
      </trkpt>
      <trkpt lat="-21.18785" lon="55.4312">
        <ele>1561.4</ele>
        <time>2013-06-02T06:12:31Z</time>
      </trkpt>
      <trkpt lat="-21.18784" lon="55.43128">
        <ele>1561.5</ele>
        <time>2013-06-02T06:12:34Z</time>
      </trkpt>
      <trkpt lat="-21.18783" lon="55.43142">
        <ele>1562</ele>
        <time>2013-06-02T06:12:39Z</time>
      </trkpt>
      <trkpt lat="-21.18789" lon="55.43156">
        <ele>1563.8</ele>
        <time>2013-06-02T06:12:44Z</time>
      </trkpt>
      <trkpt lat="-21.18781" lon="55.43164">
        <ele>1564</ele>
        <time>2013-06-02T06:12:48Z</time>
      </trkpt>
      <trkpt lat="-21.18778" lon="55.43171">
        <ele>1564.5</ele>
        <time>2013-06-02T06:12:59Z</time>
      </trkpt>
      <trkpt lat="-21.18777" lon="55.43173">
        <ele>1564.4</ele>
        <time>2013-06-02T06:13:00Z</time>
      </trkpt>
      <trkpt lat="-21.18784" lon="55.4319">
        <ele>1563</ele>
        <time>2013-06-02T06:13:12Z</time>
      </trkpt>
      <trkpt lat="-21.18789" lon="55.43202">
        <ele>1564</ele>
        <time>2013-06-02T06:13:19Z</time>
      </trkpt>
      <trkpt lat="-21.18789" lon="55.43214">
        <ele>1563</ele>
        <time>2013-06-02T06:13:32Z</time>
      </trkpt>
      <trkpt lat="-21.18792" lon="55.43231">
        <ele>1560</ele>
        <time>2013-06-02T06:13:48Z</time>
      </trkpt>
      <trkpt lat="-21.18791" lon="55.43242">
        <ele>1558</ele>
        <time>2013-06-02T06:13:52Z</time>
      </trkpt>
      <trkpt lat="-21.18789" lon="55.43251">
        <ele>1557</ele>
        <time>2013-06-02T06:13:56Z</time>
      </trkpt>
      <trkpt lat="-21.18793" lon="55.43314">
        <ele>1555</ele>
        <time>2013-06-02T06:14:14Z</time>
      </trkpt>
      <trkpt lat="-21.18779" lon="55.43269">
        <ele>1557.6</ele>
        <time>2013-06-02T06:14:21Z</time>
      </trkpt>
      <trkpt lat="-21.18764" lon="55.43306">
        <ele>1560</ele>
        <time>2013-06-02T06:14:46Z</time>
      </trkpt>
      <trkpt lat="-21.18736" lon="55.4331">
        <ele>1562</ele>
        <time>2013-06-02T06:15:02Z</time>
      </trkpt>
      <trkpt lat="-21.18733" lon="55.43332">
        <ele>1561</ele>
        <time>2013-06-02T06:15:19Z</time>
      </trkpt>
      <trkpt lat="-21.18728" lon="55.43336">
        <ele>1562.3</ele>
        <time>2013-06-02T06:15:27Z</time>
      </trkpt>
      <trkpt lat="-21.18708" lon="55.4336">
        <ele>1567</ele>
        <time>2013-06-02T06:15:52Z</time>
      </trkpt>
      <trkpt lat="-21.18681" lon="55.4335">
        <ele>1570</ele>
        <time>2013-06-02T06:16:08Z</time>
      </trkpt>
      <trkpt lat="-21.18688" lon="55.43366">
        <ele>1577</ele>
        <time>2013-06-02T06:16:40Z</time>
      </trkpt>
      <trkpt lat="-21.18689" lon="55.43374">
        <ele>1579.1</ele>
        <time>2013-06-02T06:16:47Z</time>
      </trkpt>
      <trkpt lat="-21.18635" lon="55.43343">
        <ele>1582</ele>
        <time>2013-06-02T06:17:13Z</time>
      </trkpt>
      <trkpt lat="-21.18612" lon="55.43343">
        <ele>1585</ele>
        <time>2013-06-02T06:17:29Z</time>
      </trkpt>
      <trkpt lat="-21.18621" lon="55.43352">
        <ele>1589</ele>
        <time>2013-06-02T06:17:45Z</time>
      </trkpt>
      <trkpt lat="-21.18611" lon="55.43322">
        <ele>1590.5</ele>
        <time>2013-06-02T06:17:52Z</time>
      </trkpt>
      <trkpt lat="-21.18613" lon="55.43347">
        <ele>1594</ele>
        <time>2013-06-02T06:18:14Z</time>
      </trkpt>
      <trkpt lat="-21.18607" lon="55.43334">
        <ele>1595</ele>
        <time>2013-06-02T06:18:28Z</time>
      </trkpt>
      <trkpt lat="-21.18595" lon="55.43324">
        <ele>1595</ele>
        <time>2013-06-02T06:18:36Z</time>
      </trkpt>
      <trkpt lat="-21.18594" lon="55.43356">
        <ele>1600</ele>
        <time>2013-06-02T06:18:58Z</time>
      </trkpt>
      <trkpt lat="-21.18592" lon="55.4333">
        <ele>1602.8</ele>
        <time>2013-06-02T06:19:05Z</time>
      </trkpt>
      <trkpt lat="-21.1857" lon="55.43315">
        <ele>1605</ele>
        <time>2013-06-02T06:19:27Z</time>
      </trkpt>
      <trkpt lat="-21.1856" lon="55.43312">
        <ele>1606</ele>
        <time>2013-06-02T06:19:39Z</time>
      </trkpt>
      <trkpt lat="-21.18561" lon="55.4332">
        <ele>1606</ele>
        <time>2013-06-02T06:21:13Z</time>
      </trkpt>
      <trkpt lat="-21.1856" lon="55.43322">
        <ele>1606</ele>
        <time>2013-06-02T06:21:14Z</time>
      </trkpt>
      <trkpt lat="-21.18554" lon="55.43334">
        <ele>1605.7</ele>
        <time>2013-06-02T06:21:20Z</time>
      </trkpt>
      <trkpt lat="-21.18556" lon="55.43344">
        <ele>1602.8</ele>
        <time>2013-06-02T06:21:28Z</time>
      </trkpt>
      <trkpt lat="-21.18561" lon="55.43351">
        <ele>1599.7</ele>
        <time>2013-06-02T06:21:38Z</time>
      </trkpt>
      <trkpt lat="-21.18568" lon="55.43353">
        <ele>1598</ele>
        <time>2013-06-02T06:21:44Z</time>
      </trkpt>
      <trkpt lat="-21.18574" lon="55.43361">
        <ele>1593</ele>
        <time>2013-06-02T06:21:54Z</time>
      </trkpt>
      <trkpt lat="-21.18577" lon="55.43372">
        <ele>1586</ele>
        <time>2013-06-02T06:22:13Z</time>
      </trkpt>
      <trkpt lat="-21.18578" lon="55.43375">
        <ele>1585.1</ele>
        <time>2013-06-02T06:22:17Z</time>
      </trkpt>
      <trkpt lat="-21.18569" lon="55.43392">
        <ele>1577</ele>
        <time>2013-06-02T06:22:40Z</time>
      </trkpt>
      <trkpt lat="-21.18581" lon="55.434">
        <ele>1572</ele>
        <time>2013-06-02T06:22:56Z</time>
      </trkpt>
      <trkpt lat="-21.18575" lon="55.43411">
        <ele>1564</ele>
        <time>2013-06-02T06:23:18Z</time>
      </trkpt>
      <trkpt lat="-21.18575" lon="55.43412">
        <ele>1563.8</ele>
        <time>2013-06-02T06:23:20Z</time>
      </trkpt>
      <trkpt lat="-21.18561" lon="55.43401">
        <ele>1555</ele>
        <time>2013-06-02T06:23:42Z</time>
      </trkpt>
      <trkpt lat="-21.18569" lon="55.43415">
        <ele>1551</ele>
        <time>2013-06-02T06:23:50Z</time>
      </trkpt>
      <trkpt lat="-21.18574" lon="55.43426">
        <ele>1548</ele>
        <time>2013-06-02T06:23:58Z</time>
      </trkpt>
      <trkpt lat="-21.18564" lon="55.43431">
        <ele>1542</ele>
        <time>2013-06-02T06:24:14Z</time>
      </trkpt>
      <trkpt lat="-21.18571" lon="55.4344">
        <ele>1537</ele>
        <time>2013-06-02T06:24:26Z</time>
      </trkpt>
      <trkpt lat="-21.18572" lon="55.43441">
        <ele>1537.2</ele>
        <time>2013-06-02T06:24:28Z</time>
      </trkpt>
      <trkpt lat="-21.18577" lon="55.4346">
        <ele>1523</ele>
        <time>2013-06-02T06:25:02Z</time>
      </trkpt>
      <trkpt lat="-21.18586" lon="55.43464">
        <ele>1519</ele>
        <time>2013-06-02T06:25:14Z</time>
      </trkpt>
      <trkpt lat="-21.18592" lon="55.43471">
        <ele>1516</ele>
        <time>2013-06-02T06:25:22Z</time>
      </trkpt>
      <trkpt lat="-21.18602" lon="55.43469">
        <ele>1509</ele>
        <time>2013-06-02T06:25:42Z</time>
      </trkpt>
      <trkpt lat="-21.18604" lon="55.4347">
        <ele>1509.3</ele>
        <time>2013-06-02T06:25:44Z</time>
      </trkpt>
      <trkpt lat="-21.18614" lon="55.43481">
        <ele>1498</ele>
        <time>2013-06-02T06:26:22Z</time>
      </trkpt>
      <trkpt lat="-21.18617" lon="55.43491">
        <ele>1491</ele>
        <time>2013-06-02T06:26:42Z</time>
      </trkpt>
      <trkpt lat="-21.1862" lon="55.43501">
        <ele>1491</ele>
        <time>2013-06-02T06:26:50Z</time>
      </trkpt>
      <trkpt lat="-21.18621" lon="55.43502">
        <ele>1491.4</ele>
        <time>2013-06-02T06:26:52Z</time>
      </trkpt>
      <trkpt lat="-21.18608" lon="55.43519">
        <ele>1490</ele>
        <time>2013-06-02T06:27:06Z</time>
      </trkpt>
      <trkpt lat="-21.18604" lon="55.4353">
        <ele>1488</ele>
        <time>2013-06-02T06:27:14Z</time>
      </trkpt>
      <trkpt lat="-21.18604" lon="55.43547">
        <ele>1484</ele>
        <time>2013-06-02T06:27:29Z</time>
      </trkpt>
      <trkpt lat="-21.18616" lon="55.43557">
        <ele>1482</ele>
        <time>2013-06-02T06:27:37Z</time>
      </trkpt>
      <trkpt lat="-21.18625" lon="55.43562">
        <ele>1480</ele>
        <time>2013-06-02T06:27:42Z</time>
      </trkpt>
      <trkpt lat="-21.18633" lon="55.43569">
        <ele>1479</ele>
        <time>2013-06-02T06:27:50Z</time>
      </trkpt>
      <trkpt lat="-21.18638" lon="55.43579">
        <ele>1475</ele>
        <time>2013-06-02T06:28:02Z</time>
      </trkpt>
      <trkpt lat="-21.18638" lon="55.4358">
        <ele>1475.3</ele>
        <time>2013-06-02T06:28:04Z</time>
      </trkpt>
      <trkpt lat="-21.18646" lon="55.436">
        <ele>1468</ele>
        <time>2013-06-02T06:28:25Z</time>
      </trkpt>
      <trkpt lat="-21.18644" lon="55.43612">
        <ele>1464</ele>
        <time>2013-06-02T06:28:37Z</time>
      </trkpt>
      <trkpt lat="-21.1864" lon="55.43625">
        <ele>1459</ele>
        <time>2013-06-02T06:28:53Z</time>
      </trkpt>
      <trkpt lat="-21.18643" lon="55.43635">
        <ele>1458</ele>
        <time>2013-06-02T06:29:05Z</time>
      </trkpt>
      <trkpt lat="-21.18645" lon="55.43635">
        <ele>1458.3</ele>
        <time>2013-06-02T06:29:07Z</time>
      </trkpt>
      <trkpt lat="-21.18664" lon="55.43632">
        <ele>1447</ele>
        <time>2013-06-02T06:29:29Z</time>
      </trkpt>
      <trkpt lat="-21.18673" lon="55.43639">
        <ele>1442</ele>
        <time>2013-06-02T06:29:53Z</time>
      </trkpt>
      <trkpt lat="-21.18676" lon="55.43648">
        <ele>1437</ele>
        <time>2013-06-02T06:30:07Z</time>
      </trkpt>
      <trkpt lat="-21.18675" lon="55.43651">
        <ele>1437.5</ele>
        <time>2013-06-02T06:30:11Z</time>
      </trkpt>
      <trkpt lat="-21.1869" lon="55.43664">
        <ele>1425</ele>
        <time>2013-06-02T06:30:49Z</time>
      </trkpt>
      <trkpt lat="-21.18679" lon="55.43675">
        <ele>1420</ele>
        <time>2013-06-02T06:31:09Z</time>
      </trkpt>
      <trkpt lat="-21.18676" lon="55.43688">
        <ele>1419</ele>
        <time>2013-06-02T06:31:17Z</time>
      </trkpt>
      <trkpt lat="-21.18676" lon="55.43691">
        <ele>1419.1</ele>
        <time>2013-06-02T06:31:19Z</time>
      </trkpt>
      <trkpt lat="-21.18683" lon="55.43709">
        <ele>1417</ele>
        <time>2013-06-02T06:31:29Z</time>
      </trkpt>
      <trkpt lat="-21.18694" lon="55.43711">
        <ele>1420</ele>
        <time>2013-06-02T06:31:50Z</time>
      </trkpt>
      <trkpt lat="-21.18687" lon="55.43717">
        <ele>1428.4</ele>
        <time>2013-06-02T06:32:21Z</time>
      </trkpt>
      <trkpt lat="-21.18685" lon="55.43717">
        <ele>1428.4</ele>
        <time>2013-06-02T06:32:22Z</time>
      </trkpt>
      <trkpt lat="-21.18677" lon="55.43728">
        <ele>1430</ele>
        <time>2013-06-02T06:32:32Z</time>
      </trkpt>
      <trkpt lat="-21.18685" lon="55.43731">
        <ele>1432.4</ele>
        <time>2013-06-02T06:32:47Z</time>
      </trkpt>
      <trkpt lat="-21.18691" lon="55.4374">
        <ele>1443</ele>
        <time>2013-06-02T06:33:56Z</time>
      </trkpt>
      <trkpt lat="-21.18687" lon="55.43729">
        <ele>1445.3</ele>
        <time>2013-06-02T06:34:03Z</time>
      </trkpt>
      <trkpt lat="-21.1871" lon="55.4373">
        <ele>1458</ele>
        <time>2013-06-02T06:35:31Z</time>
      </trkpt>
      <trkpt lat="-21.18708" lon="55.43725">
        <ele>1459.6</ele>
        <time>2013-06-02T06:35:38Z</time>
      </trkpt>
      <trkpt lat="-21.18709" lon="55.43729">
        <ele>1465.4</ele>
        <time>2013-06-02T06:36:02Z</time>
      </trkpt>
      <trkpt lat="-21.18707" lon="55.43737">
        <ele>1463.4</ele>
        <time>2013-06-02T06:36:09Z</time>
      </trkpt>
      <trkpt lat="-21.18713" lon="55.43743">
        <ele>1462.5</ele>
        <time>2013-06-02T06:36:16Z</time>
      </trkpt>
      <trkpt lat="-21.1872" lon="55.43747">
        <ele>1461.1</ele>
        <time>2013-06-02T06:36:22Z</time>
      </trkpt>
      <trkpt lat="-21.18728" lon="55.43752">
        <ele>1461</ele>
        <time>2013-06-02T06:36:27Z</time>
      </trkpt>
      <trkpt lat="-21.18733" lon="55.43758">
        <ele>1461.8</ele>
        <time>2013-06-02T06:36:37Z</time>
      </trkpt>
      <trkpt lat="-21.18742" lon="55.43761">
        <ele>1460</ele>
        <time>2013-06-02T06:36:43Z</time>
      </trkpt>
      <trkpt lat="-21.18744" lon="55.43761">
        <ele>1459.9</ele>
        <time>2013-06-02T06:36:44Z</time>
      </trkpt>
      <trkpt lat="-21.18758" lon="55.43766">
        <ele>1463</ele>
        <time>2013-06-02T06:36:59Z</time>
      </trkpt>
      <trkpt lat="-21.18767" lon="55.43767">
        <ele>1465</ele>
        <time>2013-06-02T06:37:14Z</time>
      </trkpt>
      <trkpt lat="-21.18775" lon="55.43764">
        <ele>1470</ele>
        <time>2013-06-02T06:37:38Z</time>
      </trkpt>
      <trkpt lat="-21.18781" lon="55.43774">
        <ele>1470</ele>
        <time>2013-06-02T06:37:42Z</time>
      </trkpt>
      <trkpt lat="-21.1879" lon="55.43775">
        <ele>1473</ele>
        <time>2013-06-02T06:37:54Z</time>
      </trkpt>
      <trkpt lat="-21.1879" lon="55.43774">
        <ele>1473.2</ele>
        <time>2013-06-02T06:37:55Z</time>
      </trkpt>
      <trkpt lat="-21.18805" lon="55.43781">
        <ele>1473.8</ele>
        <time>2013-06-02T06:38:10Z</time>
      </trkpt>
      <trkpt lat="-21.18813" lon="55.43779">
        <ele>1477.2</ele>
        <time>2013-06-02T06:38:27Z</time>
      </trkpt>
      <trkpt lat="-21.18821" lon="55.43775">
        <ele>1478.5</ele>
        <time>2013-06-02T06:38:37Z</time>
      </trkpt>
      <trkpt lat="-21.18829" lon="55.43771">
        <ele>1483.3</ele>
        <time>2013-06-02T06:38:58Z</time>
      </trkpt>
      <trkpt lat="-21.1883" lon="55.4377">
        <ele>1483.6</ele>
        <time>2013-06-02T06:38:59Z</time>
      </trkpt>
      <trkpt lat="-21.18845" lon="55.43766">
        <ele>1487.3</ele>
        <time>2013-06-02T06:39:23Z</time>
      </trkpt>
      <trkpt lat="-21.18853" lon="55.43767">
        <ele>1491</ele>
        <time>2013-06-02T06:39:39Z</time>
      </trkpt>
      <trkpt lat="-21.18861" lon="55.43764">
        <ele>1493</ele>
        <time>2013-06-02T06:39:56Z</time>
      </trkpt>
      <trkpt lat="-21.18869" lon="55.43765">
        <ele>1494.9</ele>
        <time>2013-06-02T06:40:05Z</time>
      </trkpt>
      <trkpt lat="-21.1887" lon="55.43765">
        <ele>1495.1</ele>
        <time>2013-06-02T06:40:06Z</time>
      </trkpt>
      <trkpt lat="-21.18886" lon="55.43764">
        <ele>1496.8</ele>
        <time>2013-06-02T06:40:25Z</time>
      </trkpt>
      <trkpt lat="-21.18893" lon="55.4376">
        <ele>1496.6</ele>
        <time>2013-06-02T06:40:33Z</time>
      </trkpt>
      <trkpt lat="-21.189" lon="55.43755">
        <ele>1497.3</ele>
        <time>2013-06-02T06:40:46Z</time>
      </trkpt>
      <trkpt lat="-21.18909" lon="55.43755">
        <ele>1507</ele>
        <time>2013-06-02T06:41:35Z</time>
      </trkpt>
      <trkpt lat="-21.18909" lon="55.43755">
        <ele>1507.5</ele>
        <time>2013-06-02T06:41:36Z</time>
      </trkpt>
      <trkpt lat="-21.18924" lon="55.43754">
        <ele>1514.7</ele>
        <time>2013-06-02T06:42:17Z</time>
      </trkpt>
      <trkpt lat="-21.18932" lon="55.43752">
        <ele>1518.9</ele>
        <time>2013-06-02T06:42:35Z</time>
      </trkpt>
      <trkpt lat="-21.18939" lon="55.43747">
        <ele>1522.3</ele>
        <time>2013-06-02T06:42:53Z</time>
      </trkpt>
      <trkpt lat="-21.18939" lon="55.43746">
        <ele>1522.4</ele>
        <time>2013-06-02T06:42:54Z</time>
      </trkpt>
      <trkpt lat="-21.18945" lon="55.4373">
        <ele>1528</ele>
        <time>2013-06-02T06:43:36Z</time>
      </trkpt>
      <trkpt lat="-21.18953" lon="55.4374">
        <ele>1531</ele>
        <time>2013-06-02T06:43:51Z</time>
      </trkpt>
      <trkpt lat="-21.18955" lon="55.43739">
        <ele>1532.4</ele>
        <time>2013-06-02T06:43:57Z</time>
      </trkpt>
      <trkpt lat="-21.18969" lon="55.43737">
        <ele>1533.4</ele>
        <time>2013-06-02T06:44:06Z</time>
      </trkpt>
      <trkpt lat="-21.18977" lon="55.43734">
        <ele>1534.4</ele>
        <time>2013-06-02T06:44:15Z</time>
      </trkpt>
      <trkpt lat="-21.18984" lon="55.43739">
        <ele>1532.8</ele>
        <time>2013-06-02T06:44:28Z</time>
      </trkpt>
      <trkpt lat="-21.18993" lon="55.43736">
        <ele>1529</ele>
        <time>2013-06-02T06:44:44Z</time>
      </trkpt>
      <trkpt lat="-21.19" lon="55.43731">
        <ele>1528.4</ele>
        <time>2013-06-02T06:44:49Z</time>
      </trkpt>
      <trkpt lat="-21.19007" lon="55.43728">
        <ele>1527.5</ele>
        <time>2013-06-02T06:44:53Z</time>
      </trkpt>
      <trkpt lat="-21.19016" lon="55.43726">
        <ele>1525.5</ele>
        <time>2013-06-02T06:44:57Z</time>
      </trkpt>
      <trkpt lat="-21.19023" lon="55.43726">
        <ele>1523.6</ele>
        <time>2013-06-02T06:45:01Z</time>
      </trkpt>
      <trkpt lat="-21.19025" lon="55.43726">
        <ele>1523</ele>
        <time>2013-06-02T06:45:02Z</time>
      </trkpt>
      <trkpt lat="-21.1904" lon="55.43723">
        <ele>1520.5</ele>
        <time>2013-06-02T06:45:10Z</time>
      </trkpt>
      <trkpt lat="-21.19048" lon="55.43723">
        <ele>1519.7</ele>
        <time>2013-06-02T06:45:14Z</time>
      </trkpt>
      <trkpt lat="-21.19056" lon="55.43723">
        <ele>1517.4</ele>
        <time>2013-06-02T06:45:20Z</time>
      </trkpt>
      <trkpt lat="-21.19063" lon="55.43723">
        <ele>1515.1</ele>
        <time>2013-06-02T06:45:27Z</time>
      </trkpt>
      <trkpt lat="-21.19071" lon="55.43722">
        <ele>1514.1</ele>
        <time>2013-06-02T06:45:30Z</time>
      </trkpt>
      <trkpt lat="-21.19079" lon="55.43722">
        <ele>1512.6</ele>
        <time>2013-06-02T06:45:34Z</time>
      </trkpt>
      <trkpt lat="-21.19087" lon="55.4372">
        <ele>1511.4</ele>
        <time>2013-06-02T06:45:40Z</time>
      </trkpt>
      <trkpt lat="-21.19094" lon="55.43718">
        <ele>1510.4</ele>
        <time>2013-06-02T06:45:47Z</time>
      </trkpt>
      <trkpt lat="-21.19102" lon="55.43718">
        <ele>1509.8</ele>
        <time>2013-06-02T06:45:52Z</time>
      </trkpt>
      <trkpt lat="-21.19111" lon="55.43718">
        <ele>1509.2</ele>
        <time>2013-06-02T06:45:55Z</time>
      </trkpt>
      <trkpt lat="-21.19118" lon="55.43719">
        <ele>1508.8</ele>
        <time>2013-06-02T06:45:58Z</time>
      </trkpt>
      <trkpt lat="-21.19126" lon="55.43718">
        <ele>1507.1</ele>
        <time>2013-06-02T06:46:02Z</time>
      </trkpt>
      <trkpt lat="-21.19134" lon="55.43718">
        <ele>1504.3</ele>
        <time>2013-06-02T06:46:08Z</time>
      </trkpt>
      <trkpt lat="-21.19136" lon="55.43718">
        <ele>1504.1</ele>
        <time>2013-06-02T06:46:09Z</time>
      </trkpt>
      <trkpt lat="-21.19151" lon="55.43719">
        <ele>1500.2</ele>
        <time>2013-06-02T06:46:18Z</time>
      </trkpt>
      <trkpt lat="-21.19159" lon="55.43717">
        <ele>1498.3</ele>
        <time>2013-06-02T06:46:25Z</time>
      </trkpt>
      <trkpt lat="-21.19168" lon="55.43718">
        <ele>1496.7</ele>
        <time>2013-06-02T06:46:31Z</time>
      </trkpt>
      <trkpt lat="-21.19176" lon="55.43718">
        <ele>1496</ele>
        <time>2013-06-02T06:46:35Z</time>
      </trkpt>
      <trkpt lat="-21.19183" lon="55.43713">
        <ele>1493.9</ele>
        <time>2013-06-02T06:46:43Z</time>
      </trkpt>
      <trkpt lat="-21.1919" lon="55.4371">
        <ele>1491.9</ele>
        <time>2013-06-02T06:46:48Z</time>
      </trkpt>
      <trkpt lat="-21.19197" lon="55.43712">
        <ele>1491.4</ele>
        <time>2013-06-02T06:46:53Z</time>
      </trkpt>
      <trkpt lat="-21.19206" lon="55.43713">
        <ele>1488.9</ele>
        <time>2013-06-02T06:47:00Z</time>
      </trkpt>
      <trkpt lat="-21.19214" lon="55.43713">
        <ele>1486.3</ele>
        <time>2013-06-02T06:47:07Z</time>
      </trkpt>
      <trkpt lat="-21.19223" lon="55.43711">
        <ele>1484.1</ele>
        <time>2013-06-02T06:47:16Z</time>
      </trkpt>
      <trkpt lat="-21.19224" lon="55.4371">
        <ele>1483.5</ele>
        <time>2013-06-02T06:47:17Z</time>
      </trkpt>
      <trkpt lat="-21.19237" lon="55.43704">
        <ele>1480.9</ele>
        <time>2013-06-02T06:47:30Z</time>
      </trkpt>
      <trkpt lat="-21.19243" lon="55.43709">
        <ele>1476.7</ele>
        <time>2013-06-02T06:47:40Z</time>
      </trkpt>
      <trkpt lat="-21.19246" lon="55.43718">
        <ele>1476.1</ele>
        <time>2013-06-02T06:47:55Z</time>
      </trkpt>
      <trkpt lat="-21.19246" lon="55.43727">
        <ele>1475.3</ele>
        <time>2013-06-02T06:48:04Z</time>
      </trkpt>
      <trkpt lat="-21.19252" lon="55.43734">
        <ele>1474.8</ele>
        <time>2013-06-02T06:48:10Z</time>
      </trkpt>
      <trkpt lat="-21.19256" lon="55.43743">
        <ele>1475.1</ele>
        <time>2013-06-02T06:48:17Z</time>
      </trkpt>
      <trkpt lat="-21.19256" lon="55.43752">
        <ele>1472.3</ele>
        <time>2013-06-02T06:48:25Z</time>
      </trkpt>
      <trkpt lat="-21.19256" lon="55.43753">
        <ele>1471.9</ele>
        <time>2013-06-02T06:48:26Z</time>
      </trkpt>
      <trkpt lat="-21.19268" lon="55.43764">
        <ele>1469</ele>
        <time>2013-06-02T06:48:39Z</time>
      </trkpt>
      <trkpt lat="-21.1927" lon="55.43773">
        <ele>1466.6</ele>
        <time>2013-06-02T06:48:47Z</time>
      </trkpt>
      <trkpt lat="-21.19279" lon="55.43776">
        <ele>1465.3</ele>
        <time>2013-06-02T06:48:52Z</time>
      </trkpt>
      <trkpt lat="-21.19286" lon="55.43778">
        <ele>1463.9</ele>
        <time>2013-06-02T06:48:56Z</time>
      </trkpt>
      <trkpt lat="-21.19294" lon="55.43781">
        <ele>1461.9</ele>
        <time>2013-06-02T06:49:01Z</time>
      </trkpt>
      <trkpt lat="-21.19301" lon="55.43785">
        <ele>1459.9</ele>
        <time>2013-06-02T06:49:07Z</time>
      </trkpt>
      <trkpt lat="-21.19308" lon="55.43787">
        <ele>1458</ele>
        <time>2013-06-02T06:49:13Z</time>
      </trkpt>
      <trkpt lat="-21.19315" lon="55.4379">
        <ele>1456.6</ele>
        <time>2013-06-02T06:49:17Z</time>
      </trkpt>
      <trkpt lat="-21.19322" lon="55.43796">
        <ele>1453.4</ele>
        <time>2013-06-02T06:49:29Z</time>
      </trkpt>
      <trkpt lat="-21.19323" lon="55.43795">
        <ele>1453.1</ele>
        <time>2013-06-02T06:49:30Z</time>
      </trkpt>
      <trkpt lat="-21.19338" lon="55.43797">
        <ele>1448.1</ele>
        <time>2013-06-02T06:49:47Z</time>
      </trkpt>
      <trkpt lat="-21.19346" lon="55.43798">
        <ele>1446.6</ele>
        <time>2013-06-02T06:49:53Z</time>
      </trkpt>
      <trkpt lat="-21.19353" lon="55.43803">
        <ele>1444.6</ele>
        <time>2013-06-02T06:50:02Z</time>
      </trkpt>
      <trkpt lat="-21.19362" lon="55.43804">
        <ele>1441</ele>
        <time>2013-06-02T06:50:11Z</time>
      </trkpt>
      <trkpt lat="-21.19371" lon="55.43806">
        <ele>1438.9</ele>
        <time>2013-06-02T06:50:18Z</time>
      </trkpt>
      <trkpt lat="-21.19379" lon="55.43804">
        <ele>1435.7</ele>
        <time>2013-06-02T06:50:26Z</time>
      </trkpt>
      <trkpt lat="-21.19387" lon="55.43809">
        <ele>1433.2</ele>
        <time>2013-06-02T06:50:32Z</time>
      </trkpt>
      <trkpt lat="-21.19388" lon="55.43809">
        <ele>1432.6</ele>
        <time>2013-06-02T06:50:33Z</time>
      </trkpt>
      <trkpt lat="-21.19403" lon="55.43815">
        <ele>1429.5</ele>
        <time>2013-06-02T06:50:45Z</time>
      </trkpt>
      <trkpt lat="-21.19411" lon="55.43817">
        <ele>1427.9</ele>
        <time>2013-06-02T06:50:52Z</time>
      </trkpt>
      <trkpt lat="-21.19419" lon="55.43818">
        <ele>1425</ele>
        <time>2013-06-02T06:51:00Z</time>
      </trkpt>
      <trkpt lat="-21.19427" lon="55.43819">
        <ele>1421.9</ele>
        <time>2013-06-02T06:51:06Z</time>
      </trkpt>
      <trkpt lat="-21.19435" lon="55.43823">
        <ele>1421.6</ele>
        <time>2013-06-02T06:51:12Z</time>
      </trkpt>
      <trkpt lat="-21.19442" lon="55.43828">
        <ele>1420.2</ele>
        <time>2013-06-02T06:51:17Z</time>
      </trkpt>
      <trkpt lat="-21.1945" lon="55.43831">
        <ele>1419.4</ele>
        <time>2013-06-02T06:51:22Z</time>
      </trkpt>
      <trkpt lat="-21.19457" lon="55.43836">
        <ele>1418.1</ele>
        <time>2013-06-02T06:51:27Z</time>
      </trkpt>
      <trkpt lat="-21.19464" lon="55.43836">
        <ele>1416.7</ele>
        <time>2013-06-02T06:51:32Z</time>
      </trkpt>
      <trkpt lat="-21.19473" lon="55.43835">
        <ele>1415</ele>
        <time>2013-06-02T06:51:38Z</time>
      </trkpt>
      <trkpt lat="-21.19474" lon="55.43836">
        <ele>1414.7</ele>
        <time>2013-06-02T06:51:39Z</time>
      </trkpt>
      <trkpt lat="-21.19488" lon="55.43832">
        <ele>1411.3</ele>
        <time>2013-06-02T06:51:48Z</time>
      </trkpt>
      <trkpt lat="-21.19495" lon="55.43829">
        <ele>1411.3</ele>
        <time>2013-06-02T06:51:52Z</time>
      </trkpt>
      <trkpt lat="-21.19503" lon="55.43825">
        <ele>1411.9</ele>
        <time>2013-06-02T06:52:04Z</time>
      </trkpt>
      <trkpt lat="-21.1951" lon="55.4382">
        <ele>1409.8</ele>
        <time>2013-06-02T06:52:12Z</time>
      </trkpt>
      <trkpt lat="-21.19516" lon="55.43816">
        <ele>1408.8</ele>
        <time>2013-06-02T06:52:17Z</time>
      </trkpt>
      <trkpt lat="-21.19525" lon="55.43817">
        <ele>1407.5</ele>
        <time>2013-06-02T06:52:23Z</time>
      </trkpt>
      <trkpt lat="-21.19528" lon="55.43826">
        <ele>1404.3</ele>
        <time>2013-06-02T06:52:31Z</time>
      </trkpt>
      <trkpt lat="-21.19534" lon="55.43832">
        <ele>1403</ele>
        <time>2013-06-02T06:52:36Z</time>
      </trkpt>
      <trkpt lat="-21.19541" lon="55.43838">
        <ele>1401.4</ele>
        <time>2013-06-02T06:52:40Z</time>
      </trkpt>
      <trkpt lat="-21.19542" lon="55.43839">
        <ele>1401.1</ele>
        <time>2013-06-02T06:52:41Z</time>
      </trkpt>
      <trkpt lat="-21.19554" lon="55.43847">
        <ele>1397.7</ele>
        <time>2013-06-02T06:52:51Z</time>
      </trkpt>
      <trkpt lat="-21.19561" lon="55.43851">
        <ele>1397.2</ele>
        <time>2013-06-02T06:52:55Z</time>
      </trkpt>
      <trkpt lat="-21.19569" lon="55.43854">
        <ele>1395.2</ele>
        <time>2013-06-02T06:53:00Z</time>
      </trkpt>
      <trkpt lat="-21.19577" lon="55.43856">
        <ele>1394.5</ele>
        <time>2013-06-02T06:53:06Z</time>
      </trkpt>
      <trkpt lat="-21.19585" lon="55.43857">
        <ele>1392.1</ele>
        <time>2013-06-02T06:53:14Z</time>
      </trkpt>
      <trkpt lat="-21.19593" lon="55.43856">
        <ele>1389.3</ele>
        <time>2013-06-02T06:53:22Z</time>
      </trkpt>
      <trkpt lat="-21.19602" lon="55.43855">
        <ele>1387.8</ele>
        <time>2013-06-02T06:53:30Z</time>
      </trkpt>
      <trkpt lat="-21.1961" lon="55.43858">
        <ele>1386.7</ele>
        <time>2013-06-02T06:53:38Z</time>
      </trkpt>
      <trkpt lat="-21.19618" lon="55.43857">
        <ele>1385.4</ele>
        <time>2013-06-02T06:53:46Z</time>
      </trkpt>
      <trkpt lat="-21.1962" lon="55.43856">
        <ele>1384.9</ele>
        <time>2013-06-02T06:53:47Z</time>
      </trkpt>
      <trkpt lat="-21.19633" lon="55.43856">
        <ele>1381.7</ele>
        <time>2013-06-02T06:53:54Z</time>
      </trkpt>
      <trkpt lat="-21.19641" lon="55.43856">
        <ele>1380.5</ele>
        <time>2013-06-02T06:53:59Z</time>
      </trkpt>
      <trkpt lat="-21.1965" lon="55.43857">
        <ele>1378.5</ele>
        <time>2013-06-02T06:54:05Z</time>
      </trkpt>
      <trkpt lat="-21.19656" lon="55.43855">
        <ele>1377.6</ele>
        <time>2013-06-02T06:54:09Z</time>
      </trkpt>
      <trkpt lat="-21.19663" lon="55.4385">
        <ele>1377.6</ele>
        <time>2013-06-02T06:54:13Z</time>
      </trkpt>
      <trkpt lat="-21.1967" lon="55.43844">
        <ele>1376.3</ele>
        <time>2013-06-02T06:54:19Z</time>
      </trkpt>
      <trkpt lat="-21.19681" lon="55.43839">
        <ele>1373</ele>
        <time>2013-06-02T06:54:24Z</time>
      </trkpt>
      <trkpt lat="-21.19687" lon="55.43832">
        <ele>1372</ele>
        <time>2013-06-02T06:54:36Z</time>
      </trkpt>
      <trkpt lat="-21.19699" lon="55.43831">
        <ele>1372</ele>
        <time>2013-06-02T06:54:44Z</time>
      </trkpt>
      <trkpt lat="-21.19717" lon="55.43828">
        <ele>1373</ele>
        <time>2013-06-02T06:54:52Z</time>
      </trkpt>
      <trkpt lat="-21.1972" lon="55.43827">
        <ele>1373.8</ele>
        <time>2013-06-02T06:54:54Z</time>
      </trkpt>
      <trkpt lat="-21.1974" lon="55.43831">
        <ele>1372</ele>
        <time>2013-06-02T06:55:13Z</time>
      </trkpt>
      <trkpt lat="-21.19752" lon="55.4383">
        <ele>1370</ele>
        <time>2013-06-02T06:55:18Z</time>
      </trkpt>
      <trkpt lat="-21.19767" lon="55.43823">
        <ele>1368</ele>
        <time>2013-06-02T06:55:26Z</time>
      </trkpt>
      <trkpt lat="-21.19779" lon="55.43814">
        <ele>1366</ele>
        <time>2013-06-02T06:55:34Z</time>
      </trkpt>
      <trkpt lat="-21.19792" lon="55.4381">
        <ele>1364</ele>
        <time>2013-06-02T06:55:42Z</time>
      </trkpt>
      <trkpt lat="-21.19803" lon="55.43808">
        <ele>1361</ele>
        <time>2013-06-02T06:55:50Z</time>
      </trkpt>
      <trkpt lat="-21.19818" lon="55.43802">
        <ele>1360</ele>
        <time>2013-06-02T06:55:58Z</time>
      </trkpt>
      <trkpt lat="-21.19823" lon="55.43801">
        <ele>1360.3</ele>
        <time>2013-06-02T06:56:00Z</time>
      </trkpt>
      <trkpt lat="-21.19839" lon="55.43795">
        <ele>1358</ele>
        <time>2013-06-02T06:56:06Z</time>
      </trkpt>
      <trkpt lat="-21.19852" lon="55.43792">
        <ele>1356</ele>
        <time>2013-06-02T06:56:14Z</time>
      </trkpt>
      <trkpt lat="-21.19864" lon="55.43785">
        <ele>1353</ele>
        <time>2013-06-02T06:56:26Z</time>
      </trkpt>
      <trkpt lat="-21.19868" lon="55.43775">
        <ele>1349</ele>
        <time>2013-06-02T06:56:42Z</time>
      </trkpt>
      <trkpt lat="-21.1988" lon="55.4377">
        <ele>1348</ele>
        <time>2013-06-02T06:56:46Z</time>
      </trkpt>
      <trkpt lat="-21.1989" lon="55.43767">
        <ele>1347</ele>
        <time>2013-06-02T06:56:50Z</time>
      </trkpt>
      <trkpt lat="-21.19898" lon="55.43762">
        <ele>1346</ele>
        <time>2013-06-02T06:56:54Z</time>
      </trkpt>
      <trkpt lat="-21.19907" lon="55.43756">
        <ele>1344</ele>
        <time>2013-06-02T06:57:02Z</time>
      </trkpt>
      <trkpt lat="-21.19911" lon="55.43754">
        <ele>1344.5</ele>
        <time>2013-06-02T06:57:04Z</time>
      </trkpt>
      <trkpt lat="-21.19918" lon="55.4374">
        <ele>1342</ele>
        <time>2013-06-02T06:57:18Z</time>
      </trkpt>
      <trkpt lat="-21.19923" lon="55.43732">
        <ele>1344.8</ele>
        <time>2013-06-02T06:57:28Z</time>
      </trkpt>
      <trkpt lat="-21.19929" lon="55.43726">
        <ele>1344.5</ele>
        <time>2013-06-02T06:57:35Z</time>
      </trkpt>
      <trkpt lat="-21.19936" lon="55.43722">
        <ele>1344</ele>
        <time>2013-06-02T06:57:40Z</time>
      </trkpt>
      <trkpt lat="-21.19942" lon="55.43718">
        <ele>1343.5</ele>
        <time>2013-06-02T06:57:44Z</time>
      </trkpt>
      <trkpt lat="-21.19948" lon="55.43711">
        <ele>1343</ele>
        <time>2013-06-02T06:57:51Z</time>
      </trkpt>
      <trkpt lat="-21.19956" lon="55.43706">
        <ele>1341.4</ele>
        <time>2013-06-02T06:57:56Z</time>
      </trkpt>
      <trkpt lat="-21.19963" lon="55.43702">
        <ele>1341.1</ele>
        <time>2013-06-02T06:58:01Z</time>
      </trkpt>
      <trkpt lat="-21.19971" lon="55.43698">
        <ele>1340.1</ele>
        <time>2013-06-02T06:58:06Z</time>
      </trkpt>
      <trkpt lat="-21.19972" lon="55.43697">
        <ele>1339.8</ele>
        <time>2013-06-02T06:58:07Z</time>
      </trkpt>
      <trkpt lat="-21.19984" lon="55.4369">
        <ele>1337.8</ele>
        <time>2013-06-02T06:58:14Z</time>
      </trkpt>
      <trkpt lat="-21.1999" lon="55.43684">
        <ele>1337</ele>
        <time>2013-06-02T06:58:19Z</time>
      </trkpt>
      <trkpt lat="-21.19998" lon="55.4368">
        <ele>1335.9</ele>
        <time>2013-06-02T06:58:23Z</time>
      </trkpt>
      <trkpt lat="-21.20006" lon="55.43679">
        <ele>1333.6</ele>
        <time>2013-06-02T06:58:29Z</time>
      </trkpt>
      <trkpt lat="-21.20014" lon="55.43677">
        <ele>1331.9</ele>
        <time>2013-06-02T06:58:35Z</time>
      </trkpt>
      <trkpt lat="-21.2002" lon="55.43673">
        <ele>1330.5</ele>
        <time>2013-06-02T06:58:41Z</time>
      </trkpt>
      <trkpt lat="-21.20027" lon="55.43667">
        <ele>1328.7</ele>
        <time>2013-06-02T06:58:47Z</time>
      </trkpt>
      <trkpt lat="-21.20034" lon="55.43664">
        <ele>1327.1</ele>
        <time>2013-06-02T06:58:52Z</time>
      </trkpt>
      <trkpt lat="-21.20041" lon="55.43661">
        <ele>1326.2</ele>
        <time>2013-06-02T06:58:56Z</time>
      </trkpt>
      <trkpt lat="-21.20048" lon="55.43655">
        <ele>1326</ele>
        <time>2013-06-02T06:59:01Z</time>
      </trkpt>
      <trkpt lat="-21.20054" lon="55.4365">
        <ele>1324.8</ele>
        <time>2013-06-02T06:59:06Z</time>
      </trkpt>
      <trkpt lat="-21.20061" lon="55.43644">
        <ele>1323.6</ele>
        <time>2013-06-02T06:59:11Z</time>
      </trkpt>
      <trkpt lat="-21.20063" lon="55.43643">
        <ele>1323.1</ele>
        <time>2013-06-02T06:59:12Z</time>
      </trkpt>
      <trkpt lat="-21.20074" lon="55.43633">
        <ele>1320.4</ele>
        <time>2013-06-02T06:59:25Z</time>
      </trkpt>
      <trkpt lat="-21.20078" lon="55.43625">
        <ele>1319.4</ele>
        <time>2013-06-02T06:59:30Z</time>
      </trkpt>
      <trkpt lat="-21.20084" lon="55.43619">
        <ele>1317.4</ele>
        <time>2013-06-02T06:59:37Z</time>
      </trkpt>
      <trkpt lat="-21.2009" lon="55.43613">
        <ele>1315.5</ele>
        <time>2013-06-02T06:59:44Z</time>
      </trkpt>
      <trkpt lat="-21.20098" lon="55.43609">
        <ele>1315.3</ele>
        <time>2013-06-02T06:59:51Z</time>
      </trkpt>
      <trkpt lat="-21.20104" lon="55.43603">
        <ele>1314.1</ele>
        <time>2013-06-02T06:59:57Z</time>
      </trkpt>
      <trkpt lat="-21.20112" lon="55.43599">
        <ele>1312.4</ele>
        <time>2013-06-02T07:00:03Z</time>
      </trkpt>
      <trkpt lat="-21.20123" lon="55.43592">
        <ele>1310</ele>
        <time>2013-06-02T07:00:18Z</time>
      </trkpt>
      <trkpt lat="-21.20125" lon="55.4359">
        <ele>1310.3</ele>
        <time>2013-06-02T07:00:20Z</time>
      </trkpt>
      <trkpt lat="-21.20144" lon="55.43567">
        <ele>1310</ele>
        <time>2013-06-02T07:00:30Z</time>
      </trkpt>
      <trkpt lat="-21.20144" lon="55.43559">
        <ele>1310</ele>
        <time>2013-06-02T07:00:35Z</time>
      </trkpt>
      <trkpt lat="-21.20143" lon="55.4355">
        <ele>1306.7</ele>
        <time>2013-06-02T07:00:41Z</time>
      </trkpt>
      <trkpt lat="-21.20139" lon="55.43542">
        <ele>1304.4</ele>
        <time>2013-06-02T07:00:47Z</time>
      </trkpt>
      <trkpt lat="-21.20136" lon="55.43534">
        <ele>1303.2</ele>
        <time>2013-06-02T07:00:53Z</time>
      </trkpt>
      <trkpt lat="-21.2013" lon="55.43527">
        <ele>1301.1</ele>
        <time>2013-06-02T07:01:00Z</time>
      </trkpt>
      <trkpt lat="-21.20124" lon="55.43524">
        <ele>1300.5</ele>
        <time>2013-06-02T07:01:04Z</time>
      </trkpt>
      <trkpt lat="-21.20116" lon="55.43522">
        <ele>1300</ele>
        <time>2013-06-02T07:01:07Z</time>
      </trkpt>
      <trkpt lat="-21.20108" lon="55.43518">
        <ele>1299</ele>
        <time>2013-06-02T07:01:11Z</time>
      </trkpt>
      <trkpt lat="-21.20101" lon="55.43513">
        <ele>1297.3</ele>
        <time>2013-06-02T07:01:17Z</time>
      </trkpt>
      <trkpt lat="-21.20105" lon="55.435">
        <ele>1296</ele>
        <time>2013-06-02T07:01:25Z</time>
      </trkpt>
      <trkpt lat="-21.20107" lon="55.43497">
        <ele>1296.9</ele>
        <time>2013-06-02T07:01:27Z</time>
      </trkpt>
      <trkpt lat="-21.20124" lon="55.43478">
        <ele>1297</ele>
        <time>2013-06-02T07:01:37Z</time>
      </trkpt>
      <trkpt lat="-21.20132" lon="55.43469">
        <ele>1298</ele>
        <time>2013-06-02T07:01:45Z</time>
      </trkpt>
      <trkpt lat="-21.20135" lon="55.43461">
        <ele>1298.5</ele>
        <time>2013-06-02T07:01:49Z</time>
      </trkpt>
      <trkpt lat="-21.2013" lon="55.43453">
        <ele>1299.1</ele>
        <time>2013-06-02T07:01:56Z</time>
      </trkpt>
      <trkpt lat="-21.20126" lon="55.43444">
        <ele>1297</ele>
        <time>2013-06-02T07:02:04Z</time>
      </trkpt>
      <trkpt lat="-21.20122" lon="55.43436">
        <ele>1296.5</ele>
        <time>2013-06-02T07:02:09Z</time>
      </trkpt>
      <trkpt lat="-21.20121" lon="55.43427">
        <ele>1294.8</ele>
        <time>2013-06-02T07:02:14Z</time>
      </trkpt>
      <trkpt lat="-21.20118" lon="55.43419">
        <ele>1293.8</ele>
        <time>2013-06-02T07:02:19Z</time>
      </trkpt>
      <trkpt lat="-21.20117" lon="55.4341">
        <ele>1293.8</ele>
        <time>2013-06-02T07:02:23Z</time>
      </trkpt>
      <trkpt lat="-21.20122" lon="55.434">
        <ele>1292</ele>
        <time>2013-06-02T07:02:28Z</time>
      </trkpt>
      <trkpt lat="-21.20123" lon="55.43396">
        <ele>1292.9</ele>
        <time>2013-06-02T07:02:30Z</time>
      </trkpt>
      <trkpt lat="-21.20118" lon="55.43371">
        <ele>1290</ele>
        <time>2013-06-02T07:02:40Z</time>
      </trkpt>
      <trkpt lat="-21.20121" lon="55.43362">
        <ele>1290.5</ele>
        <time>2013-06-02T07:02:44Z</time>
      </trkpt>
      <trkpt lat="-21.20126" lon="55.43354">
        <ele>1290.3</ele>
        <time>2013-06-02T07:02:48Z</time>
      </trkpt>
      <trkpt lat="-21.20127" lon="55.43346">
        <ele>1290.6</ele>
        <time>2013-06-02T07:02:52Z</time>
      </trkpt>
      <trkpt lat="-21.20125" lon="55.43338">
        <ele>1289.5</ele>
        <time>2013-06-02T07:02:56Z</time>
      </trkpt>
      <trkpt lat="-21.20121" lon="55.43332">
        <ele>1288.7</ele>
        <time>2013-06-02T07:02:59Z</time>
      </trkpt>
      <trkpt lat="-21.20118" lon="55.43325">
        <ele>1288.3</ele>
        <time>2013-06-02T07:03:02Z</time>
      </trkpt>
      <trkpt lat="-21.20115" lon="55.43317">
        <ele>1286.2</ele>
        <time>2013-06-02T07:03:06Z</time>
      </trkpt>
      <trkpt lat="-21.20112" lon="55.4331">
        <ele>1284.9</ele>
        <time>2013-06-02T07:03:10Z</time>
      </trkpt>
      <trkpt lat="-21.20107" lon="55.43303">
        <ele>1283.3</ele>
        <time>2013-06-02T07:03:16Z</time>
      </trkpt>
      <trkpt lat="-21.20098" lon="55.43304">
        <ele>1282.4</ele>
        <time>2013-06-02T07:03:22Z</time>
      </trkpt>
      <trkpt lat="-21.20091" lon="55.43307">
        <ele>1280.9</ele>
        <time>2013-06-02T07:03:28Z</time>
      </trkpt>
      <trkpt lat="-21.20087" lon="55.43315">
        <ele>1278.8</ele>
        <time>2013-06-02T07:03:37Z</time>
      </trkpt>
      <trkpt lat="-21.20086" lon="55.43316">
        <ele>1278.7</ele>
        <time>2013-06-02T07:03:38Z</time>
      </trkpt>
      <trkpt lat="-21.2006" lon="55.43339">
        <ele>1270</ele>
        <time>2013-06-02T07:03:58Z</time>
      </trkpt>
      <trkpt lat="-21.2005" lon="55.4335">
        <ele>1268</ele>
        <time>2013-06-02T07:04:06Z</time>
      </trkpt>
      <trkpt lat="-21.19961" lon="55.43386">
        <ele>1241</ele>
        <time>2013-06-02T07:05:59Z</time>
      </trkpt>
      <trkpt lat="-21.19937" lon="55.43384">
        <ele>1230.4</ele>
        <time>2013-06-02T07:06:21Z</time>
      </trkpt>
      <trkpt lat="-21.19929" lon="55.43393">
        <ele>1230</ele>
        <time>2013-06-02T07:06:32Z</time>
      </trkpt>
      <trkpt lat="-21.19915" lon="55.43395">
        <ele>1233</ele>
        <time>2013-06-02T07:06:52Z</time>
      </trkpt>
      <trkpt lat="-21.19902" lon="55.43392">
        <ele>1235</ele>
        <time>2013-06-02T07:07:00Z</time>
      </trkpt>
      <trkpt lat="-21.19895" lon="55.43392">
        <ele>1235.3</ele>
        <time>2013-06-02T07:07:04Z</time>
      </trkpt>
      <trkpt lat="-21.19887" lon="55.43388">
        <ele>1235.7</ele>
        <time>2013-06-02T07:07:12Z</time>
      </trkpt>
      <trkpt lat="-21.19881" lon="55.43381">
        <ele>1234.6</ele>
        <time>2013-06-02T07:07:20Z</time>
      </trkpt>
      <trkpt lat="-21.19882" lon="55.43373">
        <ele>1234.1</ele>
        <time>2013-06-02T07:07:26Z</time>
      </trkpt>
      <trkpt lat="-21.19883" lon="55.43371">
        <ele>1234.2</ele>
        <time>2013-06-02T07:07:27Z</time>
      </trkpt>
      <trkpt lat="-21.19887" lon="55.43357">
        <ele>1235.5</ele>
        <time>2013-06-02T07:07:37Z</time>
      </trkpt>
      <trkpt lat="-21.19892" lon="55.4335">
        <ele>1235.7</ele>
        <time>2013-06-02T07:07:41Z</time>
      </trkpt>
      <trkpt lat="-21.19899" lon="55.43344">
        <ele>1236.8</ele>
        <time>2013-06-02T07:07:50Z</time>
      </trkpt>
      <trkpt lat="-21.19906" lon="55.43349">
        <ele>1238.2</ele>
        <time>2013-06-02T07:07:58Z</time>
      </trkpt>
      <trkpt lat="-21.19912" lon="55.43342">
        <ele>1239.2</ele>
        <time>2013-06-02T07:08:08Z</time>
      </trkpt>
      <trkpt lat="-21.19919" lon="55.43336">
        <ele>1239.5</ele>
        <time>2013-06-02T07:08:20Z</time>
      </trkpt>
      <trkpt lat="-21.19926" lon="55.43334">
        <ele>1240.1</ele>
        <time>2013-06-02T07:08:25Z</time>
      </trkpt>
      <trkpt lat="-21.19932" lon="55.43332">
        <ele>1239.8</ele>
        <time>2013-06-02T07:08:27Z</time>
      </trkpt>
      <trkpt lat="-21.19939" lon="55.43331">
        <ele>1240</ele>
        <time>2013-06-02T07:08:30Z</time>
      </trkpt>
      <trkpt lat="-21.19941" lon="55.43331">
        <ele>1239.9</ele>
        <time>2013-06-02T07:08:31Z</time>
      </trkpt>
      <trkpt lat="-21.19957" lon="55.43317">
        <ele>1240</ele>
        <time>2013-06-02T07:08:42Z</time>
      </trkpt>
      <trkpt lat="-21.19958" lon="55.43307">
        <ele>1242</ele>
        <time>2013-06-02T07:08:50Z</time>
      </trkpt>
      <trkpt lat="-21.1996" lon="55.43294">
        <ele>1244</ele>
        <time>2013-06-02T07:09:02Z</time>
      </trkpt>
      <trkpt lat="-21.19953" lon="55.43285">
        <ele>1246</ele>
        <time>2013-06-02T07:09:14Z</time>
      </trkpt>
      <trkpt lat="-21.19955" lon="55.43275">
        <ele>1247</ele>
        <time>2013-06-02T07:09:18Z</time>
      </trkpt>
      <trkpt lat="-21.19953" lon="55.4326">
        <ele>1249</ele>
        <time>2013-06-02T07:09:26Z</time>
      </trkpt>
      <trkpt lat="-21.19945" lon="55.4325">
        <ele>1249</ele>
        <time>2013-06-02T07:09:34Z</time>
      </trkpt>
      <trkpt lat="-21.19945" lon="55.43248">
        <ele>1249.8</ele>
        <time>2013-06-02T07:09:36Z</time>
      </trkpt>
      <trkpt lat="-21.19948" lon="55.43231">
        <ele>1251</ele>
        <time>2013-06-02T07:09:52Z</time>
      </trkpt>
      <trkpt lat="-21.19953" lon="55.43223">
        <ele>1249.6</ele>
        <time>2013-06-02T07:09:59Z</time>
      </trkpt>
      <trkpt lat="-21.19955" lon="55.43213">
        <ele>1249</ele>
        <time>2013-06-02T07:10:05Z</time>
      </trkpt>
      <trkpt lat="-21.19957" lon="55.43201">
        <ele>1248</ele>
        <time>2013-06-02T07:10:13Z</time>
      </trkpt>
      <trkpt lat="-21.19958" lon="55.43187">
        <ele>1248</ele>
        <time>2013-06-02T07:10:21Z</time>
      </trkpt>
      <trkpt lat="-21.19945" lon="55.4318">
        <ele>1249</ele>
        <time>2013-06-02T07:10:32Z</time>
      </trkpt>
      <trkpt lat="-21.19952" lon="55.43169">
        <ele>1251</ele>
        <time>2013-06-02T07:10:46Z</time>
      </trkpt>
      <trkpt lat="-21.19955" lon="55.43167">
        <ele>1252.3</ele>
        <time>2013-06-02T07:10:48Z</time>
      </trkpt>
      <trkpt lat="-21.19961" lon="55.43149">
        <ele>1254</ele>
        <time>2013-06-02T07:11:02Z</time>
      </trkpt>
      <trkpt lat="-21.19958" lon="55.43139">
        <ele>1256</ele>
        <time>2013-06-02T07:11:10Z</time>
      </trkpt>
      <trkpt lat="-21.19945" lon="55.43134">
        <ele>1259</ele>
        <time>2013-06-02T07:11:22Z</time>
      </trkpt>
      <trkpt lat="-21.19942" lon="55.4312">
        <ele>1261</ele>
        <time>2013-06-02T07:11:34Z</time>
      </trkpt>
      <trkpt lat="-21.1995" lon="55.43106">
        <ele>1262</ele>
        <time>2013-06-02T07:11:42Z</time>
      </trkpt>
      <trkpt lat="-21.19947" lon="55.43096">
        <ele>1263</ele>
        <time>2013-06-02T07:11:50Z</time>
      </trkpt>
      <trkpt lat="-21.19947" lon="55.43095">
        <ele>1263.8</ele>
        <time>2013-06-02T07:11:52Z</time>
      </trkpt>
      <trkpt lat="-21.19947" lon="55.43071">
        <ele>1263</ele>
        <time>2013-06-02T07:12:06Z</time>
      </trkpt>
      <trkpt lat="-21.19933" lon="55.43066">
        <ele>1263</ele>
        <time>2013-06-02T07:12:15Z</time>
      </trkpt>
      <trkpt lat="-21.19921" lon="55.43064">
        <ele>1264</ele>
        <time>2013-06-02T07:12:26Z</time>
      </trkpt>
      <trkpt lat="-21.19916" lon="55.43054">
        <ele>1265</ele>
        <time>2013-06-02T07:12:34Z</time>
      </trkpt>
      <trkpt lat="-21.19919" lon="55.43037">
        <ele>1264</ele>
        <time>2013-06-02T07:12:42Z</time>
      </trkpt>
      <trkpt lat="-21.19922" lon="55.43028">
        <ele>1265</ele>
        <time>2013-06-02T07:12:46Z</time>
      </trkpt>
      <trkpt lat="-21.19915" lon="55.43016">
        <ele>1266</ele>
        <time>2013-06-02T07:12:54Z</time>
      </trkpt>
      <trkpt lat="-21.19911" lon="55.43015">
        <ele>1267.6</ele>
        <time>2013-06-02T07:12:56Z</time>
      </trkpt>
      <trkpt lat="-21.19897" lon="55.43">
        <ele>1269.5</ele>
        <time>2013-06-02T07:13:12Z</time>
      </trkpt>
      <trkpt lat="-21.19896" lon="55.4299">
        <ele>1270</ele>
        <time>2013-06-02T07:13:23Z</time>
      </trkpt>
      <trkpt lat="-21.19881" lon="55.42987">
        <ele>1271</ele>
        <time>2013-06-02T07:13:35Z</time>
      </trkpt>
      <trkpt lat="-21.19867" lon="55.42981">
        <ele>1269</ele>
        <time>2013-06-02T07:13:43Z</time>
      </trkpt>
      <trkpt lat="-21.19857" lon="55.42975">
        <ele>1271</ele>
        <time>2013-06-02T07:13:53Z</time>
      </trkpt>
      <trkpt lat="-21.19864" lon="55.42957">
        <ele>1272</ele>
        <time>2013-06-02T07:14:03Z</time>
      </trkpt>
      <trkpt lat="-21.19863" lon="55.42955">
        <ele>1272.9</ele>
        <time>2013-06-02T07:14:07Z</time>
      </trkpt>
      <trkpt lat="-21.19844" lon="55.42954">
        <ele>1272</ele>
        <time>2013-06-02T07:14:21Z</time>
      </trkpt>
      <trkpt lat="-21.19829" lon="55.42952">
        <ele>1271</ele>
        <time>2013-06-02T07:14:30Z</time>
      </trkpt>
      <trkpt lat="-21.19821" lon="55.42946">
        <ele>1269.4</ele>
        <time>2013-06-02T07:14:40Z</time>
      </trkpt>
      <trkpt lat="-21.19813" lon="55.42943">
        <ele>1269.5</ele>
        <time>2013-06-02T07:14:45Z</time>
      </trkpt>
      <trkpt lat="-21.19809" lon="55.42935">
        <ele>1269.1</ele>
        <time>2013-06-02T07:14:51Z</time>
      </trkpt>
      <trkpt lat="-21.19804" lon="55.42927">
        <ele>1268.7</ele>
        <time>2013-06-02T07:14:55Z</time>
      </trkpt>
      <trkpt lat="-21.19795" lon="55.42919">
        <ele>1268</ele>
        <time>2013-06-02T07:15:03Z</time>
      </trkpt>
      <trkpt lat="-21.19791" lon="55.42911">
        <ele>1268.5</ele>
        <time>2013-06-02T07:15:09Z</time>
      </trkpt>
      <trkpt lat="-21.1979" lon="55.42911">
        <ele>1268.2</ele>
        <time>2013-06-02T07:15:10Z</time>
      </trkpt>
      <trkpt lat="-21.19794" lon="55.4291">
        <ele>1273.9</ele>
        <time>2013-06-02T07:15:49Z</time>
      </trkpt>
      <trkpt lat="-21.19789" lon="55.42903">
        <ele>1273.7</ele>
        <time>2013-06-02T07:15:55Z</time>
      </trkpt>
      <trkpt lat="-21.19787" lon="55.42894">
        <ele>1275.3</ele>
        <time>2013-06-02T07:16:02Z</time>
      </trkpt>
      <trkpt lat="-21.19781" lon="55.42888">
        <ele>1277.5</ele>
        <time>2013-06-02T07:16:11Z</time>
      </trkpt>
      <trkpt lat="-21.1978" lon="55.42888">
        <ele>1277.7</ele>
        <time>2013-06-02T07:16:12Z</time>
      </trkpt>
      <trkpt lat="-21.19767" lon="55.42877">
        <ele>1279.1</ele>
        <time>2013-06-02T07:16:25Z</time>
      </trkpt>
      <trkpt lat="-21.1976" lon="55.42882">
        <ele>1278.9</ele>
        <time>2013-06-02T07:16:51Z</time>
      </trkpt>
      <trkpt lat="-21.19764" lon="55.42876">
        <ele>1278.2</ele>
        <time>2013-06-02T07:17:07Z</time>
      </trkpt>
      <trkpt lat="-21.19771" lon="55.4287">
        <ele>1278</ele>
        <time>2013-06-02T07:17:11Z</time>
      </trkpt>
      <trkpt lat="-21.19778" lon="55.42866">
        <ele>1277.6</ele>
        <time>2013-06-02T07:17:14Z</time>
      </trkpt>
      <trkpt lat="-21.19782" lon="55.42865">
        <ele>1277.3</ele>
        <time>2013-06-02T07:17:15Z</time>
      </trkpt>
      <trkpt lat="-21.19792" lon="55.42861">
        <ele>1277</ele>
        <time>2013-06-02T07:17:19Z</time>
      </trkpt>
      <trkpt lat="-21.198" lon="55.42858">
        <ele>1276.5</ele>
        <time>2013-06-02T07:17:22Z</time>
      </trkpt>
      <trkpt lat="-21.19806" lon="55.42855">
        <ele>1276.3</ele>
        <time>2013-06-02T07:17:24Z</time>
      </trkpt>
      <trkpt lat="-21.19812" lon="55.42853">
        <ele>1275.6</ele>
        <time>2013-06-02T07:17:26Z</time>
      </trkpt>
      <trkpt lat="-21.19817" lon="55.4285">
        <ele>1275.8</ele>
        <time>2013-06-02T07:17:28Z</time>
      </trkpt>
      <trkpt lat="-21.19825" lon="55.42845">
        <ele>1274.8</ele>
        <time>2013-06-02T07:17:31Z</time>
      </trkpt>
      <trkpt lat="-21.19832" lon="55.42841">
        <ele>1274.4</ele>
        <time>2013-06-02T07:17:34Z</time>
      </trkpt>
      <trkpt lat="-21.19838" lon="55.42839">
        <ele>1274.8</ele>
        <time>2013-06-02T07:17:36Z</time>
      </trkpt>
      <trkpt lat="-21.19844" lon="55.42836">
        <ele>1273.6</ele>
        <time>2013-06-02T07:17:38Z</time>
      </trkpt>
      <trkpt lat="-21.1985" lon="55.42834">
        <ele>1273.3</ele>
        <time>2013-06-02T07:17:40Z</time>
      </trkpt>
      <trkpt lat="-21.19858" lon="55.42831">
        <ele>1272.4</ele>
        <time>2013-06-02T07:17:43Z</time>
      </trkpt>
      <trkpt lat="-21.19866" lon="55.42828">
        <ele>1272.2</ele>
        <time>2013-06-02T07:17:46Z</time>
      </trkpt>
      <trkpt lat="-21.19873" lon="55.42826">
        <ele>1271.2</ele>
        <time>2013-06-02T07:17:49Z</time>
      </trkpt>
      <trkpt lat="-21.19881" lon="55.42825">
        <ele>1271.1</ele>
        <time>2013-06-02T07:17:52Z</time>
      </trkpt>
      <trkpt lat="-21.19887" lon="55.42827">
        <ele>1270.5</ele>
        <time>2013-06-02T07:17:55Z</time>
      </trkpt>
      <trkpt lat="-21.19894" lon="55.42831">
        <ele>1269.7</ele>
        <time>2013-06-02T07:17:58Z</time>
      </trkpt>
      <trkpt lat="-21.199" lon="55.42836">
        <ele>1269.2</ele>
        <time>2013-06-02T07:18:01Z</time>
      </trkpt>
      <trkpt lat="-21.19906" lon="55.42842">
        <ele>1268.7</ele>
        <time>2013-06-02T07:18:04Z</time>
      </trkpt>
      <trkpt lat="-21.19911" lon="55.42848">
        <ele>1268.1</ele>
        <time>2013-06-02T07:18:07Z</time>
      </trkpt>
      <trkpt lat="-21.19919" lon="55.42851">
        <ele>1267.3</ele>
        <time>2013-06-02T07:18:10Z</time>
      </trkpt>
      <trkpt lat="-21.19927" lon="55.42851">
        <ele>1266.7</ele>
        <time>2013-06-02T07:18:13Z</time>
      </trkpt>
      <trkpt lat="-21.19935" lon="55.42848">
        <ele>1265.3</ele>
        <time>2013-06-02T07:18:16Z</time>
      </trkpt>
      <trkpt lat="-21.19938" lon="55.42847">
        <ele>1265.4</ele>
        <time>2013-06-02T07:18:17Z</time>
      </trkpt>
      <trkpt lat="-21.1995" lon="55.42845">
        <ele>1264.6</ele>
        <time>2013-06-02T07:18:22Z</time>
      </trkpt>
      <trkpt lat="-21.19957" lon="55.42843">
        <ele>1264.1</ele>
        <time>2013-06-02T07:18:25Z</time>
      </trkpt>
      <trkpt lat="-21.19964" lon="55.42839">
        <ele>1262.1</ele>
        <time>2013-06-02T07:18:28Z</time>
      </trkpt>
      <trkpt lat="-21.19972" lon="55.42835">
        <ele>1261.8</ele>
        <time>2013-06-02T07:18:32Z</time>
      </trkpt>
      <trkpt lat="-21.19978" lon="55.4283">
        <ele>1261.6</ele>
        <time>2013-06-02T07:18:35Z</time>
      </trkpt>
      <trkpt lat="-21.19985" lon="55.42825">
        <ele>1261.2</ele>
        <time>2013-06-02T07:18:38Z</time>
      </trkpt>
      <trkpt lat="-21.19991" lon="55.42821">
        <ele>1260.1</ele>
        <time>2013-06-02T07:18:41Z</time>
      </trkpt>
      <trkpt lat="-21.19998" lon="55.42815">
        <ele>1259.9</ele>
        <time>2013-06-02T07:18:44Z</time>
      </trkpt>
      <trkpt lat="-21.20005" lon="55.42809">
        <ele>1258.7</ele>
        <time>2013-06-02T07:18:47Z</time>
      </trkpt>
      <trkpt lat="-21.20012" lon="55.42804">
        <ele>1258.5</ele>
        <time>2013-06-02T07:18:50Z</time>
      </trkpt>
      <trkpt lat="-21.20018" lon="55.42799">
        <ele>1258.1</ele>
        <time>2013-06-02T07:18:53Z</time>
      </trkpt>
      <trkpt lat="-21.20023" lon="55.42792">
        <ele>1258.1</ele>
        <time>2013-06-02T07:18:56Z</time>
      </trkpt>
      <trkpt lat="-21.20025" lon="55.42784">
        <ele>1256.9</ele>
        <time>2013-06-02T07:18:59Z</time>
      </trkpt>
      <trkpt lat="-21.20025" lon="55.42776">
        <ele>1255.5</ele>
        <time>2013-06-02T07:19:02Z</time>
      </trkpt>
      <trkpt lat="-21.20025" lon="55.42769">
        <ele>1254.5</ele>
        <time>2013-06-02T07:19:05Z</time>
      </trkpt>
      <trkpt lat="-21.20025" lon="55.42761">
        <ele>1254.5</ele>
        <time>2013-06-02T07:19:08Z</time>
      </trkpt>
      <trkpt lat="-21.20023" lon="55.42751">
        <ele>1254.4</ele>
        <time>2013-06-02T07:19:12Z</time>
      </trkpt>
      <trkpt lat="-21.20016" lon="55.42748">
        <ele>1253.7</ele>
        <time>2013-06-02T07:19:15Z</time>
      </trkpt>
      <trkpt lat="-21.2001" lon="55.4275">
        <ele>1253.5</ele>
        <time>2013-06-02T07:19:18Z</time>
      </trkpt>
      <trkpt lat="-21.20007" lon="55.42751">
        <ele>1253.5</ele>
        <time>2013-06-02T07:19:19Z</time>
      </trkpt>
      <trkpt lat="-21.19996" lon="55.42751">
        <ele>1252.4</ele>
        <time>2013-06-02T07:19:24Z</time>
      </trkpt>
      <trkpt lat="-21.19991" lon="55.42746">
        <ele>1251.3</ele>
        <time>2013-06-02T07:19:27Z</time>
      </trkpt>
      <trkpt lat="-21.19988" lon="55.42739">
        <ele>1251</ele>
        <time>2013-06-02T07:19:30Z</time>
      </trkpt>
      <trkpt lat="-21.19986" lon="55.42731">
        <ele>1250.6</ele>
        <time>2013-06-02T07:19:33Z</time>
      </trkpt>
      <trkpt lat="-21.19983" lon="55.42724">
        <ele>1250.5</ele>
        <time>2013-06-02T07:19:36Z</time>
      </trkpt>
      <trkpt lat="-21.19977" lon="55.4272">
        <ele>1250.2</ele>
        <time>2013-06-02T07:19:39Z</time>
      </trkpt>
      <trkpt lat="-21.19969" lon="55.42717">
        <ele>1250.3</ele>
        <time>2013-06-02T07:19:42Z</time>
      </trkpt>
      <trkpt lat="-21.19963" lon="55.42714">
        <ele>1249.9</ele>
        <time>2013-06-02T07:19:45Z</time>
      </trkpt>
      <trkpt lat="-21.19954" lon="55.42712">
        <ele>1249.3</ele>
        <time>2013-06-02T07:19:49Z</time>
      </trkpt>
      <trkpt lat="-21.19947" lon="55.42711">
        <ele>1249.1</ele>
        <time>2013-06-02T07:19:52Z</time>
      </trkpt>
      <trkpt lat="-21.19939" lon="55.42713">
        <ele>1248.3</ele>
        <time>2013-06-02T07:19:55Z</time>
      </trkpt>
      <trkpt lat="-21.19933" lon="55.42717">
        <ele>1247.5</ele>
        <time>2013-06-02T07:19:58Z</time>
      </trkpt>
      <trkpt lat="-21.19926" lon="55.4272">
        <ele>1246.1</ele>
        <time>2013-06-02T07:20:02Z</time>
      </trkpt>
      <trkpt lat="-21.19918" lon="55.42718">
        <ele>1245.6</ele>
        <time>2013-06-02T07:20:09Z</time>
      </trkpt>
      <trkpt lat="-21.19918" lon="55.4271">
        <ele>1246.2</ele>
        <time>2013-06-02T07:20:14Z</time>
      </trkpt>
      <trkpt lat="-21.19916" lon="55.42702">
        <ele>1246.9</ele>
        <time>2013-06-02T07:20:19Z</time>
      </trkpt>
      <trkpt lat="-21.19912" lon="55.42694">
        <ele>1247.9</ele>
        <time>2013-06-02T07:20:25Z</time>
      </trkpt>
      <trkpt lat="-21.19911" lon="55.42692">
        <ele>1248</ele>
        <time>2013-06-02T07:20:26Z</time>
      </trkpt>
      <trkpt lat="-21.19913" lon="55.42682">
        <ele>1250</ele>
        <time>2013-06-02T07:20:37Z</time>
      </trkpt>
      <trkpt lat="-21.1992" lon="55.42676">
        <ele>1250.2</ele>
        <time>2013-06-02T07:20:43Z</time>
      </trkpt>
      <trkpt lat="-21.19927" lon="55.42671">
        <ele>1249.8</ele>
        <time>2013-06-02T07:20:50Z</time>
      </trkpt>
      <trkpt lat="-21.19934" lon="55.42667">
        <ele>1249.8</ele>
        <time>2013-06-02T07:20:55Z</time>
      </trkpt>
      <trkpt lat="-21.1994" lon="55.42662">
        <ele>1251</ele>
        <time>2013-06-02T07:21:00Z</time>
      </trkpt>
      <trkpt lat="-21.19946" lon="55.42655">
        <ele>1251.4</ele>
        <time>2013-06-02T07:21:05Z</time>
      </trkpt>
      <trkpt lat="-21.19952" lon="55.42648">
        <ele>1250.8</ele>
        <time>2013-06-02T07:21:09Z</time>
      </trkpt>
      <trkpt lat="-21.19956" lon="55.42643">
        <ele>1251.1</ele>
        <time>2013-06-02T07:21:12Z</time>
      </trkpt>
      <trkpt lat="-21.19962" lon="55.42637">
        <ele>1251.1</ele>
        <time>2013-06-02T07:21:15Z</time>
      </trkpt>
      <trkpt lat="-21.19967" lon="55.4263">
        <ele>1250.4</ele>
        <time>2013-06-02T07:21:18Z</time>
      </trkpt>
      <trkpt lat="-21.19974" lon="55.42624">
        <ele>1250</ele>
        <time>2013-06-02T07:21:21Z</time>
      </trkpt>
      <trkpt lat="-21.1998" lon="55.42619">
        <ele>1249.7</ele>
        <time>2013-06-02T07:21:24Z</time>
      </trkpt>
      <trkpt lat="-21.19987" lon="55.42615">
        <ele>1249.4</ele>
        <time>2013-06-02T07:21:27Z</time>
      </trkpt>
      <trkpt lat="-21.1999" lon="55.42615">
        <ele>1249.4</ele>
        <time>2013-06-02T07:21:28Z</time>
      </trkpt>
      <trkpt lat="-21.20003" lon="55.42612">
        <ele>1248.8</ele>
        <time>2013-06-02T07:21:33Z</time>
      </trkpt>
      <trkpt lat="-21.20011" lon="55.42611">
        <ele>1247.6</ele>
        <time>2013-06-02T07:21:36Z</time>
      </trkpt>
      <trkpt lat="-21.20017" lon="55.4261">
        <ele>1247.2</ele>
        <time>2013-06-02T07:21:39Z</time>
      </trkpt>
      <trkpt lat="-21.20024" lon="55.42608">
        <ele>1246.3</ele>
        <time>2013-06-02T07:21:42Z</time>
      </trkpt>
      <trkpt lat="-21.20032" lon="55.42606">
        <ele>1247</ele>
        <time>2013-06-02T07:21:45Z</time>
      </trkpt>
      <trkpt lat="-21.2004" lon="55.42605">
        <ele>1245.4</ele>
        <time>2013-06-02T07:21:48Z</time>
      </trkpt>
      <trkpt lat="-21.20049" lon="55.42604">
        <ele>1245.1</ele>
        <time>2013-06-02T07:21:51Z</time>
      </trkpt>
      <trkpt lat="-21.20056" lon="55.42603">
        <ele>1244.4</ele>
        <time>2013-06-02T07:21:54Z</time>
      </trkpt>
      <trkpt lat="-21.20064" lon="55.42603">
        <ele>1243.7</ele>
        <time>2013-06-02T07:21:57Z</time>
      </trkpt>
      <trkpt lat="-21.20071" lon="55.42603">
        <ele>1243.1</ele>
        <time>2013-06-02T07:22:00Z</time>
      </trkpt>
      <trkpt lat="-21.2008" lon="55.42604">
        <ele>1242.7</ele>
        <time>2013-06-02T07:22:04Z</time>
      </trkpt>
      <trkpt lat="-21.20087" lon="55.42606">
        <ele>1242.2</ele>
        <time>2013-06-02T07:22:07Z</time>
      </trkpt>
      <trkpt lat="-21.20094" lon="55.42609">
        <ele>1242.5</ele>
        <time>2013-06-02T07:22:10Z</time>
      </trkpt>
      <trkpt lat="-21.20102" lon="55.42612">
        <ele>1242.2</ele>
        <time>2013-06-02T07:22:13Z</time>
      </trkpt>
      <trkpt lat="-21.20109" lon="55.42615">
        <ele>1240.9</ele>
        <time>2013-06-02T07:22:16Z</time>
      </trkpt>
      <trkpt lat="-21.20116" lon="55.42617">
        <ele>1240.2</ele>
        <time>2013-06-02T07:22:19Z</time>
      </trkpt>
      <trkpt lat="-21.20123" lon="55.42618">
        <ele>1239.8</ele>
        <time>2013-06-02T07:22:22Z</time>
      </trkpt>
      <trkpt lat="-21.2013" lon="55.4262">
        <ele>1239.5</ele>
        <time>2013-06-02T07:22:25Z</time>
      </trkpt>
      <trkpt lat="-21.20139" lon="55.42622">
        <ele>1237.6</ele>
        <time>2013-06-02T07:22:29Z</time>
      </trkpt>
      <trkpt lat="-21.20141" lon="55.42622">
        <ele>1237.3</ele>
        <time>2013-06-02T07:22:30Z</time>
      </trkpt>
      <trkpt lat="-21.20153" lon="55.42625">
        <ele>1236.1</ele>
        <time>2013-06-02T07:22:35Z</time>
      </trkpt>
      <trkpt lat="-21.2016" lon="55.42627">
        <ele>1235.9</ele>
        <time>2013-06-02T07:22:38Z</time>
      </trkpt>
      <trkpt lat="-21.20169" lon="55.42628">
        <ele>1235.6</ele>
        <time>2013-06-02T07:22:42Z</time>
      </trkpt>
      <trkpt lat="-21.20176" lon="55.42628">
        <ele>1235.4</ele>
        <time>2013-06-02T07:22:45Z</time>
      </trkpt>
      <trkpt lat="-21.20183" lon="55.42628">
        <ele>1234.6</ele>
        <time>2013-06-02T07:22:48Z</time>
      </trkpt>
      <trkpt lat="-21.2019" lon="55.42629">
        <ele>1234.2</ele>
        <time>2013-06-02T07:22:51Z</time>
      </trkpt>
      <trkpt lat="-21.20199" lon="55.42629">
        <ele>1234.2</ele>
        <time>2013-06-02T07:22:55Z</time>
      </trkpt>
      <trkpt lat="-21.20203" lon="55.42622">
        <ele>1233.1</ele>
        <time>2013-06-02T07:22:59Z</time>
      </trkpt>
      <trkpt lat="-21.20206" lon="55.42613">
        <ele>1231.4</ele>
        <time>2013-06-02T07:23:03Z</time>
      </trkpt>
      <trkpt lat="-21.2021" lon="55.42608">
        <ele>1231.1</ele>
        <time>2013-06-02T07:23:06Z</time>
      </trkpt>
      <trkpt lat="-21.20218" lon="55.42604">
        <ele>1229.9</ele>
        <time>2013-06-02T07:23:10Z</time>
      </trkpt>
      <trkpt lat="-21.20226" lon="55.42599">
        <ele>1228.2</ele>
        <time>2013-06-02T07:23:15Z</time>
      </trkpt>
      <trkpt lat="-21.20218" lon="55.42595">
        <ele>1228.3</ele>
        <time>2013-06-02T07:23:20Z</time>
      </trkpt>
      <trkpt lat="-21.20211" lon="55.42597">
        <ele>1227.7</ele>
        <time>2013-06-02T07:23:23Z</time>
      </trkpt>
      <trkpt lat="-21.20205" lon="55.42601">
        <ele>1227.7</ele>
        <time>2013-06-02T07:23:26Z</time>
      </trkpt>
      <trkpt lat="-21.20197" lon="55.42604">
        <ele>1227.6</ele>
        <time>2013-06-02T07:23:29Z</time>
      </trkpt>
      <trkpt lat="-21.2019" lon="55.42607">
        <ele>1227.4</ele>
        <time>2013-06-02T07:23:32Z</time>
      </trkpt>
      <trkpt lat="-21.20188" lon="55.42608">
        <ele>1227.5</ele>
        <time>2013-06-02T07:23:33Z</time>
      </trkpt>
      <trkpt lat="-21.20176" lon="55.42609">
        <ele>1226.9</ele>
        <time>2013-06-02T07:23:38Z</time>
      </trkpt>
      <trkpt lat="-21.20169" lon="55.42605">
        <ele>1226</ele>
        <time>2013-06-02T07:23:42Z</time>
      </trkpt>
      <trkpt lat="-21.20166" lon="55.42599">
        <ele>1226.2</ele>
        <time>2013-06-02T07:23:45Z</time>
      </trkpt>
      <trkpt lat="-21.20161" lon="55.42591">
        <ele>1226.4</ele>
        <time>2013-06-02T07:23:49Z</time>
      </trkpt>
      <trkpt lat="-21.20159" lon="55.42583">
        <ele>1226.8</ele>
        <time>2013-06-02T07:23:52Z</time>
      </trkpt>
      <trkpt lat="-21.20157" lon="55.42575">
        <ele>1227</ele>
        <time>2013-06-02T07:23:55Z</time>
      </trkpt>
      <trkpt lat="-21.20155" lon="55.42568">
        <ele>1226.9</ele>
        <time>2013-06-02T07:23:58Z</time>
      </trkpt>
      <trkpt lat="-21.20154" lon="55.4256">
        <ele>1226.3</ele>
        <time>2013-06-02T07:24:01Z</time>
      </trkpt>
      <trkpt lat="-21.20152" lon="55.42553">
        <ele>1225.8</ele>
        <time>2013-06-02T07:24:04Z</time>
      </trkpt>
      <trkpt lat="-21.2015" lon="55.42545">
        <ele>1225.2</ele>
        <time>2013-06-02T07:24:07Z</time>
      </trkpt>
      <trkpt lat="-21.2015" lon="55.42538">
        <ele>1225.8</ele>
        <time>2013-06-02T07:24:10Z</time>
      </trkpt>
      <trkpt lat="-21.20149" lon="55.42531">
        <ele>1225.5</ele>
        <time>2013-06-02T07:24:13Z</time>
      </trkpt>
      <trkpt lat="-21.20148" lon="55.42523">
        <ele>1225.5</ele>
        <time>2013-06-02T07:24:16Z</time>
      </trkpt>
      <trkpt lat="-21.20147" lon="55.42516">
        <ele>1224.3</ele>
        <time>2013-06-02T07:24:19Z</time>
      </trkpt>
      <trkpt lat="-21.20146" lon="55.42509">
        <ele>1224.4</ele>
        <time>2013-06-02T07:24:22Z</time>
      </trkpt>
      <trkpt lat="-21.20144" lon="55.425">
        <ele>1224.7</ele>
        <time>2013-06-02T07:24:25Z</time>
      </trkpt>
      <trkpt lat="-21.20142" lon="55.42493">
        <ele>1224.3</ele>
        <time>2013-06-02T07:24:28Z</time>
      </trkpt>
      <trkpt lat="-21.20139" lon="55.42485">
        <ele>1224.4</ele>
        <time>2013-06-02T07:24:31Z</time>
      </trkpt>
      <trkpt lat="-21.20135" lon="55.42478">
        <ele>1223.4</ele>
        <time>2013-06-02T07:24:34Z</time>
      </trkpt>
      <trkpt lat="-21.20134" lon="55.42476">
        <ele>1223</ele>
        <time>2013-06-02T07:24:35Z</time>
      </trkpt>
      <trkpt lat="-21.20125" lon="55.42467">
        <ele>1222.1</ele>
        <time>2013-06-02T07:24:40Z</time>
      </trkpt>
      <trkpt lat="-21.20118" lon="55.42462">
        <ele>1221.6</ele>
        <time>2013-06-02T07:24:43Z</time>
      </trkpt>
      <trkpt lat="-21.20111" lon="55.42458">
        <ele>1220.8</ele>
        <time>2013-06-02T07:24:46Z</time>
      </trkpt>
      <trkpt lat="-21.20105" lon="55.42452">
        <ele>1219.7</ele>
        <time>2013-06-02T07:24:50Z</time>
      </trkpt>
      <trkpt lat="-21.20104" lon="55.42443">
        <ele>1219.5</ele>
        <time>2013-06-02T07:24:55Z</time>
      </trkpt>
      <trkpt lat="-21.20109" lon="55.42438">
        <ele>1218.8</ele>
        <time>2013-06-02T07:24:59Z</time>
      </trkpt>
      <trkpt lat="-21.20117" lon="55.42436">
        <ele>1217.9</ele>
        <time>2013-06-02T07:25:02Z</time>
      </trkpt>
      <trkpt lat="-21.20124" lon="55.42435">
        <ele>1217.5</ele>
        <time>2013-06-02T07:25:05Z</time>
      </trkpt>
      <trkpt lat="-21.20132" lon="55.42433">
        <ele>1217.1</ele>
        <time>2013-06-02T07:25:08Z</time>
      </trkpt>
      <trkpt lat="-21.2014" lon="55.4243">
        <ele>1216.6</ele>
        <time>2013-06-02T07:25:11Z</time>
      </trkpt>
      <trkpt lat="-21.20148" lon="55.42427">
        <ele>1215.9</ele>
        <time>2013-06-02T07:25:14Z</time>
      </trkpt>
      <trkpt lat="-21.20155" lon="55.42423">
        <ele>1215</ele>
        <time>2013-06-02T07:25:17Z</time>
      </trkpt>
      <trkpt lat="-21.20162" lon="55.42417">
        <ele>1215</ele>
        <time>2013-06-02T07:25:20Z</time>
      </trkpt>
      <trkpt lat="-21.20167" lon="55.42412">
        <ele>1214.1</ele>
        <time>2013-06-02T07:25:23Z</time>
      </trkpt>
      <trkpt lat="-21.20172" lon="55.42407">
        <ele>1213.6</ele>
        <time>2013-06-02T07:25:26Z</time>
      </trkpt>
      <trkpt lat="-21.20177" lon="55.42401">
        <ele>1212.8</ele>
        <time>2013-06-02T07:25:29Z</time>
      </trkpt>
      <trkpt lat="-21.20181" lon="55.42395">
        <ele>1212.2</ele>
        <time>2013-06-02T07:25:32Z</time>
      </trkpt>
      <trkpt lat="-21.20185" lon="55.42386">
        <ele>1211.4</ele>
        <time>2013-06-02T07:25:36Z</time>
      </trkpt>
      <trkpt lat="-21.20186" lon="55.42384">
        <ele>1211.1</ele>
        <time>2013-06-02T07:25:37Z</time>
      </trkpt>
      <trkpt lat="-21.20185" lon="55.4237">
        <ele>1210.4</ele>
        <time>2013-06-02T07:25:42Z</time>
      </trkpt>
      <trkpt lat="-21.20181" lon="55.42362">
        <ele>1209.7</ele>
        <time>2013-06-02T07:25:45Z</time>
      </trkpt>
      <trkpt lat="-21.20176" lon="55.42355">
        <ele>1209</ele>
        <time>2013-06-02T07:25:48Z</time>
      </trkpt>
      <trkpt lat="-21.20171" lon="55.42351">
        <ele>1208.3</ele>
        <time>2013-06-02T07:25:50Z</time>
      </trkpt>
      <trkpt lat="-21.20166" lon="55.42347">
        <ele>1207.6</ele>
        <time>2013-06-02T07:25:52Z</time>
      </trkpt>
      <trkpt lat="-21.2016" lon="55.42341">
        <ele>1206.6</ele>
        <time>2013-06-02T07:25:55Z</time>
      </trkpt>
      <trkpt lat="-21.20154" lon="55.42334">
        <ele>1206.3</ele>
        <time>2013-06-02T07:25:59Z</time>
      </trkpt>
      <trkpt lat="-21.20152" lon="55.42325">
        <ele>1205.8</ele>
        <time>2013-06-02T07:26:03Z</time>
      </trkpt>
      <trkpt lat="-21.20153" lon="55.42317">
        <ele>1205.4</ele>
        <time>2013-06-02T07:26:06Z</time>
      </trkpt>
      <trkpt lat="-21.20156" lon="55.42311">
        <ele>1204.7</ele>
        <time>2013-06-02T07:26:09Z</time>
      </trkpt>
      <trkpt lat="-21.2016" lon="55.42304">
        <ele>1204.5</ele>
        <time>2013-06-02T07:26:12Z</time>
      </trkpt>
      <trkpt lat="-21.20166" lon="55.42297">
        <ele>1203.4</ele>
        <time>2013-06-02T07:26:15Z</time>
      </trkpt>
      <trkpt lat="-21.20173" lon="55.42293">
        <ele>1202.4</ele>
        <time>2013-06-02T07:26:18Z</time>
      </trkpt>
      <trkpt lat="-21.20179" lon="55.42287">
        <ele>1201.5</ele>
        <time>2013-06-02T07:26:21Z</time>
      </trkpt>
      <trkpt lat="-21.20185" lon="55.42283">
        <ele>1200.8</ele>
        <time>2013-06-02T07:26:24Z</time>
      </trkpt>
      <trkpt lat="-21.20193" lon="55.42279">
        <ele>1200</ele>
        <time>2013-06-02T07:26:27Z</time>
      </trkpt>
      <trkpt lat="-21.202" lon="55.42277">
        <ele>1199.7</ele>
        <time>2013-06-02T07:26:30Z</time>
      </trkpt>
      <trkpt lat="-21.20207" lon="55.42273">
        <ele>1198.9</ele>
        <time>2013-06-02T07:26:33Z</time>
      </trkpt>
      <trkpt lat="-21.20213" lon="55.42267">
        <ele>1198.1</ele>
        <time>2013-06-02T07:26:36Z</time>
      </trkpt>
      <trkpt lat="-21.20217" lon="55.42261">
        <ele>1197.9</ele>
        <time>2013-06-02T07:26:39Z</time>
      </trkpt>
      <trkpt lat="-21.20218" lon="55.42259">
        <ele>1197.5</ele>
        <time>2013-06-02T07:26:40Z</time>
      </trkpt>
      <trkpt lat="-21.20223" lon="55.42245">
        <ele>1196.2</ele>
        <time>2013-06-02T07:26:46Z</time>
      </trkpt>
      <trkpt lat="-21.20222" lon="55.42238">
        <ele>1195.8</ele>
        <time>2013-06-02T07:26:49Z</time>
      </trkpt>
      <trkpt lat="-21.20221" lon="55.42229">
        <ele>1195.3</ele>
        <time>2013-06-02T07:26:53Z</time>
      </trkpt>
      <trkpt lat="-21.20219" lon="55.42223">
        <ele>1195.2</ele>
        <time>2013-06-02T07:26:56Z</time>
      </trkpt>
      <trkpt lat="-21.20215" lon="55.42215">
        <ele>1194.1</ele>
        <time>2013-06-02T07:26:59Z</time>
      </trkpt>
      <trkpt lat="-21.2021" lon="55.42208">
        <ele>1193.5</ele>
        <time>2013-06-02T07:27:02Z</time>
      </trkpt>
      <trkpt lat="-21.20204" lon="55.42202">
        <ele>1193.4</ele>
        <time>2013-06-02T07:27:05Z</time>
      </trkpt>
      <trkpt lat="-21.20198" lon="55.42199">
        <ele>1192.5</ele>
        <time>2013-06-02T07:27:08Z</time>
      </trkpt>
      <trkpt lat="-21.20191" lon="55.42195">
        <ele>1192.1</ele>
        <time>2013-06-02T07:27:11Z</time>
      </trkpt>
      <trkpt lat="-21.20184" lon="55.42192">
        <ele>1191.5</ele>
        <time>2013-06-02T07:27:14Z</time>
      </trkpt>
      <trkpt lat="-21.2018" lon="55.42184">
        <ele>1191.4</ele>
        <time>2013-06-02T07:27:18Z</time>
      </trkpt>
      <trkpt lat="-21.20184" lon="55.42176">
        <ele>1191.2</ele>
        <time>2013-06-02T07:27:22Z</time>
      </trkpt>
      <trkpt lat="-21.20191" lon="55.42171">
        <ele>1191</ele>
        <time>2013-06-02T07:27:26Z</time>
      </trkpt>
      <trkpt lat="-21.20197" lon="55.42166">
        <ele>1190.5</ele>
        <time>2013-06-02T07:27:29Z</time>
      </trkpt>
      <trkpt lat="-21.20202" lon="55.42161">
        <ele>1190.4</ele>
        <time>2013-06-02T07:27:32Z</time>
      </trkpt>
      <trkpt lat="-21.20209" lon="55.42157">
        <ele>1190.1</ele>
        <time>2013-06-02T07:27:35Z</time>
      </trkpt>
      <trkpt lat="-21.20214" lon="55.42152">
        <ele>1189.8</ele>
        <time>2013-06-02T07:27:38Z</time>
      </trkpt>
      <trkpt lat="-21.2022" lon="55.42148">
        <ele>1188.1</ele>
        <time>2013-06-02T07:27:41Z</time>
      </trkpt>
      <trkpt lat="-21.20222" lon="55.42146">
        <ele>1187.6</ele>
        <time>2013-06-02T07:27:42Z</time>
      </trkpt>
      <trkpt lat="-21.20228" lon="55.42133">
        <ele>1186.1</ele>
        <time>2013-06-02T07:27:48Z</time>
      </trkpt>
      <trkpt lat="-21.20228" lon="55.42125">
        <ele>1185.1</ele>
        <time>2013-06-02T07:27:51Z</time>
      </trkpt>
      <trkpt lat="-21.20226" lon="55.42117">
        <ele>1185.2</ele>
        <time>2013-06-02T07:27:55Z</time>
      </trkpt>
      <trkpt lat="-21.20227" lon="55.42108">
        <ele>1184.5</ele>
        <time>2013-06-02T07:27:59Z</time>
      </trkpt>
      <trkpt lat="-21.20225" lon="55.42099">
        <ele>1183.9</ele>
        <time>2013-06-02T07:28:04Z</time>
      </trkpt>
      <trkpt lat="-21.20223" lon="55.42091">
        <ele>1184.2</ele>
        <time>2013-06-02T07:28:09Z</time>
      </trkpt>
      <trkpt lat="-21.2022" lon="55.42082">
        <ele>1184.7</ele>
        <time>2013-06-02T07:28:14Z</time>
      </trkpt>
      <trkpt lat="-21.20214" lon="55.42076">
        <ele>1185.6</ele>
        <time>2013-06-02T07:28:18Z</time>
      </trkpt>
      <trkpt lat="-21.20207" lon="55.42074">
        <ele>1184.5</ele>
        <time>2013-06-02T07:28:22Z</time>
      </trkpt>
      <trkpt lat="-21.20199" lon="55.42072">
        <ele>1184.4</ele>
        <time>2013-06-02T07:28:26Z</time>
      </trkpt>
      <trkpt lat="-21.20191" lon="55.42075">
        <ele>1184.7</ele>
        <time>2013-06-02T07:28:31Z</time>
      </trkpt>
      <trkpt lat="-21.20183" lon="55.42079">
        <ele>1184.1</ele>
        <time>2013-06-02T07:28:36Z</time>
      </trkpt>
      <trkpt lat="-21.20177" lon="55.42082">
        <ele>1183.3</ele>
        <time>2013-06-02T07:28:39Z</time>
      </trkpt>
      <trkpt lat="-21.2017" lon="55.42086">
        <ele>1181.7</ele>
        <time>2013-06-02T07:28:43Z</time>
      </trkpt>
      <trkpt lat="-21.20168" lon="55.42086">
        <ele>1181.5</ele>
        <time>2013-06-02T07:28:44Z</time>
      </trkpt>
      <trkpt lat="-21.20168" lon="55.4207">
        <ele>1182.4</ele>
        <time>2013-06-02T07:28:54Z</time>
      </trkpt>
      <trkpt lat="-21.20167" lon="55.42062">
        <ele>1182.9</ele>
        <time>2013-06-02T07:28:58Z</time>
      </trkpt>
      <trkpt lat="-21.20164" lon="55.42054">
        <ele>1183.4</ele>
        <time>2013-06-02T07:29:02Z</time>
      </trkpt>
      <trkpt lat="-21.20159" lon="55.42047">
        <ele>1183.2</ele>
        <time>2013-06-02T07:29:06Z</time>
      </trkpt>
      <trkpt lat="-21.20153" lon="55.4204">
        <ele>1183.4</ele>
        <time>2013-06-02T07:29:10Z</time>
      </trkpt>
      <trkpt lat="-21.20149" lon="55.42034">
        <ele>1183.2</ele>
        <time>2013-06-02T07:29:14Z</time>
      </trkpt>
      <trkpt lat="-21.20145" lon="55.42027">
        <ele>1182.8</ele>
        <time>2013-06-02T07:29:19Z</time>
      </trkpt>
      <trkpt lat="-21.2014" lon="55.42019">
        <ele>1183.5</ele>
        <time>2013-06-02T07:29:25Z</time>
      </trkpt>
      <trkpt lat="-21.20136" lon="55.42012">
        <ele>1184.3</ele>
        <time>2013-06-02T07:29:31Z</time>
      </trkpt>
      <trkpt lat="-21.20133" lon="55.42003">
        <ele>1183.3</ele>
        <time>2013-06-02T07:29:37Z</time>
      </trkpt>
      <trkpt lat="-21.20132" lon="55.41994">
        <ele>1182.9</ele>
        <time>2013-06-02T07:29:42Z</time>
      </trkpt>
      <trkpt lat="-21.20136" lon="55.41987">
        <ele>1182.7</ele>
        <time>2013-06-02T07:29:46Z</time>
      </trkpt>
      <trkpt lat="-21.20137" lon="55.41985">
        <ele>1182.8</ele>
        <time>2013-06-02T07:29:47Z</time>
      </trkpt>
      <trkpt lat="-21.20144" lon="55.41971">
        <ele>1182.4</ele>
        <time>2013-06-02T07:29:54Z</time>
      </trkpt>
      <trkpt lat="-21.20147" lon="55.41964">
        <ele>1182.5</ele>
        <time>2013-06-02T07:29:58Z</time>
      </trkpt>
      <trkpt lat="-21.20154" lon="55.41959">
        <ele>1182.5</ele>
        <time>2013-06-02T07:30:03Z</time>
      </trkpt>
      <trkpt lat="-21.20161" lon="55.41957">
        <ele>1182.2</ele>
        <time>2013-06-02T07:30:07Z</time>
      </trkpt>
      <trkpt lat="-21.20169" lon="55.41955">
        <ele>1180.5</ele>
        <time>2013-06-02T07:30:11Z</time>
      </trkpt>
      <trkpt lat="-21.20176" lon="55.41952">
        <ele>1179.7</ele>
        <time>2013-06-02T07:30:16Z</time>
      </trkpt>
      <trkpt lat="-21.20184" lon="55.4195">
        <ele>1177.9</ele>
        <time>2013-06-02T07:30:20Z</time>
      </trkpt>
      <trkpt lat="-21.20192" lon="55.41949">
        <ele>1177</ele>
        <time>2013-06-02T07:30:24Z</time>
      </trkpt>
      <trkpt lat="-21.20201" lon="55.41947">
        <ele>1174.9</ele>
        <time>2013-06-02T07:30:29Z</time>
      </trkpt>
      <trkpt lat="-21.20209" lon="55.41947">
        <ele>1173.2</ele>
        <time>2013-06-02T07:30:34Z</time>
      </trkpt>
      <trkpt lat="-21.20218" lon="55.41948">
        <ele>1171.8</ele>
        <time>2013-06-02T07:30:38Z</time>
      </trkpt>
      <trkpt lat="-21.20226" lon="55.41948">
        <ele>1170.9</ele>
        <time>2013-06-02T07:30:42Z</time>
      </trkpt>
      <trkpt lat="-21.20235" lon="55.41945">
        <ele>1169.9</ele>
        <time>2013-06-02T07:30:46Z</time>
      </trkpt>
      <trkpt lat="-21.20241" lon="55.41941">
        <ele>1169.3</ele>
        <time>2013-06-02T07:30:49Z</time>
      </trkpt>
      <trkpt lat="-21.20243" lon="55.41939">
        <ele>1169</ele>
        <time>2013-06-02T07:30:50Z</time>
      </trkpt>
      <trkpt lat="-21.20249" lon="55.41928">
        <ele>1167.3</ele>
        <time>2013-06-02T07:30:55Z</time>
      </trkpt>
      <trkpt lat="-21.20251" lon="55.41919">
        <ele>1166.1</ele>
        <time>2013-06-02T07:30:59Z</time>
      </trkpt>
      <trkpt lat="-21.20256" lon="55.41912">
        <ele>1165.7</ele>
        <time>2013-06-02T07:31:03Z</time>
      </trkpt>
      <trkpt lat="-21.20263" lon="55.41908">
        <ele>1164.6</ele>
        <time>2013-06-02T07:31:07Z</time>
      </trkpt>
      <trkpt lat="-21.20268" lon="55.419">
        <ele>1163.5</ele>
        <time>2013-06-02T07:31:15Z</time>
      </trkpt>
      <trkpt lat="-21.20272" lon="55.41892">
        <ele>1161.8</ele>
        <time>2013-06-02T07:31:25Z</time>
      </trkpt>
      <trkpt lat="-21.20278" lon="55.41885">
        <ele>1161.3</ele>
        <time>2013-06-02T07:31:33Z</time>
      </trkpt>
      <trkpt lat="-21.20286" lon="55.4188">
        <ele>1158.7</ele>
        <time>2013-06-02T07:31:45Z</time>
      </trkpt>
      <trkpt lat="-21.20294" lon="55.41877">
        <ele>1157.6</ele>
        <time>2013-06-02T07:31:52Z</time>
      </trkpt>
      <trkpt lat="-21.20295" lon="55.41876">
        <ele>1157.8</ele>
        <time>2013-06-02T07:31:53Z</time>
      </trkpt>
      <trkpt lat="-21.20306" lon="55.41865">
        <ele>1155.3</ele>
        <time>2013-06-02T07:32:06Z</time>
      </trkpt>
      <trkpt lat="-21.20312" lon="55.41859">
        <ele>1154.1</ele>
        <time>2013-06-02T07:32:12Z</time>
      </trkpt>
      <trkpt lat="-21.20317" lon="55.41851">
        <ele>1152.8</ele>
        <time>2013-06-02T07:32:20Z</time>
      </trkpt>
      <trkpt lat="-21.20322" lon="55.41844">
        <ele>1151.5</ele>
        <time>2013-06-02T07:32:28Z</time>
      </trkpt>
      <trkpt lat="-21.20328" lon="55.41838">
        <ele>1149.7</ele>
        <time>2013-06-02T07:32:33Z</time>
      </trkpt>
      <trkpt lat="-21.20334" lon="55.41832">
        <ele>1147.6</ele>
        <time>2013-06-02T07:32:39Z</time>
      </trkpt>
      <trkpt lat="-21.20341" lon="55.41828">
        <ele>1146.5</ele>
        <time>2013-06-02T07:32:43Z</time>
      </trkpt>
      <trkpt lat="-21.20348" lon="55.41826">
        <ele>1144.9</ele>
        <time>2013-06-02T07:32:47Z</time>
      </trkpt>
      <trkpt lat="-21.20356" lon="55.41824">
        <ele>1143.9</ele>
        <time>2013-06-02T07:32:51Z</time>
      </trkpt>
      <trkpt lat="-21.20364" lon="55.41824">
        <ele>1142.9</ele>
        <time>2013-06-02T07:32:55Z</time>
      </trkpt>
      <trkpt lat="-21.20366" lon="55.41824">
        <ele>1142.3</ele>
        <time>2013-06-02T07:32:56Z</time>
      </trkpt>
      <trkpt lat="-21.20379" lon="55.41815">
        <ele>1140</ele>
        <time>2013-06-02T07:33:05Z</time>
      </trkpt>
      <trkpt lat="-21.20383" lon="55.41809">
        <ele>1138.6</ele>
        <time>2013-06-02T07:33:09Z</time>
      </trkpt>
      <trkpt lat="-21.2039" lon="55.41803">
        <ele>1136.9</ele>
        <time>2013-06-02T07:33:14Z</time>
      </trkpt>
      <trkpt lat="-21.20395" lon="55.41796">
        <ele>1135.3</ele>
        <time>2013-06-02T07:33:19Z</time>
      </trkpt>
      <trkpt lat="-21.20393" lon="55.41788">
        <ele>1133.8</ele>
        <time>2013-06-02T07:33:23Z</time>
      </trkpt>
      <trkpt lat="-21.20386" lon="55.41784">
        <ele>1132.5</ele>
        <time>2013-06-02T07:33:27Z</time>
      </trkpt>
      <trkpt lat="-21.20381" lon="55.41779">
        <ele>1131.3</ele>
        <time>2013-06-02T07:33:30Z</time>
      </trkpt>
      <trkpt lat="-21.20376" lon="55.41771">
        <ele>1131</ele>
        <time>2013-06-02T07:33:35Z</time>
      </trkpt>
      <trkpt lat="-21.20372" lon="55.41764">
        <ele>1131.7</ele>
        <time>2013-06-02T07:33:40Z</time>
      </trkpt>
      <trkpt lat="-21.20368" lon="55.41756">
        <ele>1130.7</ele>
        <time>2013-06-02T07:33:46Z</time>
      </trkpt>
      <trkpt lat="-21.20362" lon="55.41749">
        <ele>1132.6</ele>
        <time>2013-06-02T07:33:52Z</time>
      </trkpt>
      <trkpt lat="-21.20358" lon="55.41741">
        <ele>1133.9</ele>
        <time>2013-06-02T07:34:00Z</time>
      </trkpt>
      <trkpt lat="-21.20359" lon="55.4174">
        <ele>1134.2</ele>
        <time>2013-06-02T07:34:01Z</time>
      </trkpt>
      <trkpt lat="-21.20368" lon="55.41725">
        <ele>1132.8</ele>
        <time>2013-06-02T07:34:10Z</time>
      </trkpt>
      <trkpt lat="-21.20372" lon="55.41718">
        <ele>1131.7</ele>
        <time>2013-06-02T07:34:14Z</time>
      </trkpt>
      <trkpt lat="-21.20375" lon="55.41711">
        <ele>1130.9</ele>
        <time>2013-06-02T07:34:18Z</time>
      </trkpt>
      <trkpt lat="-21.20379" lon="55.41703">
        <ele>1129.7</ele>
        <time>2013-06-02T07:34:23Z</time>
      </trkpt>
      <trkpt lat="-21.20383" lon="55.41697">
        <ele>1128.4</ele>
        <time>2013-06-02T07:34:29Z</time>
      </trkpt>
      <trkpt lat="-21.20388" lon="55.4169">
        <ele>1126.4</ele>
        <time>2013-06-02T07:34:34Z</time>
      </trkpt>
      <trkpt lat="-21.20391" lon="55.41682">
        <ele>1124.9</ele>
        <time>2013-06-02T07:34:39Z</time>
      </trkpt>
      <trkpt lat="-21.20397" lon="55.41676">
        <ele>1123</ele>
        <time>2013-06-02T07:34:44Z</time>
      </trkpt>
      <trkpt lat="-21.204" lon="55.41668">
        <ele>1121.9</ele>
        <time>2013-06-02T07:34:49Z</time>
      </trkpt>
      <trkpt lat="-21.204" lon="55.41659">
        <ele>1120.9</ele>
        <time>2013-06-02T07:34:53Z</time>
      </trkpt>
      <trkpt lat="-21.20399" lon="55.41651">
        <ele>1120.1</ele>
        <time>2013-06-02T07:34:56Z</time>
      </trkpt>
      <trkpt lat="-21.20397" lon="55.41643">
        <ele>1119.8</ele>
        <time>2013-06-02T07:34:59Z</time>
      </trkpt>
      <trkpt lat="-21.20393" lon="55.41635">
        <ele>1119.8</ele>
        <time>2013-06-02T07:35:03Z</time>
      </trkpt>
      <trkpt lat="-21.20393" lon="55.41633">
        <ele>1119.6</ele>
        <time>2013-06-02T07:35:04Z</time>
      </trkpt>
      <trkpt lat="-21.20386" lon="55.41619">
        <ele>1118.9</ele>
        <time>2013-06-02T07:35:11Z</time>
      </trkpt>
      <trkpt lat="-21.20381" lon="55.41611">
        <ele>1117.8</ele>
        <time>2013-06-02T07:35:16Z</time>
      </trkpt>
      <trkpt lat="-21.20377" lon="55.41604">
        <ele>1117</ele>
        <time>2013-06-02T07:35:20Z</time>
      </trkpt>
      <trkpt lat="-21.20373" lon="55.41598">
        <ele>1116.1</ele>
        <time>2013-06-02T07:35:23Z</time>
      </trkpt>
      <trkpt lat="-21.20371" lon="55.41589">
        <ele>1114.6</ele>
        <time>2013-06-02T07:35:27Z</time>
      </trkpt>
      <trkpt lat="-21.20375" lon="55.41581">
        <ele>1113.9</ele>
        <time>2013-06-02T07:35:33Z</time>
      </trkpt>
      <trkpt lat="-21.20381" lon="55.41574">
        <ele>1114.7</ele>
        <time>2013-06-02T07:35:40Z</time>
      </trkpt>
      <trkpt lat="-21.20384" lon="55.41566">
        <ele>1115.4</ele>
        <time>2013-06-02T07:35:45Z</time>
      </trkpt>
      <trkpt lat="-21.2038" lon="55.41558">
        <ele>1115.1</ele>
        <time>2013-06-02T07:35:49Z</time>
      </trkpt>
      <trkpt lat="-21.20375" lon="55.41552">
        <ele>1115.3</ele>
        <time>2013-06-02T07:35:53Z</time>
      </trkpt>
      <trkpt lat="-21.2037" lon="55.41546">
        <ele>1114.6</ele>
        <time>2013-06-02T07:35:56Z</time>
      </trkpt>
      <trkpt lat="-21.20367" lon="55.41539">
        <ele>1113.9</ele>
        <time>2013-06-02T07:35:59Z</time>
      </trkpt>
      <trkpt lat="-21.20364" lon="55.41532">
        <ele>1113.5</ele>
        <time>2013-06-02T07:36:02Z</time>
      </trkpt>
      <trkpt lat="-21.20361" lon="55.41525">
        <ele>1112.7</ele>
        <time>2013-06-02T07:36:05Z</time>
      </trkpt>
      <trkpt lat="-21.2036" lon="55.41523">
        <ele>1112.5</ele>
        <time>2013-06-02T07:36:06Z</time>
      </trkpt>
      <trkpt lat="-21.20356" lon="55.4151">
        <ele>1111.1</ele>
        <time>2013-06-02T07:36:11Z</time>
      </trkpt>
      <trkpt lat="-21.20357" lon="55.41503">
        <ele>1110.5</ele>
        <time>2013-06-02T07:36:14Z</time>
      </trkpt>
      <trkpt lat="-21.2036" lon="55.41495">
        <ele>1109.3</ele>
        <time>2013-06-02T07:36:17Z</time>
      </trkpt>
      <trkpt lat="-21.20363" lon="55.41487">
        <ele>1107.8</ele>
        <time>2013-06-02T07:36:21Z</time>
      </trkpt>
      <trkpt lat="-21.20367" lon="55.41479">
        <ele>1106.6</ele>
        <time>2013-06-02T07:36:25Z</time>
      </trkpt>
      <trkpt lat="-21.20371" lon="55.41473">
        <ele>1105.5</ele>
        <time>2013-06-02T07:36:29Z</time>
      </trkpt>
      <trkpt lat="-21.20375" lon="55.41467">
        <ele>1104.1</ele>
        <time>2013-06-02T07:36:33Z</time>
      </trkpt>
      <trkpt lat="-21.20381" lon="55.41459">
        <ele>1102</ele>
        <time>2013-06-02T07:36:37Z</time>
      </trkpt>
      <trkpt lat="-21.20385" lon="55.41451">
        <ele>1100.9</ele>
        <time>2013-06-02T07:36:41Z</time>
      </trkpt>
      <trkpt lat="-21.20389" lon="55.41444">
        <ele>1099.9</ele>
        <time>2013-06-02T07:36:44Z</time>
      </trkpt>
      <trkpt lat="-21.20392" lon="55.41437">
        <ele>1099.3</ele>
        <time>2013-06-02T07:36:47Z</time>
      </trkpt>
      <trkpt lat="-21.20396" lon="55.41429">
        <ele>1097.7</ele>
        <time>2013-06-02T07:36:51Z</time>
      </trkpt>
      <trkpt lat="-21.204" lon="55.41423">
        <ele>1096.2</ele>
        <time>2013-06-02T07:36:54Z</time>
      </trkpt>
      <trkpt lat="-21.20406" lon="55.41419">
        <ele>1095.1</ele>
        <time>2013-06-02T07:36:57Z</time>
      </trkpt>
      <trkpt lat="-21.20413" lon="55.41416">
        <ele>1093.5</ele>
        <time>2013-06-02T07:37:01Z</time>
      </trkpt>
      <trkpt lat="-21.20421" lon="55.41415">
        <ele>1092.5</ele>
        <time>2013-06-02T07:37:04Z</time>
      </trkpt>
      <trkpt lat="-21.20428" lon="55.41412">
        <ele>1091.2</ele>
        <time>2013-06-02T07:37:07Z</time>
      </trkpt>
      <trkpt lat="-21.2043" lon="55.41411">
        <ele>1090.9</ele>
        <time>2013-06-02T07:37:08Z</time>
      </trkpt>
      <trkpt lat="-21.20436" lon="55.414">
        <ele>1088</ele>
        <time>2013-06-02T07:37:14Z</time>
      </trkpt>
      <trkpt lat="-21.20433" lon="55.41392">
        <ele>1087.4</ele>
        <time>2013-06-02T07:37:17Z</time>
      </trkpt>
      <trkpt lat="-21.20428" lon="55.41387">
        <ele>1087</ele>
        <time>2013-06-02T07:37:19Z</time>
      </trkpt>
      <trkpt lat="-21.20421" lon="55.41383">
        <ele>1085.2</ele>
        <time>2013-06-02T07:37:22Z</time>
      </trkpt>
      <trkpt lat="-21.20414" lon="55.41378">
        <ele>1084.9</ele>
        <time>2013-06-02T07:37:25Z</time>
      </trkpt>
      <trkpt lat="-21.20408" lon="55.41372">
        <ele>1084.3</ele>
        <time>2013-06-02T07:37:28Z</time>
      </trkpt>
      <trkpt lat="-21.20403" lon="55.41365">
        <ele>1083.3</ele>
        <time>2013-06-02T07:37:31Z</time>
      </trkpt>
      <trkpt lat="-21.204" lon="55.41359">
        <ele>1082.9</ele>
        <time>2013-06-02T07:37:34Z</time>
      </trkpt>
      <trkpt lat="-21.20397" lon="55.41352">
        <ele>1080.9</ele>
        <time>2013-06-02T07:37:37Z</time>
      </trkpt>
      <trkpt lat="-21.20394" lon="55.41343">
        <ele>1078.2</ele>
        <time>2013-06-02T07:37:41Z</time>
      </trkpt>
      <trkpt lat="-21.20398" lon="55.41337">
        <ele>1077.1</ele>
        <time>2013-06-02T07:37:45Z</time>
      </trkpt>
      <trkpt lat="-21.20405" lon="55.41334">
        <ele>1076.3</ele>
        <time>2013-06-02T07:37:48Z</time>
      </trkpt>
      <trkpt lat="-21.20411" lon="55.41334">
        <ele>1074.8</ele>
        <time>2013-06-02T07:37:51Z</time>
      </trkpt>
      <trkpt lat="-21.20418" lon="55.41336">
        <ele>1074.2</ele>
        <time>2013-06-02T07:37:54Z</time>
      </trkpt>
      <trkpt lat="-21.20427" lon="55.41338">
        <ele>1071.8</ele>
        <time>2013-06-02T07:37:58Z</time>
      </trkpt>
      <trkpt lat="-21.20436" lon="55.41337">
        <ele>1070.9</ele>
        <time>2013-06-02T07:38:02Z</time>
      </trkpt>
      <trkpt lat="-21.20441" lon="55.41329">
        <ele>1069</ele>
        <time>2013-06-02T07:38:07Z</time>
      </trkpt>
      <trkpt lat="-21.20439" lon="55.41322">
        <ele>1067.7</ele>
        <time>2013-06-02T07:38:11Z</time>
      </trkpt>
      <trkpt lat="-21.20438" lon="55.4132">
        <ele>1067.4</ele>
        <time>2013-06-02T07:38:12Z</time>
      </trkpt>
      <trkpt lat="-21.20431" lon="55.41307">
        <ele>1063.8</ele>
        <time>2013-06-02T07:38:20Z</time>
      </trkpt>
      <trkpt lat="-21.20436" lon="55.413">
        <ele>1062.1</ele>
        <time>2013-06-02T07:38:25Z</time>
      </trkpt>
      <trkpt lat="-21.20443" lon="55.413">
        <ele>1060.1</ele>
        <time>2013-06-02T07:38:28Z</time>
      </trkpt>
      <trkpt lat="-21.20451" lon="55.41303">
        <ele>1058.5</ele>
        <time>2013-06-02T07:38:32Z</time>
      </trkpt>
      <trkpt lat="-21.2046" lon="55.41307">
        <ele>1057.4</ele>
        <time>2013-06-02T07:38:37Z</time>
      </trkpt>
      <trkpt lat="-21.20467" lon="55.41307">
        <ele>1055.6</ele>
        <time>2013-06-02T07:38:41Z</time>
      </trkpt>
      <trkpt lat="-21.20476" lon="55.41304">
        <ele>1053.4</ele>
        <time>2013-06-02T07:38:46Z</time>
      </trkpt>
      <trkpt lat="-21.20483" lon="55.41299">
        <ele>1051.8</ele>
        <time>2013-06-02T07:38:51Z</time>
      </trkpt>
      <trkpt lat="-21.20489" lon="55.41294">
        <ele>1049.4</ele>
        <time>2013-06-02T07:38:55Z</time>
      </trkpt>
      <trkpt lat="-21.20496" lon="55.41289">
        <ele>1046.9</ele>
        <time>2013-06-02T07:38:59Z</time>
      </trkpt>
      <trkpt lat="-21.20502" lon="55.41284">
        <ele>1045.6</ele>
        <time>2013-06-02T07:39:02Z</time>
      </trkpt>
      <trkpt lat="-21.20508" lon="55.4128">
        <ele>1044.7</ele>
        <time>2013-06-02T07:39:05Z</time>
      </trkpt>
      <trkpt lat="-21.20514" lon="55.41276">
        <ele>1043.7</ele>
        <time>2013-06-02T07:39:08Z</time>
      </trkpt>
      <trkpt lat="-21.20521" lon="55.4127">
        <ele>1042.2</ele>
        <time>2013-06-02T07:39:12Z</time>
      </trkpt>
      <trkpt lat="-21.20523" lon="55.41268">
        <ele>1042</ele>
        <time>2013-06-02T07:39:13Z</time>
      </trkpt>
      <trkpt lat="-21.20533" lon="55.41257">
        <ele>1039.6</ele>
        <time>2013-06-02T07:39:18Z</time>
      </trkpt>
      <trkpt lat="-21.20539" lon="55.41253">
        <ele>1038.3</ele>
        <time>2013-06-02T07:39:21Z</time>
      </trkpt>
      <trkpt lat="-21.20544" lon="55.41247">
        <ele>1037.4</ele>
        <time>2013-06-02T07:39:24Z</time>
      </trkpt>
      <trkpt lat="-21.2055" lon="55.41242">
        <ele>1036.2</ele>
        <time>2013-06-02T07:39:27Z</time>
      </trkpt>
      <trkpt lat="-21.20556" lon="55.41238">
        <ele>1035.3</ele>
        <time>2013-06-02T07:39:30Z</time>
      </trkpt>
      <trkpt lat="-21.20562" lon="55.4123">
        <ele>1033.2</ele>
        <time>2013-06-02T07:39:34Z</time>
      </trkpt>
      <trkpt lat="-21.20567" lon="55.41225">
        <ele>1032.6</ele>
        <time>2013-06-02T07:39:37Z</time>
      </trkpt>
      <trkpt lat="-21.20572" lon="55.4122">
        <ele>1030.6</ele>
        <time>2013-06-02T07:39:40Z</time>
      </trkpt>
      <trkpt lat="-21.20577" lon="55.41215">
        <ele>1029.8</ele>
        <time>2013-06-02T07:39:43Z</time>
      </trkpt>
      <trkpt lat="-21.20582" lon="55.41209">
        <ele>1028.5</ele>
        <time>2013-06-02T07:39:46Z</time>
      </trkpt>
      <trkpt lat="-21.20587" lon="55.41205">
        <ele>1027.3</ele>
        <time>2013-06-02T07:39:49Z</time>
      </trkpt>
      <trkpt lat="-21.20592" lon="55.41199">
        <ele>1026.1</ele>
        <time>2013-06-02T07:39:52Z</time>
      </trkpt>
      <trkpt lat="-21.20597" lon="55.41194">
        <ele>1025.7</ele>
        <time>2013-06-02T07:39:55Z</time>
      </trkpt>
      <trkpt lat="-21.20602" lon="55.41189">
        <ele>1024.1</ele>
        <time>2013-06-02T07:39:58Z</time>
      </trkpt>
      <trkpt lat="-21.20607" lon="55.41184">
        <ele>1023.3</ele>
        <time>2013-06-02T07:40:01Z</time>
      </trkpt>
      <trkpt lat="-21.20614" lon="55.41179">
        <ele>1021.6</ele>
        <time>2013-06-02T07:40:05Z</time>
      </trkpt>
      <trkpt lat="-21.20621" lon="55.41174">
        <ele>1020</ele>
        <time>2013-06-02T07:40:09Z</time>
      </trkpt>
      <trkpt lat="-21.20627" lon="55.41168">
        <ele>1018.4</ele>
        <time>2013-06-02T07:40:13Z</time>
      </trkpt>
      <trkpt lat="-21.20633" lon="55.41161">
        <ele>1016.9</ele>
        <time>2013-06-02T07:40:17Z</time>
      </trkpt>
      <trkpt lat="-21.20633" lon="55.41159">
        <ele>1016.5</ele>
        <time>2013-06-02T07:40:18Z</time>
      </trkpt>
      <trkpt lat="-21.2063" lon="55.41144">
        <ele>1013.6</ele>
        <time>2013-06-02T07:40:24Z</time>
      </trkpt>
      <trkpt lat="-21.20628" lon="55.41136">
        <ele>1012.3</ele>
        <time>2013-06-02T07:40:27Z</time>
      </trkpt>
      <trkpt lat="-21.20624" lon="55.41127">
        <ele>1010.5</ele>
        <time>2013-06-02T07:40:31Z</time>
      </trkpt>
      <trkpt lat="-21.20621" lon="55.41121">
        <ele>1009.4</ele>
        <time>2013-06-02T07:40:33Z</time>
      </trkpt>
      <trkpt lat="-21.20618" lon="55.41115">
        <ele>1008.9</ele>
        <time>2013-06-02T07:40:35Z</time>
      </trkpt>
      <trkpt lat="-21.20615" lon="55.41107">
        <ele>1007.7</ele>
        <time>2013-06-02T07:40:38Z</time>
      </trkpt>
      <trkpt lat="-21.20611" lon="55.411">
        <ele>1006.4</ele>
        <time>2013-06-02T07:40:41Z</time>
      </trkpt>
      <trkpt lat="-21.20607" lon="55.41095">
        <ele>1006.1</ele>
        <time>2013-06-02T07:40:43Z</time>
      </trkpt>
      <trkpt lat="-21.20602" lon="55.41088">
        <ele>1005.2</ele>
        <time>2013-06-02T07:40:46Z</time>
      </trkpt>
      <trkpt lat="-21.206" lon="55.41082">
        <ele>1003.9</ele>
        <time>2013-06-02T07:40:49Z</time>
      </trkpt>
      <trkpt lat="-21.20597" lon="55.41074">
        <ele>1003.2</ele>
        <time>2013-06-02T07:40:52Z</time>
      </trkpt>
      <trkpt lat="-21.20594" lon="55.41067">
        <ele>1001.9</ele>
        <time>2013-06-02T07:40:55Z</time>
      </trkpt>
      <trkpt lat="-21.2059" lon="55.4106">
        <ele>1000.6</ele>
        <time>2013-06-02T07:40:58Z</time>
      </trkpt>
      <trkpt lat="-21.20585" lon="55.41053">
        <ele>1000.1</ele>
        <time>2013-06-02T07:41:01Z</time>
      </trkpt>
      <trkpt lat="-21.20582" lon="55.41046">
        <ele>998.7</ele>
        <time>2013-06-02T07:41:04Z</time>
      </trkpt>
      <trkpt lat="-21.20578" lon="55.41039">
        <ele>998.1</ele>
        <time>2013-06-02T07:41:07Z</time>
      </trkpt>
      <trkpt lat="-21.20575" lon="55.41031">
        <ele>997.1</ele>
        <time>2013-06-02T07:41:10Z</time>
      </trkpt>
      <trkpt lat="-21.20571" lon="55.41023">
        <ele>995.9</ele>
        <time>2013-06-02T07:41:14Z</time>
      </trkpt>
      <trkpt lat="-21.20568" lon="55.41015">
        <ele>996.3</ele>
        <time>2013-06-02T07:41:21Z</time>
      </trkpt>
      <trkpt lat="-21.20567" lon="55.41014">
        <ele>996.2</ele>
        <time>2013-06-02T07:41:22Z</time>
      </trkpt>
      <trkpt lat="-21.20562" lon="55.41001">
        <ele>997.6</ele>
        <time>2013-06-02T07:41:32Z</time>
      </trkpt>
      <trkpt lat="-21.20559" lon="55.40993">
        <ele>995.8</ele>
        <time>2013-06-02T07:41:36Z</time>
      </trkpt>
      <trkpt lat="-21.20555" lon="55.40984">
        <ele>995.1</ele>
        <time>2013-06-02T07:41:40Z</time>
      </trkpt>
      <trkpt lat="-21.20552" lon="55.40977">
        <ele>994.7</ele>
        <time>2013-06-02T07:41:46Z</time>
      </trkpt>
      <trkpt lat="-21.20548" lon="55.40969">
        <ele>993</ele>
        <time>2013-06-02T07:41:51Z</time>
      </trkpt>
      <trkpt lat="-21.20544" lon="55.40962">
        <ele>991.7</ele>
        <time>2013-06-02T07:41:55Z</time>
      </trkpt>
      <trkpt lat="-21.20541" lon="55.40954">
        <ele>990.5</ele>
        <time>2013-06-02T07:41:59Z</time>
      </trkpt>
      <trkpt lat="-21.20537" lon="55.40946">
        <ele>988</ele>
        <time>2013-06-02T07:42:05Z</time>
      </trkpt>
      <trkpt lat="-21.2053" lon="55.40941">
        <ele>985.7</ele>
        <time>2013-06-02T07:42:14Z</time>
      </trkpt>
      <trkpt lat="-21.2053" lon="55.40933">
        <ele>984.5</ele>
        <time>2013-06-02T07:42:18Z</time>
      </trkpt>
      <trkpt lat="-21.20532" lon="55.40924">
        <ele>983</ele>
        <time>2013-06-02T07:42:23Z</time>
      </trkpt>
      <trkpt lat="-21.20533" lon="55.40922">
        <ele>983</ele>
        <time>2013-06-02T07:42:24Z</time>
      </trkpt>
      <trkpt lat="-21.20531" lon="55.40908">
        <ele>980.5</ele>
        <time>2013-06-02T07:42:31Z</time>
      </trkpt>
      <trkpt lat="-21.20526" lon="55.40899">
        <ele>979.6</ele>
        <time>2013-06-02T07:42:34Z</time>
      </trkpt>
      <trkpt lat="-21.20522" lon="55.40891">
        <ele>979.1</ele>
        <time>2013-06-02T07:42:37Z</time>
      </trkpt>
      <trkpt lat="-21.20519" lon="55.40884">
        <ele>978.3</ele>
        <time>2013-06-02T07:42:40Z</time>
      </trkpt>
      <trkpt lat="-21.20516" lon="55.40877">
        <ele>977.7</ele>
        <time>2013-06-02T07:42:43Z</time>
      </trkpt>
      <trkpt lat="-21.2051" lon="55.40871">
        <ele>976.3</ele>
        <time>2013-06-02T07:42:47Z</time>
      </trkpt>
      <trkpt lat="-21.20514" lon="55.40864">
        <ele>974.8</ele>
        <time>2013-06-02T07:42:51Z</time>
      </trkpt>
      <trkpt lat="-21.20521" lon="55.4086">
        <ele>974.2</ele>
        <time>2013-06-02T07:42:54Z</time>
      </trkpt>
      <trkpt lat="-21.20528" lon="55.40856">
        <ele>972.8</ele>
        <time>2013-06-02T07:42:57Z</time>
      </trkpt>
      <trkpt lat="-21.20536" lon="55.40852">
        <ele>972.5</ele>
        <time>2013-06-02T07:43:00Z</time>
      </trkpt>
      <trkpt lat="-21.20543" lon="55.40849">
        <ele>971.9</ele>
        <time>2013-06-02T07:43:03Z</time>
      </trkpt>
      <trkpt lat="-21.20551" lon="55.40846">
        <ele>972</ele>
        <time>2013-06-02T07:43:06Z</time>
      </trkpt>
      <trkpt lat="-21.20558" lon="55.40844">
        <ele>971</ele>
        <time>2013-06-02T07:43:09Z</time>
      </trkpt>
      <trkpt lat="-21.20565" lon="55.40841">
        <ele>969.6</ele>
        <time>2013-06-02T07:43:12Z</time>
      </trkpt>
      <trkpt lat="-21.20571" lon="55.40838">
        <ele>968.2</ele>
        <time>2013-06-02T07:43:15Z</time>
      </trkpt>
      <trkpt lat="-21.20578" lon="55.40836">
        <ele>966.9</ele>
        <time>2013-06-02T07:43:18Z</time>
      </trkpt>
      <trkpt lat="-21.20585" lon="55.40833">
        <ele>966.2</ele>
        <time>2013-06-02T07:43:21Z</time>
      </trkpt>
      <trkpt lat="-21.20591" lon="55.4083">
        <ele>965.2</ele>
        <time>2013-06-02T07:43:24Z</time>
      </trkpt>
      <trkpt lat="-21.20593" lon="55.40828">
        <ele>964.8</ele>
        <time>2013-06-02T07:43:25Z</time>
      </trkpt>
      <trkpt lat="-21.20603" lon="55.40823">
        <ele>962.5</ele>
        <time>2013-06-02T07:43:30Z</time>
      </trkpt>
      <trkpt lat="-21.2061" lon="55.4082">
        <ele>962</ele>
        <time>2013-06-02T07:43:33Z</time>
      </trkpt>
      <trkpt lat="-21.20616" lon="55.40818">
        <ele>960.8</ele>
        <time>2013-06-02T07:43:36Z</time>
      </trkpt>
      <trkpt lat="-21.20623" lon="55.40814">
        <ele>959.8</ele>
        <time>2013-06-02T07:43:39Z</time>
      </trkpt>
      <trkpt lat="-21.2063" lon="55.40811">
        <ele>958.2</ele>
        <time>2013-06-02T07:43:42Z</time>
      </trkpt>
      <trkpt lat="-21.20637" lon="55.40807">
        <ele>956.9</ele>
        <time>2013-06-02T07:43:46Z</time>
      </trkpt>
      <trkpt lat="-21.20644" lon="55.40804">
        <ele>954.9</ele>
        <time>2013-06-02T07:43:50Z</time>
      </trkpt>
      <trkpt lat="-21.20652" lon="55.408">
        <ele>952.9</ele>
        <time>2013-06-02T07:43:54Z</time>
      </trkpt>
      <trkpt lat="-21.20659" lon="55.40797">
        <ele>951.3</ele>
        <time>2013-06-02T07:43:57Z</time>
      </trkpt>
      <trkpt lat="-21.20666" lon="55.40794">
        <ele>950.1</ele>
        <time>2013-06-02T07:44:00Z</time>
      </trkpt>
      <trkpt lat="-21.20673" lon="55.4079">
        <ele>949.3</ele>
        <time>2013-06-02T07:44:03Z</time>
      </trkpt>
      <trkpt lat="-21.2068" lon="55.40787">
        <ele>948</ele>
        <time>2013-06-02T07:44:06Z</time>
      </trkpt>
      <trkpt lat="-21.20688" lon="55.40783">
        <ele>947</ele>
        <time>2013-06-02T07:44:09Z</time>
      </trkpt>
      <trkpt lat="-21.20695" lon="55.4078">
        <ele>946</ele>
        <time>2013-06-02T07:44:12Z</time>
      </trkpt>
      <trkpt lat="-21.20702" lon="55.40778">
        <ele>944.9</ele>
        <time>2013-06-02T07:44:15Z</time>
      </trkpt>
      <trkpt lat="-21.2071" lon="55.40773">
        <ele>943.9</ele>
        <time>2013-06-02T07:44:18Z</time>
      </trkpt>
      <trkpt lat="-21.20716" lon="55.40768">
        <ele>943.8</ele>
        <time>2013-06-02T07:44:21Z</time>
      </trkpt>
      <trkpt lat="-21.20722" lon="55.40763">
        <ele>943.1</ele>
        <time>2013-06-02T07:44:24Z</time>
      </trkpt>
      <trkpt lat="-21.20728" lon="55.40759">
        <ele>942.7</ele>
        <time>2013-06-02T07:44:27Z</time>
      </trkpt>
      <trkpt lat="-21.2073" lon="55.40757">
        <ele>942.8</ele>
        <time>2013-06-02T07:44:28Z</time>
      </trkpt>
      <trkpt lat="-21.2074" lon="55.40747">
        <ele>941.9</ele>
        <time>2013-06-02T07:44:34Z</time>
      </trkpt>
      <trkpt lat="-21.20746" lon="55.40741">
        <ele>940.8</ele>
        <time>2013-06-02T07:44:38Z</time>
      </trkpt>
      <trkpt lat="-21.20742" lon="55.40733">
        <ele>940.6</ele>
        <time>2013-06-02T07:44:45Z</time>
      </trkpt>
      <trkpt lat="-21.20736" lon="55.40728">
        <ele>939.9</ele>
        <time>2013-06-02T07:44:49Z</time>
      </trkpt>
      <trkpt lat="-21.2073" lon="55.40723">
        <ele>940</ele>
        <time>2013-06-02T07:44:53Z</time>
      </trkpt>
      <trkpt lat="-21.20724" lon="55.40718">
        <ele>939.8</ele>
        <time>2013-06-02T07:44:58Z</time>
      </trkpt>
      <trkpt lat="-21.20716" lon="55.40714">
        <ele>941.5</ele>
        <time>2013-06-02T07:45:08Z</time>
      </trkpt>
      <trkpt lat="-21.20711" lon="55.40706">
        <ele>942</ele>
        <time>2013-06-02T07:45:18Z</time>
      </trkpt>
      <trkpt lat="-21.20703" lon="55.40701">
        <ele>939.2</ele>
        <time>2013-06-02T07:45:28Z</time>
      </trkpt>
      <trkpt lat="-21.20703" lon="55.40701">
        <ele>938.9</ele>
        <time>2013-06-02T07:45:29Z</time>
      </trkpt>
      <trkpt lat="-21.20689" lon="55.40691">
        <ele>929.5</ele>
        <time>2013-06-02T07:46:06Z</time>
      </trkpt>
      <trkpt lat="-21.20683" lon="55.40684">
        <ele>928.3</ele>
        <time>2013-06-02T07:46:16Z</time>
      </trkpt>
      <trkpt lat="-21.2068" lon="55.40675">
        <ele>926.3</ele>
        <time>2013-06-02T07:46:25Z</time>
      </trkpt>
      <trkpt lat="-21.20683" lon="55.40667">
        <ele>924.9</ele>
        <time>2013-06-02T07:46:35Z</time>
      </trkpt>
      <trkpt lat="-21.20684" lon="55.40666">
        <ele>924.5</ele>
        <time>2013-06-02T07:46:36Z</time>
      </trkpt>
      <trkpt lat="-21.20695" lon="55.40654">
        <ele>922.1</ele>
        <time>2013-06-02T07:46:48Z</time>
      </trkpt>
      <trkpt lat="-21.20702" lon="55.40649">
        <ele>921.5</ele>
        <time>2013-06-02T07:46:53Z</time>
      </trkpt>
      <trkpt lat="-21.2071" lon="55.40645">
        <ele>919</ele>
        <time>2013-06-02T07:47:01Z</time>
      </trkpt>
      <trkpt lat="-21.20715" lon="55.40638">
        <ele>918.2</ele>
        <time>2013-06-02T07:47:08Z</time>
      </trkpt>
      <trkpt lat="-21.20719" lon="55.40629">
        <ele>918.7</ele>
        <time>2013-06-02T07:47:14Z</time>
      </trkpt>
      <trkpt lat="-21.20722" lon="55.40621">
        <ele>918.6</ele>
        <time>2013-06-02T07:47:19Z</time>
      </trkpt>
      <trkpt lat="-21.20725" lon="55.40613">
        <ele>919.2</ele>
        <time>2013-06-02T07:47:23Z</time>
      </trkpt>
      <trkpt lat="-21.20728" lon="55.40606">
        <ele>918.8</ele>
        <time>2013-06-02T07:47:26Z</time>
      </trkpt>
      <trkpt lat="-21.20732" lon="55.406">
        <ele>918.8</ele>
        <time>2013-06-02T07:47:29Z</time>
      </trkpt>
      <trkpt lat="-21.20735" lon="55.40592">
        <ele>919.4</ele>
        <time>2013-06-02T07:47:33Z</time>
      </trkpt>
      <trkpt lat="-21.20739" lon="55.40583">
        <ele>919.2</ele>
        <time>2013-06-02T07:47:37Z</time>
      </trkpt>
      <trkpt lat="-21.2074" lon="55.40582">
        <ele>919.2</ele>
        <time>2013-06-02T07:47:38Z</time>
      </trkpt>
      <trkpt lat="-21.20746" lon="55.4057">
        <ele>920.9</ele>
        <time>2013-06-02T07:47:45Z</time>
      </trkpt>
      <trkpt lat="-21.20751" lon="55.40562">
        <ele>921.6</ele>
        <time>2013-06-02T07:47:49Z</time>
      </trkpt>
      <trkpt lat="-21.20754" lon="55.40554">
        <ele>921.6</ele>
        <time>2013-06-02T07:47:53Z</time>
      </trkpt>
      <trkpt lat="-21.20759" lon="55.40548">
        <ele>921.5</ele>
        <time>2013-06-02T07:47:57Z</time>
      </trkpt>
      <trkpt lat="-21.20765" lon="55.40544">
        <ele>922.6</ele>
        <time>2013-06-02T07:48:02Z</time>
      </trkpt>
      <trkpt lat="-21.20774" lon="55.4054">
        <ele>923.3</ele>
        <time>2013-06-02T07:48:08Z</time>
      </trkpt>
      <trkpt lat="-21.20781" lon="55.40537">
        <ele>922.7</ele>
        <time>2013-06-02T07:48:12Z</time>
      </trkpt>
      <trkpt lat="-21.20789" lon="55.40535">
        <ele>923.5</ele>
        <time>2013-06-02T07:48:16Z</time>
      </trkpt>
      <trkpt lat="-21.20797" lon="55.40531">
        <ele>922.9</ele>
        <time>2013-06-02T07:48:20Z</time>
      </trkpt>
      <trkpt lat="-21.20802" lon="55.40526">
        <ele>922.7</ele>
        <time>2013-06-02T07:48:23Z</time>
      </trkpt>
      <trkpt lat="-21.20807" lon="55.40519">
        <ele>923.2</ele>
        <time>2013-06-02T07:48:27Z</time>
      </trkpt>
      <trkpt lat="-21.20808" lon="55.40511">
        <ele>923.2</ele>
        <time>2013-06-02T07:48:31Z</time>
      </trkpt>
      <trkpt lat="-21.20804" lon="55.40503">
        <ele>922.7</ele>
        <time>2013-06-02T07:48:35Z</time>
      </trkpt>
      <trkpt lat="-21.20799" lon="55.40496">
        <ele>922.6</ele>
        <time>2013-06-02T07:48:39Z</time>
      </trkpt>
      <trkpt lat="-21.20798" lon="55.40493">
        <ele>922.6</ele>
        <time>2013-06-02T07:48:40Z</time>
      </trkpt>
      <trkpt lat="-21.20795" lon="55.40479">
        <ele>922.8</ele>
        <time>2013-06-02T07:48:46Z</time>
      </trkpt>
      <trkpt lat="-21.20793" lon="55.40472">
        <ele>922.6</ele>
        <time>2013-06-02T07:48:49Z</time>
      </trkpt>
      <trkpt lat="-21.2079" lon="55.40463">
        <ele>922.4</ele>
        <time>2013-06-02T07:48:53Z</time>
      </trkpt>
      <trkpt lat="-21.20786" lon="55.40455">
        <ele>922.2</ele>
        <time>2013-06-02T07:48:57Z</time>
      </trkpt>
      <trkpt lat="-21.20783" lon="55.40447">
        <ele>921.4</ele>
        <time>2013-06-02T07:49:01Z</time>
      </trkpt>
      <trkpt lat="-21.2078" lon="55.4044">
        <ele>922.4</ele>
        <time>2013-06-02T07:49:04Z</time>
      </trkpt>
      <trkpt lat="-21.20777" lon="55.40434">
        <ele>922.3</ele>
        <time>2013-06-02T07:49:07Z</time>
      </trkpt>
      <trkpt lat="-21.20773" lon="55.40426">
        <ele>921.8</ele>
        <time>2013-06-02T07:49:11Z</time>
      </trkpt>
      <trkpt lat="-21.20771" lon="55.40417">
        <ele>922.1</ele>
        <time>2013-06-02T07:49:15Z</time>
      </trkpt>
      <trkpt lat="-21.20769" lon="55.40409">
        <ele>923.1</ele>
        <time>2013-06-02T07:49:19Z</time>
      </trkpt>
      <trkpt lat="-21.20767" lon="55.40401">
        <ele>923.5</ele>
        <time>2013-06-02T07:49:23Z</time>
      </trkpt>
      <trkpt lat="-21.20765" lon="55.40394">
        <ele>924.1</ele>
        <time>2013-06-02T07:49:27Z</time>
      </trkpt>
      <trkpt lat="-21.20763" lon="55.40386">
        <ele>924.2</ele>
        <time>2013-06-02T07:49:31Z</time>
      </trkpt>
      <trkpt lat="-21.20763" lon="55.40378">
        <ele>924.2</ele>
        <time>2013-06-02T07:49:35Z</time>
      </trkpt>
      <trkpt lat="-21.20764" lon="55.40369">
        <ele>924.8</ele>
        <time>2013-06-02T07:49:41Z</time>
      </trkpt>
      <trkpt lat="-21.20763" lon="55.40368">
        <ele>925</ele>
        <time>2013-06-02T07:49:42Z</time>
      </trkpt>
      <trkpt lat="-21.20751" lon="55.40371">
        <ele>927.8</ele>
        <time>2013-06-02T07:49:57Z</time>
      </trkpt>
      <trkpt lat="-21.20747" lon="55.40378">
        <ele>927.6</ele>
        <time>2013-06-02T07:50:01Z</time>
      </trkpt>
      <trkpt lat="-21.20744" lon="55.40386">
        <ele>927</ele>
        <time>2013-06-02T07:50:05Z</time>
      </trkpt>
      <trkpt lat="-21.20739" lon="55.40393">
        <ele>927.6</ele>
        <time>2013-06-02T07:50:09Z</time>
      </trkpt>
      <trkpt lat="-21.20736" lon="55.40402">
        <ele>928.3</ele>
        <time>2013-06-02T07:50:13Z</time>
      </trkpt>
      <trkpt lat="-21.20732" lon="55.40409">
        <ele>927</ele>
        <time>2013-06-02T07:50:17Z</time>
      </trkpt>
      <trkpt lat="-21.20727" lon="55.40416">
        <ele>927.4</ele>
        <time>2013-06-02T07:50:21Z</time>
      </trkpt>
      <trkpt lat="-21.20722" lon="55.40423">
        <ele>928</ele>
        <time>2013-06-02T07:50:25Z</time>
      </trkpt>
      <trkpt lat="-21.20718" lon="55.40431">
        <ele>928.2</ele>
        <time>2013-06-02T07:50:29Z</time>
      </trkpt>
      <trkpt lat="-21.20715" lon="55.40439">
        <ele>928.3</ele>
        <time>2013-06-02T07:50:33Z</time>
      </trkpt>
      <trkpt lat="-21.20712" lon="55.40446">
        <ele>927.9</ele>
        <time>2013-06-02T07:50:37Z</time>
      </trkpt>
      <trkpt lat="-21.20706" lon="55.40453">
        <ele>928</ele>
        <time>2013-06-02T07:50:42Z</time>
      </trkpt>
      <trkpt lat="-21.20705" lon="55.40454">
        <ele>927.8</ele>
        <time>2013-06-02T07:50:43Z</time>
      </trkpt>
      <trkpt lat="-21.20695" lon="55.40465">
        <ele>929.6</ele>
        <time>2013-06-02T07:50:52Z</time>
      </trkpt>
      <trkpt lat="-21.20688" lon="55.4047">
        <ele>929.7</ele>
        <time>2013-06-02T07:50:57Z</time>
      </trkpt>
      <trkpt lat="-21.20682" lon="55.40476">
        <ele>930.9</ele>
        <time>2013-06-02T07:51:02Z</time>
      </trkpt>
      <trkpt lat="-21.20676" lon="55.40482">
        <ele>931.9</ele>
        <time>2013-06-02T07:51:07Z</time>
      </trkpt>
      <trkpt lat="-21.20671" lon="55.40488">
        <ele>932.4</ele>
        <time>2013-06-02T07:51:12Z</time>
      </trkpt>
      <trkpt lat="-21.20665" lon="55.40495">
        <ele>932.6</ele>
        <time>2013-06-02T07:51:18Z</time>
      </trkpt>
      <trkpt lat="-21.20658" lon="55.405">
        <ele>933.3</ele>
        <time>2013-06-02T07:51:23Z</time>
      </trkpt>
      <trkpt lat="-21.20652" lon="55.40506">
        <ele>933.6</ele>
        <time>2013-06-02T07:51:30Z</time>
      </trkpt>
      <trkpt lat="-21.20644" lon="55.40511">
        <ele>934.7</ele>
        <time>2013-06-02T07:51:37Z</time>
      </trkpt>
      <trkpt lat="-21.20637" lon="55.40515">
        <ele>936</ele>
        <time>2013-06-02T07:51:43Z</time>
      </trkpt>
      <trkpt lat="-21.20636" lon="55.40515">
        <ele>935.9</ele>
        <time>2013-06-02T07:51:44Z</time>
      </trkpt>
      <trkpt lat="-21.20624" lon="55.40524">
        <ele>937</ele>
        <time>2013-06-02T07:51:55Z</time>
      </trkpt>
      <trkpt lat="-21.20617" lon="55.4053">
        <ele>938.1</ele>
        <time>2013-06-02T07:52:01Z</time>
      </trkpt>
      <trkpt lat="-21.20609" lon="55.40535">
        <ele>938.7</ele>
        <time>2013-06-02T07:52:08Z</time>
      </trkpt>
      <trkpt lat="-21.20602" lon="55.40539">
        <ele>940.3</ele>
        <time>2013-06-02T07:52:13Z</time>
      </trkpt>
      <trkpt lat="-21.20595" lon="55.40544">
        <ele>940.9</ele>
        <time>2013-06-02T07:52:18Z</time>
      </trkpt>
      <trkpt lat="-21.20589" lon="55.40547">
        <ele>940.9</ele>
        <time>2013-06-02T07:52:22Z</time>
      </trkpt>
      <trkpt lat="-21.20582" lon="55.4055">
        <ele>940.7</ele>
        <time>2013-06-02T07:52:25Z</time>
      </trkpt>
      <trkpt lat="-21.20577" lon="55.40554">
        <ele>941.5</ele>
        <time>2013-06-02T07:52:28Z</time>
      </trkpt>
      <trkpt lat="-21.2057" lon="55.40559">
        <ele>942</ele>
        <time>2013-06-02T07:52:32Z</time>
      </trkpt>
      <trkpt lat="-21.20564" lon="55.40563">
        <ele>943</ele>
        <time>2013-06-02T07:52:36Z</time>
      </trkpt>
      <trkpt lat="-21.20556" lon="55.40566">
        <ele>943.6</ele>
        <time>2013-06-02T07:52:40Z</time>
      </trkpt>
      <trkpt lat="-21.20548" lon="55.40569">
        <ele>944.7</ele>
        <time>2013-06-02T07:52:44Z</time>
      </trkpt>
      <trkpt lat="-21.20546" lon="55.40569">
        <ele>945</ele>
        <time>2013-06-02T07:52:45Z</time>
      </trkpt>
      <trkpt lat="-21.20533" lon="55.40572">
        <ele>946.2</ele>
        <time>2013-06-02T07:52:53Z</time>
      </trkpt>
      <trkpt lat="-21.20525" lon="55.40576">
        <ele>946.3</ele>
        <time>2013-06-02T07:53:00Z</time>
      </trkpt>
      <trkpt lat="-21.20517" lon="55.40579">
        <ele>947.2</ele>
        <time>2013-06-02T07:53:07Z</time>
      </trkpt>
      <trkpt lat="-21.20508" lon="55.40581">
        <ele>948.7</ele>
        <time>2013-06-02T07:53:13Z</time>
      </trkpt>
      <trkpt lat="-21.205" lon="55.40583">
        <ele>948.4</ele>
        <time>2013-06-02T07:53:18Z</time>
      </trkpt>
      <trkpt lat="-21.20492" lon="55.40584">
        <ele>950.2</ele>
        <time>2013-06-02T07:53:24Z</time>
      </trkpt>
      <trkpt lat="-21.20485" lon="55.40589">
        <ele>950.1</ele>
        <time>2013-06-02T07:53:28Z</time>
      </trkpt>
      <trkpt lat="-21.20477" lon="55.40591">
        <ele>951.3</ele>
        <time>2013-06-02T07:53:35Z</time>
      </trkpt>
      <trkpt lat="-21.2047" lon="55.40594">
        <ele>951.9</ele>
        <time>2013-06-02T07:53:42Z</time>
      </trkpt>
      <trkpt lat="-21.20461" lon="55.40597">
        <ele>952.3</ele>
        <time>2013-06-02T07:53:47Z</time>
      </trkpt>
      <trkpt lat="-21.2046" lon="55.40597">
        <ele>952.5</ele>
        <time>2013-06-02T07:53:48Z</time>
      </trkpt>
      <trkpt lat="-21.20447" lon="55.40604">
        <ele>954.1</ele>
        <time>2013-06-02T07:53:57Z</time>
      </trkpt>
      <trkpt lat="-21.20439" lon="55.40608">
        <ele>954.1</ele>
        <time>2013-06-02T07:54:03Z</time>
      </trkpt>
      <trkpt lat="-21.20431" lon="55.40612">
        <ele>954.6</ele>
        <time>2013-06-02T07:54:08Z</time>
      </trkpt>
      <trkpt lat="-21.20424" lon="55.40617">
        <ele>954.9</ele>
        <time>2013-06-02T07:54:13Z</time>
      </trkpt>
      <trkpt lat="-21.20418" lon="55.40623">
        <ele>957</ele>
        <time>2013-06-02T07:54:18Z</time>
      </trkpt>
      <trkpt lat="-21.20412" lon="55.40629">
        <ele>957.6</ele>
        <time>2013-06-02T07:54:24Z</time>
      </trkpt>
      <trkpt lat="-21.20405" lon="55.40635">
        <ele>958.6</ele>
        <time>2013-06-02T07:54:29Z</time>
      </trkpt>
      <trkpt lat="-21.20399" lon="55.40641">
        <ele>960.1</ele>
        <time>2013-06-02T07:54:35Z</time>
      </trkpt>
      <trkpt lat="-21.20392" lon="55.40645">
        <ele>960.2</ele>
        <time>2013-06-02T07:54:40Z</time>
      </trkpt>
      <trkpt lat="-21.20385" lon="55.40649">
        <ele>960.5</ele>
        <time>2013-06-02T07:54:45Z</time>
      </trkpt>
      <trkpt lat="-21.20378" lon="55.40655">
        <ele>961.2</ele>
        <time>2013-06-02T07:54:49Z</time>
      </trkpt>
      <trkpt lat="-21.20376" lon="55.40656">
        <ele>961.4</ele>
        <time>2013-06-02T07:54:50Z</time>
      </trkpt>
      <trkpt lat="-21.20364" lon="55.40661">
        <ele>962.9</ele>
        <time>2013-06-02T07:54:58Z</time>
      </trkpt>
      <trkpt lat="-21.20357" lon="55.40657">
        <ele>964.3</ele>
        <time>2013-06-02T07:55:04Z</time>
      </trkpt>
      <trkpt lat="-21.20353" lon="55.4065">
        <ele>963.9</ele>
        <time>2013-06-02T07:55:10Z</time>
      </trkpt>
      <trkpt lat="-21.20347" lon="55.40644">
        <ele>965.2</ele>
        <time>2013-06-02T07:55:15Z</time>
      </trkpt>
      <trkpt lat="-21.2034" lon="55.4064">
        <ele>965.5</ele>
        <time>2013-06-02T07:55:20Z</time>
      </trkpt>
      <trkpt lat="-21.20335" lon="55.40634">
        <ele>966.2</ele>
        <time>2013-06-02T07:55:25Z</time>
      </trkpt>
      <trkpt lat="-21.20326" lon="55.4063">
        <ele>966.7</ele>
        <time>2013-06-02T07:55:32Z</time>
      </trkpt>
      <trkpt lat="-21.20318" lon="55.40633">
        <ele>968.1</ele>
        <time>2013-06-02T07:55:38Z</time>
      </trkpt>
      <trkpt lat="-21.20312" lon="55.40637">
        <ele>968.9</ele>
        <time>2013-06-02T07:55:43Z</time>
      </trkpt>
      <trkpt lat="-21.20305" lon="55.40643">
        <ele>969.5</ele>
        <time>2013-06-02T07:55:49Z</time>
      </trkpt>
      <trkpt lat="-21.20298" lon="55.40649">
        <ele>969.7</ele>
        <time>2013-06-02T07:55:54Z</time>
      </trkpt>
      <trkpt lat="-21.20297" lon="55.4065">
        <ele>969.6</ele>
        <time>2013-06-02T07:55:55Z</time>
      </trkpt>
      <trkpt lat="-21.20286" lon="55.40662">
        <ele>972.1</ele>
        <time>2013-06-02T07:56:06Z</time>
      </trkpt>
      <trkpt lat="-21.20279" lon="55.40667">
        <ele>972.6</ele>
        <time>2013-06-02T07:56:12Z</time>
      </trkpt>
      <trkpt lat="-21.20272" lon="55.40673">
        <ele>972.4</ele>
        <time>2013-06-02T07:56:18Z</time>
      </trkpt>
      <trkpt lat="-21.20266" lon="55.40678">
        <ele>973.5</ele>
        <time>2013-06-02T07:56:23Z</time>
      </trkpt>
      <trkpt lat="-21.20259" lon="55.40683">
        <ele>975</ele>
        <time>2013-06-02T07:56:28Z</time>
      </trkpt>
      <trkpt lat="-21.20251" lon="55.40688">
        <ele>976.3</ele>
        <time>2013-06-02T07:56:34Z</time>
      </trkpt>
      <trkpt lat="-21.20245" lon="55.40692">
        <ele>976.3</ele>
        <time>2013-06-02T07:56:38Z</time>
      </trkpt>
      <trkpt lat="-21.20238" lon="55.40696">
        <ele>977.6</ele>
        <time>2013-06-02T07:56:42Z</time>
      </trkpt>
      <trkpt lat="-21.2023" lon="55.407">
        <ele>978.1</ele>
        <time>2013-06-02T07:56:47Z</time>
      </trkpt>
      <trkpt lat="-21.20223" lon="55.40704">
        <ele>978.2</ele>
        <time>2013-06-02T07:56:54Z</time>
      </trkpt>
      <trkpt lat="-21.20216" lon="55.40709">
        <ele>978.9</ele>
        <time>2013-06-02T07:57:00Z</time>
      </trkpt>
      <trkpt lat="-21.20214" lon="55.4071">
        <ele>979.2</ele>
        <time>2013-06-02T07:57:01Z</time>
      </trkpt>
      <trkpt lat="-21.20202" lon="55.40717">
        <ele>979.8</ele>
        <time>2013-06-02T07:57:09Z</time>
      </trkpt>
      <trkpt lat="-21.20194" lon="55.40719">
        <ele>980.1</ele>
        <time>2013-06-02T07:57:15Z</time>
      </trkpt>
      <trkpt lat="-21.20185" lon="55.40722">
        <ele>981.3</ele>
        <time>2013-06-02T07:57:20Z</time>
      </trkpt>
      <trkpt lat="-21.20178" lon="55.40725">
        <ele>982.8</ele>
        <time>2013-06-02T07:57:26Z</time>
      </trkpt>
      <trkpt lat="-21.2017" lon="55.4073">
        <ele>984</ele>
        <time>2013-06-02T07:57:32Z</time>
      </trkpt>
      <trkpt lat="-21.20164" lon="55.40735">
        <ele>984.1</ele>
        <time>2013-06-02T07:57:37Z</time>
      </trkpt>
      <trkpt lat="-21.20159" lon="55.40742">
        <ele>984.9</ele>
        <time>2013-06-02T07:57:42Z</time>
      </trkpt>
      <trkpt lat="-21.20154" lon="55.40749">
        <ele>985.6</ele>
        <time>2013-06-02T07:57:47Z</time>
      </trkpt>
      <trkpt lat="-21.20148" lon="55.40755">
        <ele>986</ele>
        <time>2013-06-02T07:57:53Z</time>
      </trkpt>
      <trkpt lat="-21.20142" lon="55.40761">
        <ele>988</ele>
        <time>2013-06-02T07:57:59Z</time>
      </trkpt>
      <trkpt lat="-21.20134" lon="55.40764">
        <ele>987.4</ele>
        <time>2013-06-02T07:58:05Z</time>
      </trkpt>
      <trkpt lat="-21.20132" lon="55.40766">
        <ele>987.9</ele>
        <time>2013-06-02T07:58:06Z</time>
      </trkpt>
      <trkpt lat="-21.20118" lon="55.4077">
        <ele>989.6</ele>
        <time>2013-06-02T07:58:15Z</time>
      </trkpt>
      <trkpt lat="-21.2011" lon="55.4077">
        <ele>988.9</ele>
        <time>2013-06-02T07:58:18Z</time>
      </trkpt>
      <trkpt lat="-21.20102" lon="55.40771">
        <ele>988.9</ele>
        <time>2013-06-02T07:58:21Z</time>
      </trkpt>
      <trkpt lat="-21.20094" lon="55.40772">
        <ele>988.8</ele>
        <time>2013-06-02T07:58:24Z</time>
      </trkpt>
      <trkpt lat="-21.20085" lon="55.40774">
        <ele>989</ele>
        <time>2013-06-02T07:58:27Z</time>
      </trkpt>
      <trkpt lat="-21.20077" lon="55.40775">
        <ele>989.5</ele>
        <time>2013-06-02T07:58:30Z</time>
      </trkpt>
      <trkpt lat="-21.20069" lon="55.40776">
        <ele>989.3</ele>
        <time>2013-06-02T07:58:33Z</time>
      </trkpt>
      <trkpt lat="-21.20062" lon="55.40776">
        <ele>989.1</ele>
        <time>2013-06-02T07:58:36Z</time>
      </trkpt>
      <trkpt lat="-21.20056" lon="55.40772">
        <ele>988.8</ele>
        <time>2013-06-02T07:58:39Z</time>
      </trkpt>
      <trkpt lat="-21.2005" lon="55.40766">
        <ele>989.1</ele>
        <time>2013-06-02T07:58:42Z</time>
      </trkpt>
      <trkpt lat="-21.20046" lon="55.40759">
        <ele>988.8</ele>
        <time>2013-06-02T07:58:45Z</time>
      </trkpt>
      <trkpt lat="-21.20043" lon="55.40751">
        <ele>989.3</ele>
        <time>2013-06-02T07:58:48Z</time>
      </trkpt>
      <trkpt lat="-21.20042" lon="55.40743">
        <ele>989.4</ele>
        <time>2013-06-02T07:58:51Z</time>
      </trkpt>
      <trkpt lat="-21.20045" lon="55.40736">
        <ele>989.5</ele>
        <time>2013-06-02T07:58:54Z</time>
      </trkpt>
      <trkpt lat="-21.2005" lon="55.4073">
        <ele>990</ele>
        <time>2013-06-02T07:58:57Z</time>
      </trkpt>
      <trkpt lat="-21.20057" lon="55.40726">
        <ele>989.5</ele>
        <time>2013-06-02T07:59:00Z</time>
      </trkpt>
      <trkpt lat="-21.20065" lon="55.40723">
        <ele>989.7</ele>
        <time>2013-06-02T07:59:03Z</time>
      </trkpt>
      <trkpt lat="-21.20073" lon="55.40721">
        <ele>989.4</ele>
        <time>2013-06-02T07:59:06Z</time>
      </trkpt>
      <trkpt lat="-21.20076" lon="55.4072">
        <ele>989.2</ele>
        <time>2013-06-02T07:59:07Z</time>
      </trkpt>
      <trkpt lat="-21.20089" lon="55.40716">
        <ele>990.1</ele>
        <time>2013-06-02T07:59:13Z</time>
      </trkpt>
      <trkpt lat="-21.20098" lon="55.40715">
        <ele>989.3</ele>
        <time>2013-06-02T08:01:29Z</time>
      </trkpt>
      <trkpt lat="-21.20098" lon="55.40715">
        <ele>989.7</ele>
        <time>2013-06-02T08:01:30Z</time>
      </trkpt>
      <trkpt lat="-21.20099" lon="55.40715">
        <ele>990.5</ele>
        <time>2013-06-02T08:02:34Z</time>
      </trkpt>
      <trkpt lat="-21.20099" lon="55.40716">
        <ele>991</ele>
        <time>2013-06-02T08:02:57Z</time>
      </trkpt>
    </trkseg>
  </trk>
</gpx>